<?xml version='1.0' encoding='UTF-8'?><gpx version="1.1" creator="JPX - https://github.com/jenetics/jpx" xmlns="http://www.topografix.com/GPX/1/1"><trk><trkseg><trkpt lat="43.051309" lon="12.330462"><ele>297.0</ele><time>2026-04-26T06:04:45.219Z</time></trkpt><trkpt lat="43.0512221" lon="12.3305882"><ele>297.0</ele><time>2026-04-26T06:05:31.965Z</time></trkpt><trkpt lat="43.0511554" lon="12.3305883"><ele>297.0</ele><time>2026-04-26T06:05:36.957Z</time></trkpt><trkpt lat="43.0511192" lon="12.3305116"><ele>297.0</ele><time>2026-04-26T06:05:44.951Z</time></trkpt><trkpt lat="43.0510722" lon="12.3304526"><ele>297.0</ele><time>2026-04-26T06:07:18.966Z</time></trkpt><trkpt lat="43.0510064" lon="12.3304612"><ele>297.0</ele><time>2026-04-26T06:08:02.959Z</time></trkpt><trkpt lat="43.0510644" lon="12.3304151"><ele>297.0</ele><time>2026-04-26T06:09:42.963Z</time></trkpt><trkpt lat="43.0511582" lon="12.3304583"><ele>297.0</ele><time>2026-04-26T06:18:32.905Z</time></trkpt><trkpt lat="43.0510525" lon="12.330381"><ele>297.0</ele><time>2026-04-26T06:18:54.962Z</time></trkpt><trkpt lat="43.0510804" lon="12.3304651"><ele>297.0</ele><time>2026-04-26T06:19:08.949Z</time></trkpt><trkpt lat="43.0511478" lon="12.330474"><ele>297.0</ele><time>2026-04-26T06:19:29.943Z</time></trkpt><trkpt lat="43.0512188" lon="12.3304022"><ele>297.0</ele><time>2026-04-26T06:19:32.947Z</time></trkpt><trkpt lat="43.0512739" lon="12.330296"><ele>297.0</ele><time>2026-04-26T06:19:34.946Z</time></trkpt><trkpt lat="43.0513373" lon="12.3302139"><ele>297.0</ele><time>2026-04-26T06:19:36.945Z</time></trkpt><trkpt lat="43.0513967" lon="12.3301571"><ele>297.0</ele><time>2026-04-26T06:19:38.948Z</time></trkpt><trkpt lat="43.0514555" lon="12.3302154"><ele>297.0</ele><time>2026-04-26T06:19:41.947Z</time></trkpt><trkpt lat="43.0514832" lon="12.3303065"><ele>297.0</ele><time>2026-04-26T06:19:45.962Z</time></trkpt><trkpt lat="43.0515462" lon="12.3303185"><ele>297.0</ele><time>2026-04-26T06:19:54.946Z</time></trkpt><trkpt lat="43.0515101" lon="12.3302399"><ele>297.0</ele><time>2026-04-26T06:19:57.957Z</time></trkpt><trkpt lat="43.051472" lon="12.330165"><ele>297.0</ele><time>2026-04-26T06:19:59.972Z</time></trkpt><trkpt lat="43.0514571" lon="12.330069"><ele>297.0</ele><time>2026-04-26T06:20:01.953Z</time></trkpt><trkpt lat="43.0514643" lon="12.3299729"><ele>297.0</ele><time>2026-04-26T06:20:03.945Z</time></trkpt><trkpt lat="43.0514804" lon="12.3298813"><ele>297.0</ele><time>2026-04-26T06:20:05.963Z</time></trkpt><trkpt lat="43.0514904" lon="12.3297394"><ele>297.0</ele><time>2026-04-26T06:20:08.965Z</time></trkpt><trkpt lat="43.0514764" lon="12.3296467"><ele>297.0</ele><time>2026-04-26T06:20:10.847Z</time></trkpt><trkpt lat="43.0514491" lon="12.3295493"><ele>296.7142857142857</ele><time>2026-04-26T06:20:12.967Z</time></trkpt><trkpt lat="43.0514368" lon="12.3294556"><ele>296.42857142857144</ele><time>2026-04-26T06:20:14.959Z</time></trkpt><trkpt lat="43.051431" lon="12.3293601"><ele>296.14285714285717</ele><time>2026-04-26T06:20:16.968Z</time></trkpt><trkpt lat="43.0514256" lon="12.3292679"><ele>295.8571428571429</ele><time>2026-04-26T06:20:18.953Z</time></trkpt><trkpt lat="43.051424" lon="12.3291762"><ele>295.57142857142856</ele><time>2026-04-26T06:20:20.95Z</time></trkpt><trkpt lat="43.0514231" lon="12.3290866"><ele>295.28571428571433</ele><time>2026-04-26T06:20:22.948Z</time></trkpt><trkpt lat="43.0514272" lon="12.3289976"><ele>295.0</ele><time>2026-04-26T06:20:24.948Z</time></trkpt><trkpt lat="43.0514334" lon="12.3289086"><ele>295.14285714285717</ele><time>2026-04-26T06:20:26.953Z</time></trkpt><trkpt lat="43.0514464" lon="12.3288241"><ele>295.2857142857143</ele><time>2026-04-26T06:20:28.944Z</time></trkpt><trkpt lat="43.0514661" lon="12.328742"><ele>295.42857142857144</ele><time>2026-04-26T06:20:30.945Z</time></trkpt><trkpt lat="43.0515155" lon="12.3286766"><ele>295.57142857142856</ele><time>2026-04-26T06:20:33.007Z</time></trkpt><trkpt lat="43.0515782" lon="12.3286857"><ele>295.7142857142857</ele><time>2026-04-26T06:20:34.935Z</time></trkpt><trkpt lat="43.0516479" lon="12.3287439"><ele>295.8571428571429</ele><time>2026-04-26T06:20:36.948Z</time></trkpt><trkpt lat="43.051722" lon="12.3287907"><ele>296.0</ele><time>2026-04-26T06:20:38.958Z</time></trkpt><trkpt lat="43.0517972" lon="12.3288232"><ele>296.1666666666667</ele><time>2026-04-26T06:20:40.986Z</time></trkpt><trkpt lat="43.0518666" lon="12.3288387"><ele>296.33333333333337</ele><time>2026-04-26T06:20:42.955Z</time></trkpt><trkpt lat="43.0519387" lon="12.3288607"><ele>296.5</ele><time>2026-04-26T06:20:44.87Z</time></trkpt><trkpt lat="43.0520244" lon="12.3288898"><ele>296.6666666666667</ele><time>2026-04-26T06:20:46.956Z</time></trkpt><trkpt lat="43.0520953" lon="12.3289253"><ele>296.8333333333333</ele><time>2026-04-26T06:20:48.945Z</time></trkpt><trkpt lat="43.0521607" lon="12.3289559"><ele>297.0</ele><time>2026-04-26T06:20:50.979Z</time></trkpt><trkpt lat="43.0522329" lon="12.3289887"><ele>297.0</ele><time>2026-04-26T06:20:53.867Z</time></trkpt><trkpt lat="43.0523087" lon="12.3290269"><ele>297.0</ele><time>2026-04-26T06:20:56.879Z</time></trkpt><trkpt lat="43.0523843" lon="12.3290608"><ele>297.0</ele><time>2026-04-26T06:20:59.971Z</time></trkpt><trkpt lat="43.0524573" lon="12.3290736"><ele>297.0</ele><time>2026-04-26T06:21:02.963Z</time></trkpt><trkpt lat="43.0525327" lon="12.3290694"><ele>297.0</ele><time>2026-04-26T06:21:05.96Z</time></trkpt><trkpt lat="43.0526006" lon="12.3290707"><ele>297.0</ele><time>2026-04-26T06:21:08.971Z</time></trkpt><trkpt lat="43.0526482" lon="12.3291313"><ele>297.0</ele><time>2026-04-26T06:21:11.956Z</time></trkpt><trkpt lat="43.0527168" lon="12.3291508"><ele>296.6666666666667</ele><time>2026-04-26T06:21:14.965Z</time></trkpt><trkpt lat="43.0527814" lon="12.3291827"><ele>296.3333333333333</ele><time>2026-04-26T06:21:17.96Z</time></trkpt><trkpt lat="43.0528542" lon="12.3292031"><ele>296.0</ele><time>2026-04-26T06:21:20.973Z</time></trkpt><trkpt lat="43.0529254" lon="12.3292387"><ele>295.66666666666663</ele><time>2026-04-26T06:21:22.967Z</time></trkpt><trkpt lat="43.0530129" lon="12.3292755"><ele>295.3333333333333</ele><time>2026-04-26T06:21:25.075Z</time></trkpt><trkpt lat="43.053128" lon="12.3292579"><ele>295.0</ele><time>2026-04-26T06:21:27.642Z</time></trkpt><trkpt lat="43.0532174" lon="12.3291693"><ele>295.0</ele><time>2026-04-26T06:21:29.967Z</time></trkpt><trkpt lat="43.0532646" lon="12.3290508"><ele>295.0</ele><time>2026-04-26T06:21:31.963Z</time></trkpt><trkpt lat="43.0532868" lon="12.3289062"><ele>295.0</ele><time>2026-04-26T06:21:33.96Z</time></trkpt><trkpt lat="43.0533087" lon="12.3287422"><ele>295.0</ele><time>2026-04-26T06:21:35.959Z</time></trkpt><trkpt lat="43.0533278" lon="12.3285993"><ele>295.0</ele><time>2026-04-26T06:21:37.972Z</time></trkpt><trkpt lat="43.0533554" lon="12.3284604"><ele>294.0</ele><time>2026-04-26T06:21:39.966Z</time></trkpt><trkpt lat="43.0533745" lon="12.3283227"><ele>293.0</ele><time>2026-04-26T06:21:42.054Z</time></trkpt><trkpt lat="43.0533976" lon="12.3281885"><ele>292.0</ele><time>2026-04-26T06:21:43.971Z</time></trkpt><trkpt lat="43.0534342" lon="12.3280525"><ele>291.0</ele><time>2026-04-26T06:21:45.968Z</time></trkpt><trkpt lat="43.0535055" lon="12.3279796"><ele>290.0</ele><time>2026-04-26T06:21:47.968Z</time></trkpt><trkpt lat="43.0536184" lon="12.3279913"><ele>290.0</ele><time>2026-04-26T06:21:49.961Z</time></trkpt><trkpt lat="43.0537314" lon="12.3280386"><ele>290.0</ele><time>2026-04-26T06:21:51.973Z</time></trkpt><trkpt lat="43.0537962" lon="12.3280668"><ele>290.0</ele><time>2026-04-26T06:21:53.066Z</time></trkpt><trkpt lat="43.053908" lon="12.3281341"><ele>290.0</ele><time>2026-04-26T06:21:54.972Z</time></trkpt><trkpt lat="43.0540115" lon="12.3281862"><ele>290.0</ele><time>2026-04-26T06:21:56.96Z</time></trkpt><trkpt lat="43.0541092" lon="12.3282253"><ele>289.4</ele><time>2026-04-26T06:21:58.961Z</time></trkpt><trkpt lat="43.0542107" lon="12.3282724"><ele>288.8</ele><time>2026-04-26T06:22:00.96Z</time></trkpt><trkpt lat="43.0543058" lon="12.3283191"><ele>288.2</ele><time>2026-04-26T06:22:02.965Z</time></trkpt><trkpt lat="43.0543895" lon="12.3283675"><ele>287.6</ele><time>2026-04-26T06:22:04.972Z</time></trkpt><trkpt lat="43.0544772" lon="12.3284024"><ele>287.0</ele><time>2026-04-26T06:22:06.955Z</time></trkpt><trkpt lat="43.0545768" lon="12.328447"><ele>287.0</ele><time>2026-04-26T06:22:08.947Z</time></trkpt><trkpt lat="43.0546734" lon="12.3285013"><ele>287.0</ele><time>2026-04-26T06:22:10.952Z</time></trkpt><trkpt lat="43.0547781" lon="12.3285462"><ele>287.0</ele><time>2026-04-26T06:22:12.965Z</time></trkpt><trkpt lat="43.054876" lon="12.3286032"><ele>287.0</ele><time>2026-04-26T06:22:14.952Z</time></trkpt><trkpt lat="43.0549627" lon="12.3286598"><ele>287.0</ele><time>2026-04-26T06:22:16.957Z</time></trkpt><trkpt lat="43.0550731" lon="12.3286822"><ele>286.2</ele><time>2026-04-26T06:22:18.964Z</time></trkpt><trkpt lat="43.0551916" lon="12.3286574"><ele>285.4</ele><time>2026-04-26T06:22:20.968Z</time></trkpt><trkpt lat="43.0552934" lon="12.3285941"><ele>284.6</ele><time>2026-04-26T06:22:22.963Z</time></trkpt><trkpt lat="43.0553869" lon="12.3285299"><ele>283.8</ele><time>2026-04-26T06:22:24.969Z</time></trkpt><trkpt lat="43.0554409" lon="12.3284757"><ele>283.0</ele><time>2026-04-26T06:22:25.95Z</time></trkpt><trkpt lat="43.0555271" lon="12.3283705"><ele>283.0</ele><time>2026-04-26T06:22:27.963Z</time></trkpt><trkpt lat="43.055611" lon="12.3282588"><ele>283.0</ele><time>2026-04-26T06:22:29.971Z</time></trkpt><trkpt lat="43.0557109" lon="12.3281743"><ele>283.0</ele><time>2026-04-26T06:22:32.066Z</time></trkpt><trkpt lat="43.0557665" lon="12.3281301"><ele>283.0</ele><time>2026-04-26T06:22:32.978Z</time></trkpt><trkpt lat="43.0558234" lon="12.3280754"><ele>283.0</ele><time>2026-04-26T06:22:33.969Z</time></trkpt><trkpt lat="43.0558841" lon="12.3280205"><ele>283.0</ele><time>2026-04-26T06:22:34.966Z</time></trkpt><trkpt lat="43.0559404" lon="12.3279671"><ele>282.42857142857144</ele><time>2026-04-26T06:22:35.957Z</time></trkpt><trkpt lat="43.056003" lon="12.3279151"><ele>281.8571428571429</ele><time>2026-04-26T06:22:36.971Z</time></trkpt><trkpt lat="43.0560605" lon="12.3278654"><ele>281.2857142857143</ele><time>2026-04-26T06:22:37.959Z</time></trkpt><trkpt lat="43.0561217" lon="12.327804"><ele>280.7142857142857</ele><time>2026-04-26T06:22:38.984Z</time></trkpt><trkpt lat="43.0561791" lon="12.3277509"><ele>280.1428571428571</ele><time>2026-04-26T06:22:39.974Z</time></trkpt><trkpt lat="43.0562375" lon="12.3276912"><ele>279.57142857142856</ele><time>2026-04-26T06:22:40.975Z</time></trkpt><trkpt lat="43.056295" lon="12.3276336"><ele>279.0</ele><time>2026-04-26T06:22:41.965Z</time></trkpt><trkpt lat="43.0563582" lon="12.3275767"><ele>278.99999999999994</ele><time>2026-04-26T06:22:42.963Z</time></trkpt><trkpt lat="43.0564172" lon="12.3275223"><ele>279.0</ele><time>2026-04-26T06:22:43.978Z</time></trkpt><trkpt lat="43.0564799" lon="12.3274707"><ele>279.0</ele><time>2026-04-26T06:22:44.975Z</time></trkpt><trkpt lat="43.0565453" lon="12.3274194"><ele>279.0</ele><time>2026-04-26T06:22:45.968Z</time></trkpt><trkpt lat="43.0566099" lon="12.3273676"><ele>279.0</ele><time>2026-04-26T06:22:46.961Z</time></trkpt><trkpt lat="43.0566739" lon="12.3273107"><ele>278.99999999999994</ele><time>2026-04-26T06:22:47.965Z</time></trkpt><trkpt lat="43.056731" lon="12.3272513"><ele>279.0</ele><time>2026-04-26T06:22:48.96Z</time></trkpt><trkpt lat="43.0567961" lon="12.3271948"><ele>277.8333333333333</ele><time>2026-04-26T06:22:49.961Z</time></trkpt><trkpt lat="43.056863" lon="12.3271416"><ele>276.6666666666667</ele><time>2026-04-26T06:22:50.943Z</time></trkpt><trkpt lat="43.0569224" lon="12.327098"><ele>275.5</ele><time>2026-04-26T06:22:51.947Z</time></trkpt><trkpt lat="43.0569891" lon="12.32704"><ele>274.33333333333337</ele><time>2026-04-26T06:22:52.957Z</time></trkpt><trkpt lat="43.0570654" lon="12.3269897"><ele>273.1666666666667</ele><time>2026-04-26T06:22:53.979Z</time></trkpt><trkpt lat="43.0571491" lon="12.3269421"><ele>272.0</ele><time>2026-04-26T06:22:55.077Z</time></trkpt><trkpt lat="43.0572312" lon="12.3268881"><ele>272.0</ele><time>2026-04-26T06:22:55.963Z</time></trkpt><trkpt lat="43.0573105" lon="12.3268336"><ele>272.0</ele><time>2026-04-26T06:22:56.966Z</time></trkpt><trkpt lat="43.0573856" lon="12.32678"><ele>272.0</ele><time>2026-04-26T06:22:57.963Z</time></trkpt><trkpt lat="43.0574591" lon="12.3267322"><ele>272.0</ele><time>2026-04-26T06:22:58.959Z</time></trkpt><trkpt lat="43.0575425" lon="12.3266892"><ele>272.0</ele><time>2026-04-26T06:22:59.961Z</time></trkpt><trkpt lat="43.0576222" lon="12.3266669"><ele>272.0</ele><time>2026-04-26T06:23:00.967Z</time></trkpt><trkpt lat="43.057705" lon="12.3266421"><ele>270.6</ele><time>2026-04-26T06:23:01.96Z</time></trkpt><trkpt lat="43.0578001" lon="12.3266002"><ele>269.2</ele><time>2026-04-26T06:23:02.958Z</time></trkpt><trkpt lat="43.0578979" lon="12.3265751"><ele>267.8</ele><time>2026-04-26T06:23:03.96Z</time></trkpt><trkpt lat="43.0579898" lon="12.3265666"><ele>266.4</ele><time>2026-04-26T06:23:04.97Z</time></trkpt><trkpt lat="43.0580728" lon="12.3265383"><ele>265.0</ele><time>2026-04-26T06:23:05.963Z</time></trkpt><trkpt lat="43.0581508" lon="12.3264829"><ele>265.0</ele><time>2026-04-26T06:23:06.966Z</time></trkpt><trkpt lat="43.0582328" lon="12.3264258"><ele>265.0</ele><time>2026-04-26T06:23:07.956Z</time></trkpt><trkpt lat="43.0583154" lon="12.3263559"><ele>265.0</ele><time>2026-04-26T06:23:08.943Z</time></trkpt><trkpt lat="43.0583857" lon="12.3262877"><ele>265.0</ele><time>2026-04-26T06:23:09.949Z</time></trkpt><trkpt lat="43.0584728" lon="12.3262124"><ele>265.0</ele><time>2026-04-26T06:23:10.971Z</time></trkpt><trkpt lat="43.0585586" lon="12.3261369"><ele>262.6</ele><time>2026-04-26T06:23:11.96Z</time></trkpt><trkpt lat="43.05864" lon="12.3260593"><ele>260.2</ele><time>2026-04-26T06:23:12.963Z</time></trkpt><trkpt lat="43.0587202" lon="12.3259868"><ele>257.8</ele><time>2026-04-26T06:23:13.965Z</time></trkpt><trkpt lat="43.0588042" lon="12.3259146"><ele>255.4</ele><time>2026-04-26T06:23:14.969Z</time></trkpt><trkpt lat="43.0588823" lon="12.3258402"><ele>253.0</ele><time>2026-04-26T06:23:15.969Z</time></trkpt><trkpt lat="43.0589621" lon="12.3257719"><ele>252.99999999999997</ele><time>2026-04-26T06:23:16.967Z</time></trkpt><trkpt lat="43.0590404" lon="12.3256977"><ele>253.0</ele><time>2026-04-26T06:23:17.96Z</time></trkpt><trkpt lat="43.0591218" lon="12.3256255"><ele>253.0</ele><time>2026-04-26T06:23:18.979Z</time></trkpt><trkpt lat="43.0591913" lon="12.3255595"><ele>253.0</ele><time>2026-04-26T06:23:19.967Z</time></trkpt><trkpt lat="43.0592566" lon="12.3255035"><ele>252.99999999999997</ele><time>2026-04-26T06:23:20.96Z</time></trkpt><trkpt lat="43.0593165" lon="12.3254593"><ele>253.0</ele><time>2026-04-26T06:23:21.963Z</time></trkpt><trkpt lat="43.0594312" lon="12.3254747"><ele>251.99999999999997</ele><time>2026-04-26T06:23:23.97Z</time></trkpt><trkpt lat="43.0594848" lon="12.3255291"><ele>251.0</ele><time>2026-04-26T06:23:24.964Z</time></trkpt><trkpt lat="43.0595384" lon="12.3255819"><ele>250.0</ele><time>2026-04-26T06:23:25.963Z</time></trkpt><trkpt lat="43.0595867" lon="12.3256434"><ele>249.0</ele><time>2026-04-26T06:23:26.956Z</time></trkpt><trkpt lat="43.0596808" lon="12.3257671"><ele>247.99999999999997</ele><time>2026-04-26T06:23:28.963Z</time></trkpt><trkpt lat="43.059728" lon="12.3258252"><ele>247.0</ele><time>2026-04-26T06:23:29.963Z</time></trkpt><trkpt lat="43.0597915" lon="12.3258718"><ele>246.99999999999997</ele><time>2026-04-26T06:23:30.961Z</time></trkpt><trkpt lat="43.0598646" lon="12.3259026"><ele>247.0</ele><time>2026-04-26T06:23:31.964Z</time></trkpt><trkpt lat="43.0599425" lon="12.3259277"><ele>247.0</ele><time>2026-04-26T06:23:32.961Z</time></trkpt><trkpt lat="43.0600182" lon="12.3259576"><ele>247.0</ele><time>2026-04-26T06:23:33.961Z</time></trkpt><trkpt lat="43.0600936" lon="12.3259876"><ele>246.99999999999997</ele><time>2026-04-26T06:23:34.961Z</time></trkpt><trkpt lat="43.0601611" lon="12.3260187"><ele>247.0</ele><time>2026-04-26T06:23:35.965Z</time></trkpt><trkpt lat="43.0602321" lon="12.3260535"><ele>246.16666666666666</ele><time>2026-04-26T06:23:36.971Z</time></trkpt><trkpt lat="43.0603023" lon="12.3260946"><ele>245.33333333333331</ele><time>2026-04-26T06:23:37.966Z</time></trkpt><trkpt lat="43.0603687" lon="12.3261325"><ele>244.5</ele><time>2026-04-26T06:23:38.952Z</time></trkpt><trkpt lat="43.0604347" lon="12.3261644"><ele>243.66666666666669</ele><time>2026-04-26T06:23:39.96Z</time></trkpt><trkpt lat="43.0605407" lon="12.3262193"><ele>242.83333333333334</ele><time>2026-04-26T06:23:41.958Z</time></trkpt><trkpt lat="43.0606425" lon="12.3262524"><ele>242.0</ele><time>2026-04-26T06:23:43.964Z</time></trkpt><trkpt lat="43.0607242" lon="12.3262977"><ele>242.00000000000003</ele><time>2026-04-26T06:23:45.963Z</time></trkpt><trkpt lat="43.0608084" lon="12.3263325"><ele>242.0</ele><time>2026-04-26T06:23:47.969Z</time></trkpt><trkpt lat="43.0608788" lon="12.3263554"><ele>242.0</ele><time>2026-04-26T06:23:49.969Z</time></trkpt><trkpt lat="43.0609606" lon="12.3263768"><ele>242.0</ele><time>2026-04-26T06:23:51.962Z</time></trkpt><trkpt lat="43.0610647" lon="12.3263976"><ele>242.00000000000003</ele><time>2026-04-26T06:23:54.986Z</time></trkpt><trkpt lat="43.0610908" lon="12.3264777"><ele>242.0</ele><time>2026-04-26T06:23:55.952Z</time></trkpt><trkpt lat="43.0611261" lon="12.326599"><ele>241.83333333333334</ele><time>2026-04-26T06:23:57.963Z</time></trkpt><trkpt lat="43.0611514" lon="12.3267027"><ele>241.66666666666669</ele><time>2026-04-26T06:23:59.9Z</time></trkpt><trkpt lat="43.0611758" lon="12.3268079"><ele>241.5</ele><time>2026-04-26T06:24:01.969Z</time></trkpt><trkpt lat="43.0612145" lon="12.3268989"><ele>241.33333333333331</ele><time>2026-04-26T06:24:03.979Z</time></trkpt><trkpt lat="43.061261" lon="12.3269871"><ele>241.16666666666666</ele><time>2026-04-26T06:24:05.963Z</time></trkpt><trkpt lat="43.061347" lon="12.3270089"><ele>241.0</ele><time>2026-04-26T06:24:07.962Z</time></trkpt><trkpt lat="43.0614197" lon="12.3269556"><ele>241.0</ele><time>2026-04-26T06:24:09.968Z</time></trkpt><trkpt lat="43.0614781" lon="12.3268924"><ele>241.00000000000003</ele><time>2026-04-26T06:24:11.96Z</time></trkpt><trkpt lat="43.0615362" lon="12.3268377"><ele>241.0</ele><time>2026-04-26T06:24:13.888Z</time></trkpt><trkpt lat="43.0616035" lon="12.3267991"><ele>241.0</ele><time>2026-04-26T06:24:15.783Z</time></trkpt><trkpt lat="43.061672" lon="12.3267451"><ele>241.00000000000003</ele><time>2026-04-26T06:24:17.945Z</time></trkpt><trkpt lat="43.0617307" lon="12.3266905"><ele>241.0</ele><time>2026-04-26T06:24:19.967Z</time></trkpt><trkpt lat="43.0617816" lon="12.3266367"><ele>241.0</ele><time>2026-04-26T06:24:21.961Z</time></trkpt><trkpt lat="43.0618344" lon="12.3265885"><ele>241.66666666666666</ele><time>2026-04-26T06:24:23.954Z</time></trkpt><trkpt lat="43.0619041" lon="12.326527"><ele>242.33333333333331</ele><time>2026-04-26T06:24:26.815Z</time></trkpt><trkpt lat="43.0619682" lon="12.3264779"><ele>243.0</ele><time>2026-04-26T06:24:28.961Z</time></trkpt><trkpt lat="43.062025" lon="12.3264291"><ele>243.66666666666669</ele><time>2026-04-26T06:24:30.979Z</time></trkpt><trkpt lat="43.0620815" lon="12.3263767"><ele>244.33333333333334</ele><time>2026-04-26T06:24:33.023Z</time></trkpt><trkpt lat="43.0621591" lon="12.3263017"><ele>245.0</ele><time>2026-04-26T06:24:35.959Z</time></trkpt><trkpt lat="43.0622129" lon="12.3262421"><ele>245.14285714285714</ele><time>2026-04-26T06:24:37.968Z</time></trkpt><trkpt lat="43.0622735" lon="12.3261968"><ele>245.28571428571428</ele><time>2026-04-26T06:24:39.962Z</time></trkpt><trkpt lat="43.0623414" lon="12.3261798"><ele>245.42857142857144</ele><time>2026-04-26T06:24:41.972Z</time></trkpt><trkpt lat="43.0624083" lon="12.32619"><ele>245.57142857142858</ele><time>2026-04-26T06:24:43.963Z</time></trkpt><trkpt lat="43.0624775" lon="12.326208"><ele>245.71428571428572</ele><time>2026-04-26T06:24:45.97Z</time></trkpt><trkpt lat="43.0625472" lon="12.3262219"><ele>245.8571428571429</ele><time>2026-04-26T06:24:47.978Z</time></trkpt><trkpt lat="43.0626133" lon="12.3262415"><ele>246.00000000000003</ele><time>2026-04-26T06:24:49.944Z</time></trkpt><trkpt lat="43.0626809" lon="12.326267"><ele>246.66666666666666</ele><time>2026-04-26T06:24:51.994Z</time></trkpt><trkpt lat="43.0627432" lon="12.3262978"><ele>247.33333333333331</ele><time>2026-04-26T06:24:54.025Z</time></trkpt><trkpt lat="43.062839" lon="12.3263314"><ele>248.0</ele><time>2026-04-26T06:24:57.011Z</time></trkpt><trkpt lat="43.062933" lon="12.3263513"><ele>248.66666666666666</ele><time>2026-04-26T06:24:59.961Z</time></trkpt><trkpt lat="43.0629995" lon="12.3263742"><ele>249.33333333333331</ele><time>2026-04-26T06:25:01.999Z</time></trkpt><trkpt lat="43.0630623" lon="12.3263916"><ele>250.0</ele><time>2026-04-26T06:25:03.982Z</time></trkpt><trkpt lat="43.0631233" lon="12.3264208"><ele>249.99999999999997</ele><time>2026-04-26T06:25:05.965Z</time></trkpt><trkpt lat="43.0631836" lon="12.3264652"><ele>250.0</ele><time>2026-04-26T06:25:07.964Z</time></trkpt><trkpt lat="43.0632428" lon="12.3265188"><ele>250.0</ele><time>2026-04-26T06:25:09.959Z</time></trkpt><trkpt lat="43.0633086" lon="12.3265417"><ele>250.0</ele><time>2026-04-26T06:25:11.969Z</time></trkpt><trkpt lat="43.063378" lon="12.3264666"><ele>249.99999999999997</ele><time>2026-04-26T06:25:14.177Z</time></trkpt><trkpt lat="43.063436" lon="12.326337"><ele>250.0</ele><time>2026-04-26T06:25:16.823Z</time></trkpt><trkpt lat="43.0634863" lon="12.3262325"><ele>250.6</ele><time>2026-04-26T06:25:18.922Z</time></trkpt><trkpt lat="43.0635495" lon="12.3261238"><ele>251.2</ele><time>2026-04-26T06:25:20.946Z</time></trkpt><trkpt lat="43.0636074" lon="12.3260087"><ele>251.8</ele><time>2026-04-26T06:25:22.95Z</time></trkpt><trkpt lat="43.0636608" lon="12.3258985"><ele>252.4</ele><time>2026-04-26T06:25:24.972Z</time></trkpt><trkpt lat="43.0637162" lon="12.3257882"><ele>253.0</ele><time>2026-04-26T06:25:26.966Z</time></trkpt><trkpt lat="43.063773" lon="12.3256748"><ele>253.0</ele><time>2026-04-26T06:25:28.952Z</time></trkpt><trkpt lat="43.0638302" lon="12.3255683"><ele>253.0</ele><time>2026-04-26T06:25:30.951Z</time></trkpt><trkpt lat="43.0638897" lon="12.3254564"><ele>253.0</ele><time>2026-04-26T06:25:32.945Z</time></trkpt><trkpt lat="43.0639496" lon="12.3253525"><ele>253.0</ele><time>2026-04-26T06:25:34.946Z</time></trkpt><trkpt lat="43.0640132" lon="12.3252572"><ele>253.0</ele><time>2026-04-26T06:25:36.947Z</time></trkpt><trkpt lat="43.0640751" lon="12.3251535"><ele>252.60000000000002</ele><time>2026-04-26T06:25:38.945Z</time></trkpt><trkpt lat="43.0641325" lon="12.325039"><ele>252.20000000000002</ele><time>2026-04-26T06:25:40.946Z</time></trkpt><trkpt lat="43.0641883" lon="12.3249221"><ele>251.8</ele><time>2026-04-26T06:25:42.953Z</time></trkpt><trkpt lat="43.0642314" lon="12.3247956"><ele>251.4</ele><time>2026-04-26T06:25:44.946Z</time></trkpt><trkpt lat="43.0642658" lon="12.3246628"><ele>251.0</ele><time>2026-04-26T06:25:46.951Z</time></trkpt><trkpt lat="43.0643087" lon="12.3245374"><ele>251.0</ele><time>2026-04-26T06:25:48.946Z</time></trkpt><trkpt lat="43.064352" lon="12.3244109"><ele>251.00000000000003</ele><time>2026-04-26T06:25:50.947Z</time></trkpt><trkpt lat="43.0643831" lon="12.3242763"><ele>251.00000000000003</ele><time>2026-04-26T06:25:52.945Z</time></trkpt><trkpt lat="43.0644252" lon="12.3241446"><ele>251.0</ele><time>2026-04-26T06:25:54.946Z</time></trkpt><trkpt lat="43.0644652" lon="12.3240193"><ele>251.0</ele><time>2026-04-26T06:25:56.948Z</time></trkpt><trkpt lat="43.0645001" lon="12.3238969"><ele>250.60000000000002</ele><time>2026-04-26T06:25:58.951Z</time></trkpt><trkpt lat="43.0645409" lon="12.3237812"><ele>250.20000000000002</ele><time>2026-04-26T06:26:00.946Z</time></trkpt><trkpt lat="43.0645866" lon="12.3236584"><ele>249.79999999999998</ele><time>2026-04-26T06:26:02.959Z</time></trkpt><trkpt lat="43.0646286" lon="12.3235364"><ele>249.39999999999998</ele><time>2026-04-26T06:26:04.97Z</time></trkpt><trkpt lat="43.0646669" lon="12.3234196"><ele>249.0</ele><time>2026-04-26T06:26:06.957Z</time></trkpt><trkpt lat="43.0647008" lon="12.3232904"><ele>249.0</ele><time>2026-04-26T06:26:08.965Z</time></trkpt><trkpt lat="43.0647307" lon="12.3231592"><ele>248.99999999999997</ele><time>2026-04-26T06:26:10.957Z</time></trkpt><trkpt lat="43.0647596" lon="12.3230236"><ele>248.99999999999997</ele><time>2026-04-26T06:26:12.971Z</time></trkpt><trkpt lat="43.0647846" lon="12.322894"><ele>249.0</ele><time>2026-04-26T06:26:14.966Z</time></trkpt><trkpt lat="43.064807" lon="12.3227636"><ele>249.0</ele><time>2026-04-26T06:26:16.973Z</time></trkpt><trkpt lat="43.0648358" lon="12.3226316"><ele>249.0</ele><time>2026-04-26T06:26:18.968Z</time></trkpt><trkpt lat="43.0648812" lon="12.3225156"><ele>248.99999999999997</ele><time>2026-04-26T06:26:20.962Z</time></trkpt><trkpt lat="43.0649599" lon="12.3224121"><ele>248.99999999999997</ele><time>2026-04-26T06:26:22.961Z</time></trkpt><trkpt lat="43.0650504" lon="12.3223251"><ele>249.0</ele><time>2026-04-26T06:26:24.966Z</time></trkpt><trkpt lat="43.0651419" lon="12.3222374"><ele>249.0</ele><time>2026-04-26T06:26:26.966Z</time></trkpt><trkpt lat="43.0652342" lon="12.3221388"><ele>248.75</ele><time>2026-04-26T06:26:28.973Z</time></trkpt><trkpt lat="43.0653315" lon="12.3220332"><ele>248.5</ele><time>2026-04-26T06:26:30.96Z</time></trkpt><trkpt lat="43.0654181" lon="12.3219388"><ele>248.25</ele><time>2026-04-26T06:26:32.965Z</time></trkpt><trkpt lat="43.0655197" lon="12.3218499"><ele>248.0</ele><time>2026-04-26T06:26:34.966Z</time></trkpt><trkpt lat="43.0656166" lon="12.3217498"><ele>248.0</ele><time>2026-04-26T06:26:36.977Z</time></trkpt><trkpt lat="43.065711" lon="12.3216538"><ele>248.0</ele><time>2026-04-26T06:26:38.972Z</time></trkpt><trkpt lat="43.0657948" lon="12.3215738"><ele>248.0</ele><time>2026-04-26T06:26:40.963Z</time></trkpt><trkpt lat="43.0658811" lon="12.3214925"><ele>248.0</ele><time>2026-04-26T06:26:42.965Z</time></trkpt><trkpt lat="43.0659805" lon="12.3214046"><ele>248.0</ele><time>2026-04-26T06:26:44.969Z</time></trkpt><trkpt lat="43.0660821" lon="12.3213103"><ele>246.8</ele><time>2026-04-26T06:26:46.962Z</time></trkpt><trkpt lat="43.0661344" lon="12.321257"><ele>245.60000000000002</ele><time>2026-04-26T06:26:47.961Z</time></trkpt><trkpt lat="43.0662331" lon="12.3211754"><ele>244.39999999999998</ele><time>2026-04-26T06:26:49.962Z</time></trkpt><trkpt lat="43.0663452" lon="12.3211172"><ele>243.2</ele><time>2026-04-26T06:26:51.959Z</time></trkpt><trkpt lat="43.0664513" lon="12.3210548"><ele>242.0</ele><time>2026-04-26T06:26:53.962Z</time></trkpt><trkpt lat="43.0665133" lon="12.3210242"><ele>242.0</ele><time>2026-04-26T06:26:54.968Z</time></trkpt><trkpt lat="43.0666259" lon="12.3209644"><ele>242.0</ele><time>2026-04-26T06:26:56.963Z</time></trkpt><trkpt lat="43.0667327" lon="12.3208955"><ele>242.0</ele><time>2026-04-26T06:26:58.955Z</time></trkpt><trkpt lat="43.066789" lon="12.3208555"><ele>242.0</ele><time>2026-04-26T06:26:59.966Z</time></trkpt><trkpt lat="43.0668977" lon="12.320776"><ele>242.0</ele><time>2026-04-26T06:27:01.972Z</time></trkpt><trkpt lat="43.0669951" lon="12.320696"><ele>242.0</ele><time>2026-04-26T06:27:03.968Z</time></trkpt><trkpt lat="43.0670765" lon="12.3206156"><ele>242.0</ele><time>2026-04-26T06:27:05.966Z</time></trkpt><trkpt lat="43.0671597" lon="12.3205331"><ele>242.0</ele><time>2026-04-26T06:27:07.966Z</time></trkpt><trkpt lat="43.067244" lon="12.3204393"><ele>242.0</ele><time>2026-04-26T06:27:09.959Z</time></trkpt><trkpt lat="43.0673333" lon="12.3203297"><ele>242.0</ele><time>2026-04-26T06:27:11.975Z</time></trkpt><trkpt lat="43.0674241" lon="12.3202408"><ele>241.5</ele><time>2026-04-26T06:27:13.966Z</time></trkpt><trkpt lat="43.0675218" lon="12.3201592"><ele>241.0</ele><time>2026-04-26T06:27:15.963Z</time></trkpt><trkpt lat="43.0676624" lon="12.3200207"><ele>240.5</ele><time>2026-04-26T06:27:18.946Z</time></trkpt><trkpt lat="43.0677577" lon="12.3199355"><ele>240.0</ele><time>2026-04-26T06:27:20.974Z</time></trkpt><trkpt lat="43.0678546" lon="12.3198406"><ele>240.0</ele><time>2026-04-26T06:27:22.961Z</time></trkpt><trkpt lat="43.0679386" lon="12.3197526"><ele>240.0</ele><time>2026-04-26T06:27:24.968Z</time></trkpt><trkpt lat="43.0680323" lon="12.3196566"><ele>240.0</ele><time>2026-04-26T06:27:26.961Z</time></trkpt><trkpt lat="43.0681144" lon="12.3195651"><ele>240.0</ele><time>2026-04-26T06:27:28.961Z</time></trkpt><trkpt lat="43.0682032" lon="12.3194801"><ele>240.0</ele><time>2026-04-26T06:27:30.967Z</time></trkpt><trkpt lat="43.0683007" lon="12.3193763"><ele>240.0</ele><time>2026-04-26T06:27:32.963Z</time></trkpt><trkpt lat="43.0683949" lon="12.3192824"><ele>240.0</ele><time>2026-04-26T06:27:34.968Z</time></trkpt><trkpt lat="43.0684843" lon="12.3191938"><ele>240.0</ele><time>2026-04-26T06:27:36.966Z</time></trkpt><trkpt lat="43.0685777" lon="12.3191229"><ele>240.0</ele><time>2026-04-26T06:27:38.966Z</time></trkpt><trkpt lat="43.0687171" lon="12.3190081"><ele>240.0</ele><time>2026-04-26T06:27:41.955Z</time></trkpt><trkpt lat="43.0688069" lon="12.318928"><ele>240.0</ele><time>2026-04-26T06:27:43.958Z</time></trkpt><trkpt lat="43.0689054" lon="12.318863"><ele>240.0</ele><time>2026-04-26T06:27:45.978Z</time></trkpt><trkpt lat="43.0689899" lon="12.3187915"><ele>240.0</ele><time>2026-04-26T06:27:47.958Z</time></trkpt><trkpt lat="43.0690658" lon="12.3187167"><ele>240.0</ele><time>2026-04-26T06:27:49.959Z</time></trkpt><trkpt lat="43.0691486" lon="12.3186251"><ele>240.2</ele><time>2026-04-26T06:27:51.958Z</time></trkpt><trkpt lat="43.0692268" lon="12.3185488"><ele>240.4</ele><time>2026-04-26T06:27:53.957Z</time></trkpt><trkpt lat="43.0693017" lon="12.318476"><ele>240.60000000000002</ele><time>2026-04-26T06:27:55.96Z</time></trkpt><trkpt lat="43.0693726" lon="12.3184005"><ele>240.8</ele><time>2026-04-26T06:27:57.956Z</time></trkpt><trkpt lat="43.0694523" lon="12.3183143"><ele>241.0</ele><time>2026-04-26T06:27:59.963Z</time></trkpt><trkpt lat="43.0695368" lon="12.3182428"><ele>241.0</ele><time>2026-04-26T06:28:01.97Z</time></trkpt><trkpt lat="43.0696557" lon="12.318128"><ele>241.00000000000003</ele><time>2026-04-26T06:28:04.948Z</time></trkpt><trkpt lat="43.0697262" lon="12.3180563"><ele>241.00000000000003</ele><time>2026-04-26T06:28:06.963Z</time></trkpt><trkpt lat="43.0697963" lon="12.3179804"><ele>241.0</ele><time>2026-04-26T06:28:08.971Z</time></trkpt><trkpt lat="43.0698721" lon="12.3178989"><ele>241.0</ele><time>2026-04-26T06:28:10.953Z</time></trkpt><trkpt lat="43.0699393" lon="12.3178186"><ele>241.8</ele><time>2026-04-26T06:28:12.967Z</time></trkpt><trkpt lat="43.0700202" lon="12.3177515"><ele>242.60000000000002</ele><time>2026-04-26T06:28:14.967Z</time></trkpt><trkpt lat="43.0701107" lon="12.3176824"><ele>243.4</ele><time>2026-04-26T06:28:16.968Z</time></trkpt><trkpt lat="43.070213" lon="12.3175945"><ele>244.2</ele><time>2026-04-26T06:28:18.974Z</time></trkpt><trkpt lat="43.0702657" lon="12.3175428"><ele>245.0</ele><time>2026-04-26T06:28:19.967Z</time></trkpt><trkpt lat="43.0703536" lon="12.3174575"><ele>245.0</ele><time>2026-04-26T06:28:21.955Z</time></trkpt><trkpt lat="43.0704502" lon="12.3173712"><ele>245.0</ele><time>2026-04-26T06:28:23.965Z</time></trkpt><trkpt lat="43.0705059" lon="12.3173227"><ele>245.0</ele><time>2026-04-26T06:28:25.069Z</time></trkpt><trkpt lat="43.0706032" lon="12.3172484"><ele>245.0</ele><time>2026-04-26T06:28:26.971Z</time></trkpt><trkpt lat="43.0706949" lon="12.3172094"><ele>245.0</ele><time>2026-04-26T06:28:28.962Z</time></trkpt><trkpt lat="43.0707868" lon="12.317209"><ele>244.0</ele><time>2026-04-26T06:28:30.96Z</time></trkpt><trkpt lat="43.0708791" lon="12.3172518"><ele>243.0</ele><time>2026-04-26T06:28:32.961Z</time></trkpt><trkpt lat="43.0709792" lon="12.3172687"><ele>242.0</ele><time>2026-04-26T06:28:34.966Z</time></trkpt><trkpt lat="43.0710744" lon="12.3172966"><ele>241.0</ele><time>2026-04-26T06:28:36.964Z</time></trkpt><trkpt lat="43.0711691" lon="12.3173454"><ele>240.0</ele><time>2026-04-26T06:28:38.965Z</time></trkpt><trkpt lat="43.0712574" lon="12.3174331"><ele>240.0</ele><time>2026-04-26T06:28:40.96Z</time></trkpt><trkpt lat="43.0713454" lon="12.3175335"><ele>240.0</ele><time>2026-04-26T06:28:42.959Z</time></trkpt><trkpt lat="43.07144" lon="12.3175927"><ele>240.0</ele><time>2026-04-26T06:28:44.973Z</time></trkpt><trkpt lat="43.0715404" lon="12.3175342"><ele>240.0</ele><time>2026-04-26T06:28:46.964Z</time></trkpt><trkpt lat="43.0715847" lon="12.3174203"><ele>240.0</ele><time>2026-04-26T06:28:48.972Z</time></trkpt><trkpt lat="43.0716358" lon="12.3173227"><ele>240.0</ele><time>2026-04-26T06:28:50.974Z</time></trkpt><trkpt lat="43.071699" lon="12.3172715"><ele>240.0</ele><time>2026-04-26T06:28:53.961Z</time></trkpt><trkpt lat="43.0717135" lon="12.3171854"><ele>240.0</ele><time>2026-04-26T06:28:59.006Z</time></trkpt><trkpt lat="43.0717264" lon="12.3170934"><ele>240.0</ele><time>2026-04-26T06:35:55.952Z</time></trkpt><trkpt lat="43.0717336" lon="12.3169898"><ele>240.0</ele><time>2026-04-26T06:35:59.944Z</time></trkpt><trkpt lat="43.0717687" lon="12.3169084"><ele>240.0</ele><time>2026-04-26T06:36:02.944Z</time></trkpt><trkpt lat="43.0718065" lon="12.3168355"><ele>240.0</ele><time>2026-04-26T06:36:05.945Z</time></trkpt><trkpt lat="43.0718378" lon="12.3167546"><ele>240.0</ele><time>2026-04-26T06:36:08.956Z</time></trkpt><trkpt lat="43.0718845" lon="12.3166516"><ele>240.0</ele><time>2026-04-26T06:36:11.956Z</time></trkpt><trkpt lat="43.0719613" lon="12.3165953"><ele>240.0</ele><time>2026-04-26T06:36:14.955Z</time></trkpt><trkpt lat="43.0720304" lon="12.3165814"><ele>240.0</ele><time>2026-04-26T06:36:16.964Z</time></trkpt><trkpt lat="43.0721008" lon="12.3165787"><ele>240.0</ele><time>2026-04-26T06:36:18.96Z</time></trkpt><trkpt lat="43.0721645" lon="12.3165686"><ele>240.0</ele><time>2026-04-26T06:36:20.959Z</time></trkpt><trkpt lat="43.072231" lon="12.3165593"><ele>240.0</ele><time>2026-04-26T06:36:22.964Z</time></trkpt><trkpt lat="43.0722989" lon="12.3165583"><ele>240.0</ele><time>2026-04-26T06:36:24.959Z</time></trkpt><trkpt lat="43.0723692" lon="12.3165548"><ele>240.0</ele><time>2026-04-26T06:36:26.956Z</time></trkpt><trkpt lat="43.0724411" lon="12.3165502"><ele>240.0</ele><time>2026-04-26T06:36:28.968Z</time></trkpt><trkpt lat="43.0725159" lon="12.3165482"><ele>240.0</ele><time>2026-04-26T06:36:30.966Z</time></trkpt><trkpt lat="43.0725955" lon="12.316545"><ele>240.0</ele><time>2026-04-26T06:36:32.96Z</time></trkpt><trkpt lat="43.0726762" lon="12.3165345"><ele>240.0</ele><time>2026-04-26T06:36:34.973Z</time></trkpt><trkpt lat="43.0727548" lon="12.3165272"><ele>240.0</ele><time>2026-04-26T06:36:36.956Z</time></trkpt><trkpt lat="43.0728356" lon="12.3165197"><ele>240.0</ele><time>2026-04-26T06:36:38.954Z</time></trkpt><trkpt lat="43.0729142" lon="12.3165145"><ele>240.0</ele><time>2026-04-26T06:36:40.964Z</time></trkpt><trkpt lat="43.0729941" lon="12.3165148"><ele>240.0</ele><time>2026-04-26T06:36:42.96Z</time></trkpt><trkpt lat="43.0731129" lon="12.3165075"><ele>240.0</ele><time>2026-04-26T06:36:45.958Z</time></trkpt><trkpt lat="43.0731906" lon="12.3165031"><ele>240.0</ele><time>2026-04-26T06:36:47.959Z</time></trkpt><trkpt lat="43.0732722" lon="12.3165023"><ele>240.16666666666666</ele><time>2026-04-26T06:36:49.965Z</time></trkpt><trkpt lat="43.0733527" lon="12.3164991"><ele>240.33333333333331</ele><time>2026-04-26T06:36:51.961Z</time></trkpt><trkpt lat="43.0734285" lon="12.3164937"><ele>240.5</ele><time>2026-04-26T06:36:53.97Z</time></trkpt><trkpt lat="43.0735048" lon="12.3164896"><ele>240.66666666666666</ele><time>2026-04-26T06:36:55.96Z</time></trkpt><trkpt lat="43.0735862" lon="12.3164897"><ele>240.83333333333331</ele><time>2026-04-26T06:36:57.963Z</time></trkpt><trkpt lat="43.0736707" lon="12.3164854"><ele>241.0</ele><time>2026-04-26T06:36:59.961Z</time></trkpt><trkpt lat="43.0737542" lon="12.3164783"><ele>240.99999999999997</ele><time>2026-04-26T06:37:01.958Z</time></trkpt><trkpt lat="43.0738363" lon="12.3164736"><ele>241.0</ele><time>2026-04-26T06:37:03.961Z</time></trkpt><trkpt lat="43.0739158" lon="12.316466"><ele>241.0</ele><time>2026-04-26T06:37:05.947Z</time></trkpt><trkpt lat="43.0739963" lon="12.3164567"><ele>241.0</ele><time>2026-04-26T06:37:07.954Z</time></trkpt><trkpt lat="43.0740804" lon="12.3164429"><ele>240.99999999999997</ele><time>2026-04-26T06:37:09.945Z</time></trkpt><trkpt lat="43.0741634" lon="12.3164353"><ele>241.0</ele><time>2026-04-26T06:37:12.061Z</time></trkpt><trkpt lat="43.0742483" lon="12.3164298"><ele>240.49999999999997</ele><time>2026-04-26T06:37:13.946Z</time></trkpt><trkpt lat="43.0743317" lon="12.3164216"><ele>240.0</ele><time>2026-04-26T06:37:15.955Z</time></trkpt><trkpt lat="43.07441" lon="12.3164245"><ele>239.5</ele><time>2026-04-26T06:37:17.953Z</time></trkpt><trkpt lat="43.0744933" lon="12.3164276"><ele>239.0</ele><time>2026-04-26T06:37:19.965Z</time></trkpt><trkpt lat="43.0745763" lon="12.3164256"><ele>238.49999999999997</ele><time>2026-04-26T06:37:21.958Z</time></trkpt><trkpt lat="43.0746618" lon="12.3164188"><ele>238.0</ele><time>2026-04-26T06:37:23.944Z</time></trkpt><trkpt lat="43.074749" lon="12.3164057"><ele>237.99999999999997</ele><time>2026-04-26T06:37:25.946Z</time></trkpt><trkpt lat="43.0748386" lon="12.3163959"><ele>238.0</ele><time>2026-04-26T06:37:27.947Z</time></trkpt><trkpt lat="43.074919" lon="12.31639"><ele>238.0</ele><time>2026-04-26T06:37:29.946Z</time></trkpt><trkpt lat="43.0750001" lon="12.3163874"><ele>238.0</ele><time>2026-04-26T06:37:31.941Z</time></trkpt><trkpt lat="43.0750792" lon="12.316384"><ele>237.99999999999997</ele><time>2026-04-26T06:37:33.943Z</time></trkpt><trkpt lat="43.0751538" lon="12.3163826"><ele>238.0</ele><time>2026-04-26T06:37:35.949Z</time></trkpt><trkpt lat="43.0752354" lon="12.3163695"><ele>237.99999999999997</ele><time>2026-04-26T06:37:37.943Z</time></trkpt><trkpt lat="43.07532" lon="12.3163572"><ele>238.0</ele><time>2026-04-26T06:37:39.942Z</time></trkpt><trkpt lat="43.0754003" lon="12.3163505"><ele>238.0</ele><time>2026-04-26T06:37:41.945Z</time></trkpt><trkpt lat="43.0754853" lon="12.3163407"><ele>238.0</ele><time>2026-04-26T06:37:43.946Z</time></trkpt><trkpt lat="43.0755793" lon="12.3163163"><ele>237.99999999999997</ele><time>2026-04-26T06:37:45.953Z</time></trkpt><trkpt lat="43.0756671" lon="12.3162855"><ele>238.0</ele><time>2026-04-26T06:37:47.952Z</time></trkpt><trkpt lat="43.075755" lon="12.316247"><ele>237.99999999999997</ele><time>2026-04-26T06:37:49.945Z</time></trkpt><trkpt lat="43.075842" lon="12.3162007"><ele>238.0</ele><time>2026-04-26T06:37:51.946Z</time></trkpt><trkpt lat="43.075925" lon="12.3161606"><ele>238.0</ele><time>2026-04-26T06:37:53.946Z</time></trkpt><trkpt lat="43.0760192" lon="12.3161367"><ele>238.0</ele><time>2026-04-26T06:37:55.948Z</time></trkpt><trkpt lat="43.0760951" lon="12.3161131"><ele>237.99999999999997</ele><time>2026-04-26T06:37:57.943Z</time></trkpt><trkpt lat="43.0761797" lon="12.3160839"><ele>238.0</ele><time>2026-04-26T06:37:59.945Z</time></trkpt><trkpt lat="43.0762755" lon="12.3160651"><ele>238.0</ele><time>2026-04-26T06:38:01.946Z</time></trkpt><trkpt lat="43.0763711" lon="12.3160237"><ele>238.0</ele><time>2026-04-26T06:38:03.945Z</time></trkpt><trkpt lat="43.0764702" lon="12.3159852"><ele>238.0</ele><time>2026-04-26T06:38:05.964Z</time></trkpt><trkpt lat="43.0765539" lon="12.3159572"><ele>238.0</ele><time>2026-04-26T06:38:07.956Z</time></trkpt><trkpt lat="43.0766482" lon="12.3159316"><ele>238.0</ele><time>2026-04-26T06:38:09.958Z</time></trkpt><trkpt lat="43.0767525" lon="12.3158944"><ele>237.8</ele><time>2026-04-26T06:38:11.958Z</time></trkpt><trkpt lat="43.0768928" lon="12.3158611"><ele>237.60000000000002</ele><time>2026-04-26T06:38:14.967Z</time></trkpt><trkpt lat="43.0769812" lon="12.3158322"><ele>237.39999999999998</ele><time>2026-04-26T06:38:16.959Z</time></trkpt><trkpt lat="43.0770596" lon="12.3158138"><ele>237.2</ele><time>2026-04-26T06:38:18.978Z</time></trkpt><trkpt lat="43.0771513" lon="12.3157714"><ele>237.0</ele><time>2026-04-26T06:38:20.968Z</time></trkpt><trkpt lat="43.0772461" lon="12.3157465"><ele>237.0</ele><time>2026-04-26T06:38:22.965Z</time></trkpt><trkpt lat="43.0773459" lon="12.315713"><ele>237.0</ele><time>2026-04-26T06:38:24.958Z</time></trkpt><trkpt lat="43.0774386" lon="12.3156897"><ele>237.0</ele><time>2026-04-26T06:38:26.988Z</time></trkpt><trkpt lat="43.0775309" lon="12.3156393"><ele>237.0</ele><time>2026-04-26T06:38:28.964Z</time></trkpt><trkpt lat="43.0776264" lon="12.3156049"><ele>237.0</ele><time>2026-04-26T06:38:30.97Z</time></trkpt><trkpt lat="43.0777182" lon="12.3155752"><ele>236.39999999999998</ele><time>2026-04-26T06:38:32.962Z</time></trkpt><trkpt lat="43.0778114" lon="12.3155311"><ele>235.79999999999998</ele><time>2026-04-26T06:38:34.969Z</time></trkpt><trkpt lat="43.0778976" lon="12.3155033"><ele>235.2</ele><time>2026-04-26T06:38:36.979Z</time></trkpt><trkpt lat="43.0779916" lon="12.3154716"><ele>234.6</ele><time>2026-04-26T06:38:38.968Z</time></trkpt><trkpt lat="43.0780787" lon="12.3154409"><ele>234.0</ele><time>2026-04-26T06:38:40.966Z</time></trkpt><trkpt lat="43.0781567" lon="12.3154216"><ele>234.0</ele><time>2026-04-26T06:38:42.974Z</time></trkpt><trkpt lat="43.0782334" lon="12.3153787"><ele>233.99999999999997</ele><time>2026-04-26T06:38:44.962Z</time></trkpt><trkpt lat="43.0783129" lon="12.3153331"><ele>233.99999999999997</ele><time>2026-04-26T06:38:46.964Z</time></trkpt><trkpt lat="43.0783942" lon="12.3152705"><ele>234.0</ele><time>2026-04-26T06:38:48.965Z</time></trkpt><trkpt lat="43.078482" lon="12.3152068"><ele>234.0</ele><time>2026-04-26T06:38:50.965Z</time></trkpt><trkpt lat="43.078574" lon="12.3151126"><ele>233.79999999999998</ele><time>2026-04-26T06:38:52.961Z</time></trkpt><trkpt lat="43.0786554" lon="12.3149988"><ele>233.59999999999997</ele><time>2026-04-26T06:38:54.972Z</time></trkpt><trkpt lat="43.0787448" lon="12.3149074"><ele>233.4</ele><time>2026-04-26T06:38:56.954Z</time></trkpt><trkpt lat="43.078826" lon="12.3148037"><ele>233.2</ele><time>2026-04-26T06:38:58.964Z</time></trkpt><trkpt lat="43.0789017" lon="12.3147143"><ele>233.0</ele><time>2026-04-26T06:39:00.969Z</time></trkpt><trkpt lat="43.0789715" lon="12.3146126"><ele>232.83333333333334</ele><time>2026-04-26T06:39:02.964Z</time></trkpt><trkpt lat="43.0790347" lon="12.3145342"><ele>232.66666666666669</ele><time>2026-04-26T06:39:04.962Z</time></trkpt><trkpt lat="43.0791018" lon="12.3144622"><ele>232.5</ele><time>2026-04-26T06:39:06.971Z</time></trkpt><trkpt lat="43.0791664" lon="12.3143921"><ele>232.33333333333331</ele><time>2026-04-26T06:39:08.964Z</time></trkpt><trkpt lat="43.0792267" lon="12.3143261"><ele>232.16666666666666</ele><time>2026-04-26T06:39:10.957Z</time></trkpt><trkpt lat="43.0793111" lon="12.3142474"><ele>232.0</ele><time>2026-04-26T06:39:12.971Z</time></trkpt><trkpt lat="43.0793955" lon="12.3141326"><ele>231.99999999999997</ele><time>2026-04-26T06:39:14.944Z</time></trkpt><trkpt lat="43.0794692" lon="12.3140355"><ele>232.0</ele><time>2026-04-26T06:39:16.959Z</time></trkpt><trkpt lat="43.0795239" lon="12.3139693"><ele>232.0</ele><time>2026-04-26T06:39:18.963Z</time></trkpt><trkpt lat="43.0795789" lon="12.3139028"><ele>232.0</ele><time>2026-04-26T06:39:20.958Z</time></trkpt><trkpt lat="43.0796477" lon="12.3138292"><ele>231.99999999999997</ele><time>2026-04-26T06:39:22.956Z</time></trkpt><trkpt lat="43.0797066" lon="12.3137514"><ele>232.0</ele><time>2026-04-26T06:39:24.962Z</time></trkpt><trkpt lat="43.079773" lon="12.3136902"><ele>231.99999999999997</ele><time>2026-04-26T06:39:26.96Z</time></trkpt><trkpt lat="43.0798363" lon="12.3136385"><ele>232.0</ele><time>2026-04-26T06:39:28.962Z</time></trkpt><trkpt lat="43.0799047" lon="12.3136038"><ele>232.0</ele><time>2026-04-26T06:39:30.965Z</time></trkpt><trkpt lat="43.0799889" lon="12.3135616"><ele>232.0</ele><time>2026-04-26T06:39:33.954Z</time></trkpt><trkpt lat="43.0800496" lon="12.3135327"><ele>231.99999999999997</ele><time>2026-04-26T06:39:36.965Z</time></trkpt><trkpt lat="43.0801393" lon="12.313477"><ele>232.0</ele><time>2026-04-26T06:39:39.971Z</time></trkpt><trkpt lat="43.0802178" lon="12.3133971"><ele>231.99999999999997</ele><time>2026-04-26T06:39:41.963Z</time></trkpt><trkpt lat="43.0802944" lon="12.3133512"><ele>232.0</ele><time>2026-04-26T06:39:43.956Z</time></trkpt><trkpt lat="43.0803762" lon="12.3133334"><ele>232.0</ele><time>2026-04-26T06:39:45.943Z</time></trkpt><trkpt lat="43.0804474" lon="12.3133272"><ele>232.0</ele><time>2026-04-26T06:39:48.058Z</time></trkpt><trkpt lat="43.0805215" lon="12.3133293"><ele>231.99999999999997</ele><time>2026-04-26T06:39:49.946Z</time></trkpt><trkpt lat="43.0805965" lon="12.3133196"><ele>232.0</ele><time>2026-04-26T06:39:51.954Z</time></trkpt><trkpt lat="43.0806893" lon="12.3133185"><ele>232.00000000000003</ele><time>2026-04-26T06:39:54.953Z</time></trkpt><trkpt lat="43.0807565" lon="12.3133009"><ele>232.0</ele><time>2026-04-26T06:39:57.96Z</time></trkpt><trkpt lat="43.0808286" lon="12.3132341"><ele>232.00000000000003</ele><time>2026-04-26T06:39:59.952Z</time></trkpt><trkpt lat="43.0809076" lon="12.3132061"><ele>232.00000000000003</ele><time>2026-04-26T06:40:01.948Z</time></trkpt><trkpt lat="43.0809738" lon="12.3131964"><ele>232.0</ele><time>2026-04-26T06:40:04.953Z</time></trkpt><trkpt lat="43.0810209" lon="12.3131364"><ele>232.00000000000003</ele><time>2026-04-26T06:40:07.96Z</time></trkpt><trkpt lat="43.0810053" lon="12.3130494"><ele>232.00000000000003</ele><time>2026-04-26T06:40:11.056Z</time></trkpt><trkpt lat="43.0809228" lon="12.3130375"><ele>232.2</ele><time>2026-04-26T06:40:13.942Z</time></trkpt><trkpt lat="43.0808589" lon="12.3130428"><ele>232.39999999999998</ele><time>2026-04-26T06:40:15.961Z</time></trkpt><trkpt lat="43.0807696" lon="12.3130113"><ele>232.60000000000002</ele><time>2026-04-26T06:40:18.976Z</time></trkpt><trkpt lat="43.080726" lon="12.3128918"><ele>232.8</ele><time>2026-04-26T06:40:20.966Z</time></trkpt><trkpt lat="43.0806858" lon="12.3127277"><ele>233.0</ele><time>2026-04-26T06:40:23.076Z</time></trkpt><trkpt lat="43.0806641" lon="12.3125625"><ele>233.5</ele><time>2026-04-26T06:40:24.962Z</time></trkpt><trkpt lat="43.0806385" lon="12.3124018"><ele>234.0</ele><time>2026-04-26T06:40:26.973Z</time></trkpt><trkpt lat="43.0806309" lon="12.3122432"><ele>234.5</ele><time>2026-04-26T06:40:28.958Z</time></trkpt><trkpt lat="43.0806238" lon="12.3120912"><ele>235.0</ele><time>2026-04-26T06:40:30.955Z</time></trkpt><trkpt lat="43.0806268" lon="12.3119355"><ele>235.0</ele><time>2026-04-26T06:40:32.956Z</time></trkpt><trkpt lat="43.0806275" lon="12.311781"><ele>235.0</ele><time>2026-04-26T06:40:34.957Z</time></trkpt><trkpt lat="43.0806051" lon="12.3116543"><ele>235.0</ele><time>2026-04-26T06:40:36.96Z</time></trkpt><trkpt lat="43.0805707" lon="12.3115493"><ele>235.0</ele><time>2026-04-26T06:40:38.962Z</time></trkpt><trkpt lat="43.0805172" lon="12.3114568"><ele>235.0</ele><time>2026-04-26T06:40:40.944Z</time></trkpt><trkpt lat="43.0804441" lon="12.31142"><ele>236.42857142857142</ele><time>2026-04-26T06:40:42.97Z</time></trkpt><trkpt lat="43.0803699" lon="12.3113911"><ele>237.85714285714283</ele><time>2026-04-26T06:40:44.96Z</time></trkpt><trkpt lat="43.0803098" lon="12.3113542"><ele>239.28571428571428</ele><time>2026-04-26T06:40:46.95Z</time></trkpt><trkpt lat="43.080256" lon="12.3112977"><ele>240.71428571428572</ele><time>2026-04-26T06:40:48.944Z</time></trkpt><trkpt lat="43.0802047" lon="12.3112397"><ele>242.14285714285714</ele><time>2026-04-26T06:40:50.946Z</time></trkpt><trkpt lat="43.0801292" lon="12.3111637"><ele>243.57142857142856</ele><time>2026-04-26T06:40:53.942Z</time></trkpt><trkpt lat="43.0800718" lon="12.311112"><ele>245.0</ele><time>2026-04-26T06:40:55.948Z</time></trkpt><trkpt lat="43.0800158" lon="12.3110591"><ele>245.00000000000003</ele><time>2026-04-26T06:40:57.947Z</time></trkpt><trkpt lat="43.0799607" lon="12.3110054"><ele>245.0</ele><time>2026-04-26T06:40:59.953Z</time></trkpt><trkpt lat="43.0799086" lon="12.3109536"><ele>245.0</ele><time>2026-04-26T06:41:01.947Z</time></trkpt><trkpt lat="43.0798336" lon="12.3108753"><ele>245.0</ele><time>2026-04-26T06:41:04.944Z</time></trkpt><trkpt lat="43.0797786" lon="12.3108252"><ele>245.00000000000003</ele><time>2026-04-26T06:41:06.942Z</time></trkpt><trkpt lat="43.079705" lon="12.3107506"><ele>245.0</ele><time>2026-04-26T06:41:09.956Z</time></trkpt><trkpt lat="43.0796308" lon="12.310682"><ele>245.16666666666669</ele><time>2026-04-26T06:41:12.955Z</time></trkpt><trkpt lat="43.0795624" lon="12.3106117"><ele>245.33333333333334</ele><time>2026-04-26T06:41:15.95Z</time></trkpt><trkpt lat="43.0794966" lon="12.3105378"><ele>245.5</ele><time>2026-04-26T06:41:18.973Z</time></trkpt><trkpt lat="43.0794372" lon="12.3104591"><ele>245.66666666666669</ele><time>2026-04-26T06:41:21.953Z</time></trkpt><trkpt lat="43.0793829" lon="12.3103789"><ele>245.83333333333334</ele><time>2026-04-26T06:41:24.972Z</time></trkpt><trkpt lat="43.0793357" lon="12.3102968"><ele>246.0</ele><time>2026-04-26T06:41:27.974Z</time></trkpt><trkpt lat="43.0792982" lon="12.3102091"><ele>246.0</ele><time>2026-04-26T06:41:30.957Z</time></trkpt><trkpt lat="43.0792759" lon="12.3101117"><ele>246.0</ele><time>2026-04-26T06:41:33.955Z</time></trkpt><trkpt lat="43.0793021" lon="12.3100216"><ele>246.0</ele><time>2026-04-26T06:41:36.962Z</time></trkpt><trkpt lat="43.0793773" lon="12.3099749"><ele>246.0</ele><time>2026-04-26T06:41:39.961Z</time></trkpt><trkpt lat="43.079461" lon="12.3099419"><ele>246.0</ele><time>2026-04-26T06:41:42.965Z</time></trkpt><trkpt lat="43.0795389" lon="12.3099049"><ele>246.0</ele><time>2026-04-26T06:41:45.959Z</time></trkpt><trkpt lat="43.079617" lon="12.3098654"><ele>246.0</ele><time>2026-04-26T06:41:48.964Z</time></trkpt><trkpt lat="43.0796952" lon="12.3098324"><ele>246.0</ele><time>2026-04-26T06:41:51.958Z</time></trkpt><trkpt lat="43.0797733" lon="12.3098045"><ele>246.0</ele><time>2026-04-26T06:41:54.957Z</time></trkpt><trkpt lat="43.0798487" lon="12.3097609"><ele>246.0</ele><time>2026-04-26T06:41:57.964Z</time></trkpt><trkpt lat="43.0799122" lon="12.3097002"><ele>246.0</ele><time>2026-04-26T06:42:00.958Z</time></trkpt><trkpt lat="43.0799692" lon="12.3096255"><ele>246.0</ele><time>2026-04-26T06:42:03.948Z</time></trkpt><trkpt lat="43.0800083" lon="12.3095421"><ele>246.66666666666666</ele><time>2026-04-26T06:42:06.962Z</time></trkpt><trkpt lat="43.0800397" lon="12.3094441"><ele>247.33333333333331</ele><time>2026-04-26T06:42:09.969Z</time></trkpt><trkpt lat="43.0800595" lon="12.3093372"><ele>248.0</ele><time>2026-04-26T06:42:12.968Z</time></trkpt><trkpt lat="43.0800459" lon="12.3092322"><ele>248.66666666666666</ele><time>2026-04-26T06:42:15.958Z</time></trkpt><trkpt lat="43.0800109" lon="12.30913"><ele>249.33333333333331</ele><time>2026-04-26T06:42:18.962Z</time></trkpt><trkpt lat="43.0799661" lon="12.3090257"><ele>250.0</ele><time>2026-04-26T06:42:21.959Z</time></trkpt><trkpt lat="43.0799248" lon="12.3089178"><ele>251.66666666666666</ele><time>2026-04-26T06:42:24.959Z</time></trkpt><trkpt lat="43.0798804" lon="12.3088135"><ele>253.33333333333331</ele><time>2026-04-26T06:42:27.95Z</time></trkpt><trkpt lat="43.0798339" lon="12.3087114"><ele>255.0</ele><time>2026-04-26T06:42:30.954Z</time></trkpt><trkpt lat="43.0797917" lon="12.3086071"><ele>256.6666666666667</ele><time>2026-04-26T06:42:33.954Z</time></trkpt><trkpt lat="43.0797512" lon="12.308504"><ele>258.33333333333337</ele><time>2026-04-26T06:42:36.963Z</time></trkpt><trkpt lat="43.0797195" lon="12.3084232"><ele>260.0</ele><time>2026-04-26T06:42:38.978Z</time></trkpt><trkpt lat="43.0796947" lon="12.3083388"><ele>260.00000000000006</ele><time>2026-04-26T06:42:40.956Z</time></trkpt><trkpt lat="43.0796648" lon="12.3082569"><ele>260.0</ele><time>2026-04-26T06:42:42.961Z</time></trkpt><trkpt lat="43.0796263" lon="12.3081803"><ele>260.0</ele><time>2026-04-26T06:42:44.948Z</time></trkpt><trkpt lat="43.0795692" lon="12.308112"><ele>260.0</ele><time>2026-04-26T06:42:46.96Z</time></trkpt><trkpt lat="43.0795191" lon="12.3080459"><ele>260.0</ele><time>2026-04-26T06:42:48.961Z</time></trkpt><trkpt lat="43.0794642" lon="12.3079702"><ele>260.00000000000006</ele><time>2026-04-26T06:42:50.953Z</time></trkpt><trkpt lat="43.0794152" lon="12.3078997"><ele>260.0</ele><time>2026-04-26T06:42:52.96Z</time></trkpt><trkpt lat="43.0793691" lon="12.3078303"><ele>260.7142857142857</ele><time>2026-04-26T06:42:54.944Z</time></trkpt><trkpt lat="43.0793284" lon="12.3077615"><ele>261.42857142857144</ele><time>2026-04-26T06:42:56.96Z</time></trkpt><trkpt lat="43.0792915" lon="12.3076876"><ele>262.1428571428571</ele><time>2026-04-26T06:42:58.953Z</time></trkpt><trkpt lat="43.0792569" lon="12.3076137"><ele>262.8571428571429</ele><time>2026-04-26T06:43:00.948Z</time></trkpt><trkpt lat="43.0792115" lon="12.3075349"><ele>263.57142857142856</ele><time>2026-04-26T06:43:02.946Z</time></trkpt><trkpt lat="43.0791665" lon="12.3074526"><ele>264.2857142857143</ele><time>2026-04-26T06:43:04.947Z</time></trkpt><trkpt lat="43.0791294" lon="12.3073714"><ele>265.0</ele><time>2026-04-26T06:43:06.944Z</time></trkpt><trkpt lat="43.079096" lon="12.3072825"><ele>264.4285714285714</ele><time>2026-04-26T06:43:08.945Z</time></trkpt><trkpt lat="43.0790589" lon="12.3072014"><ele>263.85714285714283</ele><time>2026-04-26T06:43:10.946Z</time></trkpt><trkpt lat="43.0790234" lon="12.3071254"><ele>263.2857142857143</ele><time>2026-04-26T06:43:12.947Z</time></trkpt><trkpt lat="43.0789843" lon="12.3070474"><ele>262.71428571428567</ele><time>2026-04-26T06:43:15.046Z</time></trkpt><trkpt lat="43.0789413" lon="12.306971"><ele>262.1428571428571</ele><time>2026-04-26T06:43:16.945Z</time></trkpt><trkpt lat="43.0789032" lon="12.3068933"><ele>261.57142857142856</ele><time>2026-04-26T06:43:18.943Z</time></trkpt><trkpt lat="43.0788625" lon="12.3068156"><ele>261.0</ele><time>2026-04-26T06:43:20.943Z</time></trkpt><trkpt lat="43.0788249" lon="12.3067385"><ele>261.0</ele><time>2026-04-26T06:43:22.944Z</time></trkpt><trkpt lat="43.0787881" lon="12.3066601"><ele>261.0</ele><time>2026-04-26T06:43:24.944Z</time></trkpt><trkpt lat="43.0787489" lon="12.306574"><ele>261.0</ele><time>2026-04-26T06:43:27.037Z</time></trkpt><trkpt lat="43.078706" lon="12.3064895"><ele>261.0</ele><time>2026-04-26T06:43:28.947Z</time></trkpt><trkpt lat="43.0786498" lon="12.3064143"><ele>261.0</ele><time>2026-04-26T06:43:30.945Z</time></trkpt><trkpt lat="43.0785948" lon="12.3063362"><ele>261.0</ele><time>2026-04-26T06:43:33.033Z</time></trkpt><trkpt lat="43.0785399" lon="12.306255"><ele>261.6666666666667</ele><time>2026-04-26T06:43:34.948Z</time></trkpt><trkpt lat="43.0784641" lon="12.3061713"><ele>262.3333333333333</ele><time>2026-04-26T06:43:36.944Z</time></trkpt><trkpt lat="43.0784147" lon="12.3060897"><ele>263.0</ele><time>2026-04-26T06:43:39.043Z</time></trkpt><trkpt lat="43.0783526" lon="12.3060088"><ele>263.66666666666663</ele><time>2026-04-26T06:43:40.948Z</time></trkpt><trkpt lat="43.0782825" lon="12.3059183"><ele>264.3333333333333</ele><time>2026-04-26T06:43:42.947Z</time></trkpt><trkpt lat="43.078235" lon="12.3058289"><ele>265.0</ele><time>2026-04-26T06:43:45.055Z</time></trkpt><trkpt lat="43.0781783" lon="12.3057253"><ele>263.66666666666663</ele><time>2026-04-26T06:43:46.96Z</time></trkpt><trkpt lat="43.0781323" lon="12.3056268"><ele>262.3333333333333</ele><time>2026-04-26T06:43:48.959Z</time></trkpt><trkpt lat="43.0780827" lon="12.3055309"><ele>261.0</ele><time>2026-04-26T06:43:51.063Z</time></trkpt><trkpt lat="43.0780476" lon="12.3054182"><ele>259.6666666666667</ele><time>2026-04-26T06:43:52.967Z</time></trkpt><trkpt lat="43.0780016" lon="12.3053115"><ele>258.33333333333337</ele><time>2026-04-26T06:43:54.957Z</time></trkpt><trkpt lat="43.0779649" lon="12.3052081"><ele>257.0</ele><time>2026-04-26T06:43:57.064Z</time></trkpt><trkpt lat="43.0779334" lon="12.3051061"><ele>257.0</ele><time>2026-04-26T06:43:58.957Z</time></trkpt><trkpt lat="43.0778906" lon="12.3049848"><ele>257.0</ele><time>2026-04-26T06:44:00.954Z</time></trkpt><trkpt lat="43.0778173" lon="12.3048471"><ele>257.0</ele><time>2026-04-26T06:44:02.955Z</time></trkpt><trkpt lat="43.0777677" lon="12.3047203"><ele>257.0</ele><time>2026-04-26T06:44:04.944Z</time></trkpt><trkpt lat="43.077735" lon="12.3046465"><ele>257.0</ele><time>2026-04-26T06:44:05.97Z</time></trkpt><trkpt lat="43.0776835" lon="12.304502"><ele>256.7142857142857</ele><time>2026-04-26T06:44:07.96Z</time></trkpt><trkpt lat="43.0776509" lon="12.3044271"><ele>256.42857142857144</ele><time>2026-04-26T06:44:08.964Z</time></trkpt><trkpt lat="43.0776182" lon="12.3043442"><ele>256.14285714285717</ele><time>2026-04-26T06:44:09.963Z</time></trkpt><trkpt lat="43.0775932" lon="12.3042597"><ele>255.85714285714286</ele><time>2026-04-26T06:44:10.957Z</time></trkpt><trkpt lat="43.0775661" lon="12.3041711"><ele>255.5714285714286</ele><time>2026-04-26T06:44:11.973Z</time></trkpt><trkpt lat="43.0775406" lon="12.3040905"><ele>255.2857142857143</ele><time>2026-04-26T06:44:12.968Z</time></trkpt><trkpt lat="43.077516" lon="12.3040005"><ele>255.0</ele><time>2026-04-26T06:44:13.963Z</time></trkpt><trkpt lat="43.0774886" lon="12.3039132"><ele>255.66666666666666</ele><time>2026-04-26T06:44:14.95Z</time></trkpt><trkpt lat="43.0774592" lon="12.3038239"><ele>256.3333333333333</ele><time>2026-04-26T06:44:15.966Z</time></trkpt><trkpt lat="43.0774322" lon="12.3037434"><ele>257.0</ele><time>2026-04-26T06:44:16.962Z</time></trkpt><trkpt lat="43.0773862" lon="12.303607"><ele>257.66666666666663</ele><time>2026-04-26T06:44:18.958Z</time></trkpt><trkpt lat="43.077342" lon="12.3035046"><ele>258.3333333333333</ele><time>2026-04-26T06:44:20.959Z</time></trkpt><trkpt lat="43.0773492" lon="12.3034136"><ele>259.0</ele><time>2026-04-26T06:44:22.948Z</time></trkpt><trkpt lat="43.0773984" lon="12.3033417"><ele>259.0</ele><time>2026-04-26T06:44:25.96Z</time></trkpt><trkpt lat="43.077437" lon="12.3032664"><ele>259.0</ele><time>2026-04-26T06:44:28.952Z</time></trkpt><trkpt lat="43.0774766" lon="12.3031744"><ele>259.0</ele><time>2026-04-26T06:44:31.961Z</time></trkpt><trkpt lat="43.0775345" lon="12.3031025"><ele>259.0</ele><time>2026-04-26T06:44:34.963Z</time></trkpt><trkpt lat="43.0776024" lon="12.3030444"><ele>259.0</ele><time>2026-04-26T06:44:37.953Z</time></trkpt><trkpt lat="43.0776615" lon="12.3029713"><ele>259.0</ele><time>2026-04-26T06:44:40.974Z</time></trkpt><trkpt lat="43.0777281" lon="12.3029101"><ele>259.0</ele><time>2026-04-26T06:44:43.952Z</time></trkpt><trkpt lat="43.0777896" lon="12.302877"><ele>259.0</ele><time>2026-04-26T06:44:46.96Z</time></trkpt><trkpt lat="43.0778625" lon="12.302842"><ele>259.0</ele><time>2026-04-26T06:44:49.94Z</time></trkpt><trkpt lat="43.0779297" lon="12.3028306"><ele>259.0</ele><time>2026-04-26T06:44:52.953Z</time></trkpt><trkpt lat="43.0780008" lon="12.3028345"><ele>259.0</ele><time>2026-04-26T06:44:55.952Z</time></trkpt><trkpt lat="43.0780811" lon="12.3028592"><ele>259.0</ele><time>2026-04-26T06:44:58.959Z</time></trkpt><trkpt lat="43.0781452" lon="12.3028887"><ele>259.0</ele><time>2026-04-26T06:45:01.961Z</time></trkpt><trkpt lat="43.0782133" lon="12.3029149"><ele>260.2857142857143</ele><time>2026-04-26T06:45:04.95Z</time></trkpt><trkpt lat="43.0782768" lon="12.302945"><ele>261.57142857142856</ele><time>2026-04-26T06:45:07.952Z</time></trkpt><trkpt lat="43.0783439" lon="12.3029719"><ele>262.8571428571429</ele><time>2026-04-26T06:45:10.956Z</time></trkpt><trkpt lat="43.078419" lon="12.3029972"><ele>264.1428571428571</ele><time>2026-04-26T06:45:13.953Z</time></trkpt><trkpt lat="43.0784922" lon="12.3030178"><ele>265.42857142857144</ele><time>2026-04-26T06:45:16.955Z</time></trkpt><trkpt lat="43.0785619" lon="12.3030269"><ele>266.7142857142857</ele><time>2026-04-26T06:45:19.951Z</time></trkpt><trkpt lat="43.0786361" lon="12.3030504"><ele>268.0</ele><time>2026-04-26T06:45:22.944Z</time></trkpt><trkpt lat="43.0787159" lon="12.3030813"><ele>268.8333333333333</ele><time>2026-04-26T06:45:25.953Z</time></trkpt><trkpt lat="43.0787991" lon="12.3031028"><ele>269.66666666666663</ele><time>2026-04-26T06:45:28.956Z</time></trkpt><trkpt lat="43.0788868" lon="12.3031256"><ele>270.5</ele><time>2026-04-26T06:45:31.951Z</time></trkpt><trkpt lat="43.0789738" lon="12.3031356"><ele>271.3333333333333</ele><time>2026-04-26T06:45:34.972Z</time></trkpt><trkpt lat="43.0790647" lon="12.3031373"><ele>272.1666666666667</ele><time>2026-04-26T06:45:37.946Z</time></trkpt><trkpt lat="43.0791544" lon="12.3031226"><ele>273.0</ele><time>2026-04-26T06:45:40.949Z</time></trkpt><trkpt lat="43.0792352" lon="12.3031131"><ele>272.3333333333333</ele><time>2026-04-26T06:45:43.94Z</time></trkpt><trkpt lat="43.0793081" lon="12.3030901"><ele>271.6666666666667</ele><time>2026-04-26T06:45:46.955Z</time></trkpt><trkpt lat="43.0793809" lon="12.3030591"><ele>271.0</ele><time>2026-04-26T06:45:50.045Z</time></trkpt><trkpt lat="43.0794568" lon="12.3030322"><ele>270.33333333333337</ele><time>2026-04-26T06:45:52.955Z</time></trkpt><trkpt lat="43.0795324" lon="12.3030001"><ele>269.6666666666667</ele><time>2026-04-26T06:45:55.943Z</time></trkpt><trkpt lat="43.0796125" lon="12.3029588"><ele>269.0</ele><time>2026-04-26T06:45:58.954Z</time></trkpt><trkpt lat="43.0796938" lon="12.3029277"><ele>269.0</ele><time>2026-04-26T06:46:01.945Z</time></trkpt><trkpt lat="43.0797734" lon="12.3028937"><ele>269.0</ele><time>2026-04-26T06:46:04.944Z</time></trkpt><trkpt lat="43.0798493" lon="12.3028622"><ele>269.0</ele><time>2026-04-26T06:46:08.055Z</time></trkpt><trkpt lat="43.0799217" lon="12.3028254"><ele>269.0</ele><time>2026-04-26T06:46:10.945Z</time></trkpt><trkpt lat="43.079998" lon="12.3027864"><ele>269.0</ele><time>2026-04-26T06:46:13.943Z</time></trkpt><trkpt lat="43.0800743" lon="12.3027491"><ele>269.0</ele><time>2026-04-26T06:46:16.941Z</time></trkpt><trkpt lat="43.0801505" lon="12.3027093"><ele>270.83333333333337</ele><time>2026-04-26T06:46:19.947Z</time></trkpt><trkpt lat="43.0802296" lon="12.3026721"><ele>272.6666666666667</ele><time>2026-04-26T06:46:22.944Z</time></trkpt><trkpt lat="43.0803106" lon="12.3026386"><ele>274.5</ele><time>2026-04-26T06:46:25.951Z</time></trkpt><trkpt lat="43.0803728" lon="12.3026141"><ele>276.3333333333333</ele><time>2026-04-26T06:46:27.954Z</time></trkpt><trkpt lat="43.0804413" lon="12.3025824"><ele>278.16666666666663</ele><time>2026-04-26T06:46:29.953Z</time></trkpt><trkpt lat="43.0805294" lon="12.3025468"><ele>280.0</ele><time>2026-04-26T06:46:31.954Z</time></trkpt><trkpt lat="43.0806315" lon="12.3025194"><ele>280.0</ele><time>2026-04-26T06:46:33.953Z</time></trkpt><trkpt lat="43.0807358" lon="12.3024909"><ele>280.0</ele><time>2026-04-26T06:46:35.964Z</time></trkpt><trkpt lat="43.0808364" lon="12.3024548"><ele>280.0</ele><time>2026-04-26T06:46:37.957Z</time></trkpt><trkpt lat="43.0809452" lon="12.3024225"><ele>280.0</ele><time>2026-04-26T06:46:39.954Z</time></trkpt><trkpt lat="43.0810627" lon="12.3023931"><ele>280.0</ele><time>2026-04-26T06:46:41.953Z</time></trkpt><trkpt lat="43.0811804" lon="12.302365"><ele>279.4</ele><time>2026-04-26T06:46:43.97Z</time></trkpt><trkpt lat="43.0813006" lon="12.3023305"><ele>278.8</ele><time>2026-04-26T06:46:45.951Z</time></trkpt><trkpt lat="43.0814111" lon="12.3022963"><ele>278.2</ele><time>2026-04-26T06:46:48.052Z</time></trkpt><trkpt lat="43.081505" lon="12.3022435"><ele>277.6</ele><time>2026-04-26T06:46:49.957Z</time></trkpt><trkpt lat="43.0815888" lon="12.3021887"><ele>277.0</ele><time>2026-04-26T06:46:51.958Z</time></trkpt><trkpt lat="43.0816652" lon="12.3021418"><ele>277.0</ele><time>2026-04-26T06:46:53.941Z</time></trkpt><trkpt lat="43.0817339" lon="12.3020915"><ele>277.0</ele><time>2026-04-26T06:46:55.94Z</time></trkpt><trkpt lat="43.0818126" lon="12.3020535"><ele>277.0</ele><time>2026-04-26T06:46:57.945Z</time></trkpt><trkpt lat="43.0818873" lon="12.3020043"><ele>277.0</ele><time>2026-04-26T06:47:00.057Z</time></trkpt><trkpt lat="43.0819639" lon="12.3019615"><ele>277.0</ele><time>2026-04-26T06:47:01.943Z</time></trkpt><trkpt lat="43.0820282" lon="12.3019273"><ele>277.0</ele><time>2026-04-26T06:47:03.972Z</time></trkpt><trkpt lat="43.0821189" lon="12.3018937"><ele>277.0</ele><time>2026-04-26T06:47:07.09Z</time></trkpt><trkpt lat="43.0821861" lon="12.3018774"><ele>277.0</ele><time>2026-04-26T06:47:08.959Z</time></trkpt><trkpt lat="43.0822564" lon="12.3018518"><ele>277.0</ele><time>2026-04-26T06:47:10.963Z</time></trkpt><trkpt lat="43.0823277" lon="12.3018098"><ele>277.0</ele><time>2026-04-26T06:47:12.949Z</time></trkpt><trkpt lat="43.0823909" lon="12.3017809"><ele>277.0</ele><time>2026-04-26T06:47:14.957Z</time></trkpt><trkpt lat="43.0824794" lon="12.3017672"><ele>277.0</ele><time>2026-04-26T06:47:17.942Z</time></trkpt><trkpt lat="43.0825625" lon="12.301756"><ele>278.66666666666663</ele><time>2026-04-26T06:47:20.957Z</time></trkpt><trkpt lat="43.0826464" lon="12.3017486"><ele>280.3333333333333</ele><time>2026-04-26T06:47:23.969Z</time></trkpt><trkpt lat="43.0827322" lon="12.3017366"><ele>282.0</ele><time>2026-04-26T06:47:26.962Z</time></trkpt><trkpt lat="43.0828216" lon="12.3017353"><ele>283.6666666666667</ele><time>2026-04-26T06:47:29.952Z</time></trkpt><trkpt lat="43.0829128" lon="12.3017474"><ele>285.33333333333337</ele><time>2026-04-26T06:47:32.947Z</time></trkpt><trkpt lat="43.0829897" lon="12.3017456"><ele>287.0</ele><time>2026-04-26T06:47:35.957Z</time></trkpt><trkpt lat="43.0830796" lon="12.3017469"><ele>287.0</ele><time>2026-04-26T06:47:38.981Z</time></trkpt><trkpt lat="43.0831598" lon="12.3017496"><ele>287.0</ele><time>2026-04-26T06:47:41.953Z</time></trkpt><trkpt lat="43.0832329" lon="12.3017482"><ele>287.0</ele><time>2026-04-26T06:47:44.958Z</time></trkpt><trkpt lat="43.0833032" lon="12.3016961"><ele>287.0</ele><time>2026-04-26T06:47:48.958Z</time></trkpt><trkpt lat="43.0833086" lon="12.3015708"><ele>287.0</ele><time>2026-04-26T06:47:51.958Z</time></trkpt><trkpt lat="43.0833084" lon="12.30145"><ele>287.0</ele><time>2026-04-26T06:47:55.061Z</time></trkpt><trkpt lat="43.083311" lon="12.3013285"><ele>287.33333333333337</ele><time>2026-04-26T06:47:57.957Z</time></trkpt><trkpt lat="43.0833041" lon="12.3012038"><ele>287.6666666666667</ele><time>2026-04-26T06:48:01.064Z</time></trkpt><trkpt lat="43.0832929" lon="12.3010922"><ele>288.0</ele><time>2026-04-26T06:48:03.956Z</time></trkpt><trkpt lat="43.083278" lon="12.3010052"><ele>288.3333333333333</ele><time>2026-04-26T06:48:06.951Z</time></trkpt><trkpt lat="43.0832502" lon="12.3008933"><ele>288.66666666666663</ele><time>2026-04-26T06:48:10.957Z</time></trkpt><trkpt lat="43.0832256" lon="12.300799"><ele>289.0</ele><time>2026-04-26T06:48:13.96Z</time></trkpt><trkpt lat="43.0831989" lon="12.3007152"><ele>289.0</ele><time>2026-04-26T06:48:16.971Z</time></trkpt><trkpt lat="43.0831802" lon="12.3006328"><ele>289.0</ele><time>2026-04-26T06:48:19.967Z</time></trkpt><trkpt lat="43.0832386" lon="12.3005784"><ele>289.0</ele><time>2026-04-26T06:48:24.954Z</time></trkpt><trkpt lat="43.0832322" lon="12.3004834"><ele>289.0</ele><time>2026-04-26T06:48:29.952Z</time></trkpt><trkpt lat="43.0831736" lon="12.3004392"><ele>289.0</ele><time>2026-04-26T06:48:32.957Z</time></trkpt><trkpt lat="43.0831126" lon="12.3003867"><ele>289.0</ele><time>2026-04-26T06:48:35.956Z</time></trkpt><trkpt lat="43.0830478" lon="12.3003327"><ele>289.0</ele><time>2026-04-26T06:48:38.959Z</time></trkpt><trkpt lat="43.082994" lon="12.30028"><ele>291.8333333333333</ele><time>2026-04-26T06:48:41.961Z</time></trkpt><trkpt lat="43.0829496" lon="12.3001851"><ele>294.66666666666663</ele><time>2026-04-26T06:48:45.955Z</time></trkpt><trkpt lat="43.0829279" lon="12.3000764"><ele>297.5</ele><time>2026-04-26T06:48:49.956Z</time></trkpt><trkpt lat="43.0829229" lon="12.2999837"><ele>300.3333333333333</ele><time>2026-04-26T06:48:52.938Z</time></trkpt><trkpt lat="43.0829315" lon="12.2998924"><ele>303.1666666666667</ele><time>2026-04-26T06:48:55.945Z</time></trkpt><trkpt lat="43.0829605" lon="12.2997929"><ele>306.0</ele><time>2026-04-26T06:49:00.008Z</time></trkpt><trkpt lat="43.0830569" lon="12.2997896"><ele>306.0</ele><time>2026-04-26T06:49:02.956Z</time></trkpt><trkpt lat="43.0831359" lon="12.2998555"><ele>306.0</ele><time>2026-04-26T06:49:04.939Z</time></trkpt><trkpt lat="43.0832022" lon="12.2999275"><ele>306.0</ele><time>2026-04-26T06:49:06.959Z</time></trkpt><trkpt lat="43.0832585" lon="12.2999868"><ele>306.0</ele><time>2026-04-26T06:49:08.944Z</time></trkpt><trkpt lat="43.0833274" lon="12.3000333"><ele>306.0</ele><time>2026-04-26T06:49:11.943Z</time></trkpt><trkpt lat="43.0834058" lon="12.3000169"><ele>306.0</ele><time>2026-04-26T06:49:14.954Z</time></trkpt><trkpt lat="43.0834712" lon="12.299976"><ele>306.1666666666667</ele><time>2026-04-26T06:49:16.96Z</time></trkpt><trkpt lat="43.0835493" lon="12.2999638"><ele>306.3333333333333</ele><time>2026-04-26T06:49:18.954Z</time></trkpt><trkpt lat="43.0836161" lon="12.3000253"><ele>306.5</ele><time>2026-04-26T06:49:20.942Z</time></trkpt><trkpt lat="43.0836579" lon="12.3001258"><ele>306.66666666666663</ele><time>2026-04-26T06:49:22.941Z</time></trkpt><trkpt lat="43.083657" lon="12.3002136"><ele>306.8333333333333</ele><time>2026-04-26T06:49:24.943Z</time></trkpt><trkpt lat="43.0836344" lon="12.3003165"><ele>307.0</ele><time>2026-04-26T06:49:27.943Z</time></trkpt><trkpt lat="43.083661" lon="12.3004628"><ele>307.0</ele><time>2026-04-26T06:49:31.946Z</time></trkpt><trkpt lat="43.083712" lon="12.3005538"><ele>307.0</ele><time>2026-04-26T06:49:33.952Z</time></trkpt><trkpt lat="43.0837535" lon="12.3006541"><ele>307.0</ele><time>2026-04-26T06:49:35.942Z</time></trkpt><trkpt lat="43.0838333" lon="12.3007693"><ele>307.0</ele><time>2026-04-26T06:49:37.939Z</time></trkpt><trkpt lat="43.0839297" lon="12.3009044"><ele>307.0</ele><time>2026-04-26T06:49:39.939Z</time></trkpt><trkpt lat="43.0839817" lon="12.300968"><ele>306.4</ele><time>2026-04-26T06:49:40.939Z</time></trkpt><trkpt lat="43.0840371" lon="12.3010253"><ele>305.79999999999995</ele><time>2026-04-26T06:49:41.942Z</time></trkpt><trkpt lat="43.0840888" lon="12.3010896"><ele>305.2</ele><time>2026-04-26T06:49:42.941Z</time></trkpt><trkpt lat="43.0841677" lon="12.3012165"><ele>304.59999999999997</ele><time>2026-04-26T06:49:44.941Z</time></trkpt><trkpt lat="43.0842754" lon="12.3013126"><ele>304.0</ele><time>2026-04-26T06:49:46.942Z</time></trkpt><trkpt lat="43.0843639" lon="12.3014023"><ele>304.4</ele><time>2026-04-26T06:49:48.941Z</time></trkpt><trkpt lat="43.0844455" lon="12.3015007"><ele>304.79999999999995</ele><time>2026-04-26T06:49:50.96Z</time></trkpt><trkpt lat="43.0845687" lon="12.3016122"><ele>305.20000000000005</ele><time>2026-04-26T06:49:53.938Z</time></trkpt><trkpt lat="43.0846225" lon="12.3016721"><ele>305.6</ele><time>2026-04-26T06:49:55.941Z</time></trkpt><trkpt lat="43.0846976" lon="12.3017509"><ele>306.0</ele><time>2026-04-26T06:49:58.94Z</time></trkpt><trkpt lat="43.0847081" lon="12.3018566"><ele>306.0</ele><time>2026-04-26T06:50:01.942Z</time></trkpt><trkpt lat="43.0846475" lon="12.3019211"><ele>306.0</ele><time>2026-04-26T06:50:04.939Z</time></trkpt><trkpt lat="43.0845893" lon="12.3019809"><ele>306.0</ele><time>2026-04-26T06:50:07.953Z</time></trkpt><trkpt lat="43.0845512" lon="12.3020547"><ele>306.0</ele><time>2026-04-26T06:50:10.949Z</time></trkpt><trkpt lat="43.0845862" lon="12.3021271"><ele>306.0</ele><time>2026-04-26T06:50:15.942Z</time></trkpt><trkpt lat="43.0846701" lon="12.3021852"><ele>306.0</ele><time>2026-04-26T06:50:18.959Z</time></trkpt><trkpt lat="43.0847428" lon="12.3021974"><ele>306.0</ele><time>2026-04-26T06:50:20.949Z</time></trkpt><trkpt lat="43.0848055" lon="12.3022057"><ele>306.0</ele><time>2026-04-26T06:50:22.953Z</time></trkpt><trkpt lat="43.0848924" lon="12.3022054"><ele>306.0</ele><time>2026-04-26T06:50:26.062Z</time></trkpt><trkpt lat="43.084972" lon="12.3021829"><ele>306.0</ele><time>2026-04-26T06:50:28.958Z</time></trkpt><trkpt lat="43.0850486" lon="12.3021549"><ele>306.0</ele><time>2026-04-26T06:50:31.95Z</time></trkpt><trkpt lat="43.0851113" lon="12.3021044"><ele>306.0</ele><time>2026-04-26T06:50:34.967Z</time></trkpt><trkpt lat="43.0851679" lon="12.3020498"><ele>306.0</ele><time>2026-04-26T06:50:37.954Z</time></trkpt><trkpt lat="43.0852305" lon="12.301991"><ele>306.1428571428571</ele><time>2026-04-26T06:50:40.956Z</time></trkpt><trkpt lat="43.085294" lon="12.301942"><ele>306.2857142857143</ele><time>2026-04-26T06:50:43.971Z</time></trkpt><trkpt lat="43.0853599" lon="12.3018921"><ele>306.42857142857144</ele><time>2026-04-26T06:50:46.961Z</time></trkpt><trkpt lat="43.0854165" lon="12.3018512"><ele>306.57142857142856</ele><time>2026-04-26T06:50:49.938Z</time></trkpt><trkpt lat="43.0854768" lon="12.3017977"><ele>306.7142857142857</ele><time>2026-04-26T06:50:52.942Z</time></trkpt><trkpt lat="43.0855416" lon="12.3017508"><ele>306.85714285714283</ele><time>2026-04-26T06:50:55.941Z</time></trkpt><trkpt lat="43.0856084" lon="12.3017015"><ele>307.0</ele><time>2026-04-26T06:50:58.943Z</time></trkpt><trkpt lat="43.0856737" lon="12.3016439"><ele>306.99999999999994</ele><time>2026-04-26T06:51:02.04Z</time></trkpt><trkpt lat="43.085735" lon="12.3015972"><ele>307.0</ele><time>2026-04-26T06:51:04.939Z</time></trkpt><trkpt lat="43.0857966" lon="12.3015639"><ele>307.0</ele><time>2026-04-26T06:51:07.948Z</time></trkpt><trkpt lat="43.0858641" lon="12.3015247"><ele>307.0</ele><time>2026-04-26T06:51:10.943Z</time></trkpt><trkpt lat="43.0859344" lon="12.3015085"><ele>307.0</ele><time>2026-04-26T06:51:13.944Z</time></trkpt><trkpt lat="43.0860052" lon="12.3015228"><ele>306.99999999999994</ele><time>2026-04-26T06:51:16.957Z</time></trkpt><trkpt lat="43.0860744" lon="12.301545"><ele>307.0</ele><time>2026-04-26T06:51:19.961Z</time></trkpt><trkpt lat="43.0861406" lon="12.3015869"><ele>308.85714285714283</ele><time>2026-04-26T06:51:22.955Z</time></trkpt><trkpt lat="43.0862048" lon="12.3016241"><ele>310.7142857142857</ele><time>2026-04-26T06:51:25.965Z</time></trkpt><trkpt lat="43.0862774" lon="12.3016569"><ele>312.57142857142856</ele><time>2026-04-26T06:51:28.942Z</time></trkpt><trkpt lat="43.086355" lon="12.3016993"><ele>314.42857142857144</ele><time>2026-04-26T06:51:31.944Z</time></trkpt><trkpt lat="43.086418" lon="12.3017419"><ele>316.2857142857143</ele><time>2026-04-26T06:51:34.959Z</time></trkpt><trkpt lat="43.086487" lon="12.3017853"><ele>318.1428571428571</ele><time>2026-04-26T06:51:37.959Z</time></trkpt><trkpt lat="43.0865556" lon="12.3018195"><ele>320.0</ele><time>2026-04-26T06:51:40.954Z</time></trkpt><trkpt lat="43.0866267" lon="12.3018696"><ele>321.6666666666667</ele><time>2026-04-26T06:51:43.96Z</time></trkpt><trkpt lat="43.0866592" lon="12.3019647"><ele>323.33333333333337</ele><time>2026-04-26T06:51:46.953Z</time></trkpt><trkpt lat="43.0866491" lon="12.3020697"><ele>325.0</ele><time>2026-04-26T06:51:49.975Z</time></trkpt><trkpt lat="43.0866173" lon="12.3021791"><ele>326.6666666666667</ele><time>2026-04-26T06:51:52.956Z</time></trkpt><trkpt lat="43.0866053" lon="12.3022871"><ele>328.3333333333333</ele><time>2026-04-26T06:51:55.965Z</time></trkpt><trkpt lat="43.0866603" lon="12.3023627"><ele>330.0</ele><time>2026-04-26T06:51:58.953Z</time></trkpt><trkpt lat="43.0867307" lon="12.3024035"><ele>330.1666666666667</ele><time>2026-04-26T06:52:01.953Z</time></trkpt><trkpt lat="43.0868107" lon="12.30245"><ele>330.3333333333333</ele><time>2026-04-26T06:52:04.951Z</time></trkpt><trkpt lat="43.0868697" lon="12.3024806"><ele>330.5</ele><time>2026-04-26T06:52:07.069Z</time></trkpt><trkpt lat="43.0869312" lon="12.302516"><ele>330.66666666666663</ele><time>2026-04-26T06:52:08.953Z</time></trkpt><trkpt lat="43.0870168" lon="12.3025558"><ele>330.8333333333333</ele><time>2026-04-26T06:52:11.957Z</time></trkpt><trkpt lat="43.0870976" lon="12.3025916"><ele>331.0</ele><time>2026-04-26T06:52:14.933Z</time></trkpt><trkpt lat="43.087154" lon="12.302641"><ele>331.0</ele><time>2026-04-26T06:52:17.956Z</time></trkpt><trkpt lat="43.0872372" lon="12.3026768"><ele>331.0</ele><time>2026-04-26T06:52:20.956Z</time></trkpt><trkpt lat="43.0873289" lon="12.3027075"><ele>331.0</ele><time>2026-04-26T06:52:24.056Z</time></trkpt><trkpt lat="43.08742" lon="12.3027407"><ele>331.0</ele><time>2026-04-26T06:52:26.957Z</time></trkpt><trkpt lat="43.0875068" lon="12.3027767"><ele>331.0</ele><time>2026-04-26T06:52:29.952Z</time></trkpt><trkpt lat="43.0875895" lon="12.3028035"><ele>332.16666666666663</ele><time>2026-04-26T06:52:32.955Z</time></trkpt><trkpt lat="43.0876796" lon="12.3028193"><ele>333.3333333333333</ele><time>2026-04-26T06:52:35.955Z</time></trkpt><trkpt lat="43.0877674" lon="12.3027942"><ele>334.5</ele><time>2026-04-26T06:52:38.97Z</time></trkpt><trkpt lat="43.0878418" lon="12.3027497"><ele>335.6666666666667</ele><time>2026-04-26T06:52:41.955Z</time></trkpt><trkpt lat="43.0879184" lon="12.3027073"><ele>336.83333333333337</ele><time>2026-04-26T06:52:44.943Z</time></trkpt><trkpt lat="43.0880027" lon="12.3026678"><ele>338.0</ele><time>2026-04-26T06:52:47.956Z</time></trkpt><trkpt lat="43.0880719" lon="12.3026101"><ele>338.0</ele><time>2026-04-26T06:52:50.958Z</time></trkpt><trkpt lat="43.088126" lon="12.3025429"><ele>338.0</ele><time>2026-04-26T06:52:53.944Z</time></trkpt><trkpt lat="43.0881772" lon="12.3024617"><ele>338.0</ele><time>2026-04-26T06:52:56.952Z</time></trkpt><trkpt lat="43.0882317" lon="12.3023719"><ele>338.0</ele><time>2026-04-26T06:52:59.953Z</time></trkpt><trkpt lat="43.0882905" lon="12.3022886"><ele>338.0</ele><time>2026-04-26T06:53:03.04Z</time></trkpt><trkpt lat="43.0883568" lon="12.3022146"><ele>338.0</ele><time>2026-04-26T06:53:05.952Z</time></trkpt><trkpt lat="43.0884103" lon="12.3021243"><ele>338.0</ele><time>2026-04-26T06:53:09.052Z</time></trkpt><trkpt lat="43.0884344" lon="12.3020202"><ele>338.0</ele><time>2026-04-26T06:53:11.941Z</time></trkpt><trkpt lat="43.0884799" lon="12.3019377"><ele>338.0</ele><time>2026-04-26T06:53:14.953Z</time></trkpt><trkpt lat="43.0885562" lon="12.3018798"><ele>338.0</ele><time>2026-04-26T06:53:17.954Z</time></trkpt><trkpt lat="43.0886222" lon="12.3018484"><ele>338.0</ele><time>2026-04-26T06:53:20.057Z</time></trkpt><trkpt lat="43.0886982" lon="12.3017967"><ele>338.0</ele><time>2026-04-26T06:53:21.953Z</time></trkpt><trkpt lat="43.0887872" lon="12.301735"><ele>338.0</ele><time>2026-04-26T06:53:23.955Z</time></trkpt><trkpt lat="43.0888816" lon="12.3016386"><ele>338.0</ele><time>2026-04-26T06:53:25.951Z</time></trkpt><trkpt lat="43.0889763" lon="12.3015445"><ele>338.0</ele><time>2026-04-26T06:53:27.959Z</time></trkpt><trkpt lat="43.0890401" lon="12.3015277"><ele>338.0</ele><time>2026-04-26T06:53:28.957Z</time></trkpt><trkpt lat="43.0891081" lon="12.3015172"><ele>338.0</ele><time>2026-04-26T06:53:29.962Z</time></trkpt><trkpt lat="43.0891826" lon="12.3015009"><ele>338.0</ele><time>2026-04-26T06:53:30.953Z</time></trkpt><trkpt lat="43.089255" lon="12.301494"><ele>336.5</ele><time>2026-04-26T06:53:31.963Z</time></trkpt><trkpt lat="43.089331" lon="12.3014838"><ele>335.0</ele><time>2026-04-26T06:53:32.956Z</time></trkpt><trkpt lat="43.0894058" lon="12.3014797"><ele>333.5</ele><time>2026-04-26T06:53:33.957Z</time></trkpt><trkpt lat="43.0894879" lon="12.3014667"><ele>332.0</ele><time>2026-04-26T06:53:34.954Z</time></trkpt><trkpt lat="43.0895686" lon="12.3014613"><ele>330.5</ele><time>2026-04-26T06:53:35.945Z</time></trkpt><trkpt lat="43.0896479" lon="12.3014489"><ele>329.0</ele><time>2026-04-26T06:53:36.956Z</time></trkpt><trkpt lat="43.0897249" lon="12.3014308"><ele>329.0</ele><time>2026-04-26T06:53:37.959Z</time></trkpt><trkpt lat="43.0897908" lon="12.3014172"><ele>329.0</ele><time>2026-04-26T06:53:38.944Z</time></trkpt><trkpt lat="43.0898537" lon="12.3014044"><ele>329.0</ele><time>2026-04-26T06:53:39.971Z</time></trkpt><trkpt lat="43.0899624" lon="12.3013742"><ele>329.0</ele><time>2026-04-26T06:53:41.955Z</time></trkpt><trkpt lat="43.090047" lon="12.3013605"><ele>329.0</ele><time>2026-04-26T06:53:43.958Z</time></trkpt><trkpt lat="43.0901139" lon="12.3013544"><ele>329.0</ele><time>2026-04-26T06:53:45.953Z</time></trkpt><trkpt lat="43.0901796" lon="12.3013477"><ele>328.33333333333337</ele><time>2026-04-26T06:53:47.957Z</time></trkpt><trkpt lat="43.0902474" lon="12.301326"><ele>327.6666666666667</ele><time>2026-04-26T06:53:49.957Z</time></trkpt><trkpt lat="43.090341" lon="12.301312"><ele>327.0</ele><time>2026-04-26T06:53:52.953Z</time></trkpt><trkpt lat="43.090407" lon="12.3012958"><ele>326.3333333333333</ele><time>2026-04-26T06:53:54.951Z</time></trkpt><trkpt lat="43.0904992" lon="12.3012752"><ele>325.66666666666663</ele><time>2026-04-26T06:53:57.958Z</time></trkpt><trkpt lat="43.0906152" lon="12.3012557"><ele>325.0</ele><time>2026-04-26T06:54:01.96Z</time></trkpt><trkpt lat="43.0906803" lon="12.3012388"><ele>325.0</ele><time>2026-04-26T06:54:03.964Z</time></trkpt><trkpt lat="43.0907421" lon="12.3012122"><ele>325.0</ele><time>2026-04-26T06:54:05.932Z</time></trkpt><trkpt lat="43.0907922" lon="12.3011425"><ele>325.0</ele><time>2026-04-26T06:54:07.954Z</time></trkpt><trkpt lat="43.0908675" lon="12.3010979"><ele>325.0</ele><time>2026-04-26T06:54:10.954Z</time></trkpt><trkpt lat="43.0909476" lon="12.3011223"><ele>325.0</ele><time>2026-04-26T06:54:13.953Z</time></trkpt><trkpt lat="43.0910406" lon="12.3011292"><ele>325.0</ele><time>2026-04-26T06:54:16.957Z</time></trkpt><trkpt lat="43.0911094" lon="12.3011105"><ele>326.66666666666663</ele><time>2026-04-26T06:54:18.953Z</time></trkpt><trkpt lat="43.0911739" lon="12.3010939"><ele>328.3333333333333</ele><time>2026-04-26T06:54:20.954Z</time></trkpt><trkpt lat="43.0912366" lon="12.3010623"><ele>330.0</ele><time>2026-04-26T06:54:22.95Z</time></trkpt><trkpt lat="43.0913005" lon="12.3010039"><ele>331.6666666666667</ele><time>2026-04-26T06:54:24.951Z</time></trkpt><trkpt lat="43.0913549" lon="12.3009232"><ele>333.33333333333337</ele><time>2026-04-26T06:54:26.955Z</time></trkpt><trkpt lat="43.0913967" lon="12.3008296"><ele>335.0</ele><time>2026-04-26T06:54:28.951Z</time></trkpt><trkpt lat="43.0914279" lon="12.3007192"><ele>335.0</ele><time>2026-04-26T06:54:30.96Z</time></trkpt><trkpt lat="43.0914445" lon="12.300603"><ele>335.0</ele><time>2026-04-26T06:54:32.963Z</time></trkpt><trkpt lat="43.0914403" lon="12.3004899"><ele>335.0</ele><time>2026-04-26T06:54:34.96Z</time></trkpt><trkpt lat="43.091424" lon="12.3003825"><ele>335.0</ele><time>2026-04-26T06:54:36.953Z</time></trkpt><trkpt lat="43.0914073" lon="12.300296"><ele>335.0</ele><time>2026-04-26T06:54:38.956Z</time></trkpt><trkpt lat="43.0914349" lon="12.3002141"><ele>335.0</ele><time>2026-04-26T06:54:42.953Z</time></trkpt><trkpt lat="43.0914867" lon="12.3001251"><ele>334.25</ele><time>2026-04-26T06:54:44.954Z</time></trkpt><trkpt lat="43.0915603" lon="12.3000025"><ele>333.5</ele><time>2026-04-26T06:54:46.951Z</time></trkpt><trkpt lat="43.0916512" lon="12.2998974"><ele>332.75</ele><time>2026-04-26T06:54:48.958Z</time></trkpt><trkpt lat="43.0917224" lon="12.2998148"><ele>332.0</ele><time>2026-04-26T06:54:50.943Z</time></trkpt><trkpt lat="43.0918706" lon="12.2997819"><ele>329.20000000000005</ele><time>2026-04-26T06:54:53.949Z</time></trkpt><trkpt lat="43.0919588" lon="12.2997105"><ele>326.40000000000003</ele><time>2026-04-26T06:54:55.953Z</time></trkpt><trkpt lat="43.0920248" lon="12.2996298"><ele>323.6</ele><time>2026-04-26T06:54:57.959Z</time></trkpt><trkpt lat="43.092102" lon="12.2995723"><ele>320.8</ele><time>2026-04-26T06:54:59.959Z</time></trkpt><trkpt lat="43.0921535" lon="12.2994756"><ele>318.0</ele><time>2026-04-26T06:55:01.951Z</time></trkpt><trkpt lat="43.0922084" lon="12.2993787"><ele>318.0</ele><time>2026-04-26T06:55:03.961Z</time></trkpt><trkpt lat="43.0922497" lon="12.2992977"><ele>318.0</ele><time>2026-04-26T06:55:05.952Z</time></trkpt><trkpt lat="43.0923289" lon="12.2992766"><ele>318.0</ele><time>2026-04-26T06:55:07.962Z</time></trkpt><trkpt lat="43.0923987" lon="12.2992243"><ele>318.0</ele><time>2026-04-26T06:55:09.951Z</time></trkpt><trkpt lat="43.0923574" lon="12.2991298"><ele>318.0</ele><time>2026-04-26T06:55:11.95Z</time></trkpt><trkpt lat="43.092337" lon="12.2990376"><ele>318.0</ele><time>2026-04-26T06:55:13.953Z</time></trkpt><trkpt lat="43.0923302" lon="12.29891"><ele>315.1666666666667</ele><time>2026-04-26T06:55:15.958Z</time></trkpt><trkpt lat="43.0923186" lon="12.2987761"><ele>312.3333333333333</ele><time>2026-04-26T06:55:17.95Z</time></trkpt><trkpt lat="43.0923679" lon="12.2986737"><ele>309.5</ele><time>2026-04-26T06:55:19.958Z</time></trkpt><trkpt lat="43.0924351" lon="12.2986271"><ele>306.66666666666663</ele><time>2026-04-26T06:55:21.945Z</time></trkpt><trkpt lat="43.0925095" lon="12.2985666"><ele>303.8333333333333</ele><time>2026-04-26T06:55:23.945Z</time></trkpt><trkpt lat="43.0925422" lon="12.2984667"><ele>301.0</ele><time>2026-04-26T06:55:25.941Z</time></trkpt><trkpt lat="43.0925288" lon="12.2983603"><ele>300.16666666666663</ele><time>2026-04-26T06:55:27.943Z</time></trkpt><trkpt lat="43.0925222" lon="12.2982358"><ele>299.3333333333333</ele><time>2026-04-26T06:55:30.953Z</time></trkpt><trkpt lat="43.0925519" lon="12.2981511"><ele>298.5</ele><time>2026-04-26T06:55:32.945Z</time></trkpt><trkpt lat="43.0926039" lon="12.2980623"><ele>297.6666666666667</ele><time>2026-04-26T06:55:34.945Z</time></trkpt><trkpt lat="43.0926935" lon="12.298"><ele>296.83333333333337</ele><time>2026-04-26T06:55:36.937Z</time></trkpt><trkpt lat="43.0927804" lon="12.2979492"><ele>296.0</ele><time>2026-04-26T06:55:38.942Z</time></trkpt><trkpt lat="43.0928536" lon="12.2978873"><ele>293.0</ele><time>2026-04-26T06:55:40.94Z</time></trkpt><trkpt lat="43.0929177" lon="12.2978275"><ele>290.0</ele><time>2026-04-26T06:55:42.941Z</time></trkpt><trkpt lat="43.0930176" lon="12.2977723"><ele>287.0</ele><time>2026-04-26T06:55:44.94Z</time></trkpt><trkpt lat="43.0930869" lon="12.29771"><ele>284.0</ele><time>2026-04-26T06:55:46.942Z</time></trkpt><trkpt lat="43.0931569" lon="12.2976808"><ele>281.0</ele><time>2026-04-26T06:55:48.942Z</time></trkpt><trkpt lat="43.0932394" lon="12.297668"><ele>278.0</ele><time>2026-04-26T06:55:50.947Z</time></trkpt><trkpt lat="43.0933159" lon="12.2976647"><ele>276.33333333333337</ele><time>2026-04-26T06:55:54.941Z</time></trkpt><trkpt lat="43.0933834" lon="12.2977172"><ele>274.6666666666667</ele><time>2026-04-26T06:55:56.945Z</time></trkpt><trkpt lat="43.0934393" lon="12.2977652"><ele>273.0</ele><time>2026-04-26T06:55:58.947Z</time></trkpt><trkpt lat="43.0935296" lon="12.297705"><ele>271.3333333333333</ele><time>2026-04-26T06:56:00.944Z</time></trkpt><trkpt lat="43.0936142" lon="12.2976648"><ele>269.66666666666663</ele><time>2026-04-26T06:56:02.939Z</time></trkpt><trkpt lat="43.0937011" lon="12.2976138"><ele>268.0</ele><time>2026-04-26T06:56:04.939Z</time></trkpt><trkpt lat="43.0937718" lon="12.297578"><ele>268.0</ele><time>2026-04-26T06:56:07.068Z</time></trkpt><trkpt lat="43.0938385" lon="12.2975093"><ele>268.0</ele><time>2026-04-26T06:56:08.94Z</time></trkpt><trkpt lat="43.0939045" lon="12.2974577"><ele>268.0</ele><time>2026-04-26T06:56:10.946Z</time></trkpt><trkpt lat="43.0939906" lon="12.2973539"><ele>268.0</ele><time>2026-04-26T06:56:12.944Z</time></trkpt><trkpt lat="43.0940403" lon="12.2972951"><ele>268.0</ele><time>2026-04-26T06:56:14.942Z</time></trkpt><trkpt lat="43.0941067" lon="12.2972606"><ele>268.0</ele><time>2026-04-26T06:56:16.941Z</time></trkpt><trkpt lat="43.0941805" lon="12.2972339"><ele>264.5</ele><time>2026-04-26T06:56:19.942Z</time></trkpt><trkpt lat="43.0942727" lon="12.2972387"><ele>261.0</ele><time>2026-04-26T06:56:22.939Z</time></trkpt><trkpt lat="43.0943035" lon="12.2971619"><ele>257.5</ele><time>2026-04-26T06:56:24.031Z</time></trkpt><trkpt lat="43.0943246" lon="12.2970276"><ele>254.0</ele><time>2026-04-26T06:56:25.955Z</time></trkpt><trkpt lat="43.0943605" lon="12.2969258"><ele>250.49999999999997</ele><time>2026-04-26T06:56:27.942Z</time></trkpt><trkpt lat="43.0943582" lon="12.2968209"><ele>247.0</ele><time>2026-04-26T06:56:30.951Z</time></trkpt><trkpt lat="43.0943516" lon="12.2967264"><ele>246.99999999999997</ele><time>2026-04-26T06:56:34.95Z</time></trkpt><trkpt lat="43.094336" lon="12.2966276"><ele>247.0</ele><time>2026-04-26T06:56:38.95Z</time></trkpt><trkpt lat="43.0943132" lon="12.2965326"><ele>247.0</ele><time>2026-04-26T06:56:42.953Z</time></trkpt><trkpt lat="43.0942846" lon="12.2964388"><ele>247.0</ele><time>2026-04-26T06:56:47.958Z</time></trkpt><trkpt lat="43.0942539" lon="12.2963467"><ele>246.99999999999997</ele><time>2026-04-26T06:56:51.951Z</time></trkpt><trkpt lat="43.0942318" lon="12.2962243"><ele>247.0</ele><time>2026-04-26T06:56:54.953Z</time></trkpt><trkpt lat="43.0942119" lon="12.2961225"><ele>245.66666666666666</ele><time>2026-04-26T06:56:56.964Z</time></trkpt><trkpt lat="43.0941973" lon="12.2960085"><ele>244.33333333333331</ele><time>2026-04-26T06:56:58.96Z</time></trkpt><trkpt lat="43.0941666" lon="12.2958782"><ele>243.0</ele><time>2026-04-26T06:57:00.958Z</time></trkpt><trkpt lat="43.0941378" lon="12.295729"><ele>241.66666666666669</ele><time>2026-04-26T06:57:02.967Z</time></trkpt><trkpt lat="43.0941228" lon="12.295644"><ele>240.33333333333334</ele><time>2026-04-26T06:57:03.966Z</time></trkpt><trkpt lat="43.0941104" lon="12.2955579"><ele>239.0</ele><time>2026-04-26T06:57:04.956Z</time></trkpt><trkpt lat="43.0940998" lon="12.2954729"><ele>239.16666666666669</ele><time>2026-04-26T06:57:05.971Z</time></trkpt><trkpt lat="43.094088" lon="12.2953844"><ele>239.33333333333334</ele><time>2026-04-26T06:57:06.962Z</time></trkpt><trkpt lat="43.0940724" lon="12.2952898"><ele>239.5</ele><time>2026-04-26T06:57:07.961Z</time></trkpt><trkpt lat="43.0940551" lon="12.2952"><ele>239.66666666666669</ele><time>2026-04-26T06:57:08.955Z</time></trkpt><trkpt lat="43.0940267" lon="12.295024"><ele>239.83333333333334</ele><time>2026-04-26T06:57:11.047Z</time></trkpt><trkpt lat="43.094008" lon="12.2949283"><ele>240.0</ele><time>2026-04-26T06:57:11.946Z</time></trkpt><trkpt lat="43.0940023" lon="12.2948339"><ele>239.16666666666666</ele><time>2026-04-26T06:57:12.941Z</time></trkpt><trkpt lat="43.0939947" lon="12.2947357"><ele>238.33333333333331</ele><time>2026-04-26T06:57:13.939Z</time></trkpt><trkpt lat="43.0939765" lon="12.2946366"><ele>237.5</ele><time>2026-04-26T06:57:14.936Z</time></trkpt><trkpt lat="43.0939466" lon="12.2944818"><ele>236.66666666666666</ele><time>2026-04-26T06:57:16.965Z</time></trkpt><trkpt lat="43.0939445" lon="12.2943634"><ele>235.83333333333331</ele><time>2026-04-26T06:57:18.956Z</time></trkpt><trkpt lat="43.0940075" lon="12.2942936"><ele>235.0</ele><time>2026-04-26T06:57:20.953Z</time></trkpt><trkpt lat="43.0940671" lon="12.2942582"><ele>234.0</ele><time>2026-04-26T06:57:22.954Z</time></trkpt><trkpt lat="43.0941174" lon="12.2943115"><ele>233.0</ele><time>2026-04-26T06:57:25.957Z</time></trkpt><trkpt lat="43.0941823" lon="12.2943343"><ele>232.0</ele><time>2026-04-26T06:57:31.944Z</time></trkpt><trkpt lat="43.0942752" lon="12.2941749"><ele>231.0</ele><time>2026-04-26T06:57:35.956Z</time></trkpt><trkpt lat="43.0943783" lon="12.2941267"><ele>230.0</ele><time>2026-04-26T06:57:37.963Z</time></trkpt><trkpt lat="43.0944922" lon="12.2940772"><ele>230.00000000000003</ele><time>2026-04-26T06:57:39.971Z</time></trkpt><trkpt lat="43.0945545" lon="12.2940503"><ele>230.0</ele><time>2026-04-26T06:57:40.955Z</time></trkpt><trkpt lat="43.0946177" lon="12.2940243"><ele>230.0</ele><time>2026-04-26T06:57:41.957Z</time></trkpt><trkpt lat="43.0947322" lon="12.2939805"><ele>230.0</ele><time>2026-04-26T06:57:43.957Z</time></trkpt><trkpt lat="43.0947929" lon="12.2939479"><ele>230.00000000000003</ele><time>2026-04-26T06:57:44.954Z</time></trkpt><trkpt lat="43.0948981" lon="12.293907"><ele>230.0</ele><time>2026-04-26T06:57:46.952Z</time></trkpt><trkpt lat="43.0950064" lon="12.2938678"><ele>229.4</ele><time>2026-04-26T06:57:48.956Z</time></trkpt><trkpt lat="43.0950692" lon="12.2938602"><ele>228.8</ele><time>2026-04-26T06:57:49.955Z</time></trkpt><trkpt lat="43.0951838" lon="12.2938319"><ele>228.2</ele><time>2026-04-26T06:57:51.957Z</time></trkpt><trkpt lat="43.0952883" lon="12.2938116"><ele>227.6</ele><time>2026-04-26T06:57:53.96Z</time></trkpt><trkpt lat="43.0953896" lon="12.2937989"><ele>227.0</ele><time>2026-04-26T06:57:55.961Z</time></trkpt><trkpt lat="43.0954897" lon="12.2937813"><ele>227.00000000000003</ele><time>2026-04-26T06:57:57.964Z</time></trkpt><trkpt lat="43.0955783" lon="12.2937873"><ele>227.0</ele><time>2026-04-26T06:57:59.952Z</time></trkpt><trkpt lat="43.0956649" lon="12.2937999"><ele>227.0</ele><time>2026-04-26T06:58:01.956Z</time></trkpt><trkpt lat="43.0957458" lon="12.2938154"><ele>227.0</ele><time>2026-04-26T06:58:03.955Z</time></trkpt><trkpt lat="43.0958218" lon="12.2938228"><ele>227.00000000000003</ele><time>2026-04-26T06:58:05.952Z</time></trkpt><trkpt lat="43.0958939" lon="12.2938176"><ele>227.0</ele><time>2026-04-26T06:58:07.956Z</time></trkpt><trkpt lat="43.0959646" lon="12.2938207"><ele>226.71428571428572</ele><time>2026-04-26T06:58:09.953Z</time></trkpt><trkpt lat="43.0960325" lon="12.2938195"><ele>226.42857142857144</ele><time>2026-04-26T06:58:11.961Z</time></trkpt><trkpt lat="43.0961011" lon="12.2938198"><ele>226.14285714285717</ele><time>2026-04-26T06:58:13.953Z</time></trkpt><trkpt lat="43.0961719" lon="12.2938218"><ele>225.8571428571429</ele><time>2026-04-26T06:58:15.952Z</time></trkpt><trkpt lat="43.0962432" lon="12.2938235"><ele>225.57142857142858</ele><time>2026-04-26T06:58:17.956Z</time></trkpt><trkpt lat="43.096319" lon="12.2938336"><ele>225.28571428571433</ele><time>2026-04-26T06:58:19.971Z</time></trkpt><trkpt lat="43.096395" lon="12.2938361"><ele>225.00000000000003</ele><time>2026-04-26T06:58:21.953Z</time></trkpt><trkpt lat="43.0964692" lon="12.2938355"><ele>225.0</ele><time>2026-04-26T06:58:23.941Z</time></trkpt><trkpt lat="43.0965486" lon="12.2938318"><ele>225.0</ele><time>2026-04-26T06:58:25.955Z</time></trkpt><trkpt lat="43.0966317" lon="12.2938349"><ele>225.0</ele><time>2026-04-26T06:58:27.95Z</time></trkpt><trkpt lat="43.096725" lon="12.2938159"><ele>225.0</ele><time>2026-04-26T06:58:29.963Z</time></trkpt><trkpt lat="43.0968078" lon="12.2938053"><ele>225.0</ele><time>2026-04-26T06:58:31.957Z</time></trkpt><trkpt lat="43.0969024" lon="12.2937923"><ele>225.0</ele><time>2026-04-26T06:58:33.952Z</time></trkpt><trkpt lat="43.0970034" lon="12.2937866"><ele>225.00000000000003</ele><time>2026-04-26T06:58:35.959Z</time></trkpt><trkpt lat="43.0970873" lon="12.2937937"><ele>225.0</ele><time>2026-04-26T06:58:37.956Z</time></trkpt><trkpt lat="43.0971706" lon="12.2937959"><ele>225.00000000000003</ele><time>2026-04-26T06:58:40.047Z</time></trkpt><trkpt lat="43.0972378" lon="12.2938088"><ele>225.00000000000003</ele><time>2026-04-26T06:58:41.956Z</time></trkpt><trkpt lat="43.0973011" lon="12.2938171"><ele>225.0</ele><time>2026-04-26T06:58:43.976Z</time></trkpt><trkpt lat="43.0973685" lon="12.2938324"><ele>225.00000000000003</ele><time>2026-04-26T06:58:46.068Z</time></trkpt><trkpt lat="43.0974459" lon="12.2938417"><ele>225.00000000000003</ele><time>2026-04-26T06:58:47.953Z</time></trkpt><trkpt lat="43.0975205" lon="12.2938427"><ele>225.14285714285717</ele><time>2026-04-26T06:58:49.952Z</time></trkpt><trkpt lat="43.0975882" lon="12.2938305"><ele>225.28571428571428</ele><time>2026-04-26T06:58:51.953Z</time></trkpt><trkpt lat="43.0976657" lon="12.2938136"><ele>225.42857142857144</ele><time>2026-04-26T06:58:53.958Z</time></trkpt><trkpt lat="43.097737" lon="12.2937786"><ele>225.57142857142858</ele><time>2026-04-26T06:58:55.954Z</time></trkpt><trkpt lat="43.0978088" lon="12.2937451"><ele>225.71428571428572</ele><time>2026-04-26T06:58:57.957Z</time></trkpt><trkpt lat="43.0978703" lon="12.2937111"><ele>225.85714285714286</ele><time>2026-04-26T06:58:59.952Z</time></trkpt><trkpt lat="43.0979304" lon="12.293676"><ele>226.0</ele><time>2026-04-26T06:59:01.955Z</time></trkpt><trkpt lat="43.0979863" lon="12.2936363"><ele>226.0</ele><time>2026-04-26T06:59:03.954Z</time></trkpt><trkpt lat="43.0980367" lon="12.2935743"><ele>226.0</ele><time>2026-04-26T06:59:05.955Z</time></trkpt><trkpt lat="43.0980748" lon="12.2935039"><ele>226.0</ele><time>2026-04-26T06:59:07.953Z</time></trkpt><trkpt lat="43.0980995" lon="12.2934224"><ele>226.0</ele><time>2026-04-26T06:59:09.952Z</time></trkpt><trkpt lat="43.0981134" lon="12.2933349"><ele>226.0</ele><time>2026-04-26T06:59:11.951Z</time></trkpt><trkpt lat="43.0981288" lon="12.2932497"><ele>226.0</ele><time>2026-04-26T06:59:13.941Z</time></trkpt><trkpt lat="43.0981426" lon="12.29316"><ele>226.0</ele><time>2026-04-26T06:59:15.941Z</time></trkpt><trkpt lat="43.0981539" lon="12.2930403"><ele>226.20000000000002</ele><time>2026-04-26T06:59:18.967Z</time></trkpt><trkpt lat="43.0981647" lon="12.2929344"><ele>226.40000000000003</ele><time>2026-04-26T06:59:20.954Z</time></trkpt><trkpt lat="43.0981825" lon="12.2927954"><ele>226.6</ele><time>2026-04-26T06:59:22.954Z</time></trkpt><trkpt lat="43.09819" lon="12.2927077"><ele>226.8</ele><time>2026-04-26T06:59:23.956Z</time></trkpt><trkpt lat="43.0982056" lon="12.2925473"><ele>227.0</ele><time>2026-04-26T06:59:25.951Z</time></trkpt><trkpt lat="43.0982337" lon="12.2923925"><ele>227.5</ele><time>2026-04-26T06:59:27.956Z</time></trkpt><trkpt lat="43.0982402" lon="12.2922327"><ele>228.0</ele><time>2026-04-26T06:59:29.954Z</time></trkpt><trkpt lat="43.0982524" lon="12.2920658"><ele>228.5</ele><time>2026-04-26T06:59:31.954Z</time></trkpt><trkpt lat="43.0982617" lon="12.2919101"><ele>229.0</ele><time>2026-04-26T06:59:33.956Z</time></trkpt><trkpt lat="43.0982546" lon="12.2917502"><ele>228.0</ele><time>2026-04-26T06:59:35.94Z</time></trkpt><trkpt lat="43.0982367" lon="12.2915825"><ele>226.99999999999997</ele><time>2026-04-26T06:59:37.959Z</time></trkpt><trkpt lat="43.0982122" lon="12.291415"><ele>225.99999999999997</ele><time>2026-04-26T06:59:39.956Z</time></trkpt><trkpt lat="43.0982067" lon="12.2913285"><ele>225.0</ele><time>2026-04-26T06:59:40.956Z</time></trkpt><trkpt lat="43.09818" lon="12.2911672"><ele>224.0</ele><time>2026-04-26T06:59:42.951Z</time></trkpt><trkpt lat="43.0981613" lon="12.2910143"><ele>223.75</ele><time>2026-04-26T06:59:44.961Z</time></trkpt><trkpt lat="43.0981168" lon="12.2908033"><ele>223.5</ele><time>2026-04-26T06:59:47.957Z</time></trkpt><trkpt lat="43.0980964" lon="12.2906617"><ele>223.25</ele><time>2026-04-26T06:59:49.951Z</time></trkpt><trkpt lat="43.0980724" lon="12.2905171"><ele>223.0</ele><time>2026-04-26T06:59:51.958Z</time></trkpt><trkpt lat="43.0980528" lon="12.2903815"><ele>223.0</ele><time>2026-04-26T06:59:53.955Z</time></trkpt><trkpt lat="43.0980308" lon="12.2902472"><ele>223.0</ele><time>2026-04-26T06:59:55.96Z</time></trkpt><trkpt lat="43.0980029" lon="12.2901142"><ele>223.0</ele><time>2026-04-26T06:59:57.953Z</time></trkpt><trkpt lat="43.0979815" lon="12.2899808"><ele>223.0</ele><time>2026-04-26T06:59:59.962Z</time></trkpt><trkpt lat="43.097956" lon="12.2898519"><ele>223.0</ele><time>2026-04-26T07:00:01.964Z</time></trkpt><trkpt lat="43.0979338" lon="12.289726"><ele>223.2</ele><time>2026-04-26T07:00:03.956Z</time></trkpt><trkpt lat="43.0979032" lon="12.2895947"><ele>223.4</ele><time>2026-04-26T07:00:05.955Z</time></trkpt><trkpt lat="43.0978813" lon="12.2894573"><ele>223.59999999999997</ele><time>2026-04-26T07:00:07.961Z</time></trkpt><trkpt lat="43.0978592" lon="12.2893215"><ele>223.79999999999998</ele><time>2026-04-26T07:00:09.945Z</time></trkpt><trkpt lat="43.0978298" lon="12.2891896"><ele>224.0</ele><time>2026-04-26T07:00:11.956Z</time></trkpt><trkpt lat="43.0978018" lon="12.2890673"><ele>224.0</ele><time>2026-04-26T07:00:13.959Z</time></trkpt><trkpt lat="43.0977816" lon="12.2889358"><ele>223.99999999999997</ele><time>2026-04-26T07:00:15.956Z</time></trkpt><trkpt lat="43.0977409" lon="12.2888174"><ele>223.99999999999997</ele><time>2026-04-26T07:00:17.969Z</time></trkpt><trkpt lat="43.0977046" lon="12.2886875"><ele>224.0</ele><time>2026-04-26T07:00:19.961Z</time></trkpt><trkpt lat="43.0976835" lon="12.2885555"><ele>224.0</ele><time>2026-04-26T07:00:21.951Z</time></trkpt><trkpt lat="43.0976586" lon="12.2884333"><ele>223.79999999999998</ele><time>2026-04-26T07:00:23.955Z</time></trkpt><trkpt lat="43.0976275" lon="12.2883145"><ele>223.59999999999997</ele><time>2026-04-26T07:00:25.961Z</time></trkpt><trkpt lat="43.0976056" lon="12.2881806"><ele>223.4</ele><time>2026-04-26T07:00:27.952Z</time></trkpt><trkpt lat="43.0975837" lon="12.2880468"><ele>223.2</ele><time>2026-04-26T07:00:29.952Z</time></trkpt><trkpt lat="43.0975637" lon="12.2879146"><ele>223.0</ele><time>2026-04-26T07:00:31.959Z</time></trkpt><trkpt lat="43.0975408" lon="12.2878"><ele>223.0</ele><time>2026-04-26T07:00:33.958Z</time></trkpt><trkpt lat="43.0975162" lon="12.2876777"><ele>223.0</ele><time>2026-04-26T07:00:35.957Z</time></trkpt><trkpt lat="43.0974877" lon="12.2875602"><ele>223.0</ele><time>2026-04-26T07:00:37.944Z</time></trkpt><trkpt lat="43.097469" lon="12.2874389"><ele>223.0</ele><time>2026-04-26T07:00:39.963Z</time></trkpt><trkpt lat="43.0974602" lon="12.2873061"><ele>223.0</ele><time>2026-04-26T07:00:41.961Z</time></trkpt><trkpt lat="43.0974809" lon="12.28719"><ele>222.99999999999997</ele><time>2026-04-26T07:00:43.944Z</time></trkpt><trkpt lat="43.0974882" lon="12.287075"><ele>223.0</ele><time>2026-04-26T07:00:45.943Z</time></trkpt><trkpt lat="43.0974427" lon="12.2869755"><ele>223.0</ele><time>2026-04-26T07:00:47.943Z</time></trkpt><trkpt lat="43.0973911" lon="12.2868745"><ele>223.0</ele><time>2026-04-26T07:00:49.959Z</time></trkpt><trkpt lat="43.0973445" lon="12.2867754"><ele>222.99999999999997</ele><time>2026-04-26T07:00:51.944Z</time></trkpt><trkpt lat="43.0973024" lon="12.2866728"><ele>223.0</ele><time>2026-04-26T07:00:53.957Z</time></trkpt><trkpt lat="43.0972572" lon="12.2865537"><ele>223.2</ele><time>2026-04-26T07:00:56.051Z</time></trkpt><trkpt lat="43.0972309" lon="12.286433"><ele>223.4</ele><time>2026-04-26T07:00:57.942Z</time></trkpt><trkpt lat="43.097198" lon="12.2863172"><ele>223.59999999999997</ele><time>2026-04-26T07:00:59.947Z</time></trkpt><trkpt lat="43.0971668" lon="12.2861949"><ele>223.79999999999998</ele><time>2026-04-26T07:01:01.942Z</time></trkpt><trkpt lat="43.0971315" lon="12.2860565"><ele>224.0</ele><time>2026-04-26T07:01:03.938Z</time></trkpt><trkpt lat="43.0970965" lon="12.2859321"><ele>223.2</ele><time>2026-04-26T07:01:05.943Z</time></trkpt><trkpt lat="43.0970631" lon="12.285805"><ele>222.39999999999998</ele><time>2026-04-26T07:01:07.941Z</time></trkpt><trkpt lat="43.0970353" lon="12.2856789"><ele>221.6</ele><time>2026-04-26T07:01:09.943Z</time></trkpt><trkpt lat="43.0970017" lon="12.2855414"><ele>220.8</ele><time>2026-04-26T07:01:11.946Z</time></trkpt><trkpt lat="43.096974" lon="12.2854101"><ele>220.0</ele><time>2026-04-26T07:01:14.052Z</time></trkpt><trkpt lat="43.0969546" lon="12.2852813"><ele>219.8</ele><time>2026-04-26T07:01:15.946Z</time></trkpt><trkpt lat="43.0969272" lon="12.2851549"><ele>219.6</ele><time>2026-04-26T07:01:17.942Z</time></trkpt><trkpt lat="43.0968917" lon="12.2850261"><ele>219.39999999999998</ele><time>2026-04-26T07:01:20.047Z</time></trkpt><trkpt lat="43.0968708" lon="12.2848987"><ele>219.2</ele><time>2026-04-26T07:01:21.951Z</time></trkpt><trkpt lat="43.0968436" lon="12.2847662"><ele>219.0</ele><time>2026-04-26T07:01:23.953Z</time></trkpt><trkpt lat="43.0968245" lon="12.2846346"><ele>219.39999999999998</ele><time>2026-04-26T07:01:26.043Z</time></trkpt><trkpt lat="43.0968164" lon="12.2845069"><ele>219.79999999999998</ele><time>2026-04-26T07:01:27.952Z</time></trkpt><trkpt lat="43.096829" lon="12.2843819"><ele>220.20000000000002</ele><time>2026-04-26T07:01:29.953Z</time></trkpt><trkpt lat="43.0968344" lon="12.2842631"><ele>220.60000000000002</ele><time>2026-04-26T07:01:32.055Z</time></trkpt><trkpt lat="43.0968075" lon="12.2841276"><ele>221.0</ele><time>2026-04-26T07:01:33.938Z</time></trkpt><trkpt lat="43.0967656" lon="12.283994"><ele>220.8</ele><time>2026-04-26T07:01:35.94Z</time></trkpt><trkpt lat="43.0967229" lon="12.2838843"><ele>220.60000000000002</ele><time>2026-04-26T07:01:37.944Z</time></trkpt><trkpt lat="43.0966922" lon="12.2837586"><ele>220.4</ele><time>2026-04-26T07:01:39.941Z</time></trkpt><trkpt lat="43.0966616" lon="12.2836253"><ele>220.2</ele><time>2026-04-26T07:01:41.944Z</time></trkpt><trkpt lat="43.0966316" lon="12.2834922"><ele>220.0</ele><time>2026-04-26T07:01:43.937Z</time></trkpt><trkpt lat="43.0966053" lon="12.2833566"><ele>219.8</ele><time>2026-04-26T07:01:45.944Z</time></trkpt><trkpt lat="43.0965743" lon="12.2832426"><ele>219.6</ele><time>2026-04-26T07:01:47.945Z</time></trkpt><trkpt lat="43.0965577" lon="12.2831225"><ele>219.39999999999998</ele><time>2026-04-26T07:01:49.94Z</time></trkpt><trkpt lat="43.0965233" lon="12.2829875"><ele>219.2</ele><time>2026-04-26T07:01:51.944Z</time></trkpt><trkpt lat="43.0964903" lon="12.2828556"><ele>219.0</ele><time>2026-04-26T07:01:53.94Z</time></trkpt><trkpt lat="43.096475" lon="12.2827291"><ele>218.79999999999998</ele><time>2026-04-26T07:01:56.053Z</time></trkpt><trkpt lat="43.0964486" lon="12.282603"><ele>218.59999999999997</ele><time>2026-04-26T07:01:57.947Z</time></trkpt><trkpt lat="43.0964244" lon="12.2824729"><ele>218.4</ele><time>2026-04-26T07:01:59.94Z</time></trkpt><trkpt lat="43.0964021" lon="12.2823386"><ele>218.2</ele><time>2026-04-26T07:02:02.045Z</time></trkpt><trkpt lat="43.0963811" lon="12.28221"><ele>218.0</ele><time>2026-04-26T07:02:03.944Z</time></trkpt><trkpt lat="43.0963611" lon="12.2820752"><ele>218.4</ele><time>2026-04-26T07:02:05.941Z</time></trkpt><trkpt lat="43.0963431" lon="12.2819511"><ele>218.8</ele><time>2026-04-26T07:02:08.04Z</time></trkpt><trkpt lat="43.0963151" lon="12.2818296"><ele>219.2</ele><time>2026-04-26T07:02:09.947Z</time></trkpt><trkpt lat="43.096285" lon="12.2817034"><ele>219.6</ele><time>2026-04-26T07:02:11.943Z</time></trkpt><trkpt lat="43.0962514" lon="12.28157"><ele>220.0</ele><time>2026-04-26T07:02:13.94Z</time></trkpt><trkpt lat="43.096216" lon="12.2814448"><ele>220.0</ele><time>2026-04-26T07:02:15.96Z</time></trkpt><trkpt lat="43.096196" lon="12.2813141"><ele>220.0</ele><time>2026-04-26T07:02:17.955Z</time></trkpt><trkpt lat="43.0961701" lon="12.2811808"><ele>220.0</ele><time>2026-04-26T07:02:19.943Z</time></trkpt><trkpt lat="43.0961455" lon="12.2810592"><ele>220.0</ele><time>2026-04-26T07:02:21.946Z</time></trkpt><trkpt lat="43.0961299" lon="12.2809322"><ele>220.0</ele><time>2026-04-26T07:02:23.951Z</time></trkpt><trkpt lat="43.0960904" lon="12.2807453"><ele>220.0</ele><time>2026-04-26T07:02:26.974Z</time></trkpt><trkpt lat="43.0960661" lon="12.2806177"><ele>220.0</ele><time>2026-04-26T07:02:28.941Z</time></trkpt><trkpt lat="43.0960429" lon="12.280485"><ele>220.0</ele><time>2026-04-26T07:02:31.055Z</time></trkpt><trkpt lat="43.0960155" lon="12.2803564"><ele>220.0</ele><time>2026-04-26T07:02:32.939Z</time></trkpt><trkpt lat="43.0959902" lon="12.2802301"><ele>220.0</ele><time>2026-04-26T07:02:34.946Z</time></trkpt><trkpt lat="43.0959704" lon="12.2801051"><ele>220.0</ele><time>2026-04-26T07:02:36.942Z</time></trkpt><trkpt lat="43.0959499" lon="12.2799878"><ele>220.0</ele><time>2026-04-26T07:02:38.938Z</time></trkpt><trkpt lat="43.0959227" lon="12.2798693"><ele>220.0</ele><time>2026-04-26T07:02:40.94Z</time></trkpt><trkpt lat="43.0958746" lon="12.2797583"><ele>220.0</ele><time>2026-04-26T07:02:42.939Z</time></trkpt><trkpt lat="43.0958496" lon="12.2796248"><ele>220.0</ele><time>2026-04-26T07:02:44.939Z</time></trkpt><trkpt lat="43.0958083" lon="12.2794746"><ele>220.0</ele><time>2026-04-26T07:02:46.944Z</time></trkpt><trkpt lat="43.095785" lon="12.2793539"><ele>220.0</ele><time>2026-04-26T07:02:48.942Z</time></trkpt><trkpt lat="43.0957645" lon="12.2792304"><ele>220.0</ele><time>2026-04-26T07:02:50.936Z</time></trkpt><trkpt lat="43.0957119" lon="12.2790743"><ele>220.0</ele><time>2026-04-26T07:02:52.938Z</time></trkpt><trkpt lat="43.0957009" lon="12.2789566"><ele>220.0</ele><time>2026-04-26T07:02:54.94Z</time></trkpt><trkpt lat="43.0956765" lon="12.2788527"><ele>219.4</ele><time>2026-04-26T07:02:56.938Z</time></trkpt><trkpt lat="43.095655" lon="12.2787067"><ele>218.8</ele><time>2026-04-26T07:02:58.941Z</time></trkpt><trkpt lat="43.0956371" lon="12.2785846"><ele>218.2</ele><time>2026-04-26T07:03:00.942Z</time></trkpt><trkpt lat="43.0956274" lon="12.278446"><ele>217.6</ele><time>2026-04-26T07:03:02.943Z</time></trkpt><trkpt lat="43.095607" lon="12.2783209"><ele>217.0</ele><time>2026-04-26T07:03:05.027Z</time></trkpt><trkpt lat="43.0955929" lon="12.278199"><ele>217.39999999999998</ele><time>2026-04-26T07:03:06.961Z</time></trkpt><trkpt lat="43.0955573" lon="12.2780729"><ele>217.79999999999998</ele><time>2026-04-26T07:03:08.97Z</time></trkpt><trkpt lat="43.0955228" lon="12.277942"><ele>218.2</ele><time>2026-04-26T07:03:10.965Z</time></trkpt><trkpt lat="43.0954873" lon="12.2778188"><ele>218.6</ele><time>2026-04-26T07:03:12.96Z</time></trkpt><trkpt lat="43.095462" lon="12.2776892"><ele>219.0</ele><time>2026-04-26T07:03:14.963Z</time></trkpt><trkpt lat="43.0954348" lon="12.2775646"><ele>219.0</ele><time>2026-04-26T07:03:16.957Z</time></trkpt><trkpt lat="43.0954079" lon="12.2774388"><ele>218.99999999999997</ele><time>2026-04-26T07:03:18.964Z</time></trkpt><trkpt lat="43.0953788" lon="12.2773083"><ele>218.99999999999997</ele><time>2026-04-26T07:03:20.945Z</time></trkpt><trkpt lat="43.0953575" lon="12.2771802"><ele>219.0</ele><time>2026-04-26T07:03:23.074Z</time></trkpt><trkpt lat="43.0953382" lon="12.2770507"><ele>219.0</ele><time>2026-04-26T07:03:24.954Z</time></trkpt><trkpt lat="43.0953117" lon="12.2769203"><ele>219.0</ele><time>2026-04-26T07:03:26.96Z</time></trkpt><trkpt lat="43.0952806" lon="12.2768013"><ele>218.99999999999997</ele><time>2026-04-26T07:03:28.943Z</time></trkpt><trkpt lat="43.0952665" lon="12.2766838"><ele>218.99999999999997</ele><time>2026-04-26T07:03:30.968Z</time></trkpt><trkpt lat="43.0952334" lon="12.2765692"><ele>219.0</ele><time>2026-04-26T07:03:32.964Z</time></trkpt><trkpt lat="43.0952033" lon="12.2764496"><ele>219.0</ele><time>2026-04-26T07:03:34.96Z</time></trkpt><trkpt lat="43.0951796" lon="12.2763262"><ele>218.79999999999998</ele><time>2026-04-26T07:03:36.944Z</time></trkpt><trkpt lat="43.0951604" lon="12.276207"><ele>218.59999999999997</ele><time>2026-04-26T07:03:38.964Z</time></trkpt><trkpt lat="43.0951337" lon="12.2760889"><ele>218.4</ele><time>2026-04-26T07:03:41.044Z</time></trkpt><trkpt lat="43.0951026" lon="12.2759589"><ele>218.2</ele><time>2026-04-26T07:03:42.952Z</time></trkpt><trkpt lat="43.0950863" lon="12.2758423"><ele>218.0</ele><time>2026-04-26T07:03:44.962Z</time></trkpt><trkpt lat="43.0950597" lon="12.2757266"><ele>218.0</ele><time>2026-04-26T07:03:46.952Z</time></trkpt><trkpt lat="43.0950465" lon="12.2756057"><ele>218.0</ele><time>2026-04-26T07:03:48.947Z</time></trkpt><trkpt lat="43.0950201" lon="12.2754762"><ele>218.0</ele><time>2026-04-26T07:03:50.966Z</time></trkpt><trkpt lat="43.0949931" lon="12.2753547"><ele>218.0</ele><time>2026-04-26T07:03:52.953Z</time></trkpt><trkpt lat="43.0949666" lon="12.2752319"><ele>218.0</ele><time>2026-04-26T07:03:54.967Z</time></trkpt><trkpt lat="43.0949366" lon="12.2751152"><ele>218.0</ele><time>2026-04-26T07:03:56.941Z</time></trkpt><trkpt lat="43.0949085" lon="12.2750006"><ele>218.0</ele><time>2026-04-26T07:03:58.938Z</time></trkpt><trkpt lat="43.094886" lon="12.2748784"><ele>218.0</ele><time>2026-04-26T07:04:00.951Z</time></trkpt><trkpt lat="43.0948647" lon="12.2747621"><ele>218.0</ele><time>2026-04-26T07:04:02.942Z</time></trkpt><trkpt lat="43.0948408" lon="12.2746414"><ele>218.0</ele><time>2026-04-26T07:04:04.964Z</time></trkpt><trkpt lat="43.0948105" lon="12.2745181"><ele>218.0</ele><time>2026-04-26T07:04:06.956Z</time></trkpt><trkpt lat="43.0947852" lon="12.2743934"><ele>218.0</ele><time>2026-04-26T07:04:08.954Z</time></trkpt><trkpt lat="43.0947685" lon="12.2742718"><ele>218.0</ele><time>2026-04-26T07:04:10.962Z</time></trkpt><trkpt lat="43.0947471" lon="12.2741462"><ele>218.0</ele><time>2026-04-26T07:04:12.959Z</time></trkpt><trkpt lat="43.0947343" lon="12.2740255"><ele>218.0</ele><time>2026-04-26T07:04:14.953Z</time></trkpt><trkpt lat="43.0946999" lon="12.2739052"><ele>218.0</ele><time>2026-04-26T07:04:16.958Z</time></trkpt><trkpt lat="43.0946731" lon="12.2737928"><ele>218.0</ele><time>2026-04-26T07:04:18.942Z</time></trkpt><trkpt lat="43.0946384" lon="12.2736793"><ele>218.0</ele><time>2026-04-26T07:04:20.952Z</time></trkpt><trkpt lat="43.094615" lon="12.2735516"><ele>218.0</ele><time>2026-04-26T07:04:22.966Z</time></trkpt><trkpt lat="43.0945941" lon="12.2734228"><ele>218.0</ele><time>2026-04-26T07:04:24.962Z</time></trkpt><trkpt lat="43.0945677" lon="12.2733019"><ele>218.0</ele><time>2026-04-26T07:04:26.954Z</time></trkpt><trkpt lat="43.0945447" lon="12.2731249"><ele>218.0</ele><time>2026-04-26T07:04:29.958Z</time></trkpt><trkpt lat="43.0945167" lon="12.272992"><ele>218.0</ele><time>2026-04-26T07:04:31.963Z</time></trkpt><trkpt lat="43.094492" lon="12.2728729"><ele>218.0</ele><time>2026-04-26T07:04:34.063Z</time></trkpt><trkpt lat="43.0944703" lon="12.2727573"><ele>218.0</ele><time>2026-04-26T07:04:35.952Z</time></trkpt><trkpt lat="43.0944443" lon="12.2726634"><ele>218.16666666666669</ele><time>2026-04-26T07:04:37.953Z</time></trkpt><trkpt lat="43.0944195" lon="12.2725628"><ele>218.33333333333334</ele><time>2026-04-26T07:04:39.956Z</time></trkpt><trkpt lat="43.0943989" lon="12.2724548"><ele>218.5</ele><time>2026-04-26T07:04:41.955Z</time></trkpt><trkpt lat="43.0943787" lon="12.2723337"><ele>218.66666666666669</ele><time>2026-04-26T07:04:43.954Z</time></trkpt><trkpt lat="43.0943647" lon="12.2722154"><ele>218.83333333333334</ele><time>2026-04-26T07:04:45.941Z</time></trkpt><trkpt lat="43.0943429" lon="12.2721003"><ele>219.0</ele><time>2026-04-26T07:04:47.947Z</time></trkpt><trkpt lat="43.0943212" lon="12.2719832"><ele>219.2</ele><time>2026-04-26T07:04:49.939Z</time></trkpt><trkpt lat="43.0943048" lon="12.2718608"><ele>219.39999999999998</ele><time>2026-04-26T07:04:51.943Z</time></trkpt><trkpt lat="43.0942609" lon="12.2717386"><ele>219.6</ele><time>2026-04-26T07:04:53.953Z</time></trkpt><trkpt lat="43.0942304" lon="12.2716166"><ele>219.8</ele><time>2026-04-26T07:04:55.957Z</time></trkpt><trkpt lat="43.0942103" lon="12.2715003"><ele>220.0</ele><time>2026-04-26T07:04:57.951Z</time></trkpt><trkpt lat="43.0941894" lon="12.2713788"><ele>220.0</ele><time>2026-04-26T07:04:59.943Z</time></trkpt><trkpt lat="43.0941857" lon="12.2712538"><ele>220.0</ele><time>2026-04-26T07:05:01.957Z</time></trkpt><trkpt lat="43.0941615" lon="12.2711272"><ele>220.0</ele><time>2026-04-26T07:05:03.962Z</time></trkpt><trkpt lat="43.0941369" lon="12.2710114"><ele>220.0</ele><time>2026-04-26T07:05:05.951Z</time></trkpt><trkpt lat="43.0941069" lon="12.2708901"><ele>220.0</ele><time>2026-04-26T07:05:07.953Z</time></trkpt><trkpt lat="43.0940825" lon="12.2707665"><ele>219.99999999999997</ele><time>2026-04-26T07:05:09.955Z</time></trkpt><trkpt lat="43.0940576" lon="12.2706486"><ele>220.0</ele><time>2026-04-26T07:05:11.958Z</time></trkpt><trkpt lat="43.0940317" lon="12.2705274"><ele>220.0</ele><time>2026-04-26T07:05:13.975Z</time></trkpt><trkpt lat="43.0940159" lon="12.2704161"><ele>220.0</ele><time>2026-04-26T07:05:15.956Z</time></trkpt><trkpt lat="43.093991" lon="12.2702995"><ele>219.99999999999997</ele><time>2026-04-26T07:05:17.956Z</time></trkpt><trkpt lat="43.0939738" lon="12.2701853"><ele>220.0</ele><time>2026-04-26T07:05:19.951Z</time></trkpt><trkpt lat="43.0939655" lon="12.2700703"><ele>219.99999999999997</ele><time>2026-04-26T07:05:21.943Z</time></trkpt><trkpt lat="43.093948" lon="12.269958"><ele>220.0</ele><time>2026-04-26T07:05:23.954Z</time></trkpt><trkpt lat="43.0939163" lon="12.2698424"><ele>220.0</ele><time>2026-04-26T07:05:25.955Z</time></trkpt><trkpt lat="43.0938783" lon="12.2697304"><ele>220.0</ele><time>2026-04-26T07:05:27.959Z</time></trkpt><trkpt lat="43.0938488" lon="12.2696148"><ele>219.99999999999997</ele><time>2026-04-26T07:05:29.952Z</time></trkpt><trkpt lat="43.0938247" lon="12.2694989"><ele>220.0</ele><time>2026-04-26T07:05:31.951Z</time></trkpt><trkpt lat="43.0937959" lon="12.2693903"><ele>220.16666666666666</ele><time>2026-04-26T07:05:33.953Z</time></trkpt><trkpt lat="43.093764" lon="12.2692827"><ele>220.33333333333331</ele><time>2026-04-26T07:05:35.939Z</time></trkpt><trkpt lat="43.093736" lon="12.2691666"><ele>220.5</ele><time>2026-04-26T07:05:37.954Z</time></trkpt><trkpt lat="43.0937004" lon="12.2690533"><ele>220.66666666666669</ele><time>2026-04-26T07:05:39.96Z</time></trkpt><trkpt lat="43.0936406" lon="12.2689664"><ele>220.83333333333334</ele><time>2026-04-26T07:05:41.964Z</time></trkpt><trkpt lat="43.0935641" lon="12.2689128"><ele>221.0</ele><time>2026-04-26T07:05:43.94Z</time></trkpt><trkpt lat="43.0934896" lon="12.2689051"><ele>221.0</ele><time>2026-04-26T07:05:45.959Z</time></trkpt><trkpt lat="43.0934078" lon="12.2689285"><ele>221.00000000000003</ele><time>2026-04-26T07:05:47.953Z</time></trkpt><trkpt lat="43.0933128" lon="12.2689571"><ele>221.00000000000003</ele><time>2026-04-26T07:05:49.956Z</time></trkpt><trkpt lat="43.0932078" lon="12.2689633"><ele>221.0</ele><time>2026-04-26T07:05:51.953Z</time></trkpt><trkpt lat="43.0931096" lon="12.2689633"><ele>221.0</ele><time>2026-04-26T07:05:53.959Z</time></trkpt><trkpt lat="43.0930181" lon="12.2689669"><ele>221.4</ele><time>2026-04-26T07:05:56.037Z</time></trkpt><trkpt lat="43.0929308" lon="12.2689636"><ele>221.8</ele><time>2026-04-26T07:05:57.948Z</time></trkpt><trkpt lat="43.0928395" lon="12.2689619"><ele>222.20000000000002</ele><time>2026-04-26T07:05:59.938Z</time></trkpt><trkpt lat="43.0927465" lon="12.2689526"><ele>222.60000000000002</ele><time>2026-04-26T07:06:01.938Z</time></trkpt><trkpt lat="43.0926581" lon="12.268938"><ele>223.0</ele><time>2026-04-26T07:06:03.947Z</time></trkpt><trkpt lat="43.0925685" lon="12.2689287"><ele>224.99999999999997</ele><time>2026-04-26T07:06:05.94Z</time></trkpt><trkpt lat="43.0924875" lon="12.2689188"><ele>227.0</ele><time>2026-04-26T07:06:07.947Z</time></trkpt><trkpt lat="43.0924069" lon="12.268909"><ele>229.0</ele><time>2026-04-26T07:06:09.94Z</time></trkpt><trkpt lat="43.0923278" lon="12.2688977"><ele>231.0</ele><time>2026-04-26T07:06:11.945Z</time></trkpt><trkpt lat="43.0922474" lon="12.2688901"><ele>232.99999999999997</ele><time>2026-04-26T07:06:13.944Z</time></trkpt><trkpt lat="43.0921643" lon="12.2688782"><ele>235.0</ele><time>2026-04-26T07:06:15.944Z</time></trkpt><trkpt lat="43.0920865" lon="12.2688667"><ele>234.99999999999997</ele><time>2026-04-26T07:06:17.953Z</time></trkpt><trkpt lat="43.0920116" lon="12.2688586"><ele>235.0</ele><time>2026-04-26T07:06:19.961Z</time></trkpt><trkpt lat="43.0919358" lon="12.268848"><ele>235.0</ele><time>2026-04-26T07:06:21.953Z</time></trkpt><trkpt lat="43.0918596" lon="12.2688416"><ele>235.0</ele><time>2026-04-26T07:06:23.952Z</time></trkpt><trkpt lat="43.0917852" lon="12.2688249"><ele>234.99999999999997</ele><time>2026-04-26T07:06:25.957Z</time></trkpt><trkpt lat="43.0917115" lon="12.2687997"><ele>235.0</ele><time>2026-04-26T07:06:27.954Z</time></trkpt><trkpt lat="43.0916374" lon="12.268777"><ele>233.6</ele><time>2026-04-26T07:06:29.952Z</time></trkpt><trkpt lat="43.0915638" lon="12.2687748"><ele>232.2</ele><time>2026-04-26T07:06:31.957Z</time></trkpt><trkpt lat="43.0914856" lon="12.2687886"><ele>230.8</ele><time>2026-04-26T07:06:33.952Z</time></trkpt><trkpt lat="43.0913994" lon="12.2688154"><ele>229.4</ele><time>2026-04-26T07:06:35.956Z</time></trkpt><trkpt lat="43.0912997" lon="12.2688687"><ele>228.0</ele><time>2026-04-26T07:06:37.957Z</time></trkpt><trkpt lat="43.0911818" lon="12.2689218"><ele>227.0</ele><time>2026-04-26T07:06:39.962Z</time></trkpt><trkpt lat="43.0911171" lon="12.2689502"><ele>226.0</ele><time>2026-04-26T07:06:40.948Z</time></trkpt><trkpt lat="43.0910451" lon="12.2689899"><ele>225.0</ele><time>2026-04-26T07:06:41.96Z</time></trkpt><trkpt lat="43.090972" lon="12.269016"><ele>224.0</ele><time>2026-04-26T07:06:42.955Z</time></trkpt><trkpt lat="43.0908934" lon="12.2690485"><ele>223.0</ele><time>2026-04-26T07:06:43.959Z</time></trkpt><trkpt lat="43.0908186" lon="12.2690828"><ele>222.0</ele><time>2026-04-26T07:06:44.958Z</time></trkpt><trkpt lat="43.09074" lon="12.2691322"><ele>221.5</ele><time>2026-04-26T07:06:45.953Z</time></trkpt><trkpt lat="43.090662" lon="12.2691887"><ele>221.0</ele><time>2026-04-26T07:06:46.961Z</time></trkpt><trkpt lat="43.0905857" lon="12.269245"><ele>220.5</ele><time>2026-04-26T07:06:47.957Z</time></trkpt><trkpt lat="43.090513" lon="12.2692981"><ele>220.0</ele><time>2026-04-26T07:06:48.957Z</time></trkpt><trkpt lat="43.0904417" lon="12.2693657"><ele>219.5</ele><time>2026-04-26T07:06:49.957Z</time></trkpt><trkpt lat="43.090373" lon="12.2694314"><ele>219.0</ele><time>2026-04-26T07:06:51.047Z</time></trkpt><trkpt lat="43.0903048" lon="12.2694926"><ele>219.0</ele><time>2026-04-26T07:06:51.958Z</time></trkpt><trkpt lat="43.0902369" lon="12.2695462"><ele>219.0</ele><time>2026-04-26T07:06:52.947Z</time></trkpt><trkpt lat="43.0901722" lon="12.2695884"><ele>219.0</ele><time>2026-04-26T07:06:53.953Z</time></trkpt><trkpt lat="43.0901171" lon="12.2696338"><ele>219.0</ele><time>2026-04-26T07:06:54.958Z</time></trkpt><trkpt lat="43.0900276" lon="12.2696878"><ele>219.0</ele><time>2026-04-26T07:06:56.95Z</time></trkpt><trkpt lat="43.0899655" lon="12.269647"><ele>219.0</ele><time>2026-04-26T07:06:58.943Z</time></trkpt><trkpt lat="43.0899196" lon="12.269542"><ele>218.79999999999998</ele><time>2026-04-26T07:07:00.954Z</time></trkpt><trkpt lat="43.0898565" lon="12.2694326"><ele>218.59999999999997</ele><time>2026-04-26T07:07:02.955Z</time></trkpt><trkpt lat="43.0898017" lon="12.2693241"><ele>218.4</ele><time>2026-04-26T07:07:04.95Z</time></trkpt><trkpt lat="43.0897458" lon="12.2692101"><ele>218.2</ele><time>2026-04-26T07:07:06.965Z</time></trkpt><trkpt lat="43.0897024" lon="12.2690981"><ele>218.0</ele><time>2026-04-26T07:07:08.953Z</time></trkpt><trkpt lat="43.0896531" lon="12.2689864"><ele>218.2</ele><time>2026-04-26T07:07:10.958Z</time></trkpt><trkpt lat="43.0896081" lon="12.2688779"><ele>218.4</ele><time>2026-04-26T07:07:12.944Z</time></trkpt><trkpt lat="43.0895692" lon="12.2687644"><ele>218.59999999999997</ele><time>2026-04-26T07:07:15.057Z</time></trkpt><trkpt lat="43.0895514" lon="12.2686333"><ele>218.79999999999998</ele><time>2026-04-26T07:07:16.956Z</time></trkpt><trkpt lat="43.0895402" lon="12.268506"><ele>219.0</ele><time>2026-04-26T07:07:18.953Z</time></trkpt><trkpt lat="43.0895295" lon="12.2683821"><ele>219.0</ele><time>2026-04-26T07:07:20.953Z</time></trkpt><trkpt lat="43.0895131" lon="12.2682607"><ele>218.99999999999997</ele><time>2026-04-26T07:07:22.961Z</time></trkpt><trkpt lat="43.0894786" lon="12.2681306"><ele>218.99999999999997</ele><time>2026-04-26T07:07:24.953Z</time></trkpt><trkpt lat="43.089438" lon="12.2680039"><ele>219.0</ele><time>2026-04-26T07:07:26.944Z</time></trkpt><trkpt lat="43.0894035" lon="12.2678807"><ele>219.0</ele><time>2026-04-26T07:07:28.961Z</time></trkpt><trkpt lat="43.0893585" lon="12.2677601"><ele>218.79999999999998</ele><time>2026-04-26T07:07:30.957Z</time></trkpt><trkpt lat="43.0893085" lon="12.2676459"><ele>218.59999999999997</ele><time>2026-04-26T07:07:32.952Z</time></trkpt><trkpt lat="43.0892618" lon="12.2675241"><ele>218.4</ele><time>2026-04-26T07:07:34.946Z</time></trkpt><trkpt lat="43.0892384" lon="12.2674117"><ele>218.2</ele><time>2026-04-26T07:07:36.937Z</time></trkpt><trkpt lat="43.0892208" lon="12.2672818"><ele>218.0</ele><time>2026-04-26T07:07:38.941Z</time></trkpt><trkpt lat="43.0892138" lon="12.2671587"><ele>218.4</ele><time>2026-04-26T07:07:40.941Z</time></trkpt><trkpt lat="43.0891909" lon="12.2670303"><ele>218.8</ele><time>2026-04-26T07:07:42.943Z</time></trkpt><trkpt lat="43.0891715" lon="12.2668987"><ele>219.2</ele><time>2026-04-26T07:07:44.941Z</time></trkpt><trkpt lat="43.0891589" lon="12.2667669"><ele>219.6</ele><time>2026-04-26T07:07:46.944Z</time></trkpt><trkpt lat="43.089143" lon="12.2666406"><ele>220.0</ele><time>2026-04-26T07:07:48.938Z</time></trkpt><trkpt lat="43.0891377" lon="12.2665025"><ele>220.0</ele><time>2026-04-26T07:07:50.943Z</time></trkpt><trkpt lat="43.0891131" lon="12.2663787"><ele>220.0</ele><time>2026-04-26T07:07:52.947Z</time></trkpt><trkpt lat="43.0890835" lon="12.2662499"><ele>220.0</ele><time>2026-04-26T07:07:54.95Z</time></trkpt><trkpt lat="43.0890526" lon="12.2661349"><ele>220.0</ele><time>2026-04-26T07:07:56.943Z</time></trkpt><trkpt lat="43.0890124" lon="12.266014"><ele>220.0</ele><time>2026-04-26T07:07:58.943Z</time></trkpt><trkpt lat="43.0889709" lon="12.2658998"><ele>219.8</ele><time>2026-04-26T07:08:00.94Z</time></trkpt><trkpt lat="43.0889281" lon="12.2657929"><ele>219.6</ele><time>2026-04-26T07:08:02.944Z</time></trkpt><trkpt lat="43.0888814" lon="12.2656858"><ele>219.39999999999998</ele><time>2026-04-26T07:08:04.947Z</time></trkpt><trkpt lat="43.0888337" lon="12.2655772"><ele>219.2</ele><time>2026-04-26T07:08:06.941Z</time></trkpt><trkpt lat="43.0887607" lon="12.2654114"><ele>219.0</ele><time>2026-04-26T07:08:09.952Z</time></trkpt><trkpt lat="43.0887136" lon="12.2653017"><ele>219.0</ele><time>2026-04-26T07:08:11.947Z</time></trkpt><trkpt lat="43.088668" lon="12.2651947"><ele>218.99999999999997</ele><time>2026-04-26T07:08:13.946Z</time></trkpt><trkpt lat="43.0886379" lon="12.265087"><ele>218.99999999999997</ele><time>2026-04-26T07:08:15.946Z</time></trkpt><trkpt lat="43.088623" lon="12.2649596"><ele>219.0</ele><time>2026-04-26T07:08:17.953Z</time></trkpt><trkpt lat="43.0886115" lon="12.264834"><ele>219.0</ele><time>2026-04-26T07:08:19.955Z</time></trkpt><trkpt lat="43.0886132" lon="12.2647011"><ele>219.0</ele><time>2026-04-26T07:08:21.952Z</time></trkpt><trkpt lat="43.0886184" lon="12.2645694"><ele>219.0</ele><time>2026-04-26T07:08:23.953Z</time></trkpt><trkpt lat="43.0886284" lon="12.2644501"><ele>219.0</ele><time>2026-04-26T07:08:25.956Z</time></trkpt><trkpt lat="43.0886294" lon="12.2643389"><ele>219.0</ele><time>2026-04-26T07:08:27.953Z</time></trkpt><trkpt lat="43.088638" lon="12.2642232"><ele>219.0</ele><time>2026-04-26T07:08:29.955Z</time></trkpt><trkpt lat="43.0886544" lon="12.2640978"><ele>219.0</ele><time>2026-04-26T07:08:31.956Z</time></trkpt><trkpt lat="43.0886658" lon="12.2639766"><ele>219.33333333333334</ele><time>2026-04-26T07:08:33.969Z</time></trkpt><trkpt lat="43.0886958" lon="12.2638608"><ele>219.66666666666669</ele><time>2026-04-26T07:08:35.943Z</time></trkpt><trkpt lat="43.088714" lon="12.2637417"><ele>220.0</ele><time>2026-04-26T07:08:37.957Z</time></trkpt><trkpt lat="43.0887318" lon="12.2636305"><ele>220.33333333333334</ele><time>2026-04-26T07:08:39.962Z</time></trkpt><trkpt lat="43.0887581" lon="12.2635168"><ele>220.66666666666669</ele><time>2026-04-26T07:08:41.973Z</time></trkpt><trkpt lat="43.0887804" lon="12.2634079"><ele>221.0</ele><time>2026-04-26T07:08:43.953Z</time></trkpt><trkpt lat="43.088794" lon="12.2633042"><ele>221.00000000000003</ele><time>2026-04-26T07:08:45.957Z</time></trkpt><trkpt lat="43.088806" lon="12.2632061"><ele>221.0</ele><time>2026-04-26T07:08:47.953Z</time></trkpt><trkpt lat="43.0888284" lon="12.2631246"><ele>221.0</ele><time>2026-04-26T07:08:49.953Z</time></trkpt><trkpt lat="43.0888529" lon="12.2630067"><ele>221.0</ele><time>2026-04-26T07:08:52.957Z</time></trkpt><trkpt lat="43.0888766" lon="12.2629126"><ele>221.00000000000003</ele><time>2026-04-26T07:08:54.954Z</time></trkpt><trkpt lat="43.0889146" lon="12.2628194"><ele>221.0</ele><time>2026-04-26T07:08:56.965Z</time></trkpt><trkpt lat="43.088953" lon="12.2627263"><ele>221.83333333333334</ele><time>2026-04-26T07:08:58.944Z</time></trkpt><trkpt lat="43.0889929" lon="12.2626314"><ele>222.66666666666669</ele><time>2026-04-26T07:09:00.956Z</time></trkpt><trkpt lat="43.0890288" lon="12.2625313"><ele>223.5</ele><time>2026-04-26T07:09:02.953Z</time></trkpt><trkpt lat="43.0890541" lon="12.2624275"><ele>224.33333333333331</ele><time>2026-04-26T07:09:04.954Z</time></trkpt><trkpt lat="43.089071" lon="12.2623169"><ele>225.16666666666666</ele><time>2026-04-26T07:09:06.961Z</time></trkpt><trkpt lat="43.0890789" lon="12.2622034"><ele>226.0</ele><time>2026-04-26T07:09:08.958Z</time></trkpt><trkpt lat="43.0890738" lon="12.2620919"><ele>226.16666666666666</ele><time>2026-04-26T07:09:10.955Z</time></trkpt><trkpt lat="43.0890608" lon="12.2619893"><ele>226.33333333333331</ele><time>2026-04-26T07:09:12.954Z</time></trkpt><trkpt lat="43.0890368" lon="12.2618913"><ele>226.5</ele><time>2026-04-26T07:09:14.952Z</time></trkpt><trkpt lat="43.089004" lon="12.2617963"><ele>226.66666666666669</ele><time>2026-04-26T07:09:16.951Z</time></trkpt><trkpt lat="43.088977" lon="12.2616986"><ele>226.83333333333334</ele><time>2026-04-26T07:09:18.963Z</time></trkpt><trkpt lat="43.0889472" lon="12.2616023"><ele>227.0</ele><time>2026-04-26T07:09:20.953Z</time></trkpt><trkpt lat="43.088919" lon="12.2615064"><ele>227.66666666666669</ele><time>2026-04-26T07:09:22.955Z</time></trkpt><trkpt lat="43.0888917" lon="12.2614099"><ele>228.33333333333334</ele><time>2026-04-26T07:09:24.955Z</time></trkpt><trkpt lat="43.0888635" lon="12.261311"><ele>229.0</ele><time>2026-04-26T07:09:26.954Z</time></trkpt><trkpt lat="43.0888234" lon="12.2612139"><ele>229.66666666666669</ele><time>2026-04-26T07:09:28.954Z</time></trkpt><trkpt lat="43.0887767" lon="12.2611175"><ele>230.33333333333334</ele><time>2026-04-26T07:09:30.955Z</time></trkpt><trkpt lat="43.0887351" lon="12.2610154"><ele>231.0</ele><time>2026-04-26T07:09:32.954Z</time></trkpt><trkpt lat="43.0887007" lon="12.2609188"><ele>231.0</ele><time>2026-04-26T07:09:34.955Z</time></trkpt><trkpt lat="43.0886378" lon="12.2608435"><ele>231.0</ele><time>2026-04-26T07:09:37.955Z</time></trkpt><trkpt lat="43.088575" lon="12.2608254"><ele>231.0</ele><time>2026-04-26T07:09:40.954Z</time></trkpt><trkpt lat="43.0884896" lon="12.260865"><ele>231.0</ele><time>2026-04-26T07:09:43.955Z</time></trkpt><trkpt lat="43.0884301" lon="12.2609003"><ele>231.0</ele><time>2026-04-26T07:09:45.952Z</time></trkpt><trkpt lat="43.0883687" lon="12.2609315"><ele>231.0</ele><time>2026-04-26T07:09:47.952Z</time></trkpt><trkpt lat="43.0883095" lon="12.2609645"><ele>231.0</ele><time>2026-04-26T07:09:49.951Z</time></trkpt><trkpt lat="43.0882276" lon="12.2609805"><ele>232.14285714285714</ele><time>2026-04-26T07:09:52.955Z</time></trkpt><trkpt lat="43.0881435" lon="12.2609973"><ele>233.28571428571428</ele><time>2026-04-26T07:09:55.949Z</time></trkpt><trkpt lat="43.0880621" lon="12.2609874"><ele>234.42857142857144</ele><time>2026-04-26T07:09:58.94Z</time></trkpt><trkpt lat="43.0880036" lon="12.2609308"><ele>235.57142857142858</ele><time>2026-04-26T07:10:01.967Z</time></trkpt><trkpt lat="43.0879729" lon="12.2608376"><ele>236.71428571428572</ele><time>2026-04-26T07:10:04.953Z</time></trkpt><trkpt lat="43.0879386" lon="12.260765"><ele>237.8571428571429</ele><time>2026-04-26T07:10:07.953Z</time></trkpt><trkpt lat="43.0878978" lon="12.2606917"><ele>239.00000000000003</ele><time>2026-04-26T07:10:11.053Z</time></trkpt><trkpt lat="43.0878541" lon="12.260608"><ele>240.50000000000003</ele><time>2026-04-26T07:10:13.952Z</time></trkpt><trkpt lat="43.087816" lon="12.2605186"><ele>242.0</ele><time>2026-04-26T07:10:16.952Z</time></trkpt><trkpt lat="43.087787" lon="12.2604191"><ele>243.5</ele><time>2026-04-26T07:10:19.937Z</time></trkpt><trkpt lat="43.0877507" lon="12.2603425"><ele>245.0</ele><time>2026-04-26T07:10:23.053Z</time></trkpt><trkpt lat="43.0877067" lon="12.2602491"><ele>246.50000000000003</ele><time>2026-04-26T07:10:26.942Z</time></trkpt><trkpt lat="43.0876502" lon="12.2601933"><ele>248.0</ele><time>2026-04-26T07:10:30.94Z</time></trkpt><trkpt lat="43.0875646" lon="12.2601885"><ele>248.0</ele><time>2026-04-26T07:10:34.943Z</time></trkpt><trkpt lat="43.0875083" lon="12.2601371"><ele>248.00000000000003</ele><time>2026-04-26T07:10:36.957Z</time></trkpt><trkpt lat="43.0874798" lon="12.2600464"><ele>248.0</ele><time>2026-04-26T07:10:40.959Z</time></trkpt><trkpt lat="43.0874253" lon="12.2600958"><ele>248.0</ele><time>2026-04-26T07:11:53.942Z</time></trkpt><trkpt lat="43.0874876" lon="12.2600348"><ele>248.00000000000003</ele><time>2026-04-26T07:12:25.952Z</time></trkpt><trkpt lat="43.0875486" lon="12.2599764"><ele>248.0</ele><time>2026-04-26T07:12:29.951Z</time></trkpt><trkpt lat="43.0875948" lon="12.2599064"><ele>248.0</ele><time>2026-04-26T07:12:34.952Z</time></trkpt><trkpt lat="43.0876416" lon="12.2598311"><ele>249.57142857142858</ele><time>2026-04-26T07:12:39.957Z</time></trkpt><trkpt lat="43.0876903" lon="12.2597632"><ele>251.14285714285717</ele><time>2026-04-26T07:12:43.954Z</time></trkpt><trkpt lat="43.0877396" lon="12.2597031"><ele>252.71428571428572</ele><time>2026-04-26T07:12:46.952Z</time></trkpt><trkpt lat="43.0877859" lon="12.2596333"><ele>254.28571428571428</ele><time>2026-04-26T07:12:49.956Z</time></trkpt><trkpt lat="43.0878292" lon="12.2595602"><ele>255.85714285714286</ele><time>2026-04-26T07:12:52.953Z</time></trkpt><trkpt lat="43.0878634" lon="12.2594793"><ele>257.42857142857144</ele><time>2026-04-26T07:12:55.954Z</time></trkpt><trkpt lat="43.0878989" lon="12.2593993"><ele>259.0</ele><time>2026-04-26T07:12:58.952Z</time></trkpt><trkpt lat="43.0879329" lon="12.2593153"><ele>259.0</ele><time>2026-04-26T07:13:01.953Z</time></trkpt><trkpt lat="43.0879628" lon="12.2592377"><ele>259.0</ele><time>2026-04-26T07:13:04.955Z</time></trkpt><trkpt lat="43.0879951" lon="12.2591565"><ele>259.0</ele><time>2026-04-26T07:13:08.959Z</time></trkpt><trkpt lat="43.0880363" lon="12.2590761"><ele>259.0</ele><time>2026-04-26T07:13:12.94Z</time></trkpt><trkpt lat="43.0880782" lon="12.2589998"><ele>259.0</ele><time>2026-04-26T07:13:16.953Z</time></trkpt><trkpt lat="43.0881221" lon="12.258923"><ele>259.0</ele><time>2026-04-26T07:13:20.957Z</time></trkpt><trkpt lat="43.0881554" lon="12.2588236"><ele>259.0</ele><time>2026-04-26T07:13:24.952Z</time></trkpt><trkpt lat="43.0881811" lon="12.2587395"><ele>258.57142857142856</ele><time>2026-04-26T07:13:27.952Z</time></trkpt><trkpt lat="43.0882085" lon="12.2586547"><ele>258.1428571428571</ele><time>2026-04-26T07:13:30.953Z</time></trkpt><trkpt lat="43.0882399" lon="12.2585608"><ele>257.7142857142857</ele><time>2026-04-26T07:13:35.056Z</time></trkpt><trkpt lat="43.0882609" lon="12.2584764"><ele>257.2857142857143</ele><time>2026-04-26T07:13:37.953Z</time></trkpt><trkpt lat="43.0882977" lon="12.2583771"><ele>256.85714285714283</ele><time>2026-04-26T07:13:41.954Z</time></trkpt><trkpt lat="43.0883318" lon="12.2583012"><ele>256.42857142857144</ele><time>2026-04-26T07:13:43.955Z</time></trkpt><trkpt lat="43.088343" lon="12.2581841"><ele>256.0</ele><time>2026-04-26T07:13:45.94Z</time></trkpt><trkpt lat="43.0883708" lon="12.2579539"><ele>255.83333333333331</ele><time>2026-04-26T07:13:48.955Z</time></trkpt><trkpt lat="43.0884061" lon="12.2578001"><ele>255.66666666666666</ele><time>2026-04-26T07:13:50.96Z</time></trkpt><trkpt lat="43.0884327" lon="12.257721"><ele>255.5</ele><time>2026-04-26T07:13:51.939Z</time></trkpt><trkpt lat="43.0884582" lon="12.2576351"><ele>255.33333333333331</ele><time>2026-04-26T07:13:52.952Z</time></trkpt><trkpt lat="43.0884794" lon="12.2575511"><ele>255.16666666666666</ele><time>2026-04-26T07:13:53.944Z</time></trkpt><trkpt lat="43.0885324" lon="12.2574209"><ele>255.0</ele><time>2026-04-26T07:13:55.942Z</time></trkpt><trkpt lat="43.0886158" lon="12.2573477"><ele>254.0</ele><time>2026-04-26T07:13:57.941Z</time></trkpt><trkpt lat="43.0886834" lon="12.2572656"><ele>253.0</ele><time>2026-04-26T07:13:59.939Z</time></trkpt><trkpt lat="43.0887018" lon="12.2571714"><ele>252.0</ele><time>2026-04-26T07:14:03.943Z</time></trkpt><trkpt lat="43.0886962" lon="12.2570678"><ele>251.0</ele><time>2026-04-26T07:14:09.038Z</time></trkpt><trkpt lat="43.0886544" lon="12.2569708"><ele>250.0</ele><time>2026-04-26T07:14:27.948Z</time></trkpt><trkpt lat="43.0886432" lon="12.2568833"><ele>249.0</ele><time>2026-04-26T07:14:33.95Z</time></trkpt><trkpt lat="43.0886213" lon="12.2567943"><ele>249.0</ele><time>2026-04-26T07:14:37.938Z</time></trkpt><trkpt lat="43.0886056" lon="12.2566903"><ele>249.0</ele><time>2026-04-26T07:14:42.943Z</time></trkpt><trkpt lat="43.0885901" lon="12.2565923"><ele>249.0</ele><time>2026-04-26T07:14:47.945Z</time></trkpt><trkpt lat="43.0885655" lon="12.2565068"><ele>249.0</ele><time>2026-04-26T07:14:52.946Z</time></trkpt><trkpt lat="43.0885302" lon="12.2564175"><ele>249.0</ele><time>2026-04-26T07:14:56.941Z</time></trkpt><trkpt lat="43.0884716" lon="12.2563464"><ele>249.0</ele><time>2026-04-26T07:14:59.944Z</time></trkpt><trkpt lat="43.0884171" lon="12.2562576"><ele>250.33333333333334</ele><time>2026-04-26T07:15:02.938Z</time></trkpt><trkpt lat="43.0883728" lon="12.2561608"><ele>251.66666666666669</ele><time>2026-04-26T07:15:06.022Z</time></trkpt><trkpt lat="43.0883384" lon="12.256058"><ele>253.0</ele><time>2026-04-26T07:15:08.942Z</time></trkpt><trkpt lat="43.0883032" lon="12.2559675"><ele>254.33333333333334</ele><time>2026-04-26T07:15:11.939Z</time></trkpt><trkpt lat="43.0882656" lon="12.2558722"><ele>255.66666666666669</ele><time>2026-04-26T07:15:14.939Z</time></trkpt><trkpt lat="43.0882243" lon="12.2557601"><ele>257.0</ele><time>2026-04-26T07:15:17.939Z</time></trkpt><trkpt lat="43.0881797" lon="12.2556574"><ele>254.50000000000003</ele><time>2026-04-26T07:15:20.952Z</time></trkpt><trkpt lat="43.0881458" lon="12.2555644"><ele>252.0</ele><time>2026-04-26T07:15:23.941Z</time></trkpt><trkpt lat="43.088115" lon="12.2554825"><ele>249.5</ele><time>2026-04-26T07:15:27.948Z</time></trkpt><trkpt lat="43.0881828" lon="12.255428"><ele>247.0</ele><time>2026-04-26T07:15:32.943Z</time></trkpt><trkpt lat="43.0882495" lon="12.255393"><ele>244.50000000000003</ele><time>2026-04-26T07:15:36.956Z</time></trkpt><trkpt lat="43.0883205" lon="12.2553322"><ele>242.0</ele><time>2026-04-26T07:16:53.952Z</time></trkpt><trkpt lat="43.0884022" lon="12.2552823"><ele>240.85714285714283</ele><time>2026-04-26T07:16:56.953Z</time></trkpt><trkpt lat="43.0884652" lon="12.2552315"><ele>239.7142857142857</ele><time>2026-04-26T07:16:59.065Z</time></trkpt><trkpt lat="43.088525" lon="12.2551771"><ele>238.57142857142856</ele><time>2026-04-26T07:17:00.957Z</time></trkpt><trkpt lat="43.0885777" lon="12.2551209"><ele>237.42857142857144</ele><time>2026-04-26T07:17:02.963Z</time></trkpt><trkpt lat="43.0886388" lon="12.255047"><ele>236.2857142857143</ele><time>2026-04-26T07:17:05.958Z</time></trkpt><trkpt lat="43.088692" lon="12.2549912"><ele>235.14285714285717</ele><time>2026-04-26T07:17:08.956Z</time></trkpt><trkpt lat="43.0887568" lon="12.2549246"><ele>234.0</ele><time>2026-04-26T07:17:11.965Z</time></trkpt><trkpt lat="43.0888119" lon="12.2548611"><ele>233.16666666666666</ele><time>2026-04-26T07:17:14.958Z</time></trkpt><trkpt lat="43.0888751" lon="12.2547825"><ele>232.33333333333331</ele><time>2026-04-26T07:17:18.946Z</time></trkpt><trkpt lat="43.0889328" lon="12.2547199"><ele>231.5</ele><time>2026-04-26T07:17:21.952Z</time></trkpt><trkpt lat="43.0889875" lon="12.2546643"><ele>230.66666666666666</ele><time>2026-04-26T07:17:24.957Z</time></trkpt><trkpt lat="43.0890534" lon="12.2546027"><ele>229.83333333333331</ele><time>2026-04-26T07:17:27.947Z</time></trkpt><trkpt lat="43.0891201" lon="12.2545629"><ele>229.0</ele><time>2026-04-26T07:17:31.956Z</time></trkpt><trkpt lat="43.0891947" lon="12.2545161"><ele>228.16666666666666</ele><time>2026-04-26T07:17:35.943Z</time></trkpt><trkpt lat="43.0892703" lon="12.2544593"><ele>227.33333333333331</ele><time>2026-04-26T07:17:39.953Z</time></trkpt><trkpt lat="43.089338" lon="12.2543989"><ele>226.5</ele><time>2026-04-26T07:17:42.961Z</time></trkpt><trkpt lat="43.0894143" lon="12.2543406"><ele>225.66666666666669</ele><time>2026-04-26T07:17:45.93Z</time></trkpt><trkpt lat="43.0894866" lon="12.2542833"><ele>224.83333333333334</ele><time>2026-04-26T07:17:48.952Z</time></trkpt><trkpt lat="43.0895607" lon="12.2542191"><ele>224.0</ele><time>2026-04-26T07:17:51.953Z</time></trkpt><trkpt lat="43.0896341" lon="12.2541648"><ele>224.00000000000003</ele><time>2026-04-26T07:17:54.954Z</time></trkpt><trkpt lat="43.0897119" lon="12.2541035"><ele>224.0</ele><time>2026-04-26T07:17:57.963Z</time></trkpt><trkpt lat="43.0897889" lon="12.2540452"><ele>224.0</ele><time>2026-04-26T07:18:00.954Z</time></trkpt><trkpt lat="43.0898624" lon="12.253981"><ele>224.0</ele><time>2026-04-26T07:18:03.955Z</time></trkpt><trkpt lat="43.0899425" lon="12.2539083"><ele>224.00000000000003</ele><time>2026-04-26T07:18:06.955Z</time></trkpt><trkpt lat="43.090002" lon="12.2538693"><ele>224.0</ele><time>2026-04-26T07:18:08.953Z</time></trkpt><trkpt lat="43.0900675" lon="12.2538387"><ele>224.0</ele><time>2026-04-26T07:18:11.053Z</time></trkpt><trkpt lat="43.0901341" lon="12.2538068"><ele>224.0</ele><time>2026-04-26T07:18:12.955Z</time></trkpt><trkpt lat="43.0901975" lon="12.2537727"><ele>224.0</ele><time>2026-04-26T07:18:14.964Z</time></trkpt><trkpt lat="43.0902615" lon="12.2537477"><ele>224.0</ele><time>2026-04-26T07:18:16.952Z</time></trkpt><trkpt lat="43.0903468" lon="12.2537183"><ele>224.0</ele><time>2026-04-26T07:18:19.957Z</time></trkpt><trkpt lat="43.0904338" lon="12.2537162"><ele>224.0</ele><time>2026-04-26T07:18:22.955Z</time></trkpt><trkpt lat="43.0905009" lon="12.2537238"><ele>224.0</ele><time>2026-04-26T07:18:26.951Z</time></trkpt><trkpt lat="43.0905517" lon="12.2536596"><ele>224.00000000000003</ele><time>2026-04-26T07:18:33.955Z</time></trkpt><trkpt lat="43.090528" lon="12.2535757"><ele>224.0</ele><time>2026-04-26T07:18:36.951Z</time></trkpt><trkpt lat="43.0905125" lon="12.2534595"><ele>224.0</ele><time>2026-04-26T07:18:39.952Z</time></trkpt><trkpt lat="43.0904908" lon="12.253344"><ele>224.0</ele><time>2026-04-26T07:18:42.956Z</time></trkpt><trkpt lat="43.0904695" lon="12.2532288"><ele>224.00000000000003</ele><time>2026-04-26T07:18:45.953Z</time></trkpt><trkpt lat="43.0904426" lon="12.2531058"><ele>224.0</ele><time>2026-04-26T07:18:48.954Z</time></trkpt><trkpt lat="43.0904239" lon="12.253019"><ele>224.0</ele><time>2026-04-26T07:18:50.951Z</time></trkpt><trkpt lat="43.0904044" lon="12.2529309"><ele>224.0</ele><time>2026-04-26T07:18:52.955Z</time></trkpt><trkpt lat="43.0903858" lon="12.2528399"><ele>224.0</ele><time>2026-04-26T07:18:54.952Z</time></trkpt><trkpt lat="43.0903679" lon="12.252755"><ele>224.0</ele><time>2026-04-26T07:18:56.944Z</time></trkpt><trkpt lat="43.0903468" lon="12.2526635"><ele>224.0</ele><time>2026-04-26T07:18:58.968Z</time></trkpt><trkpt lat="43.0903285" lon="12.2525648"><ele>224.0</ele><time>2026-04-26T07:19:00.954Z</time></trkpt><trkpt lat="43.0903115" lon="12.2524633"><ele>224.0</ele><time>2026-04-26T07:19:02.962Z</time></trkpt><trkpt lat="43.0902942" lon="12.2523623"><ele>224.0</ele><time>2026-04-26T07:19:04.952Z</time></trkpt><trkpt lat="43.0902724" lon="12.2522666"><ele>224.0</ele><time>2026-04-26T07:19:06.955Z</time></trkpt><trkpt lat="43.0902526" lon="12.2521713"><ele>224.0</ele><time>2026-04-26T07:19:08.952Z</time></trkpt><trkpt lat="43.0902346" lon="12.2520747"><ele>224.0</ele><time>2026-04-26T07:19:10.957Z</time></trkpt><trkpt lat="43.0902191" lon="12.2519779"><ele>224.0</ele><time>2026-04-26T07:19:12.967Z</time></trkpt><trkpt lat="43.0902025" lon="12.2518823"><ele>224.0</ele><time>2026-04-26T07:19:15.051Z</time></trkpt><trkpt lat="43.090185" lon="12.2517866"><ele>224.0</ele><time>2026-04-26T07:19:16.957Z</time></trkpt><trkpt lat="43.0901636" lon="12.2516918"><ele>224.0</ele><time>2026-04-26T07:19:18.957Z</time></trkpt><trkpt lat="43.0901461" lon="12.2515968"><ele>224.0</ele><time>2026-04-26T07:19:20.953Z</time></trkpt><trkpt lat="43.0901273" lon="12.2515011"><ele>224.0</ele><time>2026-04-26T07:19:22.952Z</time></trkpt><trkpt lat="43.0901088" lon="12.2514031"><ele>224.0</ele><time>2026-04-26T07:19:24.955Z</time></trkpt><trkpt lat="43.0900915" lon="12.2513025"><ele>224.0</ele><time>2026-04-26T07:19:26.952Z</time></trkpt><trkpt lat="43.0900694" lon="12.2512033"><ele>224.0</ele><time>2026-04-26T07:19:28.955Z</time></trkpt><trkpt lat="43.0900498" lon="12.2511067"><ele>224.0</ele><time>2026-04-26T07:19:30.952Z</time></trkpt><trkpt lat="43.0900227" lon="12.2510177"><ele>224.0</ele><time>2026-04-26T07:19:33.077Z</time></trkpt><trkpt lat="43.0900007" lon="12.2509241"><ele>224.0</ele><time>2026-04-26T07:19:34.953Z</time></trkpt><trkpt lat="43.0899833" lon="12.2508274"><ele>224.0</ele><time>2026-04-26T07:19:36.947Z</time></trkpt><trkpt lat="43.0899624" lon="12.2507326"><ele>224.0</ele><time>2026-04-26T07:19:38.97Z</time></trkpt><trkpt lat="43.0899375" lon="12.2506424"><ele>224.0</ele><time>2026-04-26T07:19:40.956Z</time></trkpt><trkpt lat="43.0899152" lon="12.250553"><ele>224.0</ele><time>2026-04-26T07:19:42.958Z</time></trkpt><trkpt lat="43.0898974" lon="12.2504625"><ele>224.0</ele><time>2026-04-26T07:19:44.963Z</time></trkpt><trkpt lat="43.0898799" lon="12.2503708"><ele>224.0</ele><time>2026-04-26T07:19:46.964Z</time></trkpt><trkpt lat="43.0898608" lon="12.2502744"><ele>224.0</ele><time>2026-04-26T07:19:48.955Z</time></trkpt><trkpt lat="43.0898453" lon="12.2501779"><ele>224.0</ele><time>2026-04-26T07:19:50.955Z</time></trkpt><trkpt lat="43.0898267" lon="12.2500813"><ele>224.0</ele><time>2026-04-26T07:19:52.951Z</time></trkpt><trkpt lat="43.0898055" lon="12.2499861"><ele>224.0</ele><time>2026-04-26T07:19:54.953Z</time></trkpt><trkpt lat="43.0897836" lon="12.2498966"><ele>224.0</ele><time>2026-04-26T07:19:56.94Z</time></trkpt><trkpt lat="43.089765" lon="12.2498073"><ele>224.0</ele><time>2026-04-26T07:19:58.959Z</time></trkpt><trkpt lat="43.0897458" lon="12.2497168"><ele>224.14285714285714</ele><time>2026-04-26T07:20:00.955Z</time></trkpt><trkpt lat="43.0897259" lon="12.2496237"><ele>224.28571428571428</ele><time>2026-04-26T07:20:02.946Z</time></trkpt><trkpt lat="43.0897025" lon="12.2495308"><ele>224.42857142857144</ele><time>2026-04-26T07:20:04.949Z</time></trkpt><trkpt lat="43.0896837" lon="12.2494365"><ele>224.57142857142858</ele><time>2026-04-26T07:20:06.956Z</time></trkpt><trkpt lat="43.0896626" lon="12.249343"><ele>224.71428571428572</ele><time>2026-04-26T07:20:08.941Z</time></trkpt><trkpt lat="43.0896436" lon="12.2492572"><ele>224.8571428571429</ele><time>2026-04-26T07:20:10.943Z</time></trkpt><trkpt lat="43.0896228" lon="12.2491614"><ele>225.00000000000003</ele><time>2026-04-26T07:20:12.939Z</time></trkpt><trkpt lat="43.0896008" lon="12.2490657"><ele>225.00000000000003</ele><time>2026-04-26T07:20:14.941Z</time></trkpt><trkpt lat="43.0895824" lon="12.248975"><ele>225.0</ele><time>2026-04-26T07:20:16.935Z</time></trkpt><trkpt lat="43.0895643" lon="12.248879"><ele>225.00000000000003</ele><time>2026-04-26T07:20:18.944Z</time></trkpt><trkpt lat="43.0895458" lon="12.2487806"><ele>225.00000000000003</ele><time>2026-04-26T07:20:20.949Z</time></trkpt><trkpt lat="43.0895248" lon="12.2486809"><ele>225.0</ele><time>2026-04-26T07:20:22.946Z</time></trkpt><trkpt lat="43.0895071" lon="12.2485848"><ele>225.00000000000003</ele><time>2026-04-26T07:20:24.939Z</time></trkpt><trkpt lat="43.089489" lon="12.2484891"><ele>225.00000000000003</ele><time>2026-04-26T07:20:26.942Z</time></trkpt><trkpt lat="43.0894723" lon="12.2483936"><ele>225.14285714285717</ele><time>2026-04-26T07:20:28.941Z</time></trkpt><trkpt lat="43.0894542" lon="12.2482947"><ele>225.28571428571428</ele><time>2026-04-26T07:20:30.963Z</time></trkpt><trkpt lat="43.0894337" lon="12.2481974"><ele>225.42857142857144</ele><time>2026-04-26T07:20:32.937Z</time></trkpt><trkpt lat="43.0894106" lon="12.2481003"><ele>225.57142857142858</ele><time>2026-04-26T07:20:34.937Z</time></trkpt><trkpt lat="43.0893899" lon="12.2480037"><ele>225.71428571428572</ele><time>2026-04-26T07:20:36.937Z</time></trkpt><trkpt lat="43.0893728" lon="12.2479049"><ele>225.85714285714286</ele><time>2026-04-26T07:20:38.952Z</time></trkpt><trkpt lat="43.089352" lon="12.2478108"><ele>226.0</ele><time>2026-04-26T07:20:40.941Z</time></trkpt><trkpt lat="43.0893358" lon="12.2477156"><ele>226.0</ele><time>2026-04-26T07:20:42.94Z</time></trkpt><trkpt lat="43.0893162" lon="12.2476185"><ele>226.0</ele><time>2026-04-26T07:20:44.956Z</time></trkpt><trkpt lat="43.0892947" lon="12.2475226"><ele>226.0</ele><time>2026-04-26T07:20:46.936Z</time></trkpt><trkpt lat="43.0892723" lon="12.2474253"><ele>226.0</ele><time>2026-04-26T07:20:48.958Z</time></trkpt><trkpt lat="43.0892533" lon="12.2473292"><ele>226.0</ele><time>2026-04-26T07:20:50.951Z</time></trkpt><trkpt lat="43.0892301" lon="12.2472324"><ele>226.0</ele><time>2026-04-26T07:20:52.938Z</time></trkpt><trkpt lat="43.0892138" lon="12.2471332"><ele>226.0</ele><time>2026-04-26T07:20:54.946Z</time></trkpt><trkpt lat="43.0891939" lon="12.2470397"><ele>226.0</ele><time>2026-04-26T07:20:56.941Z</time></trkpt><trkpt lat="43.0891771" lon="12.2469499"><ele>226.0</ele><time>2026-04-26T07:20:58.938Z</time></trkpt><trkpt lat="43.0891623" lon="12.2468591"><ele>226.0</ele><time>2026-04-26T07:21:00.939Z</time></trkpt><trkpt lat="43.0891457" lon="12.2467685"><ele>226.0</ele><time>2026-04-26T07:21:02.947Z</time></trkpt><trkpt lat="43.0891261" lon="12.2466737"><ele>226.0</ele><time>2026-04-26T07:21:04.936Z</time></trkpt><trkpt lat="43.089104" lon="12.2465756"><ele>226.0</ele><time>2026-04-26T07:21:06.943Z</time></trkpt><trkpt lat="43.0890847" lon="12.2464837"><ele>226.0</ele><time>2026-04-26T07:21:08.945Z</time></trkpt><trkpt lat="43.0890634" lon="12.2463921"><ele>226.14285714285717</ele><time>2026-04-26T07:21:10.938Z</time></trkpt><trkpt lat="43.0890426" lon="12.2463054"><ele>226.28571428571428</ele><time>2026-04-26T07:21:12.94Z</time></trkpt><trkpt lat="43.089023" lon="12.2462139"><ele>226.42857142857144</ele><time>2026-04-26T07:21:14.949Z</time></trkpt><trkpt lat="43.0890052" lon="12.246123"><ele>226.57142857142858</ele><time>2026-04-26T07:21:16.945Z</time></trkpt><trkpt lat="43.0889868" lon="12.2460312"><ele>226.71428571428572</ele><time>2026-04-26T07:21:18.946Z</time></trkpt><trkpt lat="43.0889685" lon="12.2459365"><ele>226.85714285714286</ele><time>2026-04-26T07:21:20.941Z</time></trkpt><trkpt lat="43.0889481" lon="12.245842"><ele>227.0</ele><time>2026-04-26T07:21:22.942Z</time></trkpt><trkpt lat="43.0889279" lon="12.2457493"><ele>227.0</ele><time>2026-04-26T07:21:24.949Z</time></trkpt><trkpt lat="43.0889077" lon="12.2456562"><ele>227.00000000000003</ele><time>2026-04-26T07:21:26.936Z</time></trkpt><trkpt lat="43.0888882" lon="12.2455636"><ele>227.0</ele><time>2026-04-26T07:21:28.939Z</time></trkpt><trkpt lat="43.0888704" lon="12.2454684"><ele>227.0</ele><time>2026-04-26T07:21:31.029Z</time></trkpt><trkpt lat="43.0888499" lon="12.2453687"><ele>227.00000000000003</ele><time>2026-04-26T07:21:32.947Z</time></trkpt><trkpt lat="43.0888349" lon="12.245268"><ele>227.0</ele><time>2026-04-26T07:21:34.947Z</time></trkpt><trkpt lat="43.0888178" lon="12.2451707"><ele>227.0</ele><time>2026-04-26T07:21:37.051Z</time></trkpt><trkpt lat="43.0887959" lon="12.245074"><ele>227.14285714285717</ele><time>2026-04-26T07:21:38.942Z</time></trkpt><trkpt lat="43.0887772" lon="12.2449817"><ele>227.2857142857143</ele><time>2026-04-26T07:21:40.956Z</time></trkpt><trkpt lat="43.0887489" lon="12.244889"><ele>227.42857142857144</ele><time>2026-04-26T07:21:42.938Z</time></trkpt><trkpt lat="43.0887289" lon="12.2447985"><ele>227.57142857142856</ele><time>2026-04-26T07:21:44.945Z</time></trkpt><trkpt lat="43.0887128" lon="12.2447046"><ele>227.7142857142857</ele><time>2026-04-26T07:21:46.962Z</time></trkpt><trkpt lat="43.088693" lon="12.2446081"><ele>227.85714285714283</ele><time>2026-04-26T07:21:48.954Z</time></trkpt><trkpt lat="43.0886715" lon="12.2445117"><ele>228.0</ele><time>2026-04-26T07:21:50.96Z</time></trkpt><trkpt lat="43.0886521" lon="12.244416"><ele>228.28571428571428</ele><time>2026-04-26T07:21:52.97Z</time></trkpt><trkpt lat="43.0886309" lon="12.2443223"><ele>228.57142857142856</ele><time>2026-04-26T07:21:54.948Z</time></trkpt><trkpt lat="43.0886136" lon="12.2442309"><ele>228.85714285714283</ele><time>2026-04-26T07:21:56.97Z</time></trkpt><trkpt lat="43.0885978" lon="12.2441371"><ele>229.1428571428571</ele><time>2026-04-26T07:21:58.955Z</time></trkpt><trkpt lat="43.0885786" lon="12.2440424"><ele>229.42857142857142</ele><time>2026-04-26T07:22:00.962Z</time></trkpt><trkpt lat="43.088559" lon="12.2439485"><ele>229.71428571428567</ele><time>2026-04-26T07:22:02.953Z</time></trkpt><trkpt lat="43.0885364" lon="12.2438505"><ele>229.99999999999997</ele><time>2026-04-26T07:22:04.969Z</time></trkpt><trkpt lat="43.0885164" lon="12.2437529"><ele>229.99999999999997</ele><time>2026-04-26T07:22:06.958Z</time></trkpt><trkpt lat="43.0884975" lon="12.2436594"><ele>230.0</ele><time>2026-04-26T07:22:08.943Z</time></trkpt><trkpt lat="43.0884777" lon="12.2435613"><ele>229.99999999999997</ele><time>2026-04-26T07:22:10.955Z</time></trkpt><trkpt lat="43.0884574" lon="12.2434623"><ele>229.99999999999997</ele><time>2026-04-26T07:22:12.955Z</time></trkpt><trkpt lat="43.08844" lon="12.2433628"><ele>230.0</ele><time>2026-04-26T07:22:14.956Z</time></trkpt><trkpt lat="43.0884214" lon="12.2432645"><ele>229.99999999999997</ele><time>2026-04-26T07:22:16.96Z</time></trkpt><trkpt lat="43.0884033" lon="12.2431678"><ele>229.99999999999997</ele><time>2026-04-26T07:22:18.943Z</time></trkpt><trkpt lat="43.0883843" lon="12.2430734"><ele>229.99999999999997</ele><time>2026-04-26T07:22:20.956Z</time></trkpt><trkpt lat="43.0883611" lon="12.2429806"><ele>230.0</ele><time>2026-04-26T07:22:22.951Z</time></trkpt><trkpt lat="43.088343" lon="12.2428845"><ele>229.99999999999997</ele><time>2026-04-26T07:22:24.96Z</time></trkpt><trkpt lat="43.0883232" lon="12.2427841"><ele>229.99999999999997</ele><time>2026-04-26T07:22:26.957Z</time></trkpt><trkpt lat="43.0883038" lon="12.2426872"><ele>230.0</ele><time>2026-04-26T07:22:29.037Z</time></trkpt><trkpt lat="43.0882863" lon="12.2425942"><ele>229.99999999999997</ele><time>2026-04-26T07:22:30.96Z</time></trkpt><trkpt lat="43.0882611" lon="12.2424974"><ele>229.99999999999997</ele><time>2026-04-26T07:22:32.954Z</time></trkpt><trkpt lat="43.0882403" lon="12.2423919"><ele>230.1428571428571</ele><time>2026-04-26T07:22:34.955Z</time></trkpt><trkpt lat="43.0882217" lon="12.242288"><ele>230.28571428571428</ele><time>2026-04-26T07:22:36.955Z</time></trkpt><trkpt lat="43.0882014" lon="12.2421918"><ele>230.42857142857142</ele><time>2026-04-26T07:22:38.951Z</time></trkpt><trkpt lat="43.0881812" lon="12.2421005"><ele>230.57142857142856</ele><time>2026-04-26T07:22:40.956Z</time></trkpt><trkpt lat="43.0881633" lon="12.2420078"><ele>230.71428571428572</ele><time>2026-04-26T07:22:42.966Z</time></trkpt><trkpt lat="43.0881419" lon="12.2419127"><ele>230.85714285714286</ele><time>2026-04-26T07:22:44.961Z</time></trkpt><trkpt lat="43.088118" lon="12.2418197"><ele>231.0</ele><time>2026-04-26T07:22:46.952Z</time></trkpt><trkpt lat="43.0880929" lon="12.2417296"><ele>231.0</ele><time>2026-04-26T07:22:48.943Z</time></trkpt><trkpt lat="43.0880754" lon="12.2416414"><ele>231.0</ele><time>2026-04-26T07:22:50.953Z</time></trkpt><trkpt lat="43.0880552" lon="12.2415504"><ele>231.0</ele><time>2026-04-26T07:22:52.955Z</time></trkpt><trkpt lat="43.0880336" lon="12.2414618"><ele>231.0</ele><time>2026-04-26T07:22:54.952Z</time></trkpt><trkpt lat="43.0880157" lon="12.2413747"><ele>231.0</ele><time>2026-04-26T07:22:56.953Z</time></trkpt><trkpt lat="43.0879949" lon="12.2412804"><ele>231.0</ele><time>2026-04-26T07:22:58.958Z</time></trkpt><trkpt lat="43.087974" lon="12.2411834"><ele>231.0</ele><time>2026-04-26T07:23:00.957Z</time></trkpt><trkpt lat="43.0879559" lon="12.2410843"><ele>231.0</ele><time>2026-04-26T07:23:02.951Z</time></trkpt><trkpt lat="43.087937" lon="12.2409838"><ele>231.0</ele><time>2026-04-26T07:23:04.953Z</time></trkpt><trkpt lat="43.0879141" lon="12.2408894"><ele>231.0</ele><time>2026-04-26T07:23:06.955Z</time></trkpt><trkpt lat="43.0878952" lon="12.2407928"><ele>231.0</ele><time>2026-04-26T07:23:08.958Z</time></trkpt><trkpt lat="43.0878761" lon="12.2406955"><ele>231.0</ele><time>2026-04-26T07:23:10.951Z</time></trkpt><trkpt lat="43.0878587" lon="12.2405964"><ele>231.0</ele><time>2026-04-26T07:23:12.934Z</time></trkpt><trkpt lat="43.0878414" lon="12.2404954"><ele>231.0</ele><time>2026-04-26T07:23:14.956Z</time></trkpt><trkpt lat="43.0878205" lon="12.2403992"><ele>231.0</ele><time>2026-04-26T07:23:16.951Z</time></trkpt><trkpt lat="43.0877987" lon="12.2403074"><ele>231.0</ele><time>2026-04-26T07:23:18.953Z</time></trkpt><trkpt lat="43.087779" lon="12.2402183"><ele>231.0</ele><time>2026-04-26T07:23:20.955Z</time></trkpt><trkpt lat="43.0877551" lon="12.2401288"><ele>231.0</ele><time>2026-04-26T07:23:22.94Z</time></trkpt><trkpt lat="43.087736" lon="12.2400365"><ele>231.0</ele><time>2026-04-26T07:23:24.937Z</time></trkpt><trkpt lat="43.0877166" lon="12.2399452"><ele>231.0</ele><time>2026-04-26T07:23:26.952Z</time></trkpt><trkpt lat="43.0876989" lon="12.2398549"><ele>231.0</ele><time>2026-04-26T07:23:29.051Z</time></trkpt><trkpt lat="43.087684" lon="12.2397609"><ele>230.85714285714286</ele><time>2026-04-26T07:23:30.941Z</time></trkpt><trkpt lat="43.0876733" lon="12.2396653"><ele>230.71428571428572</ele><time>2026-04-26T07:23:32.953Z</time></trkpt><trkpt lat="43.0876751" lon="12.2395689"><ele>230.57142857142856</ele><time>2026-04-26T07:23:34.952Z</time></trkpt><trkpt lat="43.0876904" lon="12.2394757"><ele>230.42857142857142</ele><time>2026-04-26T07:23:36.952Z</time></trkpt><trkpt lat="43.0877197" lon="12.2393865"><ele>230.28571428571428</ele><time>2026-04-26T07:23:38.955Z</time></trkpt><trkpt lat="43.0877554" lon="12.2393023"><ele>230.1428571428571</ele><time>2026-04-26T07:23:40.953Z</time></trkpt><trkpt lat="43.087799" lon="12.2392271"><ele>229.99999999999997</ele><time>2026-04-26T07:23:42.953Z</time></trkpt><trkpt lat="43.0878527" lon="12.2391609"><ele>229.99999999999997</ele><time>2026-04-26T07:23:44.945Z</time></trkpt><trkpt lat="43.0879168" lon="12.2391179"><ele>230.0</ele><time>2026-04-26T07:23:47.05Z</time></trkpt><trkpt lat="43.087983" lon="12.2390914"><ele>229.99999999999997</ele><time>2026-04-26T07:23:48.953Z</time></trkpt><trkpt lat="43.0880511" lon="12.2390677"><ele>229.99999999999997</ele><time>2026-04-26T07:23:50.953Z</time></trkpt><trkpt lat="43.0881207" lon="12.2390394"><ele>230.0</ele><time>2026-04-26T07:23:52.951Z</time></trkpt><trkpt lat="43.088188" lon="12.2390154"><ele>229.99999999999997</ele><time>2026-04-26T07:23:54.955Z</time></trkpt><trkpt lat="43.0882577" lon="12.2389899"><ele>229.99999999999997</ele><time>2026-04-26T07:23:56.954Z</time></trkpt><trkpt lat="43.0883305" lon="12.2389671"><ele>230.33333333333334</ele><time>2026-04-26T07:23:58.952Z</time></trkpt><trkpt lat="43.0884058" lon="12.2389376"><ele>230.66666666666669</ele><time>2026-04-26T07:24:00.952Z</time></trkpt><trkpt lat="43.088482" lon="12.2389079"><ele>231.0</ele><time>2026-04-26T07:24:02.943Z</time></trkpt><trkpt lat="43.0885569" lon="12.2388825"><ele>231.33333333333331</ele><time>2026-04-26T07:24:04.951Z</time></trkpt><trkpt lat="43.0886273" lon="12.2388549"><ele>231.66666666666666</ele><time>2026-04-26T07:24:06.95Z</time></trkpt><trkpt lat="43.0886975" lon="12.2388256"><ele>232.0</ele><time>2026-04-26T07:24:08.958Z</time></trkpt><trkpt lat="43.0887703" lon="12.2387911"><ele>231.99999999999997</ele><time>2026-04-26T07:24:10.953Z</time></trkpt><trkpt lat="43.0888448" lon="12.238755"><ele>232.0</ele><time>2026-04-26T07:24:12.953Z</time></trkpt><trkpt lat="43.0889193" lon="12.2387167"><ele>232.0</ele><time>2026-04-26T07:24:14.956Z</time></trkpt><trkpt lat="43.0889916" lon="12.2386766"><ele>232.0</ele><time>2026-04-26T07:24:16.949Z</time></trkpt><trkpt lat="43.0890628" lon="12.2386334"><ele>231.99999999999997</ele><time>2026-04-26T07:24:18.952Z</time></trkpt><trkpt lat="43.0891305" lon="12.2385872"><ele>232.0</ele><time>2026-04-26T07:24:20.962Z</time></trkpt><trkpt lat="43.0891953" lon="12.2385371"><ele>232.33333333333331</ele><time>2026-04-26T07:24:22.956Z</time></trkpt><trkpt lat="43.0892585" lon="12.2384813"><ele>232.66666666666666</ele><time>2026-04-26T07:24:24.955Z</time></trkpt><trkpt lat="43.0893219" lon="12.2384198"><ele>233.0</ele><time>2026-04-26T07:24:26.958Z</time></trkpt><trkpt lat="43.0893862" lon="12.2383528"><ele>233.33333333333331</ele><time>2026-04-26T07:24:28.953Z</time></trkpt><trkpt lat="43.0894519" lon="12.2382774"><ele>233.66666666666666</ele><time>2026-04-26T07:24:30.947Z</time></trkpt><trkpt lat="43.0895198" lon="12.2382032"><ele>234.0</ele><time>2026-04-26T07:24:32.958Z</time></trkpt><trkpt lat="43.0895834" lon="12.2381359"><ele>234.16666666666666</ele><time>2026-04-26T07:24:34.957Z</time></trkpt><trkpt lat="43.0896441" lon="12.2380628"><ele>234.33333333333331</ele><time>2026-04-26T07:24:36.953Z</time></trkpt><trkpt lat="43.0897018" lon="12.2379917"><ele>234.5</ele><time>2026-04-26T07:24:38.955Z</time></trkpt><trkpt lat="43.0897623" lon="12.2379204"><ele>234.66666666666666</ele><time>2026-04-26T07:24:40.951Z</time></trkpt><trkpt lat="43.0898209" lon="12.2378462"><ele>234.83333333333331</ele><time>2026-04-26T07:24:42.955Z</time></trkpt><trkpt lat="43.089878" lon="12.2377757"><ele>235.0</ele><time>2026-04-26T07:24:44.954Z</time></trkpt><trkpt lat="43.0899307" lon="12.2377029"><ele>235.14285714285714</ele><time>2026-04-26T07:24:46.955Z</time></trkpt><trkpt lat="43.0899862" lon="12.2376415"><ele>235.28571428571428</ele><time>2026-04-26T07:24:48.951Z</time></trkpt><trkpt lat="43.0900476" lon="12.2375812"><ele>235.42857142857142</ele><time>2026-04-26T07:24:50.953Z</time></trkpt><trkpt lat="43.0901146" lon="12.2375216"><ele>235.57142857142856</ele><time>2026-04-26T07:24:52.954Z</time></trkpt><trkpt lat="43.0901761" lon="12.2374706"><ele>235.71428571428572</ele><time>2026-04-26T07:24:54.953Z</time></trkpt><trkpt lat="43.0902332" lon="12.2374208"><ele>235.85714285714283</ele><time>2026-04-26T07:24:56.94Z</time></trkpt><trkpt lat="43.0902908" lon="12.2373624"><ele>236.0</ele><time>2026-04-26T07:24:58.96Z</time></trkpt><trkpt lat="43.0903496" lon="12.237294"><ele>236.16666666666669</ele><time>2026-04-26T07:25:00.955Z</time></trkpt><trkpt lat="43.0904062" lon="12.2372212"><ele>236.33333333333334</ele><time>2026-04-26T07:25:02.952Z</time></trkpt><trkpt lat="43.0904923" lon="12.2371134"><ele>236.5</ele><time>2026-04-26T07:25:05.951Z</time></trkpt><trkpt lat="43.0905568" lon="12.2370467"><ele>236.66666666666669</ele><time>2026-04-26T07:25:07.953Z</time></trkpt><trkpt lat="43.0906233" lon="12.2369799"><ele>236.83333333333334</ele><time>2026-04-26T07:25:09.951Z</time></trkpt><trkpt lat="43.0906947" lon="12.2369193"><ele>237.0</ele><time>2026-04-26T07:25:11.953Z</time></trkpt><trkpt lat="43.0907673" lon="12.2368659"><ele>237.16666666666666</ele><time>2026-04-26T07:25:13.937Z</time></trkpt><trkpt lat="43.0908417" lon="12.236829"><ele>237.33333333333331</ele><time>2026-04-26T07:25:15.952Z</time></trkpt><trkpt lat="43.0909161" lon="12.2368146"><ele>237.5</ele><time>2026-04-26T07:25:17.943Z</time></trkpt><trkpt lat="43.0909918" lon="12.2368096"><ele>237.66666666666666</ele><time>2026-04-26T07:25:19.939Z</time></trkpt><trkpt lat="43.0910733" lon="12.2368132"><ele>237.83333333333331</ele><time>2026-04-26T07:25:21.945Z</time></trkpt><trkpt lat="43.0911502" lon="12.2368147"><ele>238.0</ele><time>2026-04-26T07:25:23.937Z</time></trkpt><trkpt lat="43.0912309" lon="12.236819"><ele>237.99999999999997</ele><time>2026-04-26T07:25:25.938Z</time></trkpt><trkpt lat="43.0913096" lon="12.236824"><ele>238.0</ele><time>2026-04-26T07:25:28.028Z</time></trkpt><trkpt lat="43.0913895" lon="12.2368356"><ele>238.0</ele><time>2026-04-26T07:25:29.939Z</time></trkpt><trkpt lat="43.0914649" lon="12.2368573"><ele>238.0</ele><time>2026-04-26T07:25:31.941Z</time></trkpt><trkpt lat="43.0915346" lon="12.2368837"><ele>237.99999999999997</ele><time>2026-04-26T07:25:33.953Z</time></trkpt><trkpt lat="43.0916007" lon="12.2369328"><ele>238.0</ele><time>2026-04-26T07:25:36.029Z</time></trkpt><trkpt lat="43.0916538" lon="12.2370229"><ele>237.83333333333331</ele><time>2026-04-26T07:25:37.959Z</time></trkpt><trkpt lat="43.0916895" lon="12.2371459"><ele>237.66666666666666</ele><time>2026-04-26T07:25:39.956Z</time></trkpt><trkpt lat="43.091712" lon="12.2372599"><ele>237.5</ele><time>2026-04-26T07:25:41.95Z</time></trkpt><trkpt lat="43.0917215" lon="12.2373771"><ele>237.33333333333331</ele><time>2026-04-26T07:25:43.938Z</time></trkpt><trkpt lat="43.0917305" lon="12.2374922"><ele>237.16666666666666</ele><time>2026-04-26T07:25:45.953Z</time></trkpt><trkpt lat="43.091745" lon="12.2376039"><ele>237.0</ele><time>2026-04-26T07:25:47.972Z</time></trkpt><trkpt lat="43.0917639" lon="12.2377163"><ele>236.6</ele><time>2026-04-26T07:25:49.952Z</time></trkpt><trkpt lat="43.0917955" lon="12.2378242"><ele>236.2</ele><time>2026-04-26T07:25:51.937Z</time></trkpt><trkpt lat="43.0918507" lon="12.2379181"><ele>235.8</ele><time>2026-04-26T07:25:53.957Z</time></trkpt><trkpt lat="43.0919251" lon="12.2379904"><ele>235.4</ele><time>2026-04-26T07:25:55.955Z</time></trkpt><trkpt lat="43.0920083" lon="12.2380422"><ele>235.0</ele><time>2026-04-26T07:25:57.949Z</time></trkpt><trkpt lat="43.0920955" lon="12.2380919"><ele>234.99999999999997</ele><time>2026-04-26T07:25:59.955Z</time></trkpt><trkpt lat="43.0921821" lon="12.2381343"><ele>235.0</ele><time>2026-04-26T07:26:01.953Z</time></trkpt><trkpt lat="43.0922712" lon="12.2381764"><ele>235.0</ele><time>2026-04-26T07:26:03.96Z</time></trkpt><trkpt lat="43.0923555" lon="12.2382149"><ele>235.0</ele><time>2026-04-26T07:26:05.956Z</time></trkpt><trkpt lat="43.092436" lon="12.238255"><ele>234.99999999999997</ele><time>2026-04-26T07:26:07.953Z</time></trkpt><trkpt lat="43.0925198" lon="12.2382925"><ele>235.0</ele><time>2026-04-26T07:26:09.948Z</time></trkpt><trkpt lat="43.0926044" lon="12.2383261"><ele>234.49999999999997</ele><time>2026-04-26T07:26:11.954Z</time></trkpt><trkpt lat="43.092689" lon="12.238363"><ele>234.0</ele><time>2026-04-26T07:26:13.953Z</time></trkpt><trkpt lat="43.0927723" lon="12.2384034"><ele>233.5</ele><time>2026-04-26T07:26:15.952Z</time></trkpt><trkpt lat="43.092854" lon="12.2384416"><ele>233.0</ele><time>2026-04-26T07:26:17.954Z</time></trkpt><trkpt lat="43.0929339" lon="12.2384826"><ele>232.49999999999997</ele><time>2026-04-26T07:26:19.951Z</time></trkpt><trkpt lat="43.0930126" lon="12.2385194"><ele>232.0</ele><time>2026-04-26T07:26:21.951Z</time></trkpt><trkpt lat="43.0930944" lon="12.2385587"><ele>231.99999999999997</ele><time>2026-04-26T07:26:23.953Z</time></trkpt><trkpt lat="43.0931783" lon="12.2385967"><ele>232.0</ele><time>2026-04-26T07:26:25.956Z</time></trkpt><trkpt lat="43.0932567" lon="12.2386454"><ele>232.0</ele><time>2026-04-26T07:26:27.955Z</time></trkpt><trkpt lat="43.0933353" lon="12.2386823"><ele>232.0</ele><time>2026-04-26T07:26:29.951Z</time></trkpt><trkpt lat="43.093416" lon="12.238719"><ele>231.99999999999997</ele><time>2026-04-26T07:26:31.941Z</time></trkpt><trkpt lat="43.0935003" lon="12.2387525"><ele>232.0</ele><time>2026-04-26T07:26:33.949Z</time></trkpt><trkpt lat="43.0935817" lon="12.2387868"><ele>232.16666666666666</ele><time>2026-04-26T07:26:35.956Z</time></trkpt><trkpt lat="43.0936606" lon="12.2388268"><ele>232.33333333333331</ele><time>2026-04-26T07:26:37.953Z</time></trkpt><trkpt lat="43.093737" lon="12.2388584"><ele>232.5</ele><time>2026-04-26T07:26:39.954Z</time></trkpt><trkpt lat="43.0938121" lon="12.2388669"><ele>232.66666666666669</ele><time>2026-04-26T07:26:41.953Z</time></trkpt><trkpt lat="43.0938823" lon="12.2388302"><ele>232.83333333333334</ele><time>2026-04-26T07:26:43.939Z</time></trkpt><trkpt lat="43.0939296" lon="12.2387694"><ele>233.0</ele><time>2026-04-26T07:26:45.953Z</time></trkpt><trkpt lat="43.0939737" lon="12.2386841"><ele>233.00000000000003</ele><time>2026-04-26T07:26:47.951Z</time></trkpt><trkpt lat="43.0940148" lon="12.2385841"><ele>233.0</ele><time>2026-04-26T07:26:49.951Z</time></trkpt><trkpt lat="43.0940513" lon="12.2384808"><ele>233.0</ele><time>2026-04-26T07:26:51.957Z</time></trkpt><trkpt lat="43.0940963" lon="12.2383701"><ele>233.0</ele><time>2026-04-26T07:26:53.934Z</time></trkpt><trkpt lat="43.0941414" lon="12.2382661"><ele>233.00000000000003</ele><time>2026-04-26T07:26:55.95Z</time></trkpt><trkpt lat="43.0941885" lon="12.2381605"><ele>233.0</ele><time>2026-04-26T07:26:57.952Z</time></trkpt><trkpt lat="43.0942326" lon="12.2380648"><ele>233.00000000000003</ele><time>2026-04-26T07:26:59.961Z</time></trkpt><trkpt lat="43.0942771" lon="12.2379722"><ele>233.0</ele><time>2026-04-26T07:27:01.951Z</time></trkpt><trkpt lat="43.0943202" lon="12.2378801"><ele>233.0</ele><time>2026-04-26T07:27:03.961Z</time></trkpt><trkpt lat="43.0943623" lon="12.2377921"><ele>233.0</ele><time>2026-04-26T07:27:05.952Z</time></trkpt><trkpt lat="43.094399" lon="12.2377"><ele>233.00000000000003</ele><time>2026-04-26T07:27:07.955Z</time></trkpt><trkpt lat="43.0944396" lon="12.2376103"><ele>233.0</ele><time>2026-04-26T07:27:09.951Z</time></trkpt><trkpt lat="43.0944883" lon="12.2375245"><ele>233.00000000000003</ele><time>2026-04-26T07:27:11.95Z</time></trkpt><trkpt lat="43.0945285" lon="12.2374407"><ele>233.0</ele><time>2026-04-26T07:27:13.952Z</time></trkpt><trkpt lat="43.0945687" lon="12.2373567"><ele>233.0</ele><time>2026-04-26T07:27:15.952Z</time></trkpt><trkpt lat="43.0946081" lon="12.2372733"><ele>233.0</ele><time>2026-04-26T07:27:17.949Z</time></trkpt><trkpt lat="43.094645" lon="12.2371904"><ele>233.00000000000003</ele><time>2026-04-26T07:27:19.956Z</time></trkpt><trkpt lat="43.0946791" lon="12.2371094"><ele>233.0</ele><time>2026-04-26T07:27:21.952Z</time></trkpt><trkpt lat="43.0947234" lon="12.2369977"><ele>233.0</ele><time>2026-04-26T07:27:24.952Z</time></trkpt><trkpt lat="43.0947563" lon="12.2369162"><ele>233.0</ele><time>2026-04-26T07:27:26.957Z</time></trkpt><trkpt lat="43.0947932" lon="12.2368363"><ele>233.0</ele><time>2026-04-26T07:27:28.952Z</time></trkpt><trkpt lat="43.0948284" lon="12.2367563"><ele>233.0</ele><time>2026-04-26T07:27:30.959Z</time></trkpt><trkpt lat="43.0948619" lon="12.2366776"><ele>233.0</ele><time>2026-04-26T07:27:32.96Z</time></trkpt><trkpt lat="43.0948943" lon="12.2365991"><ele>233.0</ele><time>2026-04-26T07:27:34.96Z</time></trkpt><trkpt lat="43.0949291" lon="12.2365222"><ele>233.0</ele><time>2026-04-26T07:27:36.954Z</time></trkpt><trkpt lat="43.0949648" lon="12.2364424"><ele>233.57142857142858</ele><time>2026-04-26T07:27:38.957Z</time></trkpt><trkpt lat="43.094999" lon="12.2363591"><ele>234.1428571428571</ele><time>2026-04-26T07:27:40.952Z</time></trkpt><trkpt lat="43.0950379" lon="12.2362761"><ele>234.7142857142857</ele><time>2026-04-26T07:27:42.951Z</time></trkpt><trkpt lat="43.0950744" lon="12.2361893"><ele>235.28571428571428</ele><time>2026-04-26T07:27:44.968Z</time></trkpt><trkpt lat="43.0951115" lon="12.2361006"><ele>235.85714285714283</ele><time>2026-04-26T07:27:46.957Z</time></trkpt><trkpt lat="43.0951456" lon="12.2360103"><ele>236.4285714285714</ele><time>2026-04-26T07:27:48.952Z</time></trkpt><trkpt lat="43.0951827" lon="12.2359196"><ele>236.99999999999997</ele><time>2026-04-26T07:27:50.954Z</time></trkpt><trkpt lat="43.0952221" lon="12.2358324"><ele>236.99999999999997</ele><time>2026-04-26T07:27:52.942Z</time></trkpt><trkpt lat="43.0952597" lon="12.2357469"><ele>237.0</ele><time>2026-04-26T07:27:54.951Z</time></trkpt><trkpt lat="43.0952969" lon="12.2356667"><ele>236.99999999999997</ele><time>2026-04-26T07:27:56.95Z</time></trkpt><trkpt lat="43.0953336" lon="12.2355835"><ele>236.99999999999997</ele><time>2026-04-26T07:27:58.973Z</time></trkpt><trkpt lat="43.0953669" lon="12.2354997"><ele>237.0</ele><time>2026-04-26T07:28:00.951Z</time></trkpt><trkpt lat="43.0954018" lon="12.235424"><ele>236.99999999999997</ele><time>2026-04-26T07:28:02.951Z</time></trkpt><trkpt lat="43.0954418" lon="12.2353448"><ele>236.99999999999997</ele><time>2026-04-26T07:28:05.951Z</time></trkpt><trkpt lat="43.0954709" lon="12.2352601"><ele>237.28571428571425</ele><time>2026-04-26T07:28:08.961Z</time></trkpt><trkpt lat="43.0955018" lon="12.2351596"><ele>237.57142857142856</ele><time>2026-04-26T07:28:11.954Z</time></trkpt><trkpt lat="43.095544" lon="12.235063"><ele>237.85714285714286</ele><time>2026-04-26T07:28:14.96Z</time></trkpt><trkpt lat="43.0955934" lon="12.2349554"><ele>238.14285714285714</ele><time>2026-04-26T07:28:17.951Z</time></trkpt><trkpt lat="43.0956254" lon="12.2348804"><ele>238.42857142857144</ele><time>2026-04-26T07:28:19.954Z</time></trkpt><trkpt lat="43.0956564" lon="12.234803"><ele>238.71428571428575</ele><time>2026-04-26T07:28:21.952Z</time></trkpt><trkpt lat="43.095688" lon="12.2347276"><ele>239.00000000000003</ele><time>2026-04-26T07:28:23.964Z</time></trkpt><trkpt lat="43.095737" lon="12.234622"><ele>239.83333333333334</ele><time>2026-04-26T07:28:26.952Z</time></trkpt><trkpt lat="43.0957848" lon="12.2345234"><ele>240.66666666666669</ele><time>2026-04-26T07:28:29.95Z</time></trkpt><trkpt lat="43.0958339" lon="12.2344297"><ele>241.5</ele><time>2026-04-26T07:28:32.951Z</time></trkpt><trkpt lat="43.0958766" lon="12.2343309"><ele>242.33333333333331</ele><time>2026-04-26T07:28:35.953Z</time></trkpt><trkpt lat="43.0959181" lon="12.2342299"><ele>243.16666666666666</ele><time>2026-04-26T07:28:38.953Z</time></trkpt><trkpt lat="43.0959589" lon="12.2341259"><ele>244.0</ele><time>2026-04-26T07:28:41.952Z</time></trkpt><trkpt lat="43.0960021" lon="12.2340289"><ele>244.49999999999997</ele><time>2026-04-26T07:28:44.964Z</time></trkpt><trkpt lat="43.0960481" lon="12.2339346"><ele>245.0</ele><time>2026-04-26T07:28:47.951Z</time></trkpt><trkpt lat="43.0960774" lon="12.2338412"><ele>245.5</ele><time>2026-04-26T07:28:50.955Z</time></trkpt><trkpt lat="43.0961121" lon="12.2337469"><ele>246.0</ele><time>2026-04-26T07:28:53.958Z</time></trkpt><trkpt lat="43.0961546" lon="12.2336591"><ele>246.49999999999997</ele><time>2026-04-26T07:28:56.952Z</time></trkpt><trkpt lat="43.0962009" lon="12.2335679"><ele>247.0</ele><time>2026-04-26T07:29:00.046Z</time></trkpt><trkpt lat="43.0962474" lon="12.2334693"><ele>246.99999999999997</ele><time>2026-04-26T07:29:02.953Z</time></trkpt><trkpt lat="43.0963016" lon="12.2333711"><ele>247.0</ele><time>2026-04-26T07:29:06.056Z</time></trkpt><trkpt lat="43.0963471" lon="12.2332809"><ele>247.0</ele><time>2026-04-26T07:29:08.964Z</time></trkpt><trkpt lat="43.0963901" lon="12.2331911"><ele>247.0</ele><time>2026-04-26T07:29:12.053Z</time></trkpt><trkpt lat="43.096436" lon="12.2330938"><ele>246.99999999999997</ele><time>2026-04-26T07:29:14.952Z</time></trkpt><trkpt lat="43.0964815" lon="12.2329985"><ele>247.0</ele><time>2026-04-26T07:29:17.954Z</time></trkpt><trkpt lat="43.0965276" lon="12.2328944"><ele>247.49999999999997</ele><time>2026-04-26T07:29:20.957Z</time></trkpt><trkpt lat="43.0965686" lon="12.2327954"><ele>248.0</ele><time>2026-04-26T07:29:23.957Z</time></trkpt><trkpt lat="43.0966083" lon="12.2326916"><ele>248.5</ele><time>2026-04-26T07:29:26.965Z</time></trkpt><trkpt lat="43.096656" lon="12.2325913"><ele>249.0</ele><time>2026-04-26T07:29:29.951Z</time></trkpt><trkpt lat="43.0966981" lon="12.2324928"><ele>249.49999999999997</ele><time>2026-04-26T07:29:32.937Z</time></trkpt><trkpt lat="43.0967405" lon="12.2323917"><ele>250.0</ele><time>2026-04-26T07:29:35.952Z</time></trkpt><trkpt lat="43.0967815" lon="12.2322894"><ele>250.83333333333331</ele><time>2026-04-26T07:29:38.938Z</time></trkpt><trkpt lat="43.0968218" lon="12.2321813"><ele>251.66666666666666</ele><time>2026-04-26T07:29:41.939Z</time></trkpt><trkpt lat="43.0968648" lon="12.2320669"><ele>252.5</ele><time>2026-04-26T07:29:44.938Z</time></trkpt><trkpt lat="43.0969114" lon="12.231954"><ele>253.33333333333331</ele><time>2026-04-26T07:29:47.941Z</time></trkpt><trkpt lat="43.0969537" lon="12.2318455"><ele>254.16666666666666</ele><time>2026-04-26T07:29:50.935Z</time></trkpt><trkpt lat="43.0969864" lon="12.2317685"><ele>255.0</ele><time>2026-04-26T07:29:52.943Z</time></trkpt><trkpt lat="43.0970223" lon="12.2316976"><ele>255.0</ele><time>2026-04-26T07:29:54.94Z</time></trkpt><trkpt lat="43.0970696" lon="12.231592"><ele>255.0</ele><time>2026-04-26T07:29:57.949Z</time></trkpt><trkpt lat="43.097111" lon="12.2314866"><ele>255.0</ele><time>2026-04-26T07:30:00.951Z</time></trkpt><trkpt lat="43.0971604" lon="12.2313779"><ele>255.0</ele><time>2026-04-26T07:30:03.95Z</time></trkpt><trkpt lat="43.0972098" lon="12.2312747"><ele>255.0</ele><time>2026-04-26T07:30:06.951Z</time></trkpt><trkpt lat="43.0972571" lon="12.2311672"><ele>255.5</ele><time>2026-04-26T07:30:09.948Z</time></trkpt><trkpt lat="43.0973079" lon="12.2310613"><ele>256.0</ele><time>2026-04-26T07:30:12.962Z</time></trkpt><trkpt lat="43.0973517" lon="12.2309547"><ele>256.5</ele><time>2026-04-26T07:30:15.94Z</time></trkpt><trkpt lat="43.0973956" lon="12.2308459"><ele>257.0</ele><time>2026-04-26T07:30:18.953Z</time></trkpt><trkpt lat="43.0974391" lon="12.2307345"><ele>257.5</ele><time>2026-04-26T07:30:21.949Z</time></trkpt><trkpt lat="43.0974725" lon="12.2306604"><ele>258.0</ele><time>2026-04-26T07:30:23.953Z</time></trkpt><trkpt lat="43.09752" lon="12.2305582"><ele>259.3333333333333</ele><time>2026-04-26T07:30:26.954Z</time></trkpt><trkpt lat="43.0975675" lon="12.2304515"><ele>260.6666666666667</ele><time>2026-04-26T07:30:29.951Z</time></trkpt><trkpt lat="43.0976159" lon="12.2303494"><ele>262.0</ele><time>2026-04-26T07:30:32.955Z</time></trkpt><trkpt lat="43.0976604" lon="12.2302507"><ele>263.33333333333337</ele><time>2026-04-26T07:30:35.953Z</time></trkpt><trkpt lat="43.0977041" lon="12.2301495"><ele>264.6666666666667</ele><time>2026-04-26T07:30:39.04Z</time></trkpt><trkpt lat="43.0977479" lon="12.2300465"><ele>266.0</ele><time>2026-04-26T07:30:41.952Z</time></trkpt><trkpt lat="43.097794" lon="12.229943"><ele>266.0</ele><time>2026-04-26T07:30:44.951Z</time></trkpt><trkpt lat="43.0978394" lon="12.2298405"><ele>266.0</ele><time>2026-04-26T07:30:47.955Z</time></trkpt><trkpt lat="43.0978821" lon="12.2297363"><ele>266.0</ele><time>2026-04-26T07:30:50.959Z</time></trkpt><trkpt lat="43.0979283" lon="12.2296343"><ele>266.0</ele><time>2026-04-26T07:30:53.956Z</time></trkpt><trkpt lat="43.0979731" lon="12.2295368"><ele>266.0</ele><time>2026-04-26T07:30:56.952Z</time></trkpt><trkpt lat="43.0980148" lon="12.2294421"><ele>266.0</ele><time>2026-04-26T07:30:59.952Z</time></trkpt><trkpt lat="43.0980592" lon="12.2293431"><ele>267.0</ele><time>2026-04-26T07:31:02.956Z</time></trkpt><trkpt lat="43.0981017" lon="12.2292375"><ele>268.0</ele><time>2026-04-26T07:31:05.959Z</time></trkpt><trkpt lat="43.0981465" lon="12.2291331"><ele>269.0</ele><time>2026-04-26T07:31:08.952Z</time></trkpt><trkpt lat="43.0981955" lon="12.2290265"><ele>270.0</ele><time>2026-04-26T07:31:11.955Z</time></trkpt><trkpt lat="43.0982426" lon="12.2289212"><ele>271.0</ele><time>2026-04-26T07:31:14.957Z</time></trkpt><trkpt lat="43.0982891" lon="12.2288279"><ele>272.0</ele><time>2026-04-26T07:31:17.951Z</time></trkpt><trkpt lat="43.098334" lon="12.2287365"><ele>272.5</ele><time>2026-04-26T07:31:20.95Z</time></trkpt><trkpt lat="43.0983735" lon="12.228632"><ele>273.0</ele><time>2026-04-26T07:31:23.952Z</time></trkpt><trkpt lat="43.0984158" lon="12.2285429"><ele>273.5</ele><time>2026-04-26T07:31:26.951Z</time></trkpt><trkpt lat="43.0984538" lon="12.2284446"><ele>274.0</ele><time>2026-04-26T07:31:29.956Z</time></trkpt><trkpt lat="43.0984956" lon="12.2283402"><ele>274.5</ele><time>2026-04-26T07:31:32.955Z</time></trkpt><trkpt lat="43.0985447" lon="12.2282319"><ele>275.0</ele><time>2026-04-26T07:31:35.954Z</time></trkpt><trkpt lat="43.0985922" lon="12.228126"><ele>276.5</ele><time>2026-04-26T07:31:38.951Z</time></trkpt><trkpt lat="43.0986383" lon="12.2280215"><ele>278.0</ele><time>2026-04-26T07:31:41.944Z</time></trkpt><trkpt lat="43.0986862" lon="12.2279169"><ele>279.5</ele><time>2026-04-26T07:31:44.956Z</time></trkpt><trkpt lat="43.0987295" lon="12.2278184"><ele>281.0</ele><time>2026-04-26T07:31:47.951Z</time></trkpt><trkpt lat="43.0987743" lon="12.227713"><ele>282.5</ele><time>2026-04-26T07:31:50.957Z</time></trkpt><trkpt lat="43.0988225" lon="12.2276021"><ele>284.0</ele><time>2026-04-26T07:31:53.953Z</time></trkpt><trkpt lat="43.0988327" lon="12.2274798"><ele>284.0</ele><time>2026-04-26T07:31:56.951Z</time></trkpt><trkpt lat="43.0987797" lon="12.2273984"><ele>284.0</ele><time>2026-04-26T07:31:59.953Z</time></trkpt><trkpt lat="43.0987057" lon="12.2273435"><ele>284.0</ele><time>2026-04-26T07:32:02.954Z</time></trkpt><trkpt lat="43.0986286" lon="12.2272915"><ele>284.0</ele><time>2026-04-26T07:32:05.956Z</time></trkpt><trkpt lat="43.0985611" lon="12.2272329"><ele>284.0</ele><time>2026-04-26T07:32:08.958Z</time></trkpt><trkpt lat="43.0984968" lon="12.2271777"><ele>284.0</ele><time>2026-04-26T07:32:11.952Z</time></trkpt><trkpt lat="43.0984339" lon="12.2271273"><ele>284.42857142857144</ele><time>2026-04-26T07:32:14.951Z</time></trkpt><trkpt lat="43.098373" lon="12.2270702"><ele>284.85714285714283</ele><time>2026-04-26T07:32:17.951Z</time></trkpt><trkpt lat="43.0983072" lon="12.227019"><ele>285.2857142857143</ele><time>2026-04-26T07:32:20.95Z</time></trkpt><trkpt lat="43.0982468" lon="12.2269658"><ele>285.7142857142857</ele><time>2026-04-26T07:32:23.953Z</time></trkpt><trkpt lat="43.098188" lon="12.2269114"><ele>286.1428571428571</ele><time>2026-04-26T07:32:26.955Z</time></trkpt><trkpt lat="43.0981302" lon="12.2268536"><ele>286.57142857142856</ele><time>2026-04-26T07:32:29.954Z</time></trkpt><trkpt lat="43.0980627" lon="12.2267992"><ele>287.0</ele><time>2026-04-26T07:32:32.958Z</time></trkpt><trkpt lat="43.0979926" lon="12.2267425"><ele>287.0</ele><time>2026-04-26T07:32:35.957Z</time></trkpt><trkpt lat="43.0979245" lon="12.2266888"><ele>287.0</ele><time>2026-04-26T07:32:38.96Z</time></trkpt><trkpt lat="43.0978561" lon="12.2266389"><ele>287.0</ele><time>2026-04-26T07:32:41.953Z</time></trkpt><trkpt lat="43.0977863" lon="12.2265975"><ele>287.0</ele><time>2026-04-26T07:32:44.953Z</time></trkpt><trkpt lat="43.0977236" lon="12.2265366"><ele>287.0</ele><time>2026-04-26T07:32:47.952Z</time></trkpt><trkpt lat="43.0976775" lon="12.2264473"><ele>287.0</ele><time>2026-04-26T07:32:50.952Z</time></trkpt><trkpt lat="43.0976684" lon="12.226337"><ele>287.1666666666667</ele><time>2026-04-26T07:32:53.952Z</time></trkpt><trkpt lat="43.0976914" lon="12.2262277"><ele>287.33333333333337</ele><time>2026-04-26T07:32:56.955Z</time></trkpt><trkpt lat="43.0977334" lon="12.2261234"><ele>287.5</ele><time>2026-04-26T07:32:59.953Z</time></trkpt><trkpt lat="43.097779" lon="12.2260315"><ele>287.6666666666667</ele><time>2026-04-26T07:33:02.952Z</time></trkpt><trkpt lat="43.0978139" lon="12.2259292"><ele>287.8333333333333</ele><time>2026-04-26T07:33:05.952Z</time></trkpt><trkpt lat="43.0978505" lon="12.2258331"><ele>288.0</ele><time>2026-04-26T07:33:08.954Z</time></trkpt><trkpt lat="43.0978888" lon="12.225744"><ele>288.00000000000006</ele><time>2026-04-26T07:33:11.957Z</time></trkpt><trkpt lat="43.0979221" lon="12.2256542"><ele>288.0</ele><time>2026-04-26T07:33:14.951Z</time></trkpt><trkpt lat="43.0979592" lon="12.2255723"><ele>288.0</ele><time>2026-04-26T07:33:17.952Z</time></trkpt><trkpt lat="43.0979977" lon="12.2254854"><ele>288.0</ele><time>2026-04-26T07:33:20.952Z</time></trkpt><trkpt lat="43.0980342" lon="12.2254005"><ele>288.0</ele><time>2026-04-26T07:33:23.953Z</time></trkpt><trkpt lat="43.0980739" lon="12.2253112"><ele>288.00000000000006</ele><time>2026-04-26T07:33:26.952Z</time></trkpt><trkpt lat="43.0981096" lon="12.2252145"><ele>288.0</ele><time>2026-04-26T07:33:29.954Z</time></trkpt><trkpt lat="43.0981539" lon="12.2251253"><ele>289.14285714285717</ele><time>2026-04-26T07:33:32.953Z</time></trkpt><trkpt lat="43.0981938" lon="12.2250372"><ele>290.2857142857143</ele><time>2026-04-26T07:33:35.952Z</time></trkpt><trkpt lat="43.0982217" lon="12.2249527"><ele>291.42857142857144</ele><time>2026-04-26T07:33:38.953Z</time></trkpt><trkpt lat="43.0982439" lon="12.2248625"><ele>292.57142857142856</ele><time>2026-04-26T07:33:41.952Z</time></trkpt><trkpt lat="43.0982861" lon="12.2247806"><ele>293.7142857142857</ele><time>2026-04-26T07:39:57.952Z</time></trkpt><trkpt lat="43.0983216" lon="12.2247071"><ele>294.8571428571429</ele><time>2026-04-26T07:40:01.954Z</time></trkpt><trkpt lat="43.0983494" lon="12.2246095"><ele>296.0</ele><time>2026-04-26T07:40:05.951Z</time></trkpt><trkpt lat="43.0983397" lon="12.2245063"><ele>298.7142857142857</ele><time>2026-04-26T07:40:09.954Z</time></trkpt><trkpt lat="43.0983305" lon="12.2244193"><ele>301.42857142857144</ele><time>2026-04-26T07:40:13.952Z</time></trkpt><trkpt lat="43.0983223" lon="12.2243335"><ele>304.1428571428571</ele><time>2026-04-26T07:40:16.956Z</time></trkpt><trkpt lat="43.0983102" lon="12.224224"><ele>306.8571428571429</ele><time>2026-04-26T07:40:20.951Z</time></trkpt><trkpt lat="43.0983112" lon="12.2241302"><ele>309.57142857142856</ele><time>2026-04-26T07:40:23.951Z</time></trkpt><trkpt lat="43.0983147" lon="12.2240415"><ele>312.2857142857143</ele><time>2026-04-26T07:40:26.955Z</time></trkpt><trkpt lat="43.098308" lon="12.223938"><ele>315.0</ele><time>2026-04-26T07:40:30.953Z</time></trkpt><trkpt lat="43.0983052" lon="12.2238348"><ele>316.85714285714283</ele><time>2026-04-26T07:40:34.948Z</time></trkpt><trkpt lat="43.0982801" lon="12.2237285"><ele>318.7142857142857</ele><time>2026-04-26T07:40:38.954Z</time></trkpt><trkpt lat="43.0982598" lon="12.2236338"><ele>320.57142857142856</ele><time>2026-04-26T07:40:42.95Z</time></trkpt><trkpt lat="43.0982903" lon="12.223532"><ele>322.42857142857144</ele><time>2026-04-26T07:40:46.951Z</time></trkpt><trkpt lat="43.0983282" lon="12.2234439"><ele>324.2857142857143</ele><time>2026-04-26T07:40:50.943Z</time></trkpt><trkpt lat="43.0983428" lon="12.223353"><ele>326.1428571428571</ele><time>2026-04-26T07:40:53.94Z</time></trkpt><trkpt lat="43.0983319" lon="12.2232632"><ele>328.0</ele><time>2026-04-26T07:40:56.952Z</time></trkpt><trkpt lat="43.0983371" lon="12.2231746"><ele>329.2857142857143</ele><time>2026-04-26T07:40:59.947Z</time></trkpt><trkpt lat="43.0983484" lon="12.2230822"><ele>330.57142857142856</ele><time>2026-04-26T07:41:02.95Z</time></trkpt><trkpt lat="43.0983339" lon="12.2229942"><ele>331.8571428571429</ele><time>2026-04-26T07:41:06.051Z</time></trkpt><trkpt lat="43.0983193" lon="12.2229031"><ele>333.1428571428571</ele><time>2026-04-26T07:41:08.951Z</time></trkpt><trkpt lat="43.0983144" lon="12.2228156"><ele>334.42857142857144</ele><time>2026-04-26T07:41:11.948Z</time></trkpt><trkpt lat="43.0983242" lon="12.222725"><ele>335.7142857142857</ele><time>2026-04-26T07:41:14.949Z</time></trkpt><trkpt lat="43.0983517" lon="12.2226374"><ele>337.0</ele><time>2026-04-26T07:41:17.951Z</time></trkpt><trkpt lat="43.0983739" lon="12.2225487"><ele>337.0</ele><time>2026-04-26T07:41:20.956Z</time></trkpt><trkpt lat="43.0983978" lon="12.2224573"><ele>337.0</ele><time>2026-04-26T07:41:23.952Z</time></trkpt><trkpt lat="43.0984226" lon="12.2223738"><ele>337.0</ele><time>2026-04-26T07:41:26.952Z</time></trkpt><trkpt lat="43.098439" lon="12.2222771"><ele>337.0</ele><time>2026-04-26T07:41:29.958Z</time></trkpt><trkpt lat="43.0984119" lon="12.2221698"><ele>337.0</ele><time>2026-04-26T07:41:32.934Z</time></trkpt><trkpt lat="43.0983235" lon="12.2221024"><ele>337.0</ele><time>2026-04-26T07:41:36.955Z</time></trkpt><trkpt lat="43.0982591" lon="12.2220651"><ele>338.7142857142857</ele><time>2026-04-26T07:41:39.961Z</time></trkpt><trkpt lat="43.0982012" lon="12.2220286"><ele>340.42857142857144</ele><time>2026-04-26T07:41:42.951Z</time></trkpt><trkpt lat="43.0981422" lon="12.2219903"><ele>342.1428571428571</ele><time>2026-04-26T07:41:45.956Z</time></trkpt><trkpt lat="43.098078" lon="12.2219149"><ele>343.8571428571429</ele><time>2026-04-26T07:41:49.956Z</time></trkpt><trkpt lat="43.0980415" lon="12.2218394"><ele>345.57142857142856</ele><time>2026-04-26T07:41:52.951Z</time></trkpt><trkpt lat="43.0980096" lon="12.2217576"><ele>347.2857142857143</ele><time>2026-04-26T07:41:55.938Z</time></trkpt><trkpt lat="43.098012" lon="12.2216697"><ele>349.0</ele><time>2026-04-26T07:41:58.949Z</time></trkpt><trkpt lat="43.0980585" lon="12.2215908"><ele>348.99999999999994</ele><time>2026-04-26T07:42:02.957Z</time></trkpt><trkpt lat="43.0981398" lon="12.2215997"><ele>349.0</ele><time>2026-04-26T07:42:06.961Z</time></trkpt><trkpt lat="43.0982013" lon="12.221631"><ele>349.0</ele><time>2026-04-26T07:42:09.953Z</time></trkpt><trkpt lat="43.0982739" lon="12.2216214"><ele>349.0</ele><time>2026-04-26T07:42:13.947Z</time></trkpt><trkpt lat="43.0983475" lon="12.2216188"><ele>349.0</ele><time>2026-04-26T07:42:17.957Z</time></trkpt><trkpt lat="43.0984203" lon="12.2216053"><ele>348.99999999999994</ele><time>2026-04-26T07:42:21.955Z</time></trkpt><trkpt lat="43.0984864" lon="12.2216015"><ele>349.0</ele><time>2026-04-26T07:42:24.951Z</time></trkpt><trkpt lat="43.0985546" lon="12.2215908"><ele>348.85714285714283</ele><time>2026-04-26T07:42:27.951Z</time></trkpt><trkpt lat="43.0986196" lon="12.2215721"><ele>348.7142857142857</ele><time>2026-04-26T07:42:30.939Z</time></trkpt><trkpt lat="43.0986994" lon="12.2215357"><ele>348.57142857142856</ele><time>2026-04-26T07:42:34.958Z</time></trkpt><trkpt lat="43.0987654" lon="12.221503"><ele>348.42857142857144</ele><time>2026-04-26T07:42:38.954Z</time></trkpt><trkpt lat="43.0988151" lon="12.2214417"><ele>348.2857142857143</ele><time>2026-04-26T07:42:41.964Z</time></trkpt><trkpt lat="43.0987963" lon="12.2213465"><ele>348.1428571428571</ele><time>2026-04-26T07:42:45.957Z</time></trkpt><trkpt lat="43.0987372" lon="12.221301"><ele>348.0</ele><time>2026-04-26T07:42:48.953Z</time></trkpt><trkpt lat="43.0986736" lon="12.2212831"><ele>350.0</ele><time>2026-04-26T07:42:51.945Z</time></trkpt><trkpt lat="43.0986126" lon="12.2212543"><ele>352.0</ele><time>2026-04-26T07:42:54.97Z</time></trkpt><trkpt lat="43.0985349" lon="12.2212298"><ele>354.0</ele><time>2026-04-26T07:42:58.953Z</time></trkpt><trkpt lat="43.0984619" lon="12.2212028"><ele>356.0</ele><time>2026-04-26T07:43:02.951Z</time></trkpt><trkpt lat="43.0984004" lon="12.2211292"><ele>358.0</ele><time>2026-04-26T07:43:06.951Z</time></trkpt><trkpt lat="43.0983751" lon="12.221042"><ele>360.0</ele><time>2026-04-26T07:43:09.958Z</time></trkpt><trkpt lat="43.098342" lon="12.2209676"><ele>362.0</ele><time>2026-04-26T07:43:12.953Z</time></trkpt><trkpt lat="43.0983271" lon="12.2208817"><ele>362.0</ele><time>2026-04-26T07:43:15.953Z</time></trkpt><trkpt lat="43.0983663" lon="12.2207862"><ele>362.0</ele><time>2026-04-26T07:43:19.957Z</time></trkpt><trkpt lat="43.0984331" lon="12.2208028"><ele>362.0</ele><time>2026-04-26T07:43:22.954Z</time></trkpt><trkpt lat="43.098504" lon="12.220858"><ele>362.0</ele><time>2026-04-26T07:43:27.039Z</time></trkpt><trkpt lat="43.0985815" lon="12.2208827"><ele>362.0</ele><time>2026-04-26T07:43:30.952Z</time></trkpt><trkpt lat="43.0986639" lon="12.2208794"><ele>362.0</ele><time>2026-04-26T07:43:34.937Z</time></trkpt><trkpt lat="43.0987304" lon="12.2208575"><ele>362.0</ele><time>2026-04-26T07:43:37.951Z</time></trkpt><trkpt lat="43.0987924" lon="12.2208383"><ele>362.0</ele><time>2026-04-26T07:43:40.951Z</time></trkpt><trkpt lat="43.0988546" lon="12.2208099"><ele>362.0</ele><time>2026-04-26T07:43:43.952Z</time></trkpt><trkpt lat="43.0989186" lon="12.2207866"><ele>362.0</ele><time>2026-04-26T07:43:46.943Z</time></trkpt><trkpt lat="43.0989875" lon="12.2207665"><ele>362.0</ele><time>2026-04-26T07:43:49.94Z</time></trkpt><trkpt lat="43.0990618" lon="12.2207368"><ele>362.0</ele><time>2026-04-26T07:43:52.938Z</time></trkpt><trkpt lat="43.0991324" lon="12.2207174"><ele>362.0</ele><time>2026-04-26T07:43:55.935Z</time></trkpt><trkpt lat="43.0992007" lon="12.2207242"><ele>364.1428571428571</ele><time>2026-04-26T07:43:58.939Z</time></trkpt><trkpt lat="43.0992672" lon="12.2207579"><ele>366.2857142857143</ele><time>2026-04-26T07:44:01.935Z</time></trkpt><trkpt lat="43.0993058" lon="12.2208372"><ele>368.42857142857144</ele><time>2026-04-26T07:44:04.939Z</time></trkpt><trkpt lat="43.0993389" lon="12.2209214"><ele>370.57142857142856</ele><time>2026-04-26T07:44:08.036Z</time></trkpt><trkpt lat="43.0993543" lon="12.2210057"><ele>372.7142857142857</ele><time>2026-04-26T07:44:10.937Z</time></trkpt><trkpt lat="43.0993672" lon="12.221101"><ele>374.85714285714283</ele><time>2026-04-26T07:44:13.95Z</time></trkpt><trkpt lat="43.0993748" lon="12.2212043"><ele>377.0</ele><time>2026-04-26T07:44:16.953Z</time></trkpt><trkpt lat="43.0993933" lon="12.221303"><ele>376.99999999999994</ele><time>2026-04-26T07:44:19.953Z</time></trkpt><trkpt lat="43.0994136" lon="12.2214073"><ele>377.0</ele><time>2026-04-26T07:44:22.949Z</time></trkpt><trkpt lat="43.0994322" lon="12.2215058"><ele>377.0</ele><time>2026-04-26T07:44:25.946Z</time></trkpt><trkpt lat="43.0994341" lon="12.2216026"><ele>377.0</ele><time>2026-04-26T07:44:28.939Z</time></trkpt><trkpt lat="43.0994385" lon="12.2216919"><ele>377.0</ele><time>2026-04-26T07:44:31.956Z</time></trkpt><trkpt lat="43.0994465" lon="12.2217836"><ele>376.99999999999994</ele><time>2026-04-26T07:44:34.954Z</time></trkpt><trkpt lat="43.0994466" lon="12.2218974"><ele>377.0</ele><time>2026-04-26T07:44:38.951Z</time></trkpt><trkpt lat="43.0994622" lon="12.2219911"><ele>375.57142857142856</ele><time>2026-04-26T07:44:41.951Z</time></trkpt><trkpt lat="43.0994841" lon="12.2220804"><ele>374.1428571428571</ele><time>2026-04-26T07:44:44.96Z</time></trkpt><trkpt lat="43.0995244" lon="12.2221606"><ele>372.71428571428567</ele><time>2026-04-26T07:44:47.953Z</time></trkpt><trkpt lat="43.0995815" lon="12.2222106"><ele>371.2857142857143</ele><time>2026-04-26T07:44:50.955Z</time></trkpt><trkpt lat="43.0996557" lon="12.2222348"><ele>369.8571428571429</ele><time>2026-04-26T07:44:53.957Z</time></trkpt><trkpt lat="43.0997288" lon="12.2222416"><ele>368.4285714285714</ele><time>2026-04-26T07:44:56.952Z</time></trkpt><trkpt lat="43.0997921" lon="12.222234"><ele>367.0</ele><time>2026-04-26T07:44:59.951Z</time></trkpt><trkpt lat="43.099856" lon="12.2222288"><ele>370.4285714285714</ele><time>2026-04-26T07:45:02.952Z</time></trkpt><trkpt lat="43.0999219" lon="12.2222233"><ele>373.8571428571429</ele><time>2026-04-26T07:45:05.95Z</time></trkpt><trkpt lat="43.0999875" lon="12.2222009"><ele>377.2857142857143</ele><time>2026-04-26T07:45:08.952Z</time></trkpt><trkpt lat="43.1000522" lon="12.2221856"><ele>380.71428571428567</ele><time>2026-04-26T07:45:11.949Z</time></trkpt><trkpt lat="43.1001243" lon="12.2221285"><ele>384.1428571428571</ele><time>2026-04-26T07:45:15.951Z</time></trkpt><trkpt lat="43.1001769" lon="12.2220384"><ele>387.57142857142856</ele><time>2026-04-26T07:45:19.949Z</time></trkpt><trkpt lat="43.100163" lon="12.2219525"><ele>391.0</ele><time>2026-04-26T07:45:22.95Z</time></trkpt><trkpt lat="43.1000827" lon="12.2219244"><ele>390.99999999999994</ele><time>2026-04-26T07:45:26.952Z</time></trkpt><trkpt lat="43.1000188" lon="12.2218545"><ele>391.0</ele><time>2026-04-26T07:45:30.959Z</time></trkpt><trkpt lat="43.0999916" lon="12.2217684"><ele>391.0</ele><time>2026-04-26T07:45:33.951Z</time></trkpt><trkpt lat="43.0999894" lon="12.2216723"><ele>391.0</ele><time>2026-04-26T07:45:36.951Z</time></trkpt><trkpt lat="43.1000099" lon="12.2215843"><ele>391.0</ele><time>2026-04-26T07:45:39.949Z</time></trkpt><trkpt lat="43.1000263" lon="12.2214907"><ele>390.99999999999994</ele><time>2026-04-26T07:45:42.952Z</time></trkpt><trkpt lat="43.1000193" lon="12.221396"><ele>391.0</ele><time>2026-04-26T07:45:45.951Z</time></trkpt><trkpt lat="43.1000104" lon="12.2213036"><ele>392.57142857142856</ele><time>2026-04-26T07:45:48.958Z</time></trkpt><trkpt lat="43.09999" lon="12.2212091"><ele>394.1428571428571</ele><time>2026-04-26T07:45:51.952Z</time></trkpt><trkpt lat="43.0999703" lon="12.2210999"><ele>395.71428571428567</ele><time>2026-04-26T07:45:54.956Z</time></trkpt><trkpt lat="43.099963" lon="12.2209976"><ele>397.2857142857143</ele><time>2026-04-26T07:45:57.953Z</time></trkpt><trkpt lat="43.0999577" lon="12.2208916"><ele>398.8571428571429</ele><time>2026-04-26T07:46:00.954Z</time></trkpt><trkpt lat="43.0999609" lon="12.2207977"><ele>400.4285714285714</ele><time>2026-04-26T07:46:03.961Z</time></trkpt><trkpt lat="43.0999766" lon="12.2207047"><ele>402.0</ele><time>2026-04-26T07:46:06.95Z</time></trkpt><trkpt lat="43.0999832" lon="12.2206136"><ele>403.4285714285714</ele><time>2026-04-26T07:46:09.948Z</time></trkpt><trkpt lat="43.0999897" lon="12.2205163"><ele>404.8571428571429</ele><time>2026-04-26T07:46:12.954Z</time></trkpt><trkpt lat="43.099996" lon="12.220416"><ele>406.2857142857143</ele><time>2026-04-26T07:46:15.955Z</time></trkpt><trkpt lat="43.1000002" lon="12.2203204"><ele>407.71428571428567</ele><time>2026-04-26T07:46:18.953Z</time></trkpt><trkpt lat="43.1000039" lon="12.2202339"><ele>409.1428571428571</ele><time>2026-04-26T07:46:21.952Z</time></trkpt><trkpt lat="43.1000183" lon="12.2201459"><ele>410.57142857142856</ele><time>2026-04-26T07:46:24.952Z</time></trkpt><trkpt lat="43.100027" lon="12.2200484"><ele>412.0</ele><time>2026-04-26T07:46:27.95Z</time></trkpt><trkpt lat="43.1000349" lon="12.2199532"><ele>412.00000000000006</ele><time>2026-04-26T07:46:30.949Z</time></trkpt><trkpt lat="43.1000427" lon="12.2198349"><ele>412.0</ele><time>2026-04-26T07:46:34.952Z</time></trkpt><trkpt lat="43.1000423" lon="12.2197296"><ele>412.0</ele><time>2026-04-26T07:46:37.952Z</time></trkpt><trkpt lat="43.1000544" lon="12.2196188"><ele>412.0</ele><time>2026-04-26T07:46:40.95Z</time></trkpt><trkpt lat="43.1000376" lon="12.2195341"><ele>412.00000000000006</ele><time>2026-04-26T07:46:43.953Z</time></trkpt><trkpt lat="43.0999998" lon="12.2194586"><ele>412.0</ele><time>2026-04-26T07:46:46.951Z</time></trkpt><trkpt lat="43.099927" lon="12.2194135"><ele>412.83333333333337</ele><time>2026-04-26T07:46:49.951Z</time></trkpt><trkpt lat="43.0998455" lon="12.2194111"><ele>413.6666666666667</ele><time>2026-04-26T07:46:52.954Z</time></trkpt><trkpt lat="43.0997569" lon="12.2194123"><ele>414.5</ele><time>2026-04-26T07:46:55.95Z</time></trkpt><trkpt lat="43.0996822" lon="12.2193824"><ele>415.33333333333337</ele><time>2026-04-26T07:46:58.961Z</time></trkpt><trkpt lat="43.099585" lon="12.2193773"><ele>416.1666666666667</ele><time>2026-04-26T07:47:01.95Z</time></trkpt><trkpt lat="43.0995122" lon="12.2193506"><ele>417.0</ele><time>2026-04-26T07:47:04.95Z</time></trkpt><trkpt lat="43.0994352" lon="12.2193058"><ele>417.0</ele><time>2026-04-26T07:47:07.949Z</time></trkpt><trkpt lat="43.0993654" lon="12.219246"><ele>417.0</ele><time>2026-04-26T07:47:10.95Z</time></trkpt><trkpt lat="43.0993033" lon="12.2191831"><ele>417.0</ele><time>2026-04-26T07:47:13.951Z</time></trkpt><trkpt lat="43.0992791" lon="12.21909"><ele>417.0</ele><time>2026-04-26T07:47:16.958Z</time></trkpt><trkpt lat="43.099358" lon="12.2190568"><ele>417.0</ele><time>2026-04-26T07:47:20.949Z</time></trkpt><trkpt lat="43.0994317" lon="12.2190814"><ele>417.0</ele><time>2026-04-26T07:47:24.949Z</time></trkpt><trkpt lat="43.0995055" lon="12.2190641"><ele>417.0</ele><time>2026-04-26T07:47:28.951Z</time></trkpt><trkpt lat="43.0995895" lon="12.2190329"><ele>417.0</ele><time>2026-04-26T07:47:32.952Z</time></trkpt><trkpt lat="43.0996648" lon="12.2189956"><ele>417.0</ele><time>2026-04-26T07:47:40.952Z</time></trkpt><trkpt lat="43.0997344" lon="12.2189639"><ele>417.0</ele><time>2026-04-26T07:47:43.957Z</time></trkpt><trkpt lat="43.0997972" lon="12.2189201"><ele>417.0</ele><time>2026-04-26T07:47:46.948Z</time></trkpt><trkpt lat="43.0998709" lon="12.2189006"><ele>417.0</ele><time>2026-04-26T07:47:49.953Z</time></trkpt><trkpt lat="43.0999447" lon="12.2188851"><ele>419.0</ele><time>2026-04-26T07:47:52.953Z</time></trkpt><trkpt lat="43.100008" lon="12.2188855"><ele>421.0</ele><time>2026-04-26T07:47:54.951Z</time></trkpt><trkpt lat="43.100072" lon="12.2188841"><ele>423.0</ele><time>2026-04-26T07:47:56.953Z</time></trkpt><trkpt lat="43.1001597" lon="12.2188923"><ele>425.0</ele><time>2026-04-26T07:47:59.949Z</time></trkpt><trkpt lat="43.1002312" lon="12.2189165"><ele>427.0</ele><time>2026-04-26T07:48:02.951Z</time></trkpt><trkpt lat="43.1003004" lon="12.2189644"><ele>429.0</ele><time>2026-04-26T07:48:05.951Z</time></trkpt><trkpt lat="43.1003679" lon="12.2190125"><ele>431.0</ele><time>2026-04-26T07:48:08.953Z</time></trkpt><trkpt lat="43.1004336" lon="12.2190508"><ele>431.0</ele><time>2026-04-26T07:48:11.949Z</time></trkpt><trkpt lat="43.1004928" lon="12.2191135"><ele>431.0</ele><time>2026-04-26T07:48:14.952Z</time></trkpt><trkpt lat="43.1005481" lon="12.2191699"><ele>431.0</ele><time>2026-04-26T07:48:17.953Z</time></trkpt><trkpt lat="43.1005903" lon="12.2192462"><ele>431.0</ele><time>2026-04-26T07:48:20.952Z</time></trkpt><trkpt lat="43.1006284" lon="12.2193244"><ele>431.0</ele><time>2026-04-26T07:48:23.953Z</time></trkpt><trkpt lat="43.1006578" lon="12.2194077"><ele>431.0</ele><time>2026-04-26T07:48:26.95Z</time></trkpt><trkpt lat="43.1006906" lon="12.2194972"><ele>431.0</ele><time>2026-04-26T07:48:29.95Z</time></trkpt><trkpt lat="43.1007007" lon="12.2195983"><ele>431.0</ele><time>2026-04-26T07:48:32.952Z</time></trkpt><trkpt lat="43.1007043" lon="12.219706"><ele>431.0</ele><time>2026-04-26T07:48:35.939Z</time></trkpt><trkpt lat="43.1007173" lon="12.2197977"><ele>431.0</ele><time>2026-04-26T07:48:38.951Z</time></trkpt><trkpt lat="43.1007577" lon="12.2198748"><ele>431.0</ele><time>2026-04-26T07:48:41.938Z</time></trkpt><trkpt lat="43.1007908" lon="12.2199497"><ele>431.0</ele><time>2026-04-26T07:48:44.944Z</time></trkpt><trkpt lat="43.1008608" lon="12.2200115"><ele>431.0</ele><time>2026-04-26T07:48:48.939Z</time></trkpt><trkpt lat="43.1009262" lon="12.2200049"><ele>431.0</ele><time>2026-04-26T07:48:51.951Z</time></trkpt><trkpt lat="43.1009926" lon="12.2199411"><ele>432.2857142857143</ele><time>2026-04-26T07:48:55.934Z</time></trkpt><trkpt lat="43.1009915" lon="12.219829"><ele>433.57142857142856</ele><time>2026-04-26T07:48:59.937Z</time></trkpt><trkpt lat="43.1009827" lon="12.2197383"><ele>434.85714285714283</ele><time>2026-04-26T07:49:02.939Z</time></trkpt><trkpt lat="43.1009756" lon="12.2196474"><ele>436.1428571428571</ele><time>2026-04-26T07:49:05.945Z</time></trkpt><trkpt lat="43.1009699" lon="12.219559"><ele>437.42857142857144</ele><time>2026-04-26T07:49:08.961Z</time></trkpt><trkpt lat="43.1009681" lon="12.2194707"><ele>438.71428571428567</ele><time>2026-04-26T07:49:11.949Z</time></trkpt><trkpt lat="43.100964" lon="12.2193734"><ele>440.0</ele><time>2026-04-26T07:49:14.951Z</time></trkpt><trkpt lat="43.1009606" lon="12.2192735"><ele>441.71428571428567</ele><time>2026-04-26T07:49:17.952Z</time></trkpt><trkpt lat="43.1009471" lon="12.2191791"><ele>443.42857142857144</ele><time>2026-04-26T07:49:20.954Z</time></trkpt><trkpt lat="43.1009197" lon="12.2190844"><ele>445.1428571428571</ele><time>2026-04-26T07:49:23.938Z</time></trkpt><trkpt lat="43.1008964" lon="12.2189967"><ele>446.85714285714283</ele><time>2026-04-26T07:49:26.95Z</time></trkpt><trkpt lat="43.1008793" lon="12.2189002"><ele>448.57142857142856</ele><time>2026-04-26T07:49:29.956Z</time></trkpt><trkpt lat="43.1008621" lon="12.2188024"><ele>450.2857142857143</ele><time>2026-04-26T07:49:32.952Z</time></trkpt><trkpt lat="43.1008361" lon="12.2187029"><ele>452.0</ele><time>2026-04-26T07:49:35.947Z</time></trkpt><trkpt lat="43.1008038" lon="12.2186152"><ele>451.8333333333333</ele><time>2026-04-26T07:49:38.948Z</time></trkpt><trkpt lat="43.1007547" lon="12.2185264"><ele>451.66666666666663</ele><time>2026-04-26T07:49:41.951Z</time></trkpt><trkpt lat="43.1007055" lon="12.2184671"><ele>451.5</ele><time>2026-04-26T07:49:43.946Z</time></trkpt><trkpt lat="43.1006166" lon="12.2183715"><ele>451.33333333333337</ele><time>2026-04-26T07:49:47.942Z</time></trkpt><trkpt lat="43.1005463" lon="12.2183138"><ele>451.1666666666667</ele><time>2026-04-26T07:49:50.954Z</time></trkpt><trkpt lat="43.1004838" lon="12.2182782"><ele>451.0</ele><time>2026-04-26T07:49:53.958Z</time></trkpt><trkpt lat="43.1004171" lon="12.2182592"><ele>451.0</ele><time>2026-04-26T07:49:56.949Z</time></trkpt><trkpt lat="43.1003507" lon="12.2182553"><ele>451.0</ele><time>2026-04-26T07:49:59.951Z</time></trkpt><trkpt lat="43.1002673" lon="12.2182619"><ele>451.0</ele><time>2026-04-26T07:50:02.951Z</time></trkpt><trkpt lat="43.100203" lon="12.2182726"><ele>451.0</ele><time>2026-04-26T07:50:04.935Z</time></trkpt><trkpt lat="43.1001325" lon="12.2182683"><ele>451.0</ele><time>2026-04-26T07:50:06.952Z</time></trkpt><trkpt lat="43.1000555" lon="12.2182364"><ele>451.0</ele><time>2026-04-26T07:50:09.946Z</time></trkpt><trkpt lat="43.0999792" lon="12.2182152"><ele>451.0</ele><time>2026-04-26T07:50:12.955Z</time></trkpt><trkpt lat="43.0999216" lon="12.2181632"><ele>454.83333333333337</ele><time>2026-04-26T07:50:15.953Z</time></trkpt><trkpt lat="43.0999602" lon="12.2180923"><ele>458.6666666666667</ele><time>2026-04-26T07:50:19.946Z</time></trkpt><trkpt lat="43.1000409" lon="12.218088"><ele>462.5</ele><time>2026-04-26T07:50:22.951Z</time></trkpt><trkpt lat="43.1001264" lon="12.2180432"><ele>466.33333333333337</ele><time>2026-04-26T07:50:25.948Z</time></trkpt><trkpt lat="43.1002115" lon="12.2180473"><ele>470.1666666666667</ele><time>2026-04-26T07:50:28.95Z</time></trkpt><trkpt lat="43.1002963" lon="12.2180206"><ele>474.0</ele><time>2026-04-26T07:50:31.948Z</time></trkpt><trkpt lat="43.1003626" lon="12.2179775"><ele>474.0</ele><time>2026-04-26T07:50:34.946Z</time></trkpt><trkpt lat="43.1004395" lon="12.2179463"><ele>474.0</ele><time>2026-04-26T07:50:37.949Z</time></trkpt><trkpt lat="43.1005" lon="12.217916"><ele>474.0</ele><time>2026-04-26T07:50:39.951Z</time></trkpt><trkpt lat="43.1005602" lon="12.2178819"><ele>474.0</ele><time>2026-04-26T07:50:41.947Z</time></trkpt><trkpt lat="43.1006239" lon="12.2178738"><ele>474.0</ele><time>2026-04-26T07:50:43.958Z</time></trkpt><trkpt lat="43.1007158" lon="12.2178534"><ele>474.0</ele><time>2026-04-26T07:50:46.948Z</time></trkpt><trkpt lat="43.1007985" lon="12.2178486"><ele>476.6666666666667</ele><time>2026-04-26T07:50:49.95Z</time></trkpt><trkpt lat="43.1008737" lon="12.2178305"><ele>479.33333333333337</ele><time>2026-04-26T07:50:51.948Z</time></trkpt><trkpt lat="43.1009429" lon="12.2178313"><ele>482.0</ele><time>2026-04-26T07:50:53.948Z</time></trkpt><trkpt lat="43.1010314" lon="12.2178935"><ele>484.6666666666667</ele><time>2026-04-26T07:50:56.951Z</time></trkpt><trkpt lat="43.1010873" lon="12.2179716"><ele>487.33333333333337</ele><time>2026-04-26T07:50:58.949Z</time></trkpt><trkpt lat="43.1011447" lon="12.2180509"><ele>490.0</ele><time>2026-04-26T07:51:00.954Z</time></trkpt><trkpt lat="43.1011953" lon="12.2181331"><ele>488.83333333333337</ele><time>2026-04-26T07:51:02.948Z</time></trkpt><trkpt lat="43.1012575" lon="12.2182314"><ele>487.6666666666667</ele><time>2026-04-26T07:51:05.951Z</time></trkpt><trkpt lat="43.1013101" lon="12.2183025"><ele>486.5</ele><time>2026-04-26T07:51:07.955Z</time></trkpt><trkpt lat="43.1013626" lon="12.2183742"><ele>485.33333333333337</ele><time>2026-04-26T07:51:09.95Z</time></trkpt><trkpt lat="43.1014599" lon="12.2184534"><ele>484.1666666666667</ele><time>2026-04-26T07:51:12.952Z</time></trkpt><trkpt lat="43.1015301" lon="12.2184786"><ele>483.0</ele><time>2026-04-26T07:51:14.95Z</time></trkpt><trkpt lat="43.1016044" lon="12.2184776"><ele>483.0</ele><time>2026-04-26T07:51:17.056Z</time></trkpt><trkpt lat="43.1016755" lon="12.2184513"><ele>483.0</ele><time>2026-04-26T07:51:18.953Z</time></trkpt><trkpt lat="43.1017511" lon="12.2184251"><ele>483.0</ele><time>2026-04-26T07:51:20.948Z</time></trkpt><trkpt lat="43.1018273" lon="12.2183847"><ele>483.0</ele><time>2026-04-26T07:51:22.949Z</time></trkpt><trkpt lat="43.1018957" lon="12.2183481"><ele>483.0</ele><time>2026-04-26T07:51:24.95Z</time></trkpt><trkpt lat="43.1019629" lon="12.2183265"><ele>483.0</ele><time>2026-04-26T07:51:26.925Z</time></trkpt><trkpt lat="43.1020267" lon="12.2183085"><ele>483.0</ele><time>2026-04-26T07:51:28.947Z</time></trkpt><trkpt lat="43.1020918" lon="12.2183017"><ele>483.0</ele><time>2026-04-26T07:51:30.949Z</time></trkpt><trkpt lat="43.1021661" lon="12.2182807"><ele>483.0</ele><time>2026-04-26T07:51:32.946Z</time></trkpt><trkpt lat="43.10224" lon="12.2182237"><ele>483.0</ele><time>2026-04-26T07:51:34.946Z</time></trkpt><trkpt lat="43.102335" lon="12.2181391"><ele>483.0</ele><time>2026-04-26T07:51:36.95Z</time></trkpt><trkpt lat="43.1023875" lon="12.2180845"><ele>483.0</ele><time>2026-04-26T07:51:37.954Z</time></trkpt><trkpt lat="43.1024423" lon="12.2180254"><ele>483.0</ele><time>2026-04-26T07:51:38.958Z</time></trkpt><trkpt lat="43.1024973" lon="12.217971"><ele>482.0</ele><time>2026-04-26T07:51:39.95Z</time></trkpt><trkpt lat="43.1025944" lon="12.2179018"><ele>481.0</ele><time>2026-04-26T07:51:41.951Z</time></trkpt><trkpt lat="43.1026624" lon="12.2178609"><ele>480.0</ele><time>2026-04-26T07:51:43.952Z</time></trkpt><trkpt lat="43.1027346" lon="12.2178992"><ele>479.0</ele><time>2026-04-26T07:51:48.947Z</time></trkpt><trkpt lat="43.1028073" lon="12.2179182"><ele>478.0</ele><time>2026-04-26T07:52:45.945Z</time></trkpt><trkpt lat="43.1028735" lon="12.2179087"><ele>477.0</ele><time>2026-04-26T07:52:49.937Z</time></trkpt><trkpt lat="43.1029373" lon="12.2179056"><ele>477.0</ele><time>2026-04-26T07:52:53.95Z</time></trkpt><trkpt lat="43.1030059" lon="12.2179045"><ele>476.99999999999994</ele><time>2026-04-26T07:52:57.933Z</time></trkpt><trkpt lat="43.1030688" lon="12.2178986"><ele>477.0</ele><time>2026-04-26T07:53:00.948Z</time></trkpt><trkpt lat="43.1031389" lon="12.2179035"><ele>477.0</ele><time>2026-04-26T07:53:03.95Z</time></trkpt><trkpt lat="43.1032113" lon="12.2178977"><ele>476.99999999999994</ele><time>2026-04-26T07:53:06.944Z</time></trkpt><trkpt lat="43.1032921" lon="12.2178953"><ele>477.0</ele><time>2026-04-26T07:53:09.952Z</time></trkpt><trkpt lat="43.1033678" lon="12.2179023"><ele>477.0</ele><time>2026-04-26T07:53:12.949Z</time></trkpt><trkpt lat="43.1034404" lon="12.217892"><ele>476.1666666666667</ele><time>2026-04-26T07:53:15.949Z</time></trkpt><trkpt lat="43.1035259" lon="12.2178902"><ele>475.33333333333337</ele><time>2026-04-26T07:53:18.963Z</time></trkpt><trkpt lat="43.1035904" lon="12.2178913"><ele>474.5</ele><time>2026-04-26T07:53:20.943Z</time></trkpt><trkpt lat="43.1036647" lon="12.2178983"><ele>473.6666666666667</ele><time>2026-04-26T07:53:22.947Z</time></trkpt><trkpt lat="43.1037465" lon="12.2179055"><ele>472.83333333333337</ele><time>2026-04-26T07:53:24.953Z</time></trkpt><trkpt lat="43.1038299" lon="12.2179079"><ele>472.0</ele><time>2026-04-26T07:53:26.954Z</time></trkpt><trkpt lat="43.1039204" lon="12.2178977"><ele>472.0</ele><time>2026-04-26T07:53:28.949Z</time></trkpt><trkpt lat="43.1040106" lon="12.2178697"><ele>472.00000000000006</ele><time>2026-04-26T07:53:30.949Z</time></trkpt><trkpt lat="43.1040975" lon="12.2178245"><ele>472.00000000000006</ele><time>2026-04-26T07:53:32.954Z</time></trkpt><trkpt lat="43.1041945" lon="12.2177799"><ele>472.0</ele><time>2026-04-26T07:53:34.961Z</time></trkpt><trkpt lat="43.1042873" lon="12.2177489"><ele>472.0</ele><time>2026-04-26T07:53:36.946Z</time></trkpt><trkpt lat="43.1043778" lon="12.2177235"><ele>471.33333333333337</ele><time>2026-04-26T07:53:38.934Z</time></trkpt><trkpt lat="43.1044675" lon="12.2177129"><ele>470.6666666666667</ele><time>2026-04-26T07:53:40.931Z</time></trkpt><trkpt lat="43.1045477" lon="12.2177008"><ele>470.0</ele><time>2026-04-26T07:53:42.936Z</time></trkpt><trkpt lat="43.1046262" lon="12.2176819"><ele>469.33333333333337</ele><time>2026-04-26T07:53:44.934Z</time></trkpt><trkpt lat="43.1047061" lon="12.2176619"><ele>468.6666666666667</ele><time>2026-04-26T07:53:46.942Z</time></trkpt><trkpt lat="43.1047811" lon="12.2176359"><ele>468.0</ele><time>2026-04-26T07:53:48.939Z</time></trkpt><trkpt lat="43.1048481" lon="12.2176086"><ele>468.5</ele><time>2026-04-26T07:53:50.939Z</time></trkpt><trkpt lat="43.1049141" lon="12.2175753"><ele>469.0</ele><time>2026-04-26T07:53:52.942Z</time></trkpt><trkpt lat="43.1049999" lon="12.2175323"><ele>469.5</ele><time>2026-04-26T07:53:55.95Z</time></trkpt><trkpt lat="43.1050626" lon="12.2175114"><ele>470.0</ele><time>2026-04-26T07:53:57.935Z</time></trkpt><trkpt lat="43.1051289" lon="12.2174959"><ele>470.5</ele><time>2026-04-26T07:53:59.942Z</time></trkpt><trkpt lat="43.1052199" lon="12.2175266"><ele>471.0</ele><time>2026-04-26T07:54:02.953Z</time></trkpt><trkpt lat="43.10529" lon="12.2175442"><ele>471.0</ele><time>2026-04-26T07:54:04.945Z</time></trkpt><trkpt lat="43.1053607" lon="12.2175584"><ele>471.0</ele><time>2026-04-26T07:54:06.955Z</time></trkpt><trkpt lat="43.1054264" lon="12.2175781"><ele>471.0</ele><time>2026-04-26T07:54:08.955Z</time></trkpt><trkpt lat="43.1055032" lon="12.2176238"><ele>471.0</ele><time>2026-04-26T07:54:11.953Z</time></trkpt><trkpt lat="43.1055698" lon="12.2177054"><ele>471.0</ele><time>2026-04-26T07:54:14.95Z</time></trkpt><trkpt lat="43.1056575" lon="12.2177469"><ele>471.0</ele><time>2026-04-26T07:54:17.949Z</time></trkpt><trkpt lat="43.1057148" lon="12.2178072"><ele>472.4285714285715</ele><time>2026-04-26T07:54:20.947Z</time></trkpt><trkpt lat="43.1057802" lon="12.2178474"><ele>473.8571428571429</ele><time>2026-04-26T07:54:23.945Z</time></trkpt><trkpt lat="43.1058397" lon="12.2178822"><ele>475.2857142857143</ele><time>2026-04-26T07:54:26.95Z</time></trkpt><trkpt lat="43.1059131" lon="12.2179135"><ele>476.7142857142857</ele><time>2026-04-26T07:54:30.945Z</time></trkpt><trkpt lat="43.1059767" lon="12.2179212"><ele>478.1428571428571</ele><time>2026-04-26T07:54:33.948Z</time></trkpt><trkpt lat="43.1060405" lon="12.2179342"><ele>479.5714285714285</ele><time>2026-04-26T07:54:36.948Z</time></trkpt><trkpt lat="43.106122" lon="12.217946"><ele>480.99999999999994</ele><time>2026-04-26T07:54:40.952Z</time></trkpt><trkpt lat="43.1061901" lon="12.2179595"><ele>481.00000000000006</ele><time>2026-04-26T07:54:43.95Z</time></trkpt><trkpt lat="43.1062654" lon="12.2179818"><ele>481.0</ele><time>2026-04-26T07:54:46.948Z</time></trkpt><trkpt lat="43.1063591" lon="12.2179872"><ele>481.0</ele><time>2026-04-26T07:54:49.952Z</time></trkpt><trkpt lat="43.1064289" lon="12.2179849"><ele>481.0</ele><time>2026-04-26T07:54:51.949Z</time></trkpt><trkpt lat="43.1065134" lon="12.2179701"><ele>481.00000000000006</ele><time>2026-04-26T07:54:53.948Z</time></trkpt><trkpt lat="43.1066029" lon="12.2179998"><ele>481.0</ele><time>2026-04-26T07:54:55.952Z</time></trkpt><trkpt lat="43.1066632" lon="12.2180259"><ele>480.33333333333337</ele><time>2026-04-26T07:54:56.949Z</time></trkpt><trkpt lat="43.1067264" lon="12.2180642"><ele>479.6666666666667</ele><time>2026-04-26T07:54:57.952Z</time></trkpt><trkpt lat="43.106797" lon="12.2181159"><ele>479.0</ele><time>2026-04-26T07:54:58.96Z</time></trkpt><trkpt lat="43.1068656" lon="12.2181683"><ele>478.33333333333337</ele><time>2026-04-26T07:54:59.947Z</time></trkpt><trkpt lat="43.1069326" lon="12.2182163"><ele>477.6666666666667</ele><time>2026-04-26T07:55:00.952Z</time></trkpt><trkpt lat="43.1069971" lon="12.218269"><ele>477.0</ele><time>2026-04-26T07:55:01.949Z</time></trkpt><trkpt lat="43.1070637" lon="12.2183127"><ele>477.0</ele><time>2026-04-26T07:55:02.952Z</time></trkpt><trkpt lat="43.1071228" lon="12.2183439"><ele>476.99999999999994</ele><time>2026-04-26T07:55:03.949Z</time></trkpt><trkpt lat="43.1072032" lon="12.2183845"><ele>477.0</ele><time>2026-04-26T07:55:05.948Z</time></trkpt><trkpt lat="43.1072627" lon="12.2184597"><ele>477.0</ele><time>2026-04-26T08:05:54.943Z</time></trkpt><trkpt lat="43.1073268" lon="12.2185165"><ele>476.99999999999994</ele><time>2026-04-26T08:05:57.943Z</time></trkpt><trkpt lat="43.1073873" lon="12.2185807"><ele>477.0</ele><time>2026-04-26T08:06:00.949Z</time></trkpt><trkpt lat="43.1074092" lon="12.2186669"><ele>477.0</ele><time>2026-04-26T08:06:03.951Z</time></trkpt><trkpt lat="43.1074497" lon="12.2187464"><ele>475.40000000000003</ele><time>2026-04-26T08:06:06.944Z</time></trkpt><trkpt lat="43.1075061" lon="12.2188607"><ele>473.80000000000007</ele><time>2026-04-26T08:06:09.946Z</time></trkpt><trkpt lat="43.1075387" lon="12.2189585"><ele>472.2</ele><time>2026-04-26T08:06:11.952Z</time></trkpt><trkpt lat="43.1075804" lon="12.2190697"><ele>470.6</ele><time>2026-04-26T08:06:13.943Z</time></trkpt><trkpt lat="43.1076625" lon="12.2191654"><ele>469.0</ele><time>2026-04-26T08:06:15.948Z</time></trkpt><trkpt lat="43.1077627" lon="12.2192524"><ele>468.4</ele><time>2026-04-26T08:06:17.957Z</time></trkpt><trkpt lat="43.1078507" lon="12.2193748"><ele>467.79999999999995</ele><time>2026-04-26T08:06:20.057Z</time></trkpt><trkpt lat="43.1079513" lon="12.2195073"><ele>467.20000000000005</ele><time>2026-04-26T08:06:21.944Z</time></trkpt><trkpt lat="43.1079999" lon="12.2195745"><ele>466.6</ele><time>2026-04-26T08:06:22.944Z</time></trkpt><trkpt lat="43.1080424" lon="12.219641"><ele>466.0</ele><time>2026-04-26T08:06:23.948Z</time></trkpt><trkpt lat="43.1080937" lon="12.2197024"><ele>466.0</ele><time>2026-04-26T08:06:24.95Z</time></trkpt><trkpt lat="43.1081835" lon="12.2198063"><ele>466.0</ele><time>2026-04-26T08:06:26.944Z</time></trkpt><trkpt lat="43.1082849" lon="12.2198876"><ele>466.0</ele><time>2026-04-26T08:06:28.944Z</time></trkpt><trkpt lat="43.1083544" lon="12.2199913"><ele>466.0</ele><time>2026-04-26T08:06:30.945Z</time></trkpt><trkpt lat="43.1084049" lon="12.2201196"><ele>466.0</ele><time>2026-04-26T08:06:32.954Z</time></trkpt><trkpt lat="43.108481" lon="12.220196"><ele>464.00000000000006</ele><time>2026-04-26T08:06:34.953Z</time></trkpt><trkpt lat="43.1085264" lon="12.2202795"><ele>462.0</ele><time>2026-04-26T08:06:37.948Z</time></trkpt><trkpt lat="43.108571" lon="12.2204005"><ele>460.0</ele><time>2026-04-26T08:06:40.945Z</time></trkpt><trkpt lat="43.1086173" lon="12.2204683"><ele>458.0</ele><time>2026-04-26T08:06:42.949Z</time></trkpt><trkpt lat="43.1086697" lon="12.2205338"><ele>456.00000000000006</ele><time>2026-04-26T08:06:44.952Z</time></trkpt><trkpt lat="43.1087319" lon="12.2205807"><ele>454.0</ele><time>2026-04-26T08:06:46.948Z</time></trkpt><trkpt lat="43.1087969" lon="12.2206223"><ele>454.6666666666667</ele><time>2026-04-26T08:06:48.94Z</time></trkpt><trkpt lat="43.1088587" lon="12.2206651"><ele>455.33333333333337</ele><time>2026-04-26T08:06:50.946Z</time></trkpt><trkpt lat="43.1089203" lon="12.220698"><ele>456.0</ele><time>2026-04-26T08:06:52.946Z</time></trkpt><trkpt lat="43.1089802" lon="12.2207379"><ele>456.66666666666663</ele><time>2026-04-26T08:06:54.946Z</time></trkpt><trkpt lat="43.1090601" lon="12.2207981"><ele>457.3333333333333</ele><time>2026-04-26T08:06:57.944Z</time></trkpt><trkpt lat="43.1091267" lon="12.2208704"><ele>458.0</ele><time>2026-04-26T08:07:00.952Z</time></trkpt><trkpt lat="43.1091649" lon="12.220973"><ele>458.0</ele><time>2026-04-26T08:07:03.952Z</time></trkpt><trkpt lat="43.1092131" lon="12.2210616"><ele>458.0</ele><time>2026-04-26T08:07:07.053Z</time></trkpt><trkpt lat="43.1092698" lon="12.2211262"><ele>458.0</ele><time>2026-04-26T08:07:09.946Z</time></trkpt><trkpt lat="43.1093262" lon="12.2211804"><ele>458.0</ele><time>2026-04-26T08:07:12.946Z</time></trkpt><trkpt lat="43.109393" lon="12.2212212"><ele>458.0</ele><time>2026-04-26T08:07:15.954Z</time></trkpt><trkpt lat="43.1094194" lon="12.2213015"><ele>458.0</ele><time>2026-04-26T08:07:18.953Z</time></trkpt><trkpt lat="43.1094275" lon="12.221399"><ele>458.0</ele><time>2026-04-26T08:07:21.95Z</time></trkpt><trkpt lat="43.1094631" lon="12.2215053"><ele>459.16666666666663</ele><time>2026-04-26T08:07:25.946Z</time></trkpt><trkpt lat="43.1095157" lon="12.2215753"><ele>460.3333333333333</ele><time>2026-04-26T08:07:28.95Z</time></trkpt><trkpt lat="43.109553" lon="12.2216478"><ele>461.5</ele><time>2026-04-26T08:07:31.953Z</time></trkpt><trkpt lat="43.1095362" lon="12.2217617"><ele>462.66666666666663</ele><time>2026-04-26T08:07:34.943Z</time></trkpt><trkpt lat="43.109551" lon="12.2218619"><ele>463.8333333333333</ele><time>2026-04-26T08:07:37.948Z</time></trkpt><trkpt lat="43.1096012" lon="12.2219377"><ele>465.0</ele><time>2026-04-26T08:07:40.941Z</time></trkpt><trkpt lat="43.1096492" lon="12.2220669"><ele>465.0</ele><time>2026-04-26T08:07:44.943Z</time></trkpt><trkpt lat="43.10971" lon="12.2221474"><ele>465.0</ele><time>2026-04-26T08:07:47.946Z</time></trkpt><trkpt lat="43.1097631" lon="12.2222209"><ele>465.0</ele><time>2026-04-26T08:07:50.95Z</time></trkpt><trkpt lat="43.1097984" lon="12.2223153"><ele>465.0</ele><time>2026-04-26T08:07:53.958Z</time></trkpt><trkpt lat="43.1098388" lon="12.2224022"><ele>465.0</ele><time>2026-04-26T08:07:56.952Z</time></trkpt><trkpt lat="43.1098844" lon="12.2224921"><ele>465.0</ele><time>2026-04-26T08:07:59.954Z</time></trkpt><trkpt lat="43.1099164" lon="12.2225901"><ele>466.42857142857144</ele><time>2026-04-26T08:08:02.93Z</time></trkpt><trkpt lat="43.1099492" lon="12.2226801"><ele>467.8571428571429</ele><time>2026-04-26T08:08:05.931Z</time></trkpt><trkpt lat="43.1099745" lon="12.2227591"><ele>469.28571428571433</ele><time>2026-04-26T08:08:08.954Z</time></trkpt><trkpt lat="43.1100017" lon="12.2228396"><ele>470.7142857142857</ele><time>2026-04-26T08:08:11.932Z</time></trkpt><trkpt lat="43.1100455" lon="12.2229271"><ele>472.1428571428572</ele><time>2026-04-26T08:08:14.925Z</time></trkpt><trkpt lat="43.1100668" lon="12.2230399"><ele>473.5714285714286</ele><time>2026-04-26T08:08:17.933Z</time></trkpt><trkpt lat="43.1101029" lon="12.2231395"><ele>475.0</ele><time>2026-04-26T08:08:20.932Z</time></trkpt><trkpt lat="43.1101696" lon="12.2232165"><ele>475.83333333333337</ele><time>2026-04-26T08:08:23.931Z</time></trkpt><trkpt lat="43.1102317" lon="12.2232794"><ele>476.6666666666667</ele><time>2026-04-26T08:08:26.933Z</time></trkpt><trkpt lat="43.1102767" lon="12.2233729"><ele>477.5</ele><time>2026-04-26T08:08:29.928Z</time></trkpt><trkpt lat="43.1103369" lon="12.2234701"><ele>478.33333333333337</ele><time>2026-04-26T08:08:32.946Z</time></trkpt><trkpt lat="43.1104" lon="12.2235585"><ele>479.1666666666667</ele><time>2026-04-26T08:08:35.948Z</time></trkpt><trkpt lat="43.1104482" lon="12.2236145"><ele>480.0</ele><time>2026-04-26T08:08:37.945Z</time></trkpt><trkpt lat="43.1105152" lon="12.2236963"><ele>480.0</ele><time>2026-04-26T08:08:40.947Z</time></trkpt><trkpt lat="43.1105964" lon="12.2237561"><ele>480.0</ele><time>2026-04-26T08:08:43.947Z</time></trkpt><trkpt lat="43.1106525" lon="12.2238407"><ele>480.0</ele><time>2026-04-26T08:08:46.947Z</time></trkpt><trkpt lat="43.1106727" lon="12.2239258"><ele>480.0</ele><time>2026-04-26T08:08:49.931Z</time></trkpt><trkpt lat="43.1106544" lon="12.2240276"><ele>480.0</ele><time>2026-04-26T08:08:52.951Z</time></trkpt><trkpt lat="43.1106821" lon="12.2241377"><ele>480.0</ele><time>2026-04-26T08:08:55.949Z</time></trkpt><trkpt lat="43.1107636" lon="12.2241776"><ele>481.14285714285717</ele><time>2026-04-26T08:09:00.039Z</time></trkpt><trkpt lat="43.11083" lon="12.2241802"><ele>482.2857142857142</ele><time>2026-04-26T08:09:02.953Z</time></trkpt><trkpt lat="43.110912" lon="12.2242042"><ele>483.4285714285714</ele><time>2026-04-26T08:09:06.944Z</time></trkpt><trkpt lat="43.1109837" lon="12.2241849"><ele>484.57142857142856</ele><time>2026-04-26T08:09:10.946Z</time></trkpt><trkpt lat="43.1110395" lon="12.2241438"><ele>485.71428571428567</ele><time>2026-04-26T08:14:33.945Z</time></trkpt><trkpt lat="43.1111027" lon="12.2241588"><ele>486.8571428571428</ele><time>2026-04-26T08:14:47.945Z</time></trkpt><trkpt lat="43.1111797" lon="12.2241333"><ele>487.99999999999994</ele><time>2026-04-26T08:14:50.951Z</time></trkpt><trkpt lat="43.1112397" lon="12.224077"><ele>487.99999999999994</ele><time>2026-04-26T08:14:52.95Z</time></trkpt><trkpt lat="43.1112334" lon="12.2239903"><ele>488.0</ele><time>2026-04-26T08:14:53.929Z</time></trkpt><trkpt lat="43.1112724" lon="12.2239222"><ele>487.99999999999994</ele><time>2026-04-26T08:14:55.941Z</time></trkpt><trkpt lat="43.1113419" lon="12.2239642"><ele>487.99999999999994</ele><time>2026-04-26T08:14:58.052Z</time></trkpt><trkpt lat="43.1113998" lon="12.2240208"><ele>488.0</ele><time>2026-04-26T08:14:59.951Z</time></trkpt><trkpt lat="43.1114733" lon="12.2240041"><ele>487.99999999999994</ele><time>2026-04-26T08:15:01.951Z</time></trkpt><trkpt lat="43.1115489" lon="12.224062"><ele>487.99999999999994</ele><time>2026-04-26T08:15:03.944Z</time></trkpt><trkpt lat="43.1116181" lon="12.2241048"><ele>486.99999999999994</ele><time>2026-04-26T08:15:05.939Z</time></trkpt><trkpt lat="43.1116718" lon="12.2240441"><ele>486.0</ele><time>2026-04-26T08:15:07.933Z</time></trkpt><trkpt lat="43.111718" lon="12.2239559"><ele>485.0</ele><time>2026-04-26T08:15:09.936Z</time></trkpt><trkpt lat="43.1117913" lon="12.2240044"><ele>484.0</ele><time>2026-04-26T08:15:11.94Z</time></trkpt><trkpt lat="43.1118521" lon="12.2240365"><ele>482.99999999999994</ele><time>2026-04-26T08:15:13.927Z</time></trkpt><trkpt lat="43.1119327" lon="12.2240295"><ele>482.0</ele><time>2026-04-26T08:15:15.942Z</time></trkpt><trkpt lat="43.1120459" lon="12.2240326"><ele>482.0</ele><time>2026-04-26T08:15:17.928Z</time></trkpt><trkpt lat="43.1121612" lon="12.2240241"><ele>482.00000000000006</ele><time>2026-04-26T08:15:19.927Z</time></trkpt><trkpt lat="43.1122252" lon="12.2240192"><ele>482.00000000000006</ele><time>2026-04-26T08:15:20.95Z</time></trkpt><trkpt lat="43.1123449" lon="12.2239974"><ele>482.0</ele><time>2026-04-26T08:15:23.059Z</time></trkpt><trkpt lat="43.1124425" lon="12.2239699"><ele>482.0</ele><time>2026-04-26T08:15:24.945Z</time></trkpt><trkpt lat="43.1125471" lon="12.2240184"><ele>478.66666666666663</ele><time>2026-04-26T08:15:26.944Z</time></trkpt><trkpt lat="43.1126288" lon="12.2241256"><ele>475.3333333333333</ele><time>2026-04-26T08:15:28.926Z</time></trkpt><trkpt lat="43.1127105" lon="12.2241759"><ele>472.0</ele><time>2026-04-26T08:15:30.954Z</time></trkpt><trkpt lat="43.112783" lon="12.2242091"><ele>468.66666666666663</ele><time>2026-04-26T08:15:33.948Z</time></trkpt><trkpt lat="43.1128646" lon="12.2241874"><ele>465.3333333333333</ele><time>2026-04-26T08:15:36.945Z</time></trkpt><trkpt lat="43.1129462" lon="12.2241765"><ele>462.0</ele><time>2026-04-26T08:15:39.947Z</time></trkpt><trkpt lat="43.1130356" lon="12.2241781"><ele>462.0</ele><time>2026-04-26T08:15:42.945Z</time></trkpt><trkpt lat="43.1130786" lon="12.2240929"><ele>462.0</ele><time>2026-04-26T08:15:45.943Z</time></trkpt><trkpt lat="43.1131021" lon="12.2240093"><ele>462.0</ele><time>2026-04-26T08:15:49.945Z</time></trkpt><trkpt lat="43.1131218" lon="12.2238738"><ele>462.0</ele><time>2026-04-26T08:17:26.943Z</time></trkpt><trkpt lat="43.1131283" lon="12.2237609"><ele>462.0</ele><time>2026-04-26T08:17:28.949Z</time></trkpt><trkpt lat="43.113139" lon="12.2236733"><ele>462.0</ele><time>2026-04-26T08:17:31.949Z</time></trkpt><trkpt lat="43.1131575" lon="12.2235904"><ele>461.1666666666667</ele><time>2026-04-26T08:17:41.944Z</time></trkpt><trkpt lat="43.1132074" lon="12.2235108"><ele>460.33333333333337</ele><time>2026-04-26T08:17:44.943Z</time></trkpt><trkpt lat="43.1132692" lon="12.223429"><ele>459.5</ele><time>2026-04-26T08:17:47.95Z</time></trkpt><trkpt lat="43.1133311" lon="12.2233963"><ele>458.6666666666667</ele><time>2026-04-26T08:17:50.944Z</time></trkpt><trkpt lat="43.1133749" lon="12.2234786"><ele>457.83333333333337</ele><time>2026-04-26T08:17:53.943Z</time></trkpt><trkpt lat="43.1134194" lon="12.223552"><ele>457.0</ele><time>2026-04-26T08:17:56.949Z</time></trkpt><trkpt lat="43.1134807" lon="12.2236724"><ele>455.00000000000006</ele><time>2026-04-26T08:17:59.924Z</time></trkpt><trkpt lat="43.1135266" lon="12.2237569"><ele>453.0</ele><time>2026-04-26T08:18:01.942Z</time></trkpt><trkpt lat="43.1135952" lon="12.2237347"><ele>451.0</ele><time>2026-04-26T08:18:04.944Z</time></trkpt><trkpt lat="43.1136327" lon="12.2236621"><ele>449.0</ele><time>2026-04-26T08:18:07.945Z</time></trkpt><trkpt lat="43.1136958" lon="12.223591"><ele>447.0</ele><time>2026-04-26T08:18:10.947Z</time></trkpt><trkpt lat="43.1137713" lon="12.2235656"><ele>445.0</ele><time>2026-04-26T08:18:14.944Z</time></trkpt><trkpt lat="43.1138057" lon="12.2234779"><ele>443.0</ele><time>2026-04-26T08:18:19.927Z</time></trkpt><trkpt lat="43.1138391" lon="12.2234032"><ele>442.99999999999994</ele><time>2026-04-26T08:18:23.937Z</time></trkpt><trkpt lat="43.1138828" lon="12.2233409"><ele>443.0</ele><time>2026-04-26T08:18:27.043Z</time></trkpt><trkpt lat="43.1139158" lon="12.2232316"><ele>443.0</ele><time>2026-04-26T08:18:29.928Z</time></trkpt><trkpt lat="43.1139282" lon="12.2231416"><ele>443.0</ele><time>2026-04-26T08:18:32.928Z</time></trkpt><trkpt lat="43.1139574" lon="12.2230315"><ele>442.99999999999994</ele><time>2026-04-26T08:18:36.929Z</time></trkpt><trkpt lat="43.1139604" lon="12.2229411"><ele>443.0</ele><time>2026-04-26T08:18:40.94Z</time></trkpt><trkpt lat="43.1139648" lon="12.2228281"><ele>441.2857142857143</ele><time>2026-04-26T08:20:00.95Z</time></trkpt><trkpt lat="43.1139782" lon="12.2227354"><ele>439.57142857142856</ele><time>2026-04-26T08:20:05.94Z</time></trkpt><trkpt lat="43.1140452" lon="12.2226932"><ele>437.8571428571429</ele><time>2026-04-26T08:20:10.043Z</time></trkpt><trkpt lat="43.1141186" lon="12.2226598"><ele>436.1428571428571</ele><time>2026-04-26T08:20:12.947Z</time></trkpt><trkpt lat="43.1141685" lon="12.2226039"><ele>434.4285714285714</ele><time>2026-04-26T08:20:15.949Z</time></trkpt><trkpt lat="43.1141957" lon="12.2225155"><ele>432.7142857142857</ele><time>2026-04-26T08:20:17.945Z</time></trkpt><trkpt lat="43.1142567" lon="12.2224586"><ele>431.0</ele><time>2026-04-26T08:20:20.933Z</time></trkpt><trkpt lat="43.1142892" lon="12.2223845"><ele>425.66666666666663</ele><time>2026-04-26T08:20:22.943Z</time></trkpt><trkpt lat="43.1143288" lon="12.2222966"><ele>420.3333333333333</ele><time>2026-04-26T08:20:24.944Z</time></trkpt><trkpt lat="43.1143818" lon="12.2222134"><ele>415.0</ele><time>2026-04-26T08:20:27.953Z</time></trkpt><trkpt lat="43.1144454" lon="12.2222272"><ele>409.66666666666663</ele><time>2026-04-26T08:20:31.946Z</time></trkpt><trkpt lat="43.1144436" lon="12.2221087"><ele>404.3333333333333</ele><time>2026-04-26T08:20:34.951Z</time></trkpt><trkpt lat="43.1144479" lon="12.2219832"><ele>399.0</ele><time>2026-04-26T08:20:37.948Z</time></trkpt><trkpt lat="43.1144428" lon="12.2218811"><ele>399.0</ele><time>2026-04-26T08:21:29.926Z</time></trkpt><trkpt lat="43.1144699" lon="12.2218015"><ele>399.0</ele><time>2026-04-26T08:21:32.936Z</time></trkpt><trkpt lat="43.1144613" lon="12.221697"><ele>399.0</ele><time>2026-04-26T08:21:34.951Z</time></trkpt><trkpt lat="43.1144775" lon="12.2216"><ele>399.0</ele><time>2026-04-26T08:21:37.948Z</time></trkpt><trkpt lat="43.1145492" lon="12.2216051"><ele>399.0</ele><time>2026-04-26T08:21:42.953Z</time></trkpt><trkpt lat="43.114613" lon="12.2216709"><ele>399.0</ele><time>2026-04-26T08:21:46.939Z</time></trkpt><trkpt lat="43.1146751" lon="12.2217079"><ele>399.0</ele><time>2026-04-26T08:21:49.937Z</time></trkpt><trkpt lat="43.1147247" lon="12.2216316"><ele>399.0</ele><time>2026-04-26T08:21:53.945Z</time></trkpt><trkpt lat="43.1148259" lon="12.2216313"><ele>399.0</ele><time>2026-04-26T08:21:56.949Z</time></trkpt><trkpt lat="43.114915" lon="12.2216135"><ele>399.0</ele><time>2026-04-26T08:21:58.949Z</time></trkpt><trkpt lat="43.1149941" lon="12.221569"><ele>399.0</ele><time>2026-04-26T08:22:00.941Z</time></trkpt><trkpt lat="43.1150182" lon="12.221477"><ele>399.0</ele><time>2026-04-26T08:22:02.946Z</time></trkpt><trkpt lat="43.1150382" lon="12.2213746"><ele>399.0</ele><time>2026-04-26T08:22:04.952Z</time></trkpt><trkpt lat="43.1150998" lon="12.2213281"><ele>392.5</ele><time>2026-04-26T08:22:06.95Z</time></trkpt><trkpt lat="43.1151641" lon="12.2212788"><ele>386.0</ele><time>2026-04-26T08:22:10.945Z</time></trkpt><trkpt lat="43.1152384" lon="12.2212504"><ele>379.5</ele><time>2026-04-26T08:22:14.945Z</time></trkpt><trkpt lat="43.1153019" lon="12.2211818"><ele>373.0</ele><time>2026-04-26T08:22:18.953Z</time></trkpt><trkpt lat="43.1153375" lon="12.2211088"><ele>366.5</ele><time>2026-04-26T08:22:21.952Z</time></trkpt><trkpt lat="43.1153642" lon="12.2210109"><ele>360.0</ele><time>2026-04-26T08:22:25.945Z</time></trkpt><trkpt lat="43.1154419" lon="12.2209438"><ele>360.0</ele><time>2026-04-26T08:22:28.962Z</time></trkpt><trkpt lat="43.1154799" lon="12.2210522"><ele>360.0</ele><time>2026-04-26T08:24:14.935Z</time></trkpt><trkpt lat="43.115484" lon="12.2211798"><ele>360.0</ele><time>2026-04-26T08:24:16.944Z</time></trkpt><trkpt lat="43.1154688" lon="12.2212638"><ele>360.0</ele><time>2026-04-26T08:24:17.941Z</time></trkpt><trkpt lat="43.1154871" lon="12.2213473"><ele>360.0</ele><time>2026-04-26T08:24:18.942Z</time></trkpt><trkpt lat="43.1154833" lon="12.2214405"><ele>360.0</ele><time>2026-04-26T08:24:19.993Z</time></trkpt><trkpt lat="43.1155113" lon="12.2215856"><ele>358.6666666666667</ele><time>2026-04-26T08:24:21.939Z</time></trkpt><trkpt lat="43.1155746" lon="12.2216854"><ele>357.3333333333333</ele><time>2026-04-26T08:24:23.94Z</time></trkpt><trkpt lat="43.1156439" lon="12.2216763"><ele>356.0</ele><time>2026-04-26T08:24:26.051Z</time></trkpt><trkpt lat="43.1157284" lon="12.2216355"><ele>354.66666666666663</ele><time>2026-04-26T08:24:27.944Z</time></trkpt><trkpt lat="43.1158166" lon="12.2215768"><ele>353.3333333333333</ele><time>2026-04-26T08:24:29.938Z</time></trkpt><trkpt lat="43.1158833" lon="12.2215082"><ele>352.0</ele><time>2026-04-26T08:24:32.057Z</time></trkpt><trkpt lat="43.1159843" lon="12.2214548"><ele>349.40000000000003</ele><time>2026-04-26T08:24:33.941Z</time></trkpt><trkpt lat="43.1160623" lon="12.2214167"><ele>346.8</ele><time>2026-04-26T08:24:35.947Z</time></trkpt><trkpt lat="43.1161528" lon="12.221386"><ele>344.2</ele><time>2026-04-26T08:24:37.941Z</time></trkpt><trkpt lat="43.1162601" lon="12.2214144"><ele>341.6</ele><time>2026-04-26T08:24:39.944Z</time></trkpt><trkpt lat="43.1163704" lon="12.2214506"><ele>339.0</ele><time>2026-04-26T08:24:41.943Z</time></trkpt><trkpt lat="43.1164907" lon="12.2213659"><ele>336.4</ele><time>2026-04-26T08:24:44.938Z</time></trkpt><trkpt lat="43.1165715" lon="12.2213011"><ele>333.79999999999995</ele><time>2026-04-26T08:24:46.94Z</time></trkpt><trkpt lat="43.1166693" lon="12.221231"><ele>331.20000000000005</ele><time>2026-04-26T08:24:48.945Z</time></trkpt><trkpt lat="43.1167476" lon="12.2211362"><ele>328.6</ele><time>2026-04-26T08:24:50.94Z</time></trkpt><trkpt lat="43.1167954" lon="12.2210783"><ele>326.0</ele><time>2026-04-26T08:24:51.947Z</time></trkpt><trkpt lat="43.1168928" lon="12.2210224"><ele>326.0</ele><time>2026-04-26T08:24:53.94Z</time></trkpt><trkpt lat="43.1169904" lon="12.2209632"><ele>326.0</ele><time>2026-04-26T08:24:55.953Z</time></trkpt><trkpt lat="43.1170794" lon="12.2209076"><ele>326.0</ele><time>2026-04-26T08:24:57.949Z</time></trkpt><trkpt lat="43.1171659" lon="12.2208829"><ele>326.0</ele><time>2026-04-26T08:24:59.945Z</time></trkpt><trkpt lat="43.1172726" lon="12.2208716"><ele>326.0</ele><time>2026-04-26T08:25:01.95Z</time></trkpt><trkpt lat="43.1173939" lon="12.220873"><ele>326.0</ele><time>2026-04-26T08:25:03.94Z</time></trkpt><trkpt lat="43.1174827" lon="12.2208261"><ele>326.0</ele><time>2026-04-26T08:25:05.949Z</time></trkpt><trkpt lat="43.1175535" lon="12.2207343"><ele>326.0</ele><time>2026-04-26T08:25:07.927Z</time></trkpt><trkpt lat="43.1176225" lon="12.2206472"><ele>326.0</ele><time>2026-04-26T08:25:09.945Z</time></trkpt><trkpt lat="43.1177113" lon="12.2205454"><ele>326.0</ele><time>2026-04-26T08:25:11.941Z</time></trkpt><trkpt lat="43.1177987" lon="12.2204824"><ele>323.6666666666667</ele><time>2026-04-26T08:25:13.929Z</time></trkpt><trkpt lat="43.1178717" lon="12.2204268"><ele>321.33333333333337</ele><time>2026-04-26T08:25:15.946Z</time></trkpt><trkpt lat="43.1179493" lon="12.2203889"><ele>319.0</ele><time>2026-04-26T08:25:17.946Z</time></trkpt><trkpt lat="43.1180426" lon="12.2203548"><ele>316.6666666666667</ele><time>2026-04-26T08:25:19.953Z</time></trkpt><trkpt lat="43.1181305" lon="12.2203501"><ele>314.3333333333333</ele><time>2026-04-26T08:25:21.942Z</time></trkpt><trkpt lat="43.1182196" lon="12.2203282"><ele>312.0</ele><time>2026-04-26T08:25:23.946Z</time></trkpt><trkpt lat="43.1183137" lon="12.220344"><ele>312.0</ele><time>2026-04-26T08:25:25.943Z</time></trkpt><trkpt lat="43.118399" lon="12.2204015"><ele>312.0</ele><time>2026-04-26T08:25:27.952Z</time></trkpt><trkpt lat="43.118466" lon="12.2204969"><ele>312.0</ele><time>2026-04-26T08:25:29.952Z</time></trkpt><trkpt lat="43.1185231" lon="12.2206229"><ele>312.0</ele><time>2026-04-26T08:25:31.943Z</time></trkpt><trkpt lat="43.1185746" lon="12.2207567"><ele>312.0</ele><time>2026-04-26T08:25:33.947Z</time></trkpt><trkpt lat="43.1186415" lon="12.2208794"><ele>315.0</ele><time>2026-04-26T08:25:35.942Z</time></trkpt><trkpt lat="43.1187189" lon="12.2209961"><ele>318.0</ele><time>2026-04-26T08:25:37.951Z</time></trkpt><trkpt lat="43.1187934" lon="12.2211081"><ele>321.0</ele><time>2026-04-26T08:25:40.047Z</time></trkpt><trkpt lat="43.118859" lon="12.2211995"><ele>324.0</ele><time>2026-04-26T08:25:41.945Z</time></trkpt><trkpt lat="43.118918" lon="12.2212678"><ele>327.0</ele><time>2026-04-26T08:25:43.946Z</time></trkpt><trkpt lat="43.1189889" lon="12.2213334"><ele>325.0</ele><time>2026-04-26T08:25:46.053Z</time></trkpt><trkpt lat="43.119069" lon="12.2214099"><ele>323.0</ele><time>2026-04-26T08:25:47.942Z</time></trkpt><trkpt lat="43.1191342" lon="12.2215104"><ele>321.0</ele><time>2026-04-26T08:25:49.938Z</time></trkpt><trkpt lat="43.119186" lon="12.221651"><ele>319.0</ele><time>2026-04-26T08:25:51.94Z</time></trkpt><trkpt lat="43.1192356" lon="12.2217834"><ele>317.0</ele><time>2026-04-26T08:25:53.943Z</time></trkpt><trkpt lat="43.1192814" lon="12.2219008"><ele>317.0</ele><time>2026-04-26T08:25:55.948Z</time></trkpt><trkpt lat="43.1192766" lon="12.2220487"><ele>317.0</ele><time>2026-04-26T08:25:57.938Z</time></trkpt><trkpt lat="43.119305" lon="12.2221781"><ele>317.0</ele><time>2026-04-26T08:25:59.943Z</time></trkpt><trkpt lat="43.1193217" lon="12.2223145"><ele>317.0</ele><time>2026-04-26T08:26:01.941Z</time></trkpt><trkpt lat="43.1193174" lon="12.22248"><ele>317.0</ele><time>2026-04-26T08:26:03.944Z</time></trkpt><trkpt lat="43.1192959" lon="12.222652"><ele>319.25</ele><time>2026-04-26T08:26:05.95Z</time></trkpt><trkpt lat="43.1193344" lon="12.2227785"><ele>321.5</ele><time>2026-04-26T08:26:07.949Z</time></trkpt><trkpt lat="43.1194215" lon="12.2228846"><ele>323.75</ele><time>2026-04-26T08:26:10.053Z</time></trkpt><trkpt lat="43.1195325" lon="12.2229646"><ele>326.0</ele><time>2026-04-26T08:26:11.942Z</time></trkpt><trkpt lat="43.1196361" lon="12.2230272"><ele>326.0</ele><time>2026-04-26T08:26:13.944Z</time></trkpt><trkpt lat="43.1197263" lon="12.2231098"><ele>326.0</ele><time>2026-04-26T08:26:16.054Z</time></trkpt><trkpt lat="43.1198301" lon="12.2231967"><ele>326.0</ele><time>2026-04-26T08:26:17.951Z</time></trkpt><trkpt lat="43.119911" lon="12.2233208"><ele>326.0</ele><time>2026-04-26T08:26:19.956Z</time></trkpt><trkpt lat="43.119959" lon="12.2234428"><ele>323.5</ele><time>2026-04-26T08:26:21.94Z</time></trkpt><trkpt lat="43.1200341" lon="12.2233907"><ele>321.0</ele><time>2026-04-26T08:26:24.941Z</time></trkpt><trkpt lat="43.1200027" lon="12.2232951"><ele>318.5</ele><time>2026-04-26T08:26:26.942Z</time></trkpt><trkpt lat="43.1200782" lon="12.2232401"><ele>316.0</ele><time>2026-04-26T08:26:29.952Z</time></trkpt><trkpt lat="43.1201037" lon="12.2231023"><ele>313.5</ele><time>2026-04-26T08:26:32.947Z</time></trkpt><trkpt lat="43.1201614" lon="12.2230473"><ele>311.0</ele><time>2026-04-26T08:26:35.953Z</time></trkpt><trkpt lat="43.1202402" lon="12.2230351"><ele>308.6666666666667</ele><time>2026-04-26T08:26:37.948Z</time></trkpt><trkpt lat="43.1202681" lon="12.2229445"><ele>306.33333333333337</ele><time>2026-04-26T08:26:39.942Z</time></trkpt><trkpt lat="43.1202909" lon="12.2228383"><ele>304.0</ele><time>2026-04-26T08:26:41.943Z</time></trkpt><trkpt lat="43.1203051" lon="12.2227187"><ele>301.6666666666667</ele><time>2026-04-26T08:26:43.95Z</time></trkpt><trkpt lat="43.1202877" lon="12.2225772"><ele>299.3333333333333</ele><time>2026-04-26T08:26:45.944Z</time></trkpt><trkpt lat="43.1202769" lon="12.2224647"><ele>297.0</ele><time>2026-04-26T08:26:47.95Z</time></trkpt><trkpt lat="43.1202874" lon="12.2223566"><ele>295.6666666666667</ele><time>2026-04-26T08:26:49.941Z</time></trkpt><trkpt lat="43.1203092" lon="12.2222552"><ele>294.3333333333333</ele><time>2026-04-26T08:26:51.945Z</time></trkpt><trkpt lat="43.1203106" lon="12.2221601"><ele>293.0</ele><time>2026-04-26T08:27:37.929Z</time></trkpt><trkpt lat="43.1203626" lon="12.2221077"><ele>291.66666666666663</ele><time>2026-04-26T08:27:39.944Z</time></trkpt><trkpt lat="43.1204308" lon="12.2220426"><ele>290.3333333333333</ele><time>2026-04-26T08:27:41.949Z</time></trkpt><trkpt lat="43.1205226" lon="12.2219833"><ele>289.0</ele><time>2026-04-26T08:27:43.935Z</time></trkpt><trkpt lat="43.1206148" lon="12.2219171"><ele>289.0</ele><time>2026-04-26T08:27:45.941Z</time></trkpt><trkpt lat="43.1207078" lon="12.2218378"><ele>289.0</ele><time>2026-04-26T08:27:47.936Z</time></trkpt><trkpt lat="43.1208039" lon="12.2217335"><ele>289.0</ele><time>2026-04-26T08:27:49.936Z</time></trkpt><trkpt lat="43.1208595" lon="12.2216759"><ele>289.0</ele><time>2026-04-26T08:27:50.941Z</time></trkpt><trkpt lat="43.1209082" lon="12.2216168"><ele>289.0</ele><time>2026-04-26T08:27:51.929Z</time></trkpt><trkpt lat="43.1209594" lon="12.2215497"><ele>289.0</ele><time>2026-04-26T08:27:52.926Z</time></trkpt><trkpt lat="43.1210137" lon="12.2214956"><ele>284.5</ele><time>2026-04-26T08:27:53.927Z</time></trkpt><trkpt lat="43.1210699" lon="12.2214467"><ele>280.0</ele><time>2026-04-26T08:27:54.932Z</time></trkpt><trkpt lat="43.1211632" lon="12.2213647"><ele>275.5</ele><time>2026-04-26T08:27:56.928Z</time></trkpt><trkpt lat="43.1211886" lon="12.2212771"><ele>271.0</ele><time>2026-04-26T08:27:58.931Z</time></trkpt><trkpt lat="43.1212065" lon="12.2211827"><ele>266.5</ele><time>2026-04-26T08:28:01.928Z</time></trkpt><trkpt lat="43.1212528" lon="12.2211143"><ele>262.0</ele><time>2026-04-26T08:28:05.936Z</time></trkpt><trkpt lat="43.1213078" lon="12.2211657"><ele>262.0</ele><time>2026-04-26T08:31:29.049Z</time></trkpt><trkpt lat="43.1213803" lon="12.221227"><ele>262.0</ele><time>2026-04-26T08:31:31.943Z</time></trkpt><trkpt lat="43.1214168" lon="12.2213349"><ele>262.0</ele><time>2026-04-26T08:31:34.936Z</time></trkpt><trkpt lat="43.1214384" lon="12.2214454"><ele>262.0</ele><time>2026-04-26T08:31:37.939Z</time></trkpt><trkpt lat="43.1214311" lon="12.2215429"><ele>262.0</ele><time>2026-04-26T08:31:40.937Z</time></trkpt><trkpt lat="43.1214178" lon="12.2216487"><ele>262.0</ele><time>2026-04-26T08:31:44.948Z</time></trkpt><trkpt lat="43.1213942" lon="12.2217342"><ele>263.57142857142856</ele><time>2026-04-26T08:31:48.937Z</time></trkpt><trkpt lat="43.121366" lon="12.2218351"><ele>265.14285714285717</ele><time>2026-04-26T08:31:52.927Z</time></trkpt><trkpt lat="43.1213326" lon="12.2219218"><ele>266.7142857142857</ele><time>2026-04-26T08:31:56.941Z</time></trkpt><trkpt lat="43.1212963" lon="12.221996"><ele>268.2857142857143</ele><time>2026-04-26T08:32:00.953Z</time></trkpt><trkpt lat="43.1212526" lon="12.2220599"><ele>269.8571428571429</ele><time>2026-04-26T08:32:04.951Z</time></trkpt><trkpt lat="43.1212002" lon="12.2221106"><ele>271.42857142857144</ele><time>2026-04-26T08:32:07.941Z</time></trkpt><trkpt lat="43.1211565" lon="12.22218"><ele>273.0</ele><time>2026-04-26T08:32:10.941Z</time></trkpt><trkpt lat="43.1211171" lon="12.2222563"><ele>275.0</ele><time>2026-04-26T08:32:14.94Z</time></trkpt><trkpt lat="43.1210839" lon="12.2223465"><ele>277.0</ele><time>2026-04-26T08:32:18.942Z</time></trkpt><trkpt lat="43.1210533" lon="12.2224223"><ele>279.0</ele><time>2026-04-26T08:32:21.945Z</time></trkpt><trkpt lat="43.1210393" lon="12.2225064"><ele>281.0</ele><time>2026-04-26T08:32:24.938Z</time></trkpt><trkpt lat="43.1210635" lon="12.2226001"><ele>283.0</ele><time>2026-04-26T08:32:27.939Z</time></trkpt><trkpt lat="43.121126" lon="12.222662"><ele>285.0</ele><time>2026-04-26T08:32:30.935Z</time></trkpt><trkpt lat="43.1211895" lon="12.2227058"><ele>287.0</ele><time>2026-04-26T08:32:33.936Z</time></trkpt><trkpt lat="43.1212413" lon="12.2227806"><ele>287.0</ele><time>2026-04-26T08:32:36.943Z</time></trkpt><trkpt lat="43.1212825" lon="12.2228685"><ele>287.0</ele><time>2026-04-26T08:32:39.928Z</time></trkpt><trkpt lat="43.121305" lon="12.2229587"><ele>287.0</ele><time>2026-04-26T08:32:42.924Z</time></trkpt><trkpt lat="43.121297" lon="12.2230635"><ele>287.0</ele><time>2026-04-26T08:32:48.943Z</time></trkpt><trkpt lat="43.1212872" lon="12.2231617"><ele>287.0</ele><time>2026-04-26T08:32:51.942Z</time></trkpt><trkpt lat="43.1212811" lon="12.2232624"><ele>287.0</ele><time>2026-04-26T08:32:54.938Z</time></trkpt><trkpt lat="43.1212764" lon="12.2233838"><ele>289.1666666666667</ele><time>2026-04-26T08:32:57.926Z</time></trkpt><trkpt lat="43.121275" lon="12.2234721"><ele>291.33333333333337</ele><time>2026-04-26T08:32:59.944Z</time></trkpt><trkpt lat="43.1212656" lon="12.2235971"><ele>293.5</ele><time>2026-04-26T08:33:03.05Z</time></trkpt><trkpt lat="43.1212464" lon="12.2237185"><ele>295.6666666666667</ele><time>2026-04-26T08:33:05.949Z</time></trkpt><trkpt lat="43.1212329" lon="12.223805"><ele>297.8333333333333</ele><time>2026-04-26T08:33:07.944Z</time></trkpt><trkpt lat="43.1212069" lon="12.2239216"><ele>300.0</ele><time>2026-04-26T08:33:10.946Z</time></trkpt><trkpt lat="43.1211808" lon="12.2240361"><ele>300.8333333333333</ele><time>2026-04-26T08:33:13.95Z</time></trkpt><trkpt lat="43.1211394" lon="12.2241394"><ele>301.6666666666667</ele><time>2026-04-26T08:33:16.939Z</time></trkpt><trkpt lat="43.1210949" lon="12.2242433"><ele>302.5</ele><time>2026-04-26T08:33:19.939Z</time></trkpt><trkpt lat="43.1210408" lon="12.2243357"><ele>303.33333333333337</ele><time>2026-04-26T08:33:22.938Z</time></trkpt><trkpt lat="43.1209761" lon="12.2244222"><ele>304.1666666666667</ele><time>2026-04-26T08:33:25.939Z</time></trkpt><trkpt lat="43.1209165" lon="12.2245166"><ele>305.0</ele><time>2026-04-26T08:33:28.95Z</time></trkpt><trkpt lat="43.1208839" lon="12.2245911"><ele>305.0</ele><time>2026-04-26T08:33:30.925Z</time></trkpt><trkpt lat="43.1208368" lon="12.2247039"><ele>305.0</ele><time>2026-04-26T08:33:33.945Z</time></trkpt><trkpt lat="43.1208159" lon="12.2248238"><ele>305.0</ele><time>2026-04-26T08:33:36.943Z</time></trkpt><trkpt lat="43.1208044" lon="12.224936"><ele>305.0</ele><time>2026-04-26T08:33:39.935Z</time></trkpt><trkpt lat="43.1207804" lon="12.225024"><ele>305.0</ele><time>2026-04-26T08:33:42.927Z</time></trkpt><trkpt lat="43.1207601" lon="12.2251228"><ele>305.0</ele><time>2026-04-26T08:33:45.938Z</time></trkpt><trkpt lat="43.1207213" lon="12.2252316"><ele>306.33333333333337</ele><time>2026-04-26T08:33:48.94Z</time></trkpt><trkpt lat="43.1206994" lon="12.2253553"><ele>307.6666666666667</ele><time>2026-04-26T08:33:51.936Z</time></trkpt><trkpt lat="43.1206989" lon="12.2254696"><ele>309.0</ele><time>2026-04-26T08:33:54.944Z</time></trkpt><trkpt lat="43.1206956" lon="12.2255948"><ele>310.3333333333333</ele><time>2026-04-26T08:33:57.951Z</time></trkpt><trkpt lat="43.1207231" lon="12.2257103"><ele>311.66666666666663</ele><time>2026-04-26T08:34:00.953Z</time></trkpt><trkpt lat="43.1207597" lon="12.2258023"><ele>313.0</ele><time>2026-04-26T08:34:03.949Z</time></trkpt><trkpt lat="43.1208237" lon="12.225873"><ele>313.0</ele><time>2026-04-26T08:34:07.924Z</time></trkpt><trkpt lat="43.1208867" lon="12.2258752"><ele>313.0</ele><time>2026-04-26T08:34:09.937Z</time></trkpt><trkpt lat="43.1209519" lon="12.225876"><ele>313.0</ele><time>2026-04-26T08:34:11.925Z</time></trkpt><trkpt lat="43.1210364" lon="12.2259103"><ele>313.0</ele><time>2026-04-26T08:34:14.926Z</time></trkpt><trkpt lat="43.1210909" lon="12.2259891"><ele>313.0</ele><time>2026-04-26T08:34:17.932Z</time></trkpt><trkpt lat="43.1211286" lon="12.2260847"><ele>313.0</ele><time>2026-04-26T08:34:20.921Z</time></trkpt><trkpt lat="43.1211592" lon="12.2261714"><ele>313.0</ele><time>2026-04-26T08:34:23.921Z</time></trkpt><trkpt lat="43.1212072" lon="12.2262531"><ele>313.0</ele><time>2026-04-26T08:34:27.923Z</time></trkpt><trkpt lat="43.1212659" lon="12.2263159"><ele>313.0</ele><time>2026-04-26T08:34:30.932Z</time></trkpt><trkpt lat="43.1213382" lon="12.2263575"><ele>313.0</ele><time>2026-04-26T08:34:33.972Z</time></trkpt><trkpt lat="43.121406" lon="12.2264287"><ele>313.0</ele><time>2026-04-26T08:34:36.93Z</time></trkpt><trkpt lat="43.1214697" lon="12.2264745"><ele>313.0</ele><time>2026-04-26T08:34:38.92Z</time></trkpt><trkpt lat="43.1215359" lon="12.2265243"><ele>313.0</ele><time>2026-04-26T08:34:40.932Z</time></trkpt><trkpt lat="43.1215963" lon="12.2265806"><ele>313.3333333333333</ele><time>2026-04-26T08:34:42.924Z</time></trkpt><trkpt lat="43.1216528" lon="12.226624"><ele>313.66666666666663</ele><time>2026-04-26T08:34:44.921Z</time></trkpt><trkpt lat="43.1217273" lon="12.2266598"><ele>314.0</ele><time>2026-04-26T08:34:46.924Z</time></trkpt><trkpt lat="43.1217993" lon="12.2266911"><ele>314.3333333333333</ele><time>2026-04-26T08:34:48.928Z</time></trkpt><trkpt lat="43.1218602" lon="12.2267446"><ele>314.6666666666667</ele><time>2026-04-26T08:34:50.93Z</time></trkpt><trkpt lat="43.1219276" lon="12.2268163"><ele>315.0</ele><time>2026-04-26T08:34:52.93Z</time></trkpt><trkpt lat="43.1219957" lon="12.2268887"><ele>315.0</ele><time>2026-04-26T08:34:54.927Z</time></trkpt><trkpt lat="43.1220572" lon="12.2269582"><ele>315.0</ele><time>2026-04-26T08:34:56.935Z</time></trkpt><trkpt lat="43.1221263" lon="12.2270471"><ele>315.0</ele><time>2026-04-26T08:34:59.925Z</time></trkpt><trkpt lat="43.1221763" lon="12.2271173"><ele>315.0</ele><time>2026-04-26T08:35:01.927Z</time></trkpt><trkpt lat="43.1222183" lon="12.2271942"><ele>315.0</ele><time>2026-04-26T08:35:03.929Z</time></trkpt><trkpt lat="43.122267" lon="12.2272887"><ele>315.0</ele><time>2026-04-26T08:35:05.921Z</time></trkpt><trkpt lat="43.1223099" lon="12.2273864"><ele>314.8333333333333</ele><time>2026-04-26T08:35:08.369Z</time></trkpt><trkpt lat="43.1223566" lon="12.2274766"><ele>314.6666666666667</ele><time>2026-04-26T08:35:09.925Z</time></trkpt><trkpt lat="43.1223996" lon="12.2275708"><ele>314.5</ele><time>2026-04-26T08:35:11.927Z</time></trkpt><trkpt lat="43.1224424" lon="12.2276678"><ele>314.33333333333337</ele><time>2026-04-26T08:35:13.927Z</time></trkpt><trkpt lat="43.1224836" lon="12.2277671"><ele>314.1666666666667</ele><time>2026-04-26T08:35:15.918Z</time></trkpt><trkpt lat="43.1225329" lon="12.2278805"><ele>314.0</ele><time>2026-04-26T08:35:17.937Z</time></trkpt><trkpt lat="43.1225753" lon="12.2279581"><ele>313.99999999999994</ele><time>2026-04-26T08:35:19.93Z</time></trkpt><trkpt lat="43.1226352" lon="12.2280409"><ele>314.0</ele><time>2026-04-26T08:35:21.922Z</time></trkpt><trkpt lat="43.1226605" lon="12.2281203"><ele>314.0</ele><time>2026-04-26T08:35:35.934Z</time></trkpt><trkpt lat="43.1226094" lon="12.2280565"><ele>314.0</ele><time>2026-04-26T08:37:28.928Z</time></trkpt><trkpt lat="43.122541" lon="12.2280443"><ele>314.0</ele><time>2026-04-26T08:37:31.925Z</time></trkpt><trkpt lat="43.1224649" lon="12.228007"><ele>313.99999999999994</ele><time>2026-04-26T08:37:34.94Z</time></trkpt><trkpt lat="43.1224036" lon="12.2279646"><ele>314.0</ele><time>2026-04-26T08:37:37.934Z</time></trkpt><trkpt lat="43.1223441" lon="12.2279121"><ele>314.83333333333337</ele><time>2026-04-26T08:37:41.032Z</time></trkpt><trkpt lat="43.122282" lon="12.2278531"><ele>315.6666666666667</ele><time>2026-04-26T08:37:43.929Z</time></trkpt><trkpt lat="43.1222117" lon="12.2277948"><ele>316.5</ele><time>2026-04-26T08:37:47.051Z</time></trkpt><trkpt lat="43.122132" lon="12.2277428"><ele>317.3333333333333</ele><time>2026-04-26T08:37:49.939Z</time></trkpt><trkpt lat="43.1220595" lon="12.2276819"><ele>318.16666666666663</ele><time>2026-04-26T08:37:53.053Z</time></trkpt><trkpt lat="43.121976" lon="12.2276255"><ele>319.0</ele><time>2026-04-26T08:37:55.942Z</time></trkpt><trkpt lat="43.1218969" lon="12.2275752"><ele>319.0</ele><time>2026-04-26T08:37:59.048Z</time></trkpt><trkpt lat="43.1218185" lon="12.2275206"><ele>319.0</ele><time>2026-04-26T08:38:01.933Z</time></trkpt><trkpt lat="43.12176" lon="12.2274823"><ele>319.0</ele><time>2026-04-26T08:38:03.932Z</time></trkpt><trkpt lat="43.1216839" lon="12.2274234"><ele>319.0</ele><time>2026-04-26T08:38:06.947Z</time></trkpt><trkpt lat="43.1216076" lon="12.2273603"><ele>319.0</ele><time>2026-04-26T08:38:09.925Z</time></trkpt><trkpt lat="43.1215341" lon="12.2273012"><ele>319.0</ele><time>2026-04-26T08:38:12.936Z</time></trkpt><trkpt lat="43.1214591" lon="12.2272478"><ele>320.0</ele><time>2026-04-26T08:38:15.945Z</time></trkpt><trkpt lat="43.1213809" lon="12.2271962"><ele>321.0</ele><time>2026-04-26T08:38:18.937Z</time></trkpt><trkpt lat="43.1213162" lon="12.2271367"><ele>322.0</ele><time>2026-04-26T08:38:21.94Z</time></trkpt><trkpt lat="43.1212467" lon="12.2270744"><ele>323.0</ele><time>2026-04-26T08:38:24.947Z</time></trkpt><trkpt lat="43.1211646" lon="12.2270249"><ele>324.0</ele><time>2026-04-26T08:38:27.932Z</time></trkpt><trkpt lat="43.1210803" lon="12.2269684"><ele>325.0</ele><time>2026-04-26T08:38:30.943Z</time></trkpt><trkpt lat="43.121024" lon="12.2269247"><ele>325.0</ele><time>2026-04-26T08:38:32.937Z</time></trkpt><trkpt lat="43.1209714" lon="12.2268764"><ele>325.0</ele><time>2026-04-26T08:38:34.924Z</time></trkpt><trkpt lat="43.1208964" lon="12.2268077"><ele>325.0</ele><time>2026-04-26T08:38:37.935Z</time></trkpt><trkpt lat="43.1208315" lon="12.2267684"><ele>325.0</ele><time>2026-04-26T08:38:39.941Z</time></trkpt><trkpt lat="43.1207603" lon="12.2267155"><ele>325.0</ele><time>2026-04-26T08:38:42.936Z</time></trkpt><trkpt lat="43.1206998" lon="12.2266691"><ele>325.0</ele><time>2026-04-26T08:38:44.939Z</time></trkpt><trkpt lat="43.1206451" lon="12.22662"><ele>325.0</ele><time>2026-04-26T08:38:46.934Z</time></trkpt><trkpt lat="43.1205683" lon="12.2265591"><ele>326.8333333333333</ele><time>2026-04-26T08:38:49.915Z</time></trkpt><trkpt lat="43.1205037" lon="12.2264997"><ele>328.66666666666663</ele><time>2026-04-26T08:38:52.941Z</time></trkpt><trkpt lat="43.1204232" lon="12.2264403"><ele>330.5</ele><time>2026-04-26T08:38:55.937Z</time></trkpt><trkpt lat="43.1203565" lon="12.2263793"><ele>332.3333333333333</ele><time>2026-04-26T08:38:58.927Z</time></trkpt><trkpt lat="43.1202877" lon="12.2263226"><ele>334.1666666666667</ele><time>2026-04-26T08:39:02.934Z</time></trkpt><trkpt lat="43.120218" lon="12.226274"><ele>336.0</ele><time>2026-04-26T08:39:06.941Z</time></trkpt><trkpt lat="43.1201457" lon="12.2262291"><ele>336.42857142857144</ele><time>2026-04-26T08:39:10.938Z</time></trkpt><trkpt lat="43.1200825" lon="12.2261946"><ele>336.8571428571429</ele><time>2026-04-26T08:39:14.955Z</time></trkpt><trkpt lat="43.1200247" lon="12.2261372"><ele>337.2857142857143</ele><time>2026-04-26T08:39:19.944Z</time></trkpt><trkpt lat="43.1199694" lon="12.2260868"><ele>337.7142857142857</ele><time>2026-04-26T08:41:47.932Z</time></trkpt><trkpt lat="43.1199167" lon="12.226008"><ele>338.14285714285717</ele><time>2026-04-26T08:41:52.946Z</time></trkpt><trkpt lat="43.1198649" lon="12.2259413"><ele>338.57142857142856</ele><time>2026-04-26T08:41:56.936Z</time></trkpt><trkpt lat="43.1198295" lon="12.2258649"><ele>339.0</ele><time>2026-04-26T08:42:00.935Z</time></trkpt><trkpt lat="43.1197767" lon="12.2258058"><ele>341.57142857142856</ele><time>2026-04-26T08:42:04.94Z</time></trkpt><trkpt lat="43.1197277" lon="12.2257389"><ele>344.14285714285717</ele><time>2026-04-26T08:42:08.945Z</time></trkpt><trkpt lat="43.1196863" lon="12.2256608"><ele>346.7142857142857</ele><time>2026-04-26T08:42:12.938Z</time></trkpt><trkpt lat="43.1196633" lon="12.22558"><ele>349.2857142857143</ele><time>2026-04-26T08:42:16.937Z</time></trkpt><trkpt lat="43.1196522" lon="12.2254926"><ele>351.8571428571429</ele><time>2026-04-26T08:42:20.935Z</time></trkpt><trkpt lat="43.1196388" lon="12.2253991"><ele>354.42857142857144</ele><time>2026-04-26T08:42:24.941Z</time></trkpt><trkpt lat="43.1196134" lon="12.2253126"><ele>357.0</ele><time>2026-04-26T08:42:28.943Z</time></trkpt><trkpt lat="43.1195743" lon="12.2252267"><ele>356.42857142857144</ele><time>2026-04-26T08:42:32.933Z</time></trkpt><trkpt lat="43.1195497" lon="12.2251408"><ele>355.8571428571429</ele><time>2026-04-26T08:42:36.937Z</time></trkpt><trkpt lat="43.1195081" lon="12.2250439"><ele>355.2857142857143</ele><time>2026-04-26T08:42:40.938Z</time></trkpt><trkpt lat="43.1194672" lon="12.2249508"><ele>354.7142857142857</ele><time>2026-04-26T08:42:44.939Z</time></trkpt><trkpt lat="43.1194296" lon="12.2248815"><ele>354.14285714285717</ele><time>2026-04-26T08:42:47.941Z</time></trkpt><trkpt lat="43.119393" lon="12.2248039"><ele>353.57142857142856</ele><time>2026-04-26T08:42:50.935Z</time></trkpt><trkpt lat="43.119354" lon="12.2247319"><ele>353.0</ele><time>2026-04-26T08:42:53.942Z</time></trkpt><trkpt lat="43.1193107" lon="12.2246504"><ele>353.0</ele><time>2026-04-26T08:42:56.936Z</time></trkpt><trkpt lat="43.1192628" lon="12.2245615"><ele>353.0</ele><time>2026-04-26T08:43:00.034Z</time></trkpt><trkpt lat="43.1192211" lon="12.2244816"><ele>353.0</ele><time>2026-04-26T08:43:02.939Z</time></trkpt><trkpt lat="43.1191693" lon="12.2244134"><ele>353.0</ele><time>2026-04-26T08:43:05.933Z</time></trkpt><trkpt lat="43.119127" lon="12.2243311"><ele>353.0</ele><time>2026-04-26T08:43:08.935Z</time></trkpt><trkpt lat="43.1190583" lon="12.2242232"><ele>353.0</ele><time>2026-04-26T08:43:12.919Z</time></trkpt><trkpt lat="43.119" lon="12.2241484"><ele>356.6666666666667</ele><time>2026-04-26T08:43:15.943Z</time></trkpt><trkpt lat="43.1189504" lon="12.2240601"><ele>360.33333333333337</ele><time>2026-04-26T08:43:18.941Z</time></trkpt><trkpt lat="43.1188914" lon="12.2239915"><ele>364.0</ele><time>2026-04-26T08:43:21.936Z</time></trkpt><trkpt lat="43.1188231" lon="12.2239291"><ele>367.6666666666667</ele><time>2026-04-26T08:43:24.934Z</time></trkpt><trkpt lat="43.1187603" lon="12.2238708"><ele>371.3333333333333</ele><time>2026-04-26T08:43:27.933Z</time></trkpt><trkpt lat="43.1187065" lon="12.2238137"><ele>375.0</ele><time>2026-04-26T08:43:30.94Z</time></trkpt><trkpt lat="43.1186551" lon="12.2237563"><ele>375.0</ele><time>2026-04-26T08:43:33.94Z</time></trkpt><trkpt lat="43.1186119" lon="12.2236842"><ele>375.0</ele><time>2026-04-26T08:43:36.934Z</time></trkpt><trkpt lat="43.1185665" lon="12.223617"><ele>375.0</ele><time>2026-04-26T08:43:39.933Z</time></trkpt><trkpt lat="43.1185229" lon="12.2235524"><ele>375.0</ele><time>2026-04-26T08:43:42.943Z</time></trkpt><trkpt lat="43.1184618" lon="12.2234542"><ele>375.0</ele><time>2026-04-26T08:43:46.936Z</time></trkpt><trkpt lat="43.1184122" lon="12.2233723"><ele>375.0</ele><time>2026-04-26T08:43:49.947Z</time></trkpt><trkpt lat="43.1183739" lon="12.223275"><ele>375.0</ele><time>2026-04-26T08:43:52.946Z</time></trkpt><trkpt lat="43.1183299" lon="12.2231768"><ele>375.0</ele><time>2026-04-26T08:43:55.942Z</time></trkpt><trkpt lat="43.1182576" lon="12.2231027"><ele>375.0</ele><time>2026-04-26T08:43:58.943Z</time></trkpt><trkpt lat="43.1181749" lon="12.2230731"><ele>375.0</ele><time>2026-04-26T08:44:01.935Z</time></trkpt><trkpt lat="43.1180967" lon="12.2230424"><ele>375.0</ele><time>2026-04-26T08:44:04.934Z</time></trkpt><trkpt lat="43.118019" lon="12.2230113"><ele>375.0</ele><time>2026-04-26T08:44:07.935Z</time></trkpt><trkpt lat="43.1179535" lon="12.2229602"><ele>373.6666666666667</ele><time>2026-04-26T08:44:10.934Z</time></trkpt><trkpt lat="43.1178731" lon="12.222932"><ele>372.3333333333333</ele><time>2026-04-26T08:44:13.933Z</time></trkpt><trkpt lat="43.1177906" lon="12.2229394"><ele>371.0</ele><time>2026-04-26T08:44:16.933Z</time></trkpt><trkpt lat="43.1177046" lon="12.2229751"><ele>369.66666666666663</ele><time>2026-04-26T08:44:19.935Z</time></trkpt><trkpt lat="43.1176193" lon="12.222994"><ele>368.3333333333333</ele><time>2026-04-26T08:44:22.935Z</time></trkpt><trkpt lat="43.1175331" lon="12.2229988"><ele>367.0</ele><time>2026-04-26T08:44:25.941Z</time></trkpt><trkpt lat="43.1174492" lon="12.2229894"><ele>367.0</ele><time>2026-04-26T08:44:28.934Z</time></trkpt><trkpt lat="43.1173752" lon="12.2229679"><ele>367.0</ele><time>2026-04-26T08:44:31.934Z</time></trkpt><trkpt lat="43.1172987" lon="12.2229454"><ele>367.0</ele><time>2026-04-26T08:44:34.936Z</time></trkpt><trkpt lat="43.1171804" lon="12.2229167"><ele>367.0</ele><time>2026-04-26T08:44:37.936Z</time></trkpt><trkpt lat="43.117087" lon="12.2229068"><ele>367.0</ele><time>2026-04-26T08:44:40.938Z</time></trkpt><trkpt lat="43.1170237" lon="12.2228963"><ele>367.0</ele><time>2026-04-26T08:44:42.933Z</time></trkpt><trkpt lat="43.1169534" lon="12.2228916"><ele>367.0</ele><time>2026-04-26T08:44:44.939Z</time></trkpt><trkpt lat="43.1168792" lon="12.2228838"><ele>367.0</ele><time>2026-04-26T08:44:46.934Z</time></trkpt><trkpt lat="43.1168142" lon="12.2228787"><ele>367.0</ele><time>2026-04-26T08:44:48.958Z</time></trkpt><trkpt lat="43.1167439" lon="12.2228752"><ele>367.0</ele><time>2026-04-26T08:44:50.934Z</time></trkpt><trkpt lat="43.1166773" lon="12.2228784"><ele>367.0</ele><time>2026-04-26T08:44:52.938Z</time></trkpt><trkpt lat="43.1165822" lon="12.222884"><ele>367.0</ele><time>2026-04-26T08:44:55.935Z</time></trkpt><trkpt lat="43.1165166" lon="12.222884"><ele>367.0</ele><time>2026-04-26T08:44:57.941Z</time></trkpt><trkpt lat="43.1164517" lon="12.2228787"><ele>367.85714285714283</ele><time>2026-04-26T08:44:59.938Z</time></trkpt><trkpt lat="43.1163882" lon="12.2228736"><ele>368.7142857142857</ele><time>2026-04-26T08:45:01.934Z</time></trkpt><trkpt lat="43.1163211" lon="12.2228752"><ele>369.57142857142856</ele><time>2026-04-26T08:45:03.938Z</time></trkpt><trkpt lat="43.1162552" lon="12.2228522"><ele>370.42857142857144</ele><time>2026-04-26T08:45:05.934Z</time></trkpt><trkpt lat="43.1161885" lon="12.2228267"><ele>371.28571428571433</ele><time>2026-04-26T08:45:07.936Z</time></trkpt><trkpt lat="43.1161225" lon="12.2227981"><ele>372.14285714285717</ele><time>2026-04-26T08:45:09.944Z</time></trkpt><trkpt lat="43.1160459" lon="12.222772"><ele>373.0</ele><time>2026-04-26T08:45:11.94Z</time></trkpt><trkpt lat="43.1159662" lon="12.222751"><ele>373.0</ele><time>2026-04-26T08:45:13.935Z</time></trkpt><trkpt lat="43.1158738" lon="12.2227513"><ele>373.0</ele><time>2026-04-26T08:45:15.935Z</time></trkpt><trkpt lat="43.1158006" lon="12.2227557"><ele>373.0</ele><time>2026-04-26T08:45:17.944Z</time></trkpt><trkpt lat="43.1157304" lon="12.2227655"><ele>373.0</ele><time>2026-04-26T08:45:19.942Z</time></trkpt><trkpt lat="43.1156616" lon="12.2227734"><ele>373.0</ele><time>2026-04-26T08:45:21.935Z</time></trkpt><trkpt lat="43.1155928" lon="12.2227757"><ele>373.0</ele><time>2026-04-26T08:45:23.934Z</time></trkpt><trkpt lat="43.1155247" lon="12.2227871"><ele>373.0</ele><time>2026-04-26T08:45:25.933Z</time></trkpt><trkpt lat="43.1154536" lon="12.2227989"><ele>375.0</ele><time>2026-04-26T08:45:27.935Z</time></trkpt><trkpt lat="43.1153899" lon="12.2228048"><ele>377.0</ele><time>2026-04-26T08:45:29.926Z</time></trkpt><trkpt lat="43.1153261" lon="12.2228107"><ele>379.0</ele><time>2026-04-26T08:45:31.932Z</time></trkpt><trkpt lat="43.1152526" lon="12.2228126"><ele>381.0</ele><time>2026-04-26T08:45:33.934Z</time></trkpt><trkpt lat="43.1151869" lon="12.2228122"><ele>383.0</ele><time>2026-04-26T08:45:35.934Z</time></trkpt><trkpt lat="43.1151235" lon="12.2228259"><ele>385.0</ele><time>2026-04-26T08:45:37.933Z</time></trkpt><trkpt lat="43.1150338" lon="12.2228353"><ele>387.0</ele><time>2026-04-26T08:45:40.931Z</time></trkpt><trkpt lat="43.1149488" lon="12.2228475"><ele>391.0</ele><time>2026-04-26T08:45:43.934Z</time></trkpt><trkpt lat="43.1148845" lon="12.2228576"><ele>395.0</ele><time>2026-04-26T08:45:45.934Z</time></trkpt><trkpt lat="43.1148005" lon="12.2228804"><ele>399.0</ele><time>2026-04-26T08:45:48.936Z</time></trkpt><trkpt lat="43.1147223" lon="12.2229112"><ele>403.0</ele><time>2026-04-26T08:45:51.933Z</time></trkpt><trkpt lat="43.1146413" lon="12.222936"><ele>407.0</ele><time>2026-04-26T08:45:54.923Z</time></trkpt><trkpt lat="43.114562" lon="12.2229201"><ele>411.0</ele><time>2026-04-26T08:45:57.926Z</time></trkpt><trkpt lat="43.1145236" lon="12.2228108"><ele>411.0</ele><time>2026-04-26T08:46:01.057Z</time></trkpt><trkpt lat="43.114529" lon="12.2226849"><ele>411.0</ele><time>2026-04-26T08:46:03.926Z</time></trkpt><trkpt lat="43.1145699" lon="12.2225704"><ele>411.0</ele><time>2026-04-26T08:46:06.932Z</time></trkpt><trkpt lat="43.1145968" lon="12.222452"><ele>411.0</ele><time>2026-04-26T08:46:09.937Z</time></trkpt><trkpt lat="43.1146214" lon="12.222331"><ele>411.0</ele><time>2026-04-26T08:46:12.927Z</time></trkpt><trkpt lat="43.1146218" lon="12.2222097"><ele>409.0</ele><time>2026-04-26T08:46:15.937Z</time></trkpt><trkpt lat="43.1145752" lon="12.2221404"><ele>407.0</ele><time>2026-04-26T08:46:17.922Z</time></trkpt><trkpt lat="43.1145097" lon="12.2220379"><ele>405.0</ele><time>2026-04-26T08:46:20.945Z</time></trkpt><trkpt lat="43.1144404" lon="12.2219493"><ele>403.0</ele><time>2026-04-26T08:46:23.922Z</time></trkpt><trkpt lat="43.1143939" lon="12.2218524"><ele>401.0</ele><time>2026-04-26T08:46:26.922Z</time></trkpt><trkpt lat="43.1143532" lon="12.2217514"><ele>399.0</ele><time>2026-04-26T08:46:29.946Z</time></trkpt><trkpt lat="43.1142928" lon="12.2216708"><ele>399.0</ele><time>2026-04-26T08:46:32.936Z</time></trkpt><trkpt lat="43.1142176" lon="12.2216163"><ele>399.0</ele><time>2026-04-26T08:46:35.937Z</time></trkpt><trkpt lat="43.114135" lon="12.2215798"><ele>399.0</ele><time>2026-04-26T08:46:38.937Z</time></trkpt><trkpt lat="43.1140655" lon="12.2215162"><ele>399.0</ele><time>2026-04-26T08:46:41.951Z</time></trkpt><trkpt lat="43.113984" lon="12.2214881"><ele>399.0</ele><time>2026-04-26T08:46:44.934Z</time></trkpt><trkpt lat="43.1139204" lon="12.2214733"><ele>399.0</ele><time>2026-04-26T08:46:46.937Z</time></trkpt><trkpt lat="43.1138641" lon="12.2214266"><ele>399.0</ele><time>2026-04-26T08:46:49.939Z</time></trkpt><trkpt lat="43.1138144" lon="12.2213703"><ele>399.0</ele><time>2026-04-26T08:46:52.943Z</time></trkpt><trkpt lat="43.1137555" lon="12.2213271"><ele>399.0</ele><time>2026-04-26T08:46:55.935Z</time></trkpt><trkpt lat="43.113676" lon="12.2213174"><ele>399.0</ele><time>2026-04-26T08:46:58.934Z</time></trkpt><trkpt lat="43.11361" lon="12.2213638"><ele>399.0</ele><time>2026-04-26T08:47:01.923Z</time></trkpt><trkpt lat="43.1135995" lon="12.2214583"><ele>399.0</ele><time>2026-04-26T08:47:04.95Z</time></trkpt><trkpt lat="43.1136399" lon="12.2215536"><ele>399.0</ele><time>2026-04-26T08:47:08.937Z</time></trkpt><trkpt lat="43.1136833" lon="12.2216517"><ele>401.2857142857143</ele><time>2026-04-26T08:47:12.938Z</time></trkpt><trkpt lat="43.1136929" lon="12.2217466"><ele>403.57142857142856</ele><time>2026-04-26T08:47:15.934Z</time></trkpt><trkpt lat="43.113681" lon="12.2218416"><ele>405.8571428571429</ele><time>2026-04-26T08:47:18.938Z</time></trkpt><trkpt lat="43.1136173" lon="12.2219128"><ele>408.1428571428571</ele><time>2026-04-26T08:47:22.941Z</time></trkpt><trkpt lat="43.1135473" lon="12.221914"><ele>410.42857142857144</ele><time>2026-04-26T08:47:25.941Z</time></trkpt><trkpt lat="43.1134793" lon="12.2219161"><ele>412.7142857142857</ele><time>2026-04-26T08:47:28.937Z</time></trkpt><trkpt lat="43.1134151" lon="12.2219069"><ele>415.0</ele><time>2026-04-26T08:47:31.939Z</time></trkpt><trkpt lat="43.1133357" lon="12.2219029"><ele>415.00000000000006</ele><time>2026-04-26T08:47:35.942Z</time></trkpt><trkpt lat="43.1132579" lon="12.2219"><ele>415.0</ele><time>2026-04-26T08:47:39.937Z</time></trkpt><trkpt lat="43.1131808" lon="12.2218769"><ele>415.0</ele><time>2026-04-26T08:47:43.932Z</time></trkpt><trkpt lat="43.1131089" lon="12.2218801"><ele>415.0</ele><time>2026-04-26T08:47:47.942Z</time></trkpt><trkpt lat="43.1130297" lon="12.2218873"><ele>415.00000000000006</ele><time>2026-04-26T08:47:51.947Z</time></trkpt><trkpt lat="43.1129453" lon="12.2218875"><ele>415.0</ele><time>2026-04-26T08:47:55.942Z</time></trkpt><trkpt lat="43.1128804" lon="12.221867"><ele>416.7142857142857</ele><time>2026-04-26T08:47:58.935Z</time></trkpt><trkpt lat="43.1127984" lon="12.2218676"><ele>418.42857142857144</ele><time>2026-04-26T08:48:02.937Z</time></trkpt><trkpt lat="43.1127193" lon="12.2218803"><ele>420.1428571428571</ele><time>2026-04-26T08:48:06.934Z</time></trkpt><trkpt lat="43.1126553" lon="12.221889"><ele>421.8571428571429</ele><time>2026-04-26T08:48:09.934Z</time></trkpt><trkpt lat="43.1125793" lon="12.2218969"><ele>423.57142857142856</ele><time>2026-04-26T08:48:12.936Z</time></trkpt><trkpt lat="43.1125147" lon="12.2218856"><ele>425.2857142857143</ele><time>2026-04-26T08:48:15.935Z</time></trkpt><trkpt lat="43.1124456" lon="12.2218691"><ele>427.0</ele><time>2026-04-26T08:48:18.922Z</time></trkpt><trkpt lat="43.1123682" lon="12.2218403"><ele>428.0</ele><time>2026-04-26T08:48:21.934Z</time></trkpt><trkpt lat="43.1122848" lon="12.2218173"><ele>429.00000000000006</ele><time>2026-04-26T08:48:23.935Z</time></trkpt><trkpt lat="43.1121979" lon="12.2217363"><ele>430.00000000000006</ele><time>2026-04-26T08:48:25.943Z</time></trkpt><trkpt lat="43.1120908" lon="12.2216288"><ele>431.0</ele><time>2026-04-26T08:48:27.947Z</time></trkpt><trkpt lat="43.112027" lon="12.2215856"><ele>432.0</ele><time>2026-04-26T08:48:28.942Z</time></trkpt><trkpt lat="43.1119674" lon="12.221534"><ele>429.85714285714283</ele><time>2026-04-26T08:48:29.941Z</time></trkpt><trkpt lat="43.111913" lon="12.2214728"><ele>427.71428571428567</ele><time>2026-04-26T08:48:30.937Z</time></trkpt><trkpt lat="43.111855" lon="12.2214067"><ele>425.57142857142856</ele><time>2026-04-26T08:48:31.944Z</time></trkpt><trkpt lat="43.1118007" lon="12.2213422"><ele>423.42857142857144</ele><time>2026-04-26T08:48:32.938Z</time></trkpt><trkpt lat="43.1117467" lon="12.2212807"><ele>421.2857142857143</ele><time>2026-04-26T08:48:33.938Z</time></trkpt><trkpt lat="43.1116937" lon="12.2212173"><ele>419.14285714285717</ele><time>2026-04-26T08:48:34.942Z</time></trkpt><trkpt lat="43.1116361" lon="12.2211452"><ele>417.0</ele><time>2026-04-26T08:48:35.944Z</time></trkpt><trkpt lat="43.1115916" lon="12.2210801"><ele>418.1666666666667</ele><time>2026-04-26T08:48:36.933Z</time></trkpt><trkpt lat="43.1115369" lon="12.2209545"><ele>419.33333333333337</ele><time>2026-04-26T08:48:39.049Z</time></trkpt><trkpt lat="43.111525" lon="12.2208654"><ele>420.5</ele><time>2026-04-26T08:48:40.934Z</time></trkpt><trkpt lat="43.1114978" lon="12.2207818"><ele>421.6666666666667</ele><time>2026-04-26T08:48:43.946Z</time></trkpt><trkpt lat="43.1114949" lon="12.2206819"><ele>422.83333333333337</ele><time>2026-04-26T08:48:46.941Z</time></trkpt><trkpt lat="43.1115034" lon="12.2205838"><ele>424.0</ele><time>2026-04-26T08:48:49.94Z</time></trkpt><trkpt lat="43.1115244" lon="12.2204983"><ele>424.00000000000006</ele><time>2026-04-26T08:48:52.937Z</time></trkpt><trkpt lat="43.1114678" lon="12.2203885"><ele>424.0</ele><time>2026-04-26T08:48:55.933Z</time></trkpt><trkpt lat="43.1114122" lon="12.2203133"><ele>424.0</ele><time>2026-04-26T08:48:58.934Z</time></trkpt><trkpt lat="43.1113531" lon="12.2202532"><ele>424.0</ele><time>2026-04-26T08:49:01.939Z</time></trkpt><trkpt lat="43.1112964" lon="12.2201913"><ele>424.00000000000006</ele><time>2026-04-26T08:49:04.933Z</time></trkpt><trkpt lat="43.1112266" lon="12.2201369"><ele>424.0</ele><time>2026-04-26T08:49:07.933Z</time></trkpt><trkpt lat="43.1111608" lon="12.2200845"><ele>424.0</ele><time>2026-04-26T08:49:10.937Z</time></trkpt><trkpt lat="43.1110999" lon="12.2200323"><ele>424.0</ele><time>2026-04-26T08:49:14.935Z</time></trkpt><trkpt lat="43.1110145" lon="12.2200204"><ele>424.0</ele><time>2026-04-26T08:49:18.935Z</time></trkpt><trkpt lat="43.1109488" lon="12.2200407"><ele>424.0</ele><time>2026-04-26T08:49:21.936Z</time></trkpt><trkpt lat="43.1108739" lon="12.2200324"><ele>424.0</ele><time>2026-04-26T08:49:25.932Z</time></trkpt><trkpt lat="43.1108026" lon="12.220054"><ele>424.0</ele><time>2026-04-26T08:49:28.934Z</time></trkpt><trkpt lat="43.1107345" lon="12.2200672"><ele>424.0</ele><time>2026-04-26T08:49:31.935Z</time></trkpt><trkpt lat="43.1106549" lon="12.2200882"><ele>425.6666666666667</ele><time>2026-04-26T08:49:34.933Z</time></trkpt><trkpt lat="43.1105428" lon="12.2201318"><ele>427.33333333333337</ele><time>2026-04-26T08:49:38.933Z</time></trkpt><trkpt lat="43.1104676" lon="12.2201477"><ele>429.0</ele><time>2026-04-26T08:49:41.929Z</time></trkpt><trkpt lat="43.1103945" lon="12.220141"><ele>430.66666666666663</ele><time>2026-04-26T08:49:44.934Z</time></trkpt><trkpt lat="43.1103149" lon="12.2200958"><ele>432.3333333333333</ele><time>2026-04-26T08:49:49.031Z</time></trkpt><trkpt lat="43.1102319" lon="12.2200406"><ele>434.0</ele><time>2026-04-26T08:49:51.939Z</time></trkpt><trkpt lat="43.1101465" lon="12.2200074"><ele>433.99999999999994</ele><time>2026-04-26T08:49:54.933Z</time></trkpt><trkpt lat="43.1100736" lon="12.2199675"><ele>434.0</ele><time>2026-04-26T08:49:57.933Z</time></trkpt><trkpt lat="43.1099931" lon="12.2199533"><ele>434.0</ele><time>2026-04-26T08:50:00.934Z</time></trkpt><trkpt lat="43.1099067" lon="12.2199258"><ele>434.0</ele><time>2026-04-26T08:50:03.934Z</time></trkpt><trkpt lat="43.1098203" lon="12.219914"><ele>433.99999999999994</ele><time>2026-04-26T08:50:06.931Z</time></trkpt><trkpt lat="43.1097374" lon="12.2199328"><ele>434.0</ele><time>2026-04-26T08:50:09.935Z</time></trkpt><trkpt lat="43.1096488" lon="12.219956"><ele>434.66666666666663</ele><time>2026-04-26T08:50:12.936Z</time></trkpt><trkpt lat="43.109558" lon="12.2199576"><ele>435.3333333333333</ele><time>2026-04-26T08:50:15.932Z</time></trkpt><trkpt lat="43.1094813" lon="12.2199368"><ele>436.0</ele><time>2026-04-26T08:50:18.938Z</time></trkpt><trkpt lat="43.109403" lon="12.2199327"><ele>436.66666666666663</ele><time>2026-04-26T08:50:21.933Z</time></trkpt><trkpt lat="43.1093415" lon="12.2198882"><ele>437.3333333333333</ele><time>2026-04-26T08:50:25.945Z</time></trkpt><trkpt lat="43.109274" lon="12.2198421"><ele>438.0</ele><time>2026-04-26T08:50:29.933Z</time></trkpt><trkpt lat="43.1092081" lon="12.2197959"><ele>438.0</ele><time>2026-04-26T08:50:33.938Z</time></trkpt><trkpt lat="43.1091439" lon="12.2197432"><ele>438.0</ele><time>2026-04-26T08:50:37.934Z</time></trkpt><trkpt lat="43.1090661" lon="12.2197206"><ele>438.0</ele><time>2026-04-26T08:50:41.935Z</time></trkpt><trkpt lat="43.1089865" lon="12.2197314"><ele>438.0</ele><time>2026-04-26T08:50:45.933Z</time></trkpt><trkpt lat="43.1089138" lon="12.2197415"><ele>438.0</ele><time>2026-04-26T08:50:48.939Z</time></trkpt><trkpt lat="43.1088388" lon="12.2197867"><ele>438.0</ele><time>2026-04-26T08:50:52.935Z</time></trkpt><trkpt lat="43.1087716" lon="12.2198357"><ele>440.6666666666667</ele><time>2026-04-26T08:50:56.934Z</time></trkpt><trkpt lat="43.1087064" lon="12.2198883"><ele>443.33333333333337</ele><time>2026-04-26T08:51:00.936Z</time></trkpt><trkpt lat="43.1086422" lon="12.2199409"><ele>446.0</ele><time>2026-04-26T08:51:04.933Z</time></trkpt><trkpt lat="43.1085765" lon="12.2199992"><ele>448.6666666666667</ele><time>2026-04-26T08:51:08.936Z</time></trkpt><trkpt lat="43.1085077" lon="12.2200585"><ele>451.33333333333337</ele><time>2026-04-26T08:51:12.934Z</time></trkpt><trkpt lat="43.1084356" lon="12.2200914"><ele>454.0</ele><time>2026-04-26T08:51:16.925Z</time></trkpt><trkpt lat="43.1083704" lon="12.2200346"><ele>454.0</ele><time>2026-04-26T08:51:20.922Z</time></trkpt><trkpt lat="43.1083416" lon="12.2199561"><ele>454.00000000000006</ele><time>2026-04-26T08:51:23.923Z</time></trkpt><trkpt lat="43.1082913" lon="12.2198855"><ele>454.0</ele><time>2026-04-26T08:51:26.923Z</time></trkpt><trkpt lat="43.108235" lon="12.2198272"><ele>454.0</ele><time>2026-04-26T08:51:29.923Z</time></trkpt><trkpt lat="43.1081734" lon="12.2197788"><ele>454.00000000000006</ele><time>2026-04-26T08:51:32.933Z</time></trkpt><trkpt lat="43.108116" lon="12.2197163"><ele>454.0</ele><time>2026-04-26T08:51:36.034Z</time></trkpt><trkpt lat="43.1080635" lon="12.219654"><ele>454.0</ele><time>2026-04-26T08:51:38.934Z</time></trkpt><trkpt lat="43.1080192" lon="12.2195618"><ele>455.7142857142857</ele><time>2026-04-26T08:51:42.934Z</time></trkpt><trkpt lat="43.1079768" lon="12.2194972"><ele>457.42857142857144</ele><time>2026-04-26T08:51:45.937Z</time></trkpt><trkpt lat="43.1079319" lon="12.2194326"><ele>459.14285714285717</ele><time>2026-04-26T08:51:48.937Z</time></trkpt><trkpt lat="43.1078864" lon="12.2193669"><ele>460.8571428571429</ele><time>2026-04-26T08:51:51.937Z</time></trkpt><trkpt lat="43.1078426" lon="12.2193012"><ele>462.57142857142856</ele><time>2026-04-26T08:51:54.935Z</time></trkpt><trkpt lat="43.1078154" lon="12.2192128"><ele>464.28571428571433</ele><time>2026-04-26T08:51:57.946Z</time></trkpt><trkpt lat="43.1077853" lon="12.2191204"><ele>466.0</ele><time>2026-04-26T08:52:00.934Z</time></trkpt><trkpt lat="43.1077551" lon="12.2190208"><ele>466.50000000000006</ele><time>2026-04-26T08:52:03.936Z</time></trkpt><trkpt lat="43.1077398" lon="12.2189193"><ele>467.0</ele><time>2026-04-26T08:52:06.932Z</time></trkpt><trkpt lat="43.1077462" lon="12.2188038"><ele>467.5</ele><time>2026-04-26T08:52:09.934Z</time></trkpt><trkpt lat="43.1077633" lon="12.2186969"><ele>468.0</ele><time>2026-04-26T08:52:12.938Z</time></trkpt><trkpt lat="43.1077803" lon="12.2185929"><ele>468.50000000000006</ele><time>2026-04-26T08:52:15.935Z</time></trkpt><trkpt lat="43.1077904" lon="12.2185056"><ele>469.0</ele><time>2026-04-26T08:52:18.917Z</time></trkpt><trkpt lat="43.1077985" lon="12.2183964"><ele>469.00000000000006</ele><time>2026-04-26T08:52:21.932Z</time></trkpt><trkpt lat="43.1077739" lon="12.2182692"><ele>469.0</ele><time>2026-04-26T08:52:24.936Z</time></trkpt><trkpt lat="43.1077365" lon="12.2181922"><ele>469.0</ele><time>2026-04-26T08:52:26.937Z</time></trkpt><trkpt lat="43.1076885" lon="12.218128"><ele>469.0</ele><time>2026-04-26T08:52:28.95Z</time></trkpt><trkpt lat="43.107626" lon="12.2180395"><ele>469.00000000000006</ele><time>2026-04-26T08:52:31.936Z</time></trkpt><trkpt lat="43.1075521" lon="12.2179565"><ele>469.0</ele><time>2026-04-26T08:52:34.93Z</time></trkpt><trkpt lat="43.1075009" lon="12.2178985"><ele>470.1666666666667</ele><time>2026-04-26T08:52:36.939Z</time></trkpt><trkpt lat="43.1074544" lon="12.2178368"><ele>471.33333333333337</ele><time>2026-04-26T08:52:38.937Z</time></trkpt><trkpt lat="43.1074037" lon="12.2177797"><ele>472.5</ele><time>2026-04-26T08:52:41.044Z</time></trkpt><trkpt lat="43.1073433" lon="12.2176899"><ele>473.66666666666663</ele><time>2026-04-26T08:52:43.933Z</time></trkpt><trkpt lat="43.1072624" lon="12.2176271"><ele>474.8333333333333</ele><time>2026-04-26T08:52:46.932Z</time></trkpt><trkpt lat="43.1071826" lon="12.2175821"><ele>476.0</ele><time>2026-04-26T08:52:49.932Z</time></trkpt><trkpt lat="43.107098" lon="12.2175434"><ele>475.99999999999994</ele><time>2026-04-26T08:52:52.945Z</time></trkpt><trkpt lat="43.1070111" lon="12.2175163"><ele>476.0</ele><time>2026-04-26T08:52:55.94Z</time></trkpt><trkpt lat="43.106948" lon="12.2174824"><ele>476.0</ele><time>2026-04-26T08:52:59.038Z</time></trkpt><trkpt lat="43.1068613" lon="12.2174798"><ele>476.0</ele><time>2026-04-26T08:53:01.938Z</time></trkpt><trkpt lat="43.106798" lon="12.2174936"><ele>475.99999999999994</ele><time>2026-04-26T08:53:03.935Z</time></trkpt><trkpt lat="43.1067055" lon="12.2174998"><ele>476.0</ele><time>2026-04-26T08:53:06.938Z</time></trkpt><trkpt lat="43.1066264" lon="12.2174861"><ele>476.8333333333333</ele><time>2026-04-26T08:53:09.939Z</time></trkpt><trkpt lat="43.1065476" lon="12.2174533"><ele>477.66666666666663</ele><time>2026-04-26T08:53:12.938Z</time></trkpt><trkpt lat="43.1064699" lon="12.2174244"><ele>478.5</ele><time>2026-04-26T08:53:15.933Z</time></trkpt><trkpt lat="43.1063856" lon="12.2174062"><ele>479.33333333333337</ele><time>2026-04-26T08:53:18.935Z</time></trkpt><trkpt lat="43.1063039" lon="12.2173685"><ele>480.1666666666667</ele><time>2026-04-26T08:53:22.052Z</time></trkpt><trkpt lat="43.1062137" lon="12.217335"><ele>481.0</ele><time>2026-04-26T08:53:24.935Z</time></trkpt><trkpt lat="43.1061444" lon="12.2172926"><ele>478.6</ele><time>2026-04-26T08:53:26.94Z</time></trkpt><trkpt lat="43.1060593" lon="12.21724"><ele>476.20000000000005</ele><time>2026-04-26T08:53:28.934Z</time></trkpt><trkpt lat="43.105983" lon="12.2172004"><ele>473.79999999999995</ele><time>2026-04-26T08:53:30.938Z</time></trkpt><trkpt lat="43.1058708" lon="12.2171888"><ele>471.4</ele><time>2026-04-26T08:53:32.933Z</time></trkpt><trkpt lat="43.1057673" lon="12.2172064"><ele>469.0</ele><time>2026-04-26T08:53:34.934Z</time></trkpt><trkpt lat="43.1056873" lon="12.217258"><ele>469.33333333333337</ele><time>2026-04-26T08:53:36.933Z</time></trkpt><trkpt lat="43.105609" lon="12.2173008"><ele>469.6666666666667</ele><time>2026-04-26T08:53:38.935Z</time></trkpt><trkpt lat="43.1055336" lon="12.2173257"><ele>470.0</ele><time>2026-04-26T08:53:40.939Z</time></trkpt><trkpt lat="43.1054479" lon="12.2173381"><ele>470.33333333333337</ele><time>2026-04-26T08:53:42.938Z</time></trkpt><trkpt lat="43.1053536" lon="12.21738"><ele>470.6666666666667</ele><time>2026-04-26T08:53:44.941Z</time></trkpt><trkpt lat="43.1052574" lon="12.2173943"><ele>471.0</ele><time>2026-04-26T08:53:46.94Z</time></trkpt><trkpt lat="43.1051596" lon="12.2174026"><ele>471.0</ele><time>2026-04-26T08:53:48.935Z</time></trkpt><trkpt lat="43.1050741" lon="12.2174288"><ele>471.0</ele><time>2026-04-26T08:53:50.928Z</time></trkpt><trkpt lat="43.1049948" lon="12.2174667"><ele>471.0</ele><time>2026-04-26T08:53:52.938Z</time></trkpt><trkpt lat="43.1048988" lon="12.2175038"><ele>471.0</ele><time>2026-04-26T08:53:54.94Z</time></trkpt><trkpt lat="43.104777" lon="12.2175278"><ele>471.0</ele><time>2026-04-26T08:53:56.932Z</time></trkpt><trkpt lat="43.1046915" lon="12.2175308"><ele>470.4</ele><time>2026-04-26T08:53:57.937Z</time></trkpt><trkpt lat="43.1045101" lon="12.2176639"><ele>469.8</ele><time>2026-04-26T08:53:58.938Z</time></trkpt><trkpt lat="43.1044237" lon="12.2176787"><ele>469.19999999999993</ele><time>2026-04-26T08:54:00.942Z</time></trkpt><trkpt lat="43.1043483" lon="12.2176918"><ele>468.59999999999997</ele><time>2026-04-26T08:54:03.051Z</time></trkpt><trkpt lat="43.1042758" lon="12.2177065"><ele>468.0</ele><time>2026-04-26T08:54:04.94Z</time></trkpt><trkpt lat="43.1042071" lon="12.2177257"><ele>468.0</ele><time>2026-04-26T08:54:06.933Z</time></trkpt><trkpt lat="43.1041446" lon="12.2177583"><ele>468.00000000000006</ele><time>2026-04-26T08:54:09.046Z</time></trkpt><trkpt lat="43.1040858" lon="12.2177952"><ele>468.0</ele><time>2026-04-26T08:54:10.936Z</time></trkpt><trkpt lat="43.1040261" lon="12.2178248"><ele>468.0</ele><time>2026-04-26T08:54:12.936Z</time></trkpt><trkpt lat="43.1039568" lon="12.2178562"><ele>468.00000000000006</ele><time>2026-04-26T08:54:14.934Z</time></trkpt><trkpt lat="43.1038925" lon="12.2178777"><ele>468.0</ele><time>2026-04-26T08:54:16.916Z</time></trkpt><trkpt lat="43.1038098" lon="12.2178867"><ele>468.0</ele><time>2026-04-26T08:54:19.933Z</time></trkpt><trkpt lat="43.1037447" lon="12.2178885"><ele>468.6666666666667</ele><time>2026-04-26T08:54:21.933Z</time></trkpt><trkpt lat="43.1036513" lon="12.2178858"><ele>469.33333333333337</ele><time>2026-04-26T08:54:24.933Z</time></trkpt><trkpt lat="43.1035846" lon="12.2178824"><ele>470.0</ele><time>2026-04-26T08:54:26.932Z</time></trkpt><trkpt lat="43.1035213" lon="12.2178856"><ele>470.6666666666667</ele><time>2026-04-26T08:54:28.934Z</time></trkpt><trkpt lat="43.1034225" lon="12.217892"><ele>471.33333333333337</ele><time>2026-04-26T08:54:31.932Z</time></trkpt><trkpt lat="43.103354" lon="12.2179046"><ele>472.0</ele><time>2026-04-26T08:54:33.936Z</time></trkpt><trkpt lat="43.1032904" lon="12.2179031"><ele>472.83333333333337</ele><time>2026-04-26T08:54:35.932Z</time></trkpt><trkpt lat="43.1032087" lon="12.2179006"><ele>473.6666666666667</ele><time>2026-04-26T08:54:38.932Z</time></trkpt><trkpt lat="43.1031272" lon="12.2179032"><ele>474.5</ele><time>2026-04-26T08:54:41.937Z</time></trkpt><trkpt lat="43.1030476" lon="12.2178913"><ele>475.33333333333337</ele><time>2026-04-26T08:54:44.934Z</time></trkpt><trkpt lat="43.1029665" lon="12.217884"><ele>476.1666666666667</ele><time>2026-04-26T08:54:47.934Z</time></trkpt><trkpt lat="43.1028887" lon="12.2178997"><ele>477.0</ele><time>2026-04-26T08:54:50.933Z</time></trkpt><trkpt lat="43.102812" lon="12.2179001"><ele>477.0</ele><time>2026-04-26T08:54:53.932Z</time></trkpt><trkpt lat="43.1027413" lon="12.2178792"><ele>477.0</ele><time>2026-04-26T08:54:56.94Z</time></trkpt><trkpt lat="43.1026838" lon="12.2178175"><ele>477.0</ele><time>2026-04-26T08:54:59.922Z</time></trkpt><trkpt lat="43.1026144" lon="12.2177994"><ele>477.0</ele><time>2026-04-26T08:56:12.923Z</time></trkpt><trkpt lat="43.1025245" lon="12.2177826"><ele>477.0</ele><time>2026-04-26T08:56:16.932Z</time></trkpt><trkpt lat="43.1024597" lon="12.2177841"><ele>477.0</ele><time>2026-04-26T08:56:18.934Z</time></trkpt><trkpt lat="43.1023683" lon="12.2177769"><ele>478.8333333333333</ele><time>2026-04-26T08:56:21.931Z</time></trkpt><trkpt lat="43.1023038" lon="12.2177666"><ele>480.66666666666663</ele><time>2026-04-26T08:56:23.946Z</time></trkpt><trkpt lat="43.1022157" lon="12.2177587"><ele>482.5</ele><time>2026-04-26T08:56:26.957Z</time></trkpt><trkpt lat="43.1021208" lon="12.2177627"><ele>484.3333333333333</ele><time>2026-04-26T08:56:29.937Z</time></trkpt><trkpt lat="43.102056" lon="12.2177653"><ele>486.16666666666663</ele><time>2026-04-26T08:56:31.935Z</time></trkpt><trkpt lat="43.1019679" lon="12.2177559"><ele>488.0</ele><time>2026-04-26T08:56:34.937Z</time></trkpt><trkpt lat="43.1018743" lon="12.2177698"><ele>487.99999999999994</ele><time>2026-04-26T08:56:37.936Z</time></trkpt><trkpt lat="43.1018083" lon="12.2177565"><ele>488.0</ele><time>2026-04-26T08:56:39.937Z</time></trkpt><trkpt lat="43.1017506" lon="12.217709"><ele>487.99999999999994</ele><time>2026-04-26T08:56:41.936Z</time></trkpt><trkpt lat="43.1016989" lon="12.2176548"><ele>487.99999999999994</ele><time>2026-04-26T08:56:43.947Z</time></trkpt><trkpt lat="43.1016317" lon="12.2176266"><ele>488.0</ele><time>2026-04-26T08:56:45.921Z</time></trkpt><trkpt lat="43.1015525" lon="12.2175926"><ele>487.99999999999994</ele><time>2026-04-26T08:56:48.933Z</time></trkpt><trkpt lat="43.1014955" lon="12.2175249"><ele>487.99999999999994</ele><time>2026-04-26T08:56:51.934Z</time></trkpt><trkpt lat="43.1014308" lon="12.2174652"><ele>488.2857142857142</ele><time>2026-04-26T08:56:54.933Z</time></trkpt><trkpt lat="43.1013616" lon="12.2174026"><ele>488.57142857142856</ele><time>2026-04-26T08:56:57.935Z</time></trkpt><trkpt lat="43.1013236" lon="12.2173081"><ele>488.85714285714283</ele><time>2026-04-26T08:57:00.944Z</time></trkpt><trkpt lat="43.1012621" lon="12.2172368"><ele>489.1428571428571</ele><time>2026-04-26T08:57:04.932Z</time></trkpt><trkpt lat="43.1012133" lon="12.2171808"><ele>489.42857142857144</ele><time>2026-04-26T08:57:07.934Z</time></trkpt><trkpt lat="43.1011674" lon="12.2171213"><ele>489.7142857142857</ele><time>2026-04-26T08:57:10.936Z</time></trkpt><trkpt lat="43.1011052" lon="12.2170676"><ele>490.0</ele><time>2026-04-26T08:57:14.937Z</time></trkpt><trkpt lat="43.1010492" lon="12.2170231"><ele>490.6666666666667</ele><time>2026-04-26T08:57:17.932Z</time></trkpt><trkpt lat="43.1009735" lon="12.2169745"><ele>491.33333333333337</ele><time>2026-04-26T08:57:20.933Z</time></trkpt><trkpt lat="43.1008987" lon="12.2169233"><ele>492.0</ele><time>2026-04-26T08:57:23.933Z</time></trkpt><trkpt lat="43.1008326" lon="12.2168704"><ele>492.66666666666663</ele><time>2026-04-26T08:57:26.935Z</time></trkpt><trkpt lat="43.1007775" lon="12.2167937"><ele>493.3333333333333</ele><time>2026-04-26T08:57:29.933Z</time></trkpt><trkpt lat="43.1007059" lon="12.2167247"><ele>494.0</ele><time>2026-04-26T08:57:32.933Z</time></trkpt><trkpt lat="43.100649" lon="12.2166865"><ele>493.99999999999994</ele><time>2026-04-26T08:57:34.933Z</time></trkpt><trkpt lat="43.1005691" lon="12.2166406"><ele>494.0</ele><time>2026-04-26T08:57:37.921Z</time></trkpt><trkpt lat="43.1004831" lon="12.2166297"><ele>494.0</ele><time>2026-04-26T08:57:40.922Z</time></trkpt><trkpt lat="43.1004056" lon="12.2166312"><ele>494.0</ele><time>2026-04-26T08:57:43.937Z</time></trkpt><trkpt lat="43.1003421" lon="12.2166326"><ele>493.99999999999994</ele><time>2026-04-26T08:57:47.935Z</time></trkpt><trkpt lat="43.1002958" lon="12.2165519"><ele>494.0</ele><time>2026-04-26T08:57:53.936Z</time></trkpt><trkpt lat="43.1002059" lon="12.2165378"><ele>494.0</ele><time>2026-04-26T08:57:56.932Z</time></trkpt><trkpt lat="43.1001172" lon="12.2165389"><ele>494.0</ele><time>2026-04-26T08:57:59.935Z</time></trkpt><trkpt lat="43.1000563" lon="12.216499"><ele>494.0</ele><time>2026-04-26T08:58:02.932Z</time></trkpt><trkpt lat="43.1000244" lon="12.2164229"><ele>494.0</ele><time>2026-04-26T08:58:07.932Z</time></trkpt><trkpt lat="43.1000646" lon="12.2163555"><ele>494.0</ele><time>2026-04-26T08:58:17.931Z</time></trkpt><trkpt lat="43.1000599" lon="12.2162549"><ele>494.0</ele><time>2026-04-26T08:58:21.934Z</time></trkpt><trkpt lat="43.1000006" lon="12.2161833"><ele>494.0</ele><time>2026-04-26T08:58:24.935Z</time></trkpt><trkpt lat="43.0999369" lon="12.2161138"><ele>493.57142857142856</ele><time>2026-04-26T08:58:27.938Z</time></trkpt><trkpt lat="43.0999289" lon="12.2160148"><ele>493.1428571428571</ele><time>2026-04-26T08:58:30.939Z</time></trkpt><trkpt lat="43.0998937" lon="12.2159271"><ele>492.71428571428567</ele><time>2026-04-26T08:58:34.931Z</time></trkpt><trkpt lat="43.099833" lon="12.215885"><ele>492.2857142857143</ele><time>2026-04-26T08:58:38.932Z</time></trkpt><trkpt lat="43.0998111" lon="12.2157962"><ele>491.8571428571428</ele><time>2026-04-26T08:58:46.93Z</time></trkpt><trkpt lat="43.0998002" lon="12.215693"><ele>491.4285714285714</ele><time>2026-04-26T08:58:50.933Z</time></trkpt><trkpt lat="43.0997574" lon="12.2155934"><ele>491.0</ele><time>2026-04-26T08:58:54.945Z</time></trkpt><trkpt lat="43.0997162" lon="12.2155192"><ele>494.6</ele><time>2026-04-26T09:03:10.935Z</time></trkpt><trkpt lat="43.0996397" lon="12.2154836"><ele>498.20000000000005</ele><time>2026-04-26T09:03:13.932Z</time></trkpt><trkpt lat="43.0995561" lon="12.2154343"><ele>501.79999999999995</ele><time>2026-04-26T09:03:15.936Z</time></trkpt><trkpt lat="43.0994742" lon="12.2153924"><ele>505.4</ele><time>2026-04-26T09:03:17.931Z</time></trkpt><trkpt lat="43.0993761" lon="12.2153777"><ele>509.0</ele><time>2026-04-26T09:03:19.93Z</time></trkpt><trkpt lat="43.0992703" lon="12.2154009"><ele>508.99999999999994</ele><time>2026-04-26T09:03:21.936Z</time></trkpt><trkpt lat="43.0992029" lon="12.2154173"><ele>509.0</ele><time>2026-04-26T09:03:22.938Z</time></trkpt><trkpt lat="43.0991393" lon="12.215418"><ele>509.0</ele><time>2026-04-26T09:03:23.933Z</time></trkpt><trkpt lat="43.0990666" lon="12.2154328"><ele>509.0</ele><time>2026-04-26T09:03:24.932Z</time></trkpt><trkpt lat="43.0989952" lon="12.2154514"><ele>508.99999999999994</ele><time>2026-04-26T09:03:25.932Z</time></trkpt><trkpt lat="43.0988796" lon="12.2154662"><ele>509.0</ele><time>2026-04-26T09:03:26.931Z</time></trkpt><trkpt lat="43.0987828" lon="12.2154442"><ele>509.2</ele><time>2026-04-26T09:03:28.936Z</time></trkpt><trkpt lat="43.0986645" lon="12.2154588"><ele>509.4</ele><time>2026-04-26T09:03:30.932Z</time></trkpt><trkpt lat="43.0985879" lon="12.2154642"><ele>509.6</ele><time>2026-04-26T09:03:31.939Z</time></trkpt><trkpt lat="43.0984764" lon="12.2154946"><ele>509.8</ele><time>2026-04-26T09:03:33.935Z</time></trkpt><trkpt lat="43.0983917" lon="12.2155634"><ele>510.0</ele><time>2026-04-26T09:03:35.933Z</time></trkpt><trkpt lat="43.098298" lon="12.2156095"><ele>503.0</ele><time>2026-04-26T09:03:37.931Z</time></trkpt><trkpt lat="43.0982207" lon="12.2156925"><ele>496.0</ele><time>2026-04-26T09:03:39.948Z</time></trkpt><trkpt lat="43.098134" lon="12.2157294"><ele>489.0</ele><time>2026-04-26T09:03:41.947Z</time></trkpt><trkpt lat="43.098028" lon="12.2157433"><ele>482.0</ele><time>2026-04-26T09:03:43.93Z</time></trkpt><trkpt lat="43.0979523" lon="12.2157999"><ele>475.0</ele><time>2026-04-26T09:03:45.935Z</time></trkpt><trkpt lat="43.09787" lon="12.2158466"><ele>475.00000000000006</ele><time>2026-04-26T09:03:48.935Z</time></trkpt><trkpt lat="43.0978126" lon="12.2159142"><ele>475.0</ele><time>2026-04-26T09:03:51.929Z</time></trkpt><trkpt lat="43.0977411" lon="12.2159799"><ele>475.0</ele><time>2026-04-26T09:03:54.932Z</time></trkpt><trkpt lat="43.0976701" lon="12.2160261"><ele>475.0</ele><time>2026-04-26T09:03:57.939Z</time></trkpt><trkpt lat="43.0976016" lon="12.215949"><ele>475.00000000000006</ele><time>2026-04-26T09:04:01.039Z</time></trkpt><trkpt lat="43.0975853" lon="12.2158402"><ele>475.0</ele><time>2026-04-26T09:04:02.934Z</time></trkpt><trkpt lat="43.097575" lon="12.2157216"><ele>473.8</ele><time>2026-04-26T09:04:04.933Z</time></trkpt><trkpt lat="43.0975542" lon="12.2156057"><ele>472.6</ele><time>2026-04-26T09:04:06.932Z</time></trkpt><trkpt lat="43.0975197" lon="12.2154792"><ele>471.4</ele><time>2026-04-26T09:04:08.933Z</time></trkpt><trkpt lat="43.0974675" lon="12.215364"><ele>470.2</ele><time>2026-04-26T09:04:10.951Z</time></trkpt><trkpt lat="43.0973449" lon="12.2153166"><ele>469.0</ele><time>2026-04-26T09:04:13.03Z</time></trkpt><trkpt lat="43.0972588" lon="12.2152937"><ele>469.0</ele><time>2026-04-26T09:04:13.938Z</time></trkpt><trkpt lat="43.0971802" lon="12.2152622"><ele>469.0</ele><time>2026-04-26T09:04:14.939Z</time></trkpt><trkpt lat="43.0971169" lon="12.2152242"><ele>469.0</ele><time>2026-04-26T09:04:15.94Z</time></trkpt><trkpt lat="43.0970005" lon="12.2151833"><ele>469.0</ele><time>2026-04-26T09:04:17.933Z</time></trkpt><trkpt lat="43.0969003" lon="12.2152043"><ele>469.0</ele><time>2026-04-26T09:04:19.936Z</time></trkpt><trkpt lat="43.0968074" lon="12.2151854"><ele>469.00000000000006</ele><time>2026-04-26T09:04:21.933Z</time></trkpt><trkpt lat="43.0967268" lon="12.2151394"><ele>469.0</ele><time>2026-04-26T09:04:23.932Z</time></trkpt><trkpt lat="43.0966527" lon="12.2150768"><ele>469.0</ele><time>2026-04-26T09:04:25.932Z</time></trkpt><trkpt lat="43.0965902" lon="12.214989"><ele>469.0</ele><time>2026-04-26T09:04:27.943Z</time></trkpt><trkpt lat="43.0965353" lon="12.2149012"><ele>469.00000000000006</ele><time>2026-04-26T09:04:29.932Z</time></trkpt><trkpt lat="43.0964826" lon="12.2148284"><ele>469.0</ele><time>2026-04-26T09:04:31.937Z</time></trkpt><trkpt lat="43.0964014" lon="12.2147578"><ele>470.50000000000006</ele><time>2026-04-26T09:04:34.933Z</time></trkpt><trkpt lat="43.0963287" lon="12.2146643"><ele>472.0</ele><time>2026-04-26T09:04:37.936Z</time></trkpt><trkpt lat="43.096237" lon="12.2146091"><ele>473.5</ele><time>2026-04-26T09:04:39.933Z</time></trkpt><trkpt lat="43.0961608" lon="12.2145805"><ele>475.0</ele><time>2026-04-26T09:04:41.931Z</time></trkpt><trkpt lat="43.0960949" lon="12.2145647"><ele>476.50000000000006</ele><time>2026-04-26T09:04:43.933Z</time></trkpt><trkpt lat="43.0960307" lon="12.2145577"><ele>478.0</ele><time>2026-04-26T09:04:45.935Z</time></trkpt><trkpt lat="43.0959467" lon="12.2145459"><ele>478.0</ele><time>2026-04-26T09:04:48.93Z</time></trkpt><trkpt lat="43.0958582" lon="12.2145366"><ele>477.99999999999994</ele><time>2026-04-26T09:04:51.932Z</time></trkpt><trkpt lat="43.0957903" lon="12.2145316"><ele>477.99999999999994</ele><time>2026-04-26T09:04:53.949Z</time></trkpt><trkpt lat="43.0957131" lon="12.2145287"><ele>478.0</ele><time>2026-04-26T09:04:55.933Z</time></trkpt><trkpt lat="43.0956074" lon="12.2145379"><ele>478.0</ele><time>2026-04-26T09:04:57.933Z</time></trkpt><trkpt lat="43.0954957" lon="12.2145693"><ele>475.33333333333337</ele><time>2026-04-26T09:04:59.932Z</time></trkpt><trkpt lat="43.0953971" lon="12.2145953"><ele>472.6666666666667</ele><time>2026-04-26T09:05:01.93Z</time></trkpt><trkpt lat="43.0953047" lon="12.2146451"><ele>470.0</ele><time>2026-04-26T09:05:03.934Z</time></trkpt><trkpt lat="43.0952267" lon="12.2146685"><ele>467.33333333333337</ele><time>2026-04-26T09:05:05.927Z</time></trkpt><trkpt lat="43.0951603" lon="12.2147009"><ele>464.6666666666667</ele><time>2026-04-26T09:05:07.941Z</time></trkpt><trkpt lat="43.0950915" lon="12.2147346"><ele>462.0</ele><time>2026-04-26T09:05:09.939Z</time></trkpt><trkpt lat="43.0949706" lon="12.2147746"><ele>458.6666666666667</ele><time>2026-04-26T09:05:11.933Z</time></trkpt><trkpt lat="43.0948944" lon="12.2147982"><ele>455.33333333333337</ele><time>2026-04-26T09:05:12.937Z</time></trkpt><trkpt lat="43.0948311" lon="12.2148091"><ele>452.0</ele><time>2026-04-26T09:05:13.938Z</time></trkpt><trkpt lat="43.094755" lon="12.2147923"><ele>448.6666666666667</ele><time>2026-04-26T09:05:14.925Z</time></trkpt><trkpt lat="43.0946821" lon="12.2147635"><ele>445.33333333333337</ele><time>2026-04-26T09:05:15.941Z</time></trkpt><trkpt lat="43.0946149" lon="12.2147036"><ele>442.0</ele><time>2026-04-26T09:05:16.941Z</time></trkpt><trkpt lat="43.0945578" lon="12.2146304"><ele>442.00000000000006</ele><time>2026-04-26T09:05:17.931Z</time></trkpt><trkpt lat="43.0945143" lon="12.2145463"><ele>442.0</ele><time>2026-04-26T09:05:18.949Z</time></trkpt><trkpt lat="43.0944696" lon="12.2144506"><ele>442.0</ele><time>2026-04-26T09:05:19.933Z</time></trkpt><trkpt lat="43.0944192" lon="12.2143531"><ele>442.0</ele><time>2026-04-26T09:05:20.926Z</time></trkpt><trkpt lat="43.0943632" lon="12.2142567"><ele>442.00000000000006</ele><time>2026-04-26T09:05:21.93Z</time></trkpt><trkpt lat="43.0943126" lon="12.2141624"><ele>442.0</ele><time>2026-04-26T09:05:22.931Z</time></trkpt><trkpt lat="43.0942679" lon="12.214067"><ele>445.1666666666667</ele><time>2026-04-26T09:05:23.933Z</time></trkpt><trkpt lat="43.0942124" lon="12.2139761"><ele>448.33333333333337</ele><time>2026-04-26T09:05:24.932Z</time></trkpt><trkpt lat="43.0941425" lon="12.2138984"><ele>451.5</ele><time>2026-04-26T09:05:25.932Z</time></trkpt><trkpt lat="43.0940735" lon="12.2138478"><ele>454.66666666666663</ele><time>2026-04-26T09:05:26.929Z</time></trkpt><trkpt lat="43.0940001" lon="12.2138114"><ele>457.8333333333333</ele><time>2026-04-26T09:05:27.92Z</time></trkpt><trkpt lat="43.0939241" lon="12.2137922"><ele>461.0</ele><time>2026-04-26T09:05:28.932Z</time></trkpt><trkpt lat="43.0938477" lon="12.213778"><ele>461.16666666666663</ele><time>2026-04-26T09:05:29.945Z</time></trkpt><trkpt lat="43.0937782" lon="12.2137804"><ele>461.3333333333333</ele><time>2026-04-26T09:05:30.931Z</time></trkpt><trkpt lat="43.0937101" lon="12.2138124"><ele>461.5</ele><time>2026-04-26T09:05:31.932Z</time></trkpt><trkpt lat="43.0936626" lon="12.2138719"><ele>461.66666666666663</ele><time>2026-04-26T09:05:32.925Z</time></trkpt><trkpt lat="43.0935812" lon="12.213968"><ele>461.8333333333333</ele><time>2026-04-26T09:05:34.932Z</time></trkpt><trkpt lat="43.0935122" lon="12.2140349"><ele>462.0</ele><time>2026-04-26T09:05:36.932Z</time></trkpt><trkpt lat="43.0934451" lon="12.2141001"><ele>460.1666666666667</ele><time>2026-04-26T09:05:38.934Z</time></trkpt><trkpt lat="43.093366" lon="12.2141576"><ele>458.33333333333337</ele><time>2026-04-26T09:05:40.917Z</time></trkpt><trkpt lat="43.0932956" lon="12.2141856"><ele>456.5</ele><time>2026-04-26T09:05:42.925Z</time></trkpt><trkpt lat="43.0932097" lon="12.2142169"><ele>454.6666666666667</ele><time>2026-04-26T09:05:44.925Z</time></trkpt><trkpt lat="43.0931248" lon="12.2142581"><ele>452.83333333333337</ele><time>2026-04-26T09:05:46.919Z</time></trkpt><trkpt lat="43.0930396" lon="12.2142899"><ele>451.0</ele><time>2026-04-26T09:05:48.921Z</time></trkpt><trkpt lat="43.0929507" lon="12.2142991"><ele>451.0</ele><time>2026-04-26T09:05:50.917Z</time></trkpt><trkpt lat="43.0928465" lon="12.2143118"><ele>451.0</ele><time>2026-04-26T09:05:52.936Z</time></trkpt><trkpt lat="43.0927601" lon="12.2143608"><ele>451.0</ele><time>2026-04-26T09:05:54.92Z</time></trkpt><trkpt lat="43.0926867" lon="12.2144878"><ele>451.0</ele><time>2026-04-26T09:05:56.932Z</time></trkpt><trkpt lat="43.0926592" lon="12.2145733"><ele>451.0</ele><time>2026-04-26T09:05:57.933Z</time></trkpt><trkpt lat="43.0926337" lon="12.2146633"><ele>451.0</ele><time>2026-04-26T09:05:58.934Z</time></trkpt><trkpt lat="43.0926057" lon="12.2147593"><ele>451.0</ele><time>2026-04-26T09:05:59.932Z</time></trkpt><trkpt lat="43.0925726" lon="12.2148514"><ele>451.0</ele><time>2026-04-26T09:06:00.938Z</time></trkpt><trkpt lat="43.0925265" lon="12.2149376"><ele>451.0</ele><time>2026-04-26T09:06:01.935Z</time></trkpt><trkpt lat="43.0924821" lon="12.2150093"><ele>451.0</ele><time>2026-04-26T09:06:02.94Z</time></trkpt><trkpt lat="43.0924232" lon="12.2150642"><ele>451.0</ele><time>2026-04-26T09:06:03.935Z</time></trkpt><trkpt lat="43.0923654" lon="12.2151199"><ele>451.0</ele><time>2026-04-26T09:06:04.932Z</time></trkpt><trkpt lat="43.0923083" lon="12.2151711"><ele>447.83333333333337</ele><time>2026-04-26T09:06:05.935Z</time></trkpt><trkpt lat="43.0921953" lon="12.2151545"><ele>444.6666666666667</ele><time>2026-04-26T09:06:07.933Z</time></trkpt><trkpt lat="43.0921185" lon="12.2150753"><ele>441.5</ele><time>2026-04-26T09:06:09.931Z</time></trkpt><trkpt lat="43.092048" lon="12.2150069"><ele>438.33333333333337</ele><time>2026-04-26T09:06:11.933Z</time></trkpt><trkpt lat="43.0919842" lon="12.2149512"><ele>435.1666666666667</ele><time>2026-04-26T09:06:13.934Z</time></trkpt><trkpt lat="43.0919209" lon="12.2148966"><ele>432.0</ele><time>2026-04-26T09:06:16.023Z</time></trkpt><trkpt lat="43.091862" lon="12.2148455"><ele>431.8333333333333</ele><time>2026-04-26T09:06:17.932Z</time></trkpt><trkpt lat="43.0918084" lon="12.2147913"><ele>431.66666666666663</ele><time>2026-04-26T09:06:19.915Z</time></trkpt><trkpt lat="43.0917442" lon="12.214727"><ele>431.5</ele><time>2026-04-26T09:06:22.935Z</time></trkpt><trkpt lat="43.091668" lon="12.2146439"><ele>431.3333333333333</ele><time>2026-04-26T09:06:25.939Z</time></trkpt><trkpt lat="43.0916091" lon="12.2145678"><ele>431.16666666666663</ele><time>2026-04-26T09:06:27.932Z</time></trkpt><trkpt lat="43.0915583" lon="12.2144836"><ele>431.0</ele><time>2026-04-26T09:06:29.932Z</time></trkpt><trkpt lat="43.0915223" lon="12.2143825"><ele>430.99999999999994</ele><time>2026-04-26T09:06:31.935Z</time></trkpt><trkpt lat="43.0914885" lon="12.2142799"><ele>431.0</ele><time>2026-04-26T09:06:33.932Z</time></trkpt><trkpt lat="43.0914649" lon="12.2141906"><ele>431.0</ele><time>2026-04-26T09:06:35.931Z</time></trkpt><trkpt lat="43.0914406" lon="12.2140892"><ele>431.0</ele><time>2026-04-26T09:06:38.932Z</time></trkpt><trkpt lat="43.0914006" lon="12.2140071"><ele>430.99999999999994</ele><time>2026-04-26T09:09:10.932Z</time></trkpt><trkpt lat="43.0913094" lon="12.214013"><ele>431.0</ele><time>2026-04-26T09:09:13.932Z</time></trkpt><trkpt lat="43.0912748" lon="12.2140971"><ele>430.99999999999994</ele><time>2026-04-26T09:09:15.936Z</time></trkpt><trkpt lat="43.0912083" lon="12.2142154"><ele>431.0</ele><time>2026-04-26T09:09:17.935Z</time></trkpt><trkpt lat="43.0911419" lon="12.2142551"><ele>431.0</ele><time>2026-04-26T09:09:18.938Z</time></trkpt><trkpt lat="43.0910695" lon="12.2142916"><ele>431.0</ele><time>2026-04-26T09:09:19.936Z</time></trkpt><trkpt lat="43.0909902" lon="12.2143218"><ele>430.99999999999994</ele><time>2026-04-26T09:09:20.932Z</time></trkpt><trkpt lat="43.0909127" lon="12.2143419"><ele>431.0</ele><time>2026-04-26T09:09:21.933Z</time></trkpt><trkpt lat="43.0908284" lon="12.2143621"><ele>428.6</ele><time>2026-04-26T09:09:22.934Z</time></trkpt><trkpt lat="43.0907375" lon="12.214375"><ele>426.20000000000005</ele><time>2026-04-26T09:09:23.937Z</time></trkpt><trkpt lat="43.0906384" lon="12.214393"><ele>423.79999999999995</ele><time>2026-04-26T09:09:24.947Z</time></trkpt><trkpt lat="43.0905413" lon="12.2144109"><ele>421.4</ele><time>2026-04-26T09:09:25.933Z</time></trkpt><trkpt lat="43.090448" lon="12.2144309"><ele>419.0</ele><time>2026-04-26T09:09:26.939Z</time></trkpt><trkpt lat="43.0903586" lon="12.2144579"><ele>418.99999999999994</ele><time>2026-04-26T09:09:27.938Z</time></trkpt><trkpt lat="43.0902741" lon="12.2144795"><ele>419.0</ele><time>2026-04-26T09:09:28.932Z</time></trkpt><trkpt lat="43.0901909" lon="12.2144978"><ele>419.0</ele><time>2026-04-26T09:09:29.933Z</time></trkpt><trkpt lat="43.0901047" lon="12.2145077"><ele>419.0</ele><time>2026-04-26T09:09:30.933Z</time></trkpt><trkpt lat="43.0900195" lon="12.2145231"><ele>418.99999999999994</ele><time>2026-04-26T09:09:31.947Z</time></trkpt><trkpt lat="43.0899297" lon="12.2145451"><ele>419.0</ele><time>2026-04-26T09:09:32.939Z</time></trkpt><trkpt lat="43.0898407" lon="12.2145726"><ele>416.3333333333333</ele><time>2026-04-26T09:09:33.94Z</time></trkpt><trkpt lat="43.089755" lon="12.2145949"><ele>413.66666666666663</ele><time>2026-04-26T09:09:34.934Z</time></trkpt><trkpt lat="43.0896694" lon="12.2146187"><ele>411.0</ele><time>2026-04-26T09:09:35.933Z</time></trkpt><trkpt lat="43.0895897" lon="12.2146348"><ele>408.33333333333337</ele><time>2026-04-26T09:09:36.939Z</time></trkpt><trkpt lat="43.0895123" lon="12.214648"><ele>405.6666666666667</ele><time>2026-04-26T09:09:37.933Z</time></trkpt><trkpt lat="43.089444" lon="12.2146528"><ele>403.0</ele><time>2026-04-26T09:09:38.93Z</time></trkpt><trkpt lat="43.0893293" lon="12.2146711"><ele>403.00000000000006</ele><time>2026-04-26T09:09:40.93Z</time></trkpt><trkpt lat="43.0892385" lon="12.214776"><ele>403.0</ele><time>2026-04-26T09:09:42.934Z</time></trkpt><trkpt lat="43.0891887" lon="12.2148304"><ele>403.0</ele><time>2026-04-26T09:09:43.932Z</time></trkpt><trkpt lat="43.0891417" lon="12.2148894"><ele>403.0</ele><time>2026-04-26T09:09:44.933Z</time></trkpt><trkpt lat="43.0890934" lon="12.2149516"><ele>403.00000000000006</ele><time>2026-04-26T09:09:45.933Z</time></trkpt><trkpt lat="43.0890406" lon="12.2149988"><ele>403.0</ele><time>2026-04-26T09:09:46.933Z</time></trkpt><trkpt lat="43.0889322" lon="12.2150701"><ele>401.5</ele><time>2026-04-26T09:09:48.937Z</time></trkpt><trkpt lat="43.0888141" lon="12.2151132"><ele>400.0</ele><time>2026-04-26T09:09:50.931Z</time></trkpt><trkpt lat="43.0887495" lon="12.2151289"><ele>398.5</ele><time>2026-04-26T09:09:51.933Z</time></trkpt><trkpt lat="43.0885808" lon="12.215175"><ele>397.0</ele><time>2026-04-26T09:09:54.93Z</time></trkpt><trkpt lat="43.0884819" lon="12.2151922"><ele>397.00000000000006</ele><time>2026-04-26T09:09:56.93Z</time></trkpt><trkpt lat="43.0883702" lon="12.2152154"><ele>397.0</ele><time>2026-04-26T09:09:58.933Z</time></trkpt><trkpt lat="43.0882484" lon="12.2152542"><ele>397.0</ele><time>2026-04-26T09:10:00.931Z</time></trkpt><trkpt lat="43.0881839" lon="12.2152615"><ele>397.0</ele><time>2026-04-26T09:10:01.939Z</time></trkpt><trkpt lat="43.088112" lon="12.2152637"><ele>397.00000000000006</ele><time>2026-04-26T09:10:02.934Z</time></trkpt><trkpt lat="43.0880417" lon="12.2152687"><ele>397.0</ele><time>2026-04-26T09:10:03.921Z</time></trkpt><trkpt lat="43.0879662" lon="12.2152841"><ele>395.7142857142857</ele><time>2026-04-26T09:10:04.924Z</time></trkpt><trkpt lat="43.0878904" lon="12.2153156"><ele>394.42857142857144</ele><time>2026-04-26T09:10:05.941Z</time></trkpt><trkpt lat="43.0878266" lon="12.2153416"><ele>393.1428571428571</ele><time>2026-04-26T09:10:06.933Z</time></trkpt><trkpt lat="43.087768" lon="12.2153752"><ele>391.8571428571429</ele><time>2026-04-26T09:10:07.933Z</time></trkpt><trkpt lat="43.0877042" lon="12.2153892"><ele>390.5714285714286</ele><time>2026-04-26T09:10:08.935Z</time></trkpt><trkpt lat="43.0876385" lon="12.2154036"><ele>389.2857142857143</ele><time>2026-04-26T09:10:09.933Z</time></trkpt><trkpt lat="43.0875694" lon="12.2154117"><ele>388.0</ele><time>2026-04-26T09:10:10.921Z</time></trkpt><trkpt lat="43.0875032" lon="12.2154164"><ele>388.00000000000006</ele><time>2026-04-26T09:10:11.934Z</time></trkpt><trkpt lat="43.0874375" lon="12.2154298"><ele>388.0</ele><time>2026-04-26T09:10:12.932Z</time></trkpt><trkpt lat="43.0873712" lon="12.215428"><ele>388.0</ele><time>2026-04-26T09:10:13.936Z</time></trkpt><trkpt lat="43.0872616" lon="12.2153944"><ele>388.0</ele><time>2026-04-26T09:10:16.028Z</time></trkpt><trkpt lat="43.0871774" lon="12.2153323"><ele>388.00000000000006</ele><time>2026-04-26T09:10:17.931Z</time></trkpt><trkpt lat="43.087088" lon="12.2153693"><ele>388.0</ele><time>2026-04-26T09:10:19.924Z</time></trkpt><trkpt lat="43.0870262" lon="12.2154838"><ele>387.2</ele><time>2026-04-26T09:10:21.918Z</time></trkpt><trkpt lat="43.0869629" lon="12.2155961"><ele>386.4</ele><time>2026-04-26T09:10:23.923Z</time></trkpt><trkpt lat="43.0868709" lon="12.2156859"><ele>385.59999999999997</ele><time>2026-04-26T09:10:25.921Z</time></trkpt><trkpt lat="43.0867805" lon="12.2157619"><ele>384.79999999999995</ele><time>2026-04-26T09:10:27.933Z</time></trkpt><trkpt lat="43.0867038" lon="12.2158499"><ele>384.0</ele><time>2026-04-26T09:10:29.924Z</time></trkpt><trkpt lat="43.0866511" lon="12.2159428"><ele>384.0</ele><time>2026-04-26T09:10:31.926Z</time></trkpt><trkpt lat="43.0866197" lon="12.2160583"><ele>384.0</ele><time>2026-04-26T09:10:33.921Z</time></trkpt><trkpt lat="43.0865855" lon="12.2161832"><ele>384.0</ele><time>2026-04-26T09:10:35.923Z</time></trkpt><trkpt lat="43.0865487" lon="12.2163082"><ele>384.0</ele><time>2026-04-26T09:10:37.932Z</time></trkpt><trkpt lat="43.0865007" lon="12.2164396"><ele>384.0</ele><time>2026-04-26T09:10:39.932Z</time></trkpt><trkpt lat="43.0864595" lon="12.21657"><ele>384.75</ele><time>2026-04-26T09:10:41.932Z</time></trkpt><trkpt lat="43.0864108" lon="12.2167218"><ele>385.5</ele><time>2026-04-26T09:10:43.932Z</time></trkpt><trkpt lat="43.0863513" lon="12.2168529"><ele>386.25</ele><time>2026-04-26T09:10:45.929Z</time></trkpt><trkpt lat="43.0863047" lon="12.2169844"><ele>387.0</ele><time>2026-04-26T09:10:47.932Z</time></trkpt><trkpt lat="43.0862757" lon="12.2171454"><ele>387.0</ele><time>2026-04-26T09:10:50.03Z</time></trkpt><trkpt lat="43.0862354" lon="12.2172224"><ele>387.0</ele><time>2026-04-26T09:10:50.936Z</time></trkpt><trkpt lat="43.0861821" lon="12.2173698"><ele>387.0</ele><time>2026-04-26T09:10:52.936Z</time></trkpt><trkpt lat="43.0860971" lon="12.2174801"><ele>387.0</ele><time>2026-04-26T09:10:54.939Z</time></trkpt><trkpt lat="43.0860359" lon="12.2175213"><ele>387.0</ele><time>2026-04-26T09:10:56.036Z</time></trkpt><trkpt lat="43.0859413" lon="12.2176177"><ele>385.1666666666667</ele><time>2026-04-26T09:10:57.937Z</time></trkpt><trkpt lat="43.0858841" lon="12.2176606"><ele>383.3333333333333</ele><time>2026-04-26T09:10:58.932Z</time></trkpt><trkpt lat="43.0858269" lon="12.2176982"><ele>381.5</ele><time>2026-04-26T09:10:59.928Z</time></trkpt><trkpt lat="43.0857669" lon="12.217725"><ele>379.66666666666663</ele><time>2026-04-26T09:11:00.929Z</time></trkpt><trkpt lat="43.0856709" lon="12.2178124"><ele>377.8333333333333</ele><time>2026-04-26T09:11:02.932Z</time></trkpt><trkpt lat="43.0855862" lon="12.2178926"><ele>376.0</ele><time>2026-04-26T09:11:04.938Z</time></trkpt><trkpt lat="43.0854988" lon="12.2179596"><ele>373.4</ele><time>2026-04-26T09:11:06.948Z</time></trkpt><trkpt lat="43.0853731" lon="12.2179957"><ele>370.8</ele><time>2026-04-26T09:11:09.931Z</time></trkpt><trkpt lat="43.0852762" lon="12.2180249"><ele>368.2</ele><time>2026-04-26T09:11:11.932Z</time></trkpt><trkpt lat="43.0852342" lon="12.2180984"><ele>365.59999999999997</ele><time>2026-04-26T09:11:16.942Z</time></trkpt><trkpt lat="43.0852764" lon="12.2181697"><ele>363.0</ele><time>2026-04-26T09:12:43.93Z</time></trkpt><trkpt lat="43.0853466" lon="12.2182622"><ele>363.0</ele><time>2026-04-26T09:12:46.929Z</time></trkpt><trkpt lat="43.0854017" lon="12.2183352"><ele>363.0</ele><time>2026-04-26T09:12:48.931Z</time></trkpt><trkpt lat="43.0854524" lon="12.2184105"><ele>363.0</ele><time>2026-04-26T09:12:50.94Z</time></trkpt><trkpt lat="43.0855119" lon="12.2184851"><ele>363.0</ele><time>2026-04-26T09:12:52.94Z</time></trkpt><trkpt lat="43.0855824" lon="12.2185463"><ele>363.0</ele><time>2026-04-26T09:12:54.933Z</time></trkpt><trkpt lat="43.0856595" lon="12.2186049"><ele>363.0</ele><time>2026-04-26T09:12:56.933Z</time></trkpt><trkpt lat="43.0857391" lon="12.2186708"><ele>363.0</ele><time>2026-04-26T09:12:58.93Z</time></trkpt><trkpt lat="43.085816" lon="12.218714"><ele>363.0</ele><time>2026-04-26T09:13:00.929Z</time></trkpt><trkpt lat="43.0858837" lon="12.2187546"><ele>363.0</ele><time>2026-04-26T09:13:02.934Z</time></trkpt><trkpt lat="43.0859431" lon="12.2188195"><ele>363.0</ele><time>2026-04-26T09:13:04.932Z</time></trkpt><trkpt lat="43.0859981" lon="12.2189383"><ele>363.0</ele><time>2026-04-26T09:13:06.93Z</time></trkpt><trkpt lat="43.0860408" lon="12.2191436"><ele>363.0</ele><time>2026-04-26T09:13:08.935Z</time></trkpt><trkpt lat="43.0861173" lon="12.2192655"><ele>363.0</ele><time>2026-04-26T09:13:10.949Z</time></trkpt><trkpt lat="43.0861901" lon="12.2193729"><ele>363.0</ele><time>2026-04-26T09:13:12.934Z</time></trkpt><trkpt lat="43.0861974" lon="12.2194776"><ele>363.0</ele><time>2026-04-26T09:13:14.932Z</time></trkpt><trkpt lat="43.0861787" lon="12.2196152"><ele>363.0</ele><time>2026-04-26T09:13:16.931Z</time></trkpt><trkpt lat="43.0861553" lon="12.2197555"><ele>362.99999999999994</ele><time>2026-04-26T09:13:18.928Z</time></trkpt><trkpt lat="43.0861193" lon="12.2198419"><ele>363.0</ele><time>2026-04-26T09:13:21.931Z</time></trkpt><trkpt lat="43.0860866" lon="12.219923"><ele>363.0</ele><time>2026-04-26T09:13:23.933Z</time></trkpt><trkpt lat="43.0861483" lon="12.220033"><ele>363.0</ele><time>2026-04-26T09:13:39.932Z</time></trkpt><trkpt lat="43.0861005" lon="12.2200948"><ele>363.0</ele><time>2026-04-26T09:13:45.931Z</time></trkpt><trkpt lat="43.0860907" lon="12.2201861"><ele>362.99999999999994</ele><time>2026-04-26T09:13:47.934Z</time></trkpt><trkpt lat="43.0860998" lon="12.2202772"><ele>363.0</ele><time>2026-04-26T09:13:48.931Z</time></trkpt><trkpt lat="43.0860984" lon="12.2203797"><ele>363.0</ele><time>2026-04-26T09:13:50.935Z</time></trkpt><trkpt lat="43.0861028" lon="12.2204922"><ele>363.0</ele><time>2026-04-26T09:13:52.936Z</time></trkpt><trkpt lat="43.0860507" lon="12.2205813"><ele>363.0</ele><time>2026-04-26T09:13:54.931Z</time></trkpt><trkpt lat="43.086003" lon="12.2206922"><ele>363.0</ele><time>2026-04-26T09:13:56.932Z</time></trkpt><trkpt lat="43.0859624" lon="12.22081"><ele>363.0</ele><time>2026-04-26T09:13:58.919Z</time></trkpt><trkpt lat="43.0859113" lon="12.2209371"><ele>364.25</ele><time>2026-04-26T09:14:00.936Z</time></trkpt><trkpt lat="43.0858413" lon="12.2210691"><ele>365.5</ele><time>2026-04-26T09:14:02.931Z</time></trkpt><trkpt lat="43.0857689" lon="12.2211692"><ele>366.75</ele><time>2026-04-26T09:14:04.933Z</time></trkpt><trkpt lat="43.0856806" lon="12.2212042"><ele>368.0</ele><time>2026-04-26T09:14:05.932Z</time></trkpt><trkpt lat="43.0855612" lon="12.2213192"><ele>368.0</ele><time>2026-04-26T09:14:07.94Z</time></trkpt><trkpt lat="43.0854618" lon="12.2214354"><ele>368.0</ele><time>2026-04-26T09:14:09.929Z</time></trkpt><trkpt lat="43.085388" lon="12.2215407"><ele>368.0</ele><time>2026-04-26T09:14:11.932Z</time></trkpt><trkpt lat="43.0853302" lon="12.2216428"><ele>368.0</ele><time>2026-04-26T09:14:13.92Z</time></trkpt><trkpt lat="43.085295" lon="12.2218001"><ele>365.1666666666667</ele><time>2026-04-26T09:14:15.931Z</time></trkpt><trkpt lat="43.0852939" lon="12.2218982"><ele>362.33333333333337</ele><time>2026-04-26T09:14:16.929Z</time></trkpt><trkpt lat="43.0852994" lon="12.2219938"><ele>359.5</ele><time>2026-04-26T09:14:18.053Z</time></trkpt><trkpt lat="43.085271" lon="12.2221448"><ele>356.6666666666667</ele><time>2026-04-26T09:14:19.931Z</time></trkpt><trkpt lat="43.0852839" lon="12.2222652"><ele>353.8333333333333</ele><time>2026-04-26T09:14:22.931Z</time></trkpt><trkpt lat="43.085297" lon="12.2223677"><ele>351.0</ele><time>2026-04-26T09:14:25.919Z</time></trkpt><trkpt lat="43.0853235" lon="12.2224719"><ele>348.6</ele><time>2026-04-26T09:14:27.934Z</time></trkpt><trkpt lat="43.0853382" lon="12.2225828"><ele>346.20000000000005</ele><time>2026-04-26T09:14:29.927Z</time></trkpt><trkpt lat="43.0853667" lon="12.2227023"><ele>343.79999999999995</ele><time>2026-04-26T09:14:31.933Z</time></trkpt><trkpt lat="43.0853993" lon="12.2228543"><ele>341.4</ele><time>2026-04-26T09:14:33.935Z</time></trkpt><trkpt lat="43.0854416" lon="12.2229701"><ele>339.0</ele><time>2026-04-26T09:14:36.03Z</time></trkpt><trkpt lat="43.0854848" lon="12.2230415"><ele>339.0</ele><time>2026-04-26T09:14:36.931Z</time></trkpt><trkpt lat="43.0855315" lon="12.2231229"><ele>339.0</ele><time>2026-04-26T09:14:37.935Z</time></trkpt><trkpt lat="43.0855909" lon="12.2231626"><ele>339.0</ele><time>2026-04-26T09:14:38.92Z</time></trkpt><trkpt lat="43.0856303" lon="12.2232595"><ele>339.0</ele><time>2026-04-26T09:14:40.929Z</time></trkpt><trkpt lat="43.0856205" lon="12.2234025"><ele>339.0</ele><time>2026-04-26T09:14:42.945Z</time></trkpt><trkpt lat="43.0855811" lon="12.2235035"><ele>339.0</ele><time>2026-04-26T09:14:43.927Z</time></trkpt><trkpt lat="43.0855265" lon="12.2236456"><ele>337.0</ele><time>2026-04-26T09:14:45.923Z</time></trkpt><trkpt lat="43.0854844" lon="12.2237691"><ele>335.0</ele><time>2026-04-26T09:14:47.916Z</time></trkpt><trkpt lat="43.0854478" lon="12.2238934"><ele>333.0</ele><time>2026-04-26T09:14:49.917Z</time></trkpt><trkpt lat="43.0853611" lon="12.2239627"><ele>331.0</ele><time>2026-04-26T09:14:51.924Z</time></trkpt><trkpt lat="43.0852988" lon="12.2240511"><ele>329.0</ele><time>2026-04-26T09:14:53.915Z</time></trkpt><trkpt lat="43.085254" lon="12.2241542"><ele>326.4</ele><time>2026-04-26T09:14:55.92Z</time></trkpt><trkpt lat="43.0852146" lon="12.2242701"><ele>323.79999999999995</ele><time>2026-04-26T09:14:57.921Z</time></trkpt><trkpt lat="43.0852093" lon="12.2244259"><ele>321.20000000000005</ele><time>2026-04-26T09:14:59.931Z</time></trkpt><trkpt lat="43.0852278" lon="12.2245204"><ele>318.6</ele><time>2026-04-26T09:15:00.916Z</time></trkpt><trkpt lat="43.0852041" lon="12.22463"><ele>316.0</ele><time>2026-04-26T09:15:02.933Z</time></trkpt><trkpt lat="43.0852266" lon="12.2247486"><ele>314.16666666666663</ele><time>2026-04-26T09:15:04.931Z</time></trkpt><trkpt lat="43.0852509" lon="12.224845"><ele>312.3333333333333</ele><time>2026-04-26T09:15:06.934Z</time></trkpt><trkpt lat="43.0852786" lon="12.2249403"><ele>310.5</ele><time>2026-04-26T09:15:08.932Z</time></trkpt><trkpt lat="43.0852906" lon="12.2250607"><ele>308.6666666666667</ele><time>2026-04-26T09:15:11.93Z</time></trkpt><trkpt lat="43.0853112" lon="12.2251422"><ele>306.83333333333337</ele><time>2026-04-26T09:15:13.932Z</time></trkpt><trkpt lat="43.0852835" lon="12.2252722"><ele>305.0</ele><time>2026-04-26T09:15:16.93Z</time></trkpt><trkpt lat="43.0852753" lon="12.225367"><ele>305.0</ele><time>2026-04-26T09:15:18.924Z</time></trkpt><trkpt lat="43.0853199" lon="12.2254442"><ele>305.0</ele><time>2026-04-26T09:15:20.929Z</time></trkpt><trkpt lat="43.0853313" lon="12.2255525"><ele>305.0</ele><time>2026-04-26T09:15:23.934Z</time></trkpt><trkpt lat="43.0852697" lon="12.225621"><ele>305.0</ele><time>2026-04-26T09:15:26.933Z</time></trkpt><trkpt lat="43.0852341" lon="12.2257101"><ele>305.0</ele><time>2026-04-26T09:15:29.934Z</time></trkpt><trkpt lat="43.0851892" lon="12.2258025"><ele>305.0</ele><time>2026-04-26T09:15:31.934Z</time></trkpt><trkpt lat="43.0851339" lon="12.2258586"><ele>302.2</ele><time>2026-04-26T09:15:33.931Z</time></trkpt><trkpt lat="43.0850915" lon="12.2259482"><ele>299.4</ele><time>2026-04-26T09:15:37.936Z</time></trkpt><trkpt lat="43.0850922" lon="12.2260707"><ele>296.6</ele><time>2026-04-26T09:15:39.93Z</time></trkpt><trkpt lat="43.0850791" lon="12.226202"><ele>293.8</ele><time>2026-04-26T09:15:41.933Z</time></trkpt><trkpt lat="43.0850512" lon="12.2263451"><ele>291.0</ele><time>2026-04-26T09:15:43.934Z</time></trkpt><trkpt lat="43.0850482" lon="12.2264841"><ele>288.5</ele><time>2026-04-26T09:15:45.931Z</time></trkpt><trkpt lat="43.0850521" lon="12.2265999"><ele>286.0</ele><time>2026-04-26T09:15:47.936Z</time></trkpt><trkpt lat="43.0850458" lon="12.2267214"><ele>283.5</ele><time>2026-04-26T09:15:49.931Z</time></trkpt><trkpt lat="43.0850267" lon="12.2268323"><ele>281.0</ele><time>2026-04-26T09:15:51.933Z</time></trkpt><trkpt lat="43.0850325" lon="12.2269478"><ele>278.5</ele><time>2026-04-26T09:15:53.932Z</time></trkpt><trkpt lat="43.0850644" lon="12.2270809"><ele>276.0</ele><time>2026-04-26T09:15:55.915Z</time></trkpt><trkpt lat="43.0850889" lon="12.2272407"><ele>274.5</ele><time>2026-04-26T09:15:57.927Z</time></trkpt><trkpt lat="43.085092" lon="12.227337"><ele>273.0</ele><time>2026-04-26T09:15:58.928Z</time></trkpt><trkpt lat="43.0850982" lon="12.2274401"><ele>271.5</ele><time>2026-04-26T09:15:59.931Z</time></trkpt><trkpt lat="43.0851264" lon="12.2275628"><ele>270.0</ele><time>2026-04-26T09:16:00.932Z</time></trkpt><trkpt lat="43.0851608" lon="12.2276802"><ele>268.5</ele><time>2026-04-26T09:16:01.932Z</time></trkpt><trkpt lat="43.0851936" lon="12.2278063"><ele>267.0</ele><time>2026-04-26T09:16:02.932Z</time></trkpt><trkpt lat="43.0852155" lon="12.2279365"><ele>267.0</ele><time>2026-04-26T09:16:03.939Z</time></trkpt><trkpt lat="43.0852304" lon="12.2280674"><ele>267.0</ele><time>2026-04-26T09:16:04.927Z</time></trkpt><trkpt lat="43.0852583" lon="12.2282002"><ele>267.0</ele><time>2026-04-26T09:16:05.925Z</time></trkpt><trkpt lat="43.0853008" lon="12.2283259"><ele>267.0</ele><time>2026-04-26T09:16:06.941Z</time></trkpt><trkpt lat="43.0853449" lon="12.2284398"><ele>267.0</ele><time>2026-04-26T09:16:07.936Z</time></trkpt><trkpt lat="43.0853963" lon="12.2285414"><ele>266.8333333333333</ele><time>2026-04-26T09:16:08.948Z</time></trkpt><trkpt lat="43.0854511" lon="12.2286205"><ele>266.6666666666667</ele><time>2026-04-26T09:16:09.932Z</time></trkpt><trkpt lat="43.0855061" lon="12.2286889"><ele>266.5</ele><time>2026-04-26T09:16:10.92Z</time></trkpt><trkpt lat="43.0855531" lon="12.2287469"><ele>266.33333333333337</ele><time>2026-04-26T09:16:11.935Z</time></trkpt><trkpt lat="43.0856343" lon="12.2288593"><ele>266.1666666666667</ele><time>2026-04-26T09:16:13.93Z</time></trkpt><trkpt lat="43.0856935" lon="12.2289632"><ele>266.0</ele><time>2026-04-26T09:16:15.919Z</time></trkpt><trkpt lat="43.0857282" lon="12.2290436"><ele>266.0</ele><time>2026-04-26T09:16:18.031Z</time></trkpt><trkpt lat="43.085758" lon="12.2291621"><ele>266.0</ele><time>2026-04-26T09:16:20.921Z</time></trkpt><trkpt lat="43.0857836" lon="12.2292696"><ele>266.0</ele><time>2026-04-26T09:16:23.928Z</time></trkpt><trkpt lat="43.085808" lon="12.2293618"><ele>266.0</ele><time>2026-04-26T09:16:26.935Z</time></trkpt><trkpt lat="43.0858456" lon="12.2294529"><ele>266.0</ele><time>2026-04-26T09:18:40.032Z</time></trkpt><trkpt lat="43.0858687" lon="12.2295374"><ele>266.0</ele><time>2026-04-26T09:18:42.931Z</time></trkpt><trkpt lat="43.0858873" lon="12.2296248"><ele>263.8</ele><time>2026-04-26T09:18:44.934Z</time></trkpt><trkpt lat="43.0859141" lon="12.2297338"><ele>261.6</ele><time>2026-04-26T09:18:46.932Z</time></trkpt><trkpt lat="43.0859394" lon="12.2298507"><ele>259.4</ele><time>2026-04-26T09:18:48.929Z</time></trkpt><trkpt lat="43.085981" lon="12.2299646"><ele>257.2</ele><time>2026-04-26T09:18:50.946Z</time></trkpt><trkpt lat="43.0860864" lon="12.2300383"><ele>255.0</ele><time>2026-04-26T09:18:52.932Z</time></trkpt><trkpt lat="43.0861591" lon="12.230046"><ele>254.66666666666666</ele><time>2026-04-26T09:18:53.928Z</time></trkpt><trkpt lat="43.0862306" lon="12.2300442"><ele>254.33333333333331</ele><time>2026-04-26T09:18:54.931Z</time></trkpt><trkpt lat="43.0863059" lon="12.2300255"><ele>254.0</ele><time>2026-04-26T09:18:55.937Z</time></trkpt><trkpt lat="43.0863824" lon="12.2300118"><ele>253.66666666666666</ele><time>2026-04-26T09:18:56.931Z</time></trkpt><trkpt lat="43.086463" lon="12.2300101"><ele>253.33333333333331</ele><time>2026-04-26T09:18:57.932Z</time></trkpt><trkpt lat="43.0865449" lon="12.2300338"><ele>253.0</ele><time>2026-04-26T09:18:58.93Z</time></trkpt><trkpt lat="43.0866197" lon="12.2300735"><ele>251.99999999999997</ele><time>2026-04-26T09:18:59.929Z</time></trkpt><trkpt lat="43.0866865" lon="12.2301408"><ele>251.0</ele><time>2026-04-26T09:19:00.938Z</time></trkpt><trkpt lat="43.086736" lon="12.2302155"><ele>250.0</ele><time>2026-04-26T09:19:01.929Z</time></trkpt><trkpt lat="43.0867721" lon="12.2302939"><ele>249.0</ele><time>2026-04-26T09:19:02.932Z</time></trkpt><trkpt lat="43.0867994" lon="12.2303747"><ele>247.99999999999997</ele><time>2026-04-26T09:19:03.93Z</time></trkpt><trkpt lat="43.0868362" lon="12.2305313"><ele>247.0</ele><time>2026-04-26T09:19:05.924Z</time></trkpt><trkpt lat="43.0868559" lon="12.2306158"><ele>246.8</ele><time>2026-04-26T09:19:06.934Z</time></trkpt><trkpt lat="43.0868945" lon="12.2307757"><ele>246.6</ele><time>2026-04-26T09:19:08.934Z</time></trkpt><trkpt lat="43.0869167" lon="12.230859"><ele>246.40000000000003</ele><time>2026-04-26T09:19:09.929Z</time></trkpt><trkpt lat="43.0869453" lon="12.2309362"><ele>246.20000000000002</ele><time>2026-04-26T09:19:10.942Z</time></trkpt><trkpt lat="43.086982" lon="12.2310216"><ele>246.0</ele><time>2026-04-26T09:19:11.931Z</time></trkpt><trkpt lat="43.0870368" lon="12.2311823"><ele>246.0</ele><time>2026-04-26T09:19:13.934Z</time></trkpt><trkpt lat="43.0870853" lon="12.2313308"><ele>246.00000000000003</ele><time>2026-04-26T09:19:15.927Z</time></trkpt><trkpt lat="43.0871177" lon="12.2314048"><ele>246.00000000000003</ele><time>2026-04-26T09:19:16.934Z</time></trkpt><trkpt lat="43.0871627" lon="12.2315534"><ele>246.0</ele><time>2026-04-26T09:19:18.93Z</time></trkpt><trkpt lat="43.0872112" lon="12.2316959"><ele>246.0</ele><time>2026-04-26T09:19:20.932Z</time></trkpt><trkpt lat="43.0872589" lon="12.2318339"><ele>246.25</ele><time>2026-04-26T09:19:22.932Z</time></trkpt><trkpt lat="43.0873114" lon="12.2319685"><ele>246.5</ele><time>2026-04-26T09:19:24.932Z</time></trkpt><trkpt lat="43.0873585" lon="12.2321061"><ele>246.75</ele><time>2026-04-26T09:19:26.93Z</time></trkpt><trkpt lat="43.0874103" lon="12.2322507"><ele>247.0</ele><time>2026-04-26T09:19:28.929Z</time></trkpt><trkpt lat="43.087464" lon="12.2323906"><ele>246.16666666666666</ele><time>2026-04-26T09:19:30.931Z</time></trkpt><trkpt lat="43.0875293" lon="12.2325327"><ele>245.33333333333331</ele><time>2026-04-26T09:19:32.916Z</time></trkpt><trkpt lat="43.0875628" lon="12.2326118"><ele>244.5</ele><time>2026-04-26T09:19:33.915Z</time></trkpt><trkpt lat="43.0875907" lon="12.2326896"><ele>243.66666666666669</ele><time>2026-04-26T09:19:34.933Z</time></trkpt><trkpt lat="43.0876216" lon="12.2327674"><ele>242.83333333333334</ele><time>2026-04-26T09:19:35.932Z</time></trkpt><trkpt lat="43.0876789" lon="12.23292"><ele>242.0</ele><time>2026-04-26T09:19:37.916Z</time></trkpt><trkpt lat="43.0877338" lon="12.2330743"><ele>241.7142857142857</ele><time>2026-04-26T09:19:40.011Z</time></trkpt><trkpt lat="43.0877664" lon="12.2331638"><ele>241.4285714285714</ele><time>2026-04-26T09:19:40.917Z</time></trkpt><trkpt lat="43.0877996" lon="12.2332534"><ele>241.14285714285714</ele><time>2026-04-26T09:19:41.914Z</time></trkpt><trkpt lat="43.087838" lon="12.2333355"><ele>240.85714285714283</ele><time>2026-04-26T09:19:42.921Z</time></trkpt><trkpt lat="43.0878774" lon="12.233418"><ele>240.57142857142856</ele><time>2026-04-26T09:19:43.916Z</time></trkpt><trkpt lat="43.0879214" lon="12.233496"><ele>240.28571428571428</ele><time>2026-04-26T09:19:44.917Z</time></trkpt><trkpt lat="43.0879774" lon="12.233555"><ele>240.0</ele><time>2026-04-26T09:19:45.918Z</time></trkpt><trkpt lat="43.0880357" lon="12.2336056"><ele>240.0</ele><time>2026-04-26T09:19:46.921Z</time></trkpt><trkpt lat="43.0880853" lon="12.233672"><ele>240.0</ele><time>2026-04-26T09:19:47.933Z</time></trkpt><trkpt lat="43.0881269" lon="12.2338261"><ele>240.0</ele><time>2026-04-26T09:19:49.931Z</time></trkpt><trkpt lat="43.0882026" lon="12.2339303"><ele>240.0</ele><time>2026-04-26T09:19:51.931Z</time></trkpt><trkpt lat="43.0883109" lon="12.2338895"><ele>240.0</ele><time>2026-04-26T09:19:53.936Z</time></trkpt><trkpt lat="43.0883933" lon="12.23381"><ele>239.6</ele><time>2026-04-26T09:19:55.933Z</time></trkpt><trkpt lat="43.088474" lon="12.2337279"><ele>239.2</ele><time>2026-04-26T09:19:57.93Z</time></trkpt><trkpt lat="43.088555" lon="12.2336594"><ele>238.8</ele><time>2026-04-26T09:19:59.933Z</time></trkpt><trkpt lat="43.0886438" lon="12.2336187"><ele>238.4</ele><time>2026-04-26T09:20:01.933Z</time></trkpt><trkpt lat="43.0887352" lon="12.2336386"><ele>238.0</ele><time>2026-04-26T09:20:04.019Z</time></trkpt><trkpt lat="43.0888153" lon="12.2337036"><ele>238.0</ele><time>2026-04-26T09:20:05.94Z</time></trkpt><trkpt lat="43.0888976" lon="12.2337772"><ele>238.0</ele><time>2026-04-26T09:20:07.931Z</time></trkpt><trkpt lat="43.0889705" lon="12.233863"><ele>238.0</ele><time>2026-04-26T09:20:09.929Z</time></trkpt><trkpt lat="43.0890362" lon="12.2339517"><ele>238.0</ele><time>2026-04-26T09:20:11.931Z</time></trkpt><trkpt lat="43.0891087" lon="12.2340339"><ele>238.0</ele><time>2026-04-26T09:20:13.928Z</time></trkpt><trkpt lat="43.0891738" lon="12.2341147"><ele>238.49999999999997</ele><time>2026-04-26T09:20:16.037Z</time></trkpt><trkpt lat="43.08923" lon="12.234196"><ele>239.0</ele><time>2026-04-26T09:20:17.938Z</time></trkpt><trkpt lat="43.0892935" lon="12.2342747"><ele>239.5</ele><time>2026-04-26T09:20:19.931Z</time></trkpt><trkpt lat="43.08935" lon="12.2343646"><ele>240.0</ele><time>2026-04-26T09:20:21.93Z</time></trkpt><trkpt lat="43.0894086" lon="12.2344562"><ele>240.49999999999997</ele><time>2026-04-26T09:20:23.929Z</time></trkpt><trkpt lat="43.0894725" lon="12.2345428"><ele>241.0</ele><time>2026-04-26T09:20:25.915Z</time></trkpt><trkpt lat="43.0895385" lon="12.2346299"><ele>241.0</ele><time>2026-04-26T09:20:27.935Z</time></trkpt><trkpt lat="43.0896227" lon="12.2347243"><ele>241.00000000000003</ele><time>2026-04-26T09:20:29.939Z</time></trkpt><trkpt lat="43.089699" lon="12.2348138"><ele>241.00000000000003</ele><time>2026-04-26T09:20:31.926Z</time></trkpt><trkpt lat="43.0897842" lon="12.2349128"><ele>241.0</ele><time>2026-04-26T09:20:33.936Z</time></trkpt><trkpt lat="43.0898453" lon="12.2350153"><ele>241.0</ele><time>2026-04-26T09:20:35.937Z</time></trkpt><trkpt lat="43.0898916" lon="12.235142"><ele>241.0</ele><time>2026-04-26T09:20:37.929Z</time></trkpt><trkpt lat="43.0899176" lon="12.2352744"><ele>241.00000000000003</ele><time>2026-04-26T09:20:39.949Z</time></trkpt><trkpt lat="43.0899361" lon="12.2354151"><ele>241.00000000000003</ele><time>2026-04-26T09:20:41.929Z</time></trkpt><trkpt lat="43.0899591" lon="12.2355674"><ele>241.0</ele><time>2026-04-26T09:20:43.927Z</time></trkpt><trkpt lat="43.089978" lon="12.2357171"><ele>241.0</ele><time>2026-04-26T09:20:45.93Z</time></trkpt><trkpt lat="43.0900019" lon="12.2358639"><ele>240.4</ele><time>2026-04-26T09:20:47.934Z</time></trkpt><trkpt lat="43.0900272" lon="12.2360196"><ele>239.8</ele><time>2026-04-26T09:20:49.933Z</time></trkpt><trkpt lat="43.0900489" lon="12.2361634"><ele>239.20000000000002</ele><time>2026-04-26T09:20:51.935Z</time></trkpt><trkpt lat="43.0900731" lon="12.2363063"><ele>238.60000000000002</ele><time>2026-04-26T09:20:53.932Z</time></trkpt><trkpt lat="43.0900929" lon="12.236448"><ele>238.0</ele><time>2026-04-26T09:20:55.931Z</time></trkpt><trkpt lat="43.0901102" lon="12.2366013"><ele>237.8</ele><time>2026-04-26T09:20:57.931Z</time></trkpt><trkpt lat="43.0901306" lon="12.2367477"><ele>237.60000000000002</ele><time>2026-04-26T09:20:59.933Z</time></trkpt><trkpt lat="43.0901484" lon="12.2369025"><ele>237.39999999999998</ele><time>2026-04-26T09:21:01.932Z</time></trkpt><trkpt lat="43.0901582" lon="12.2370487"><ele>237.2</ele><time>2026-04-26T09:21:03.932Z</time></trkpt><trkpt lat="43.0901634" lon="12.2371789"><ele>237.0</ele><time>2026-04-26T09:21:05.934Z</time></trkpt><trkpt lat="43.0901541" lon="12.2372672"><ele>236.83333333333334</ele><time>2026-04-26T09:21:08.052Z</time></trkpt><trkpt lat="43.0901514" lon="12.2373877"><ele>236.66666666666669</ele><time>2026-04-26T09:21:10.929Z</time></trkpt><trkpt lat="43.0901214" lon="12.2374804"><ele>236.5</ele><time>2026-04-26T09:21:13.932Z</time></trkpt><trkpt lat="43.0900522" lon="12.2375068"><ele>236.33333333333334</ele><time>2026-04-26T09:21:28.931Z</time></trkpt><trkpt lat="43.0899977" lon="12.2375668"><ele>236.16666666666669</ele><time>2026-04-26T09:21:31.93Z</time></trkpt><trkpt lat="43.0899354" lon="12.2376357"><ele>236.0</ele><time>2026-04-26T09:21:34.93Z</time></trkpt><trkpt lat="43.0898845" lon="12.2377024"><ele>235.85714285714283</ele><time>2026-04-26T09:21:38.032Z</time></trkpt><trkpt lat="43.0898358" lon="12.2377795"><ele>235.71428571428572</ele><time>2026-04-26T09:21:41.925Z</time></trkpt><trkpt lat="43.0897843" lon="12.237853"><ele>235.57142857142856</ele><time>2026-04-26T09:21:45.931Z</time></trkpt><trkpt lat="43.0897244" lon="12.2379155"><ele>235.42857142857142</ele><time>2026-04-26T09:21:48.933Z</time></trkpt><trkpt lat="43.0896754" lon="12.2379733"><ele>235.28571428571428</ele><time>2026-04-26T09:21:51.933Z</time></trkpt><trkpt lat="43.089622" lon="12.2380257"><ele>235.14285714285714</ele><time>2026-04-26T09:21:54.932Z</time></trkpt><trkpt lat="43.0895639" lon="12.2380854"><ele>235.0</ele><time>2026-04-26T09:21:57.931Z</time></trkpt><trkpt lat="43.0895076" lon="12.2381464"><ele>234.83333333333331</ele><time>2026-04-26T09:22:00.933Z</time></trkpt><trkpt lat="43.0894508" lon="12.238216"><ele>234.66666666666666</ele><time>2026-04-26T09:22:03.934Z</time></trkpt><trkpt lat="43.0893824" lon="12.2382892"><ele>234.5</ele><time>2026-04-26T09:22:06.935Z</time></trkpt><trkpt lat="43.0893142" lon="12.2383558"><ele>234.33333333333331</ele><time>2026-04-26T09:22:09.932Z</time></trkpt><trkpt lat="43.0892447" lon="12.2384296"><ele>234.16666666666666</ele><time>2026-04-26T09:22:12.932Z</time></trkpt><trkpt lat="43.0891729" lon="12.2385134"><ele>234.0</ele><time>2026-04-26T09:22:15.932Z</time></trkpt><trkpt lat="43.0890962" lon="12.2385819"><ele>233.66666666666666</ele><time>2026-04-26T09:22:18.93Z</time></trkpt><trkpt lat="43.0890129" lon="12.2386468"><ele>233.33333333333331</ele><time>2026-04-26T09:22:21.928Z</time></trkpt><trkpt lat="43.0889427" lon="12.2386837"><ele>233.0</ele><time>2026-04-26T09:22:23.925Z</time></trkpt><trkpt lat="43.088872" lon="12.238728"><ele>232.66666666666666</ele><time>2026-04-26T09:22:25.928Z</time></trkpt><trkpt lat="43.0888024" lon="12.2387626"><ele>232.33333333333331</ele><time>2026-04-26T09:22:27.932Z</time></trkpt><trkpt lat="43.0887218" lon="12.2387974"><ele>232.0</ele><time>2026-04-26T09:22:29.931Z</time></trkpt><trkpt lat="43.0886353" lon="12.2388309"><ele>232.0</ele><time>2026-04-26T09:22:31.934Z</time></trkpt><trkpt lat="43.0885385" lon="12.2388662"><ele>232.0</ele><time>2026-04-26T09:22:33.939Z</time></trkpt><trkpt lat="43.088447" lon="12.2389009"><ele>232.0</ele><time>2026-04-26T09:22:35.929Z</time></trkpt><trkpt lat="43.0883598" lon="12.2389414"><ele>232.0</ele><time>2026-04-26T09:22:37.931Z</time></trkpt><trkpt lat="43.0882759" lon="12.2389789"><ele>232.0</ele><time>2026-04-26T09:22:39.933Z</time></trkpt><trkpt lat="43.0881958" lon="12.2390078"><ele>231.66666666666666</ele><time>2026-04-26T09:22:41.931Z</time></trkpt><trkpt lat="43.088128" lon="12.2390385"><ele>231.33333333333331</ele><time>2026-04-26T09:22:43.93Z</time></trkpt><trkpt lat="43.0880533" lon="12.2390732"><ele>231.0</ele><time>2026-04-26T09:22:45.927Z</time></trkpt><trkpt lat="43.087972" lon="12.2391017"><ele>230.66666666666669</ele><time>2026-04-26T09:22:47.936Z</time></trkpt><trkpt lat="43.0878931" lon="12.2391364"><ele>230.33333333333334</ele><time>2026-04-26T09:22:50.03Z</time></trkpt><trkpt lat="43.0878208" lon="12.2391987"><ele>230.0</ele><time>2026-04-26T09:22:51.929Z</time></trkpt><trkpt lat="43.0877585" lon="12.2392948"><ele>230.00000000000003</ele><time>2026-04-26T09:22:53.928Z</time></trkpt><trkpt lat="43.0877103" lon="12.2394026"><ele>230.0</ele><time>2026-04-26T09:22:55.934Z</time></trkpt><trkpt lat="43.087674" lon="12.2395103"><ele>230.0</ele><time>2026-04-26T09:22:57.95Z</time></trkpt><trkpt lat="43.0876591" lon="12.2396327"><ele>230.0</ele><time>2026-04-26T09:22:59.928Z</time></trkpt><trkpt lat="43.0876691" lon="12.2397531"><ele>230.00000000000003</ele><time>2026-04-26T09:23:01.926Z</time></trkpt><trkpt lat="43.087688" lon="12.2398684"><ele>230.0</ele><time>2026-04-26T09:23:03.933Z</time></trkpt><trkpt lat="43.087711" lon="12.2399853"><ele>230.16666666666669</ele><time>2026-04-26T09:23:05.932Z</time></trkpt><trkpt lat="43.0877383" lon="12.240102"><ele>230.33333333333334</ele><time>2026-04-26T09:23:07.93Z</time></trkpt><trkpt lat="43.0877617" lon="12.2402199"><ele>230.5</ele><time>2026-04-26T09:23:09.928Z</time></trkpt><trkpt lat="43.0877842" lon="12.2403369"><ele>230.66666666666669</ele><time>2026-04-26T09:23:12.027Z</time></trkpt><trkpt lat="43.0878078" lon="12.2404529"><ele>230.83333333333334</ele><time>2026-04-26T09:23:13.929Z</time></trkpt><trkpt lat="43.0878338" lon="12.240564"><ele>231.0</ele><time>2026-04-26T09:23:15.931Z</time></trkpt><trkpt lat="43.0878588" lon="12.2406775"><ele>231.16666666666666</ele><time>2026-04-26T09:23:17.925Z</time></trkpt><trkpt lat="43.0878839" lon="12.2407882"><ele>231.33333333333331</ele><time>2026-04-26T09:23:19.931Z</time></trkpt><trkpt lat="43.0879067" lon="12.240903"><ele>231.5</ele><time>2026-04-26T09:23:21.934Z</time></trkpt><trkpt lat="43.087927" lon="12.2410149"><ele>231.66666666666666</ele><time>2026-04-26T09:23:23.932Z</time></trkpt><trkpt lat="43.0879489" lon="12.2411249"><ele>231.83333333333331</ele><time>2026-04-26T09:23:25.935Z</time></trkpt><trkpt lat="43.0879613" lon="12.2412157"><ele>232.0</ele><time>2026-04-26T09:23:27.94Z</time></trkpt><trkpt lat="43.0879766" lon="12.2413333"><ele>232.0</ele><time>2026-04-26T09:23:30.938Z</time></trkpt><trkpt lat="43.0879968" lon="12.2414342"><ele>232.0</ele><time>2026-04-26T09:23:32.934Z</time></trkpt><trkpt lat="43.0880245" lon="12.2415569"><ele>232.0</ele><time>2026-04-26T09:23:34.932Z</time></trkpt><trkpt lat="43.0880525" lon="12.2416865"><ele>232.0</ele><time>2026-04-26T09:23:36.93Z</time></trkpt><trkpt lat="43.0880765" lon="12.2418139"><ele>232.0</ele><time>2026-04-26T09:23:38.937Z</time></trkpt><trkpt lat="43.0881019" lon="12.2419272"><ele>231.83333333333331</ele><time>2026-04-26T09:23:40.933Z</time></trkpt><trkpt lat="43.0881307" lon="12.2420344"><ele>231.66666666666666</ele><time>2026-04-26T09:23:42.932Z</time></trkpt><trkpt lat="43.0881623" lon="12.242146"><ele>231.5</ele><time>2026-04-26T09:23:44.939Z</time></trkpt><trkpt lat="43.0881857" lon="12.2422518"><ele>231.33333333333331</ele><time>2026-04-26T09:23:46.937Z</time></trkpt><trkpt lat="43.0882086" lon="12.242351"><ele>231.16666666666666</ele><time>2026-04-26T09:23:48.933Z</time></trkpt><trkpt lat="43.0882281" lon="12.2424486"><ele>231.0</ele><time>2026-04-26T09:23:50.923Z</time></trkpt><trkpt lat="43.088247" lon="12.2425429"><ele>230.83333333333334</ele><time>2026-04-26T09:23:52.927Z</time></trkpt><trkpt lat="43.0882677" lon="12.2426352"><ele>230.66666666666669</ele><time>2026-04-26T09:23:54.935Z</time></trkpt><trkpt lat="43.0882872" lon="12.2427264"><ele>230.5</ele><time>2026-04-26T09:23:56.924Z</time></trkpt><trkpt lat="43.088307" lon="12.2428113"><ele>230.33333333333334</ele><time>2026-04-26T09:23:58.93Z</time></trkpt><trkpt lat="43.0883305" lon="12.2429319"><ele>230.16666666666669</ele><time>2026-04-26T09:24:01.933Z</time></trkpt><trkpt lat="43.088301" lon="12.2430135"><ele>230.0</ele><time>2026-04-26T09:24:04.917Z</time></trkpt><trkpt lat="43.0882127" lon="12.2430104"><ele>230.00000000000003</ele><time>2026-04-26T09:24:07.911Z</time></trkpt><trkpt lat="43.0881419" lon="12.2429908"><ele>230.0</ele><time>2026-04-26T09:24:09.935Z</time></trkpt><trkpt lat="43.0880671" lon="12.242963"><ele>230.0</ele><time>2026-04-26T09:24:12.018Z</time></trkpt><trkpt lat="43.0879956" lon="12.2429464"><ele>230.0</ele><time>2026-04-26T09:24:13.913Z</time></trkpt><trkpt lat="43.0879313" lon="12.2429346"><ele>230.00000000000003</ele><time>2026-04-26T09:24:15.916Z</time></trkpt><trkpt lat="43.0878395" lon="12.2429071"><ele>230.0</ele><time>2026-04-26T09:24:18.925Z</time></trkpt><trkpt lat="43.0877714" lon="12.2428931"><ele>229.99999999999997</ele><time>2026-04-26T09:24:20.923Z</time></trkpt><trkpt lat="43.0877028" lon="12.2428737"><ele>230.0</ele><time>2026-04-26T09:24:22.915Z</time></trkpt><trkpt lat="43.0876308" lon="12.242855"><ele>229.99999999999997</ele><time>2026-04-26T09:24:24.911Z</time></trkpt><trkpt lat="43.0875564" lon="12.2428399"><ele>229.99999999999997</ele><time>2026-04-26T09:24:26.911Z</time></trkpt><trkpt lat="43.0874848" lon="12.2428194"><ele>230.0</ele><time>2026-04-26T09:24:28.921Z</time></trkpt><trkpt lat="43.087414" lon="12.2428043"><ele>229.99999999999997</ele><time>2026-04-26T09:24:30.915Z</time></trkpt><trkpt lat="43.0873467" lon="12.2427817"><ele>229.99999999999997</ele><time>2026-04-26T09:24:32.922Z</time></trkpt><trkpt lat="43.0872757" lon="12.242761"><ele>230.28571428571425</ele><time>2026-04-26T09:24:35.016Z</time></trkpt><trkpt lat="43.0872053" lon="12.2427478"><ele>230.57142857142856</ele><time>2026-04-26T09:24:36.934Z</time></trkpt><trkpt lat="43.0871321" lon="12.2427317"><ele>230.85714285714286</ele><time>2026-04-26T09:24:38.931Z</time></trkpt><trkpt lat="43.0870583" lon="12.2427128"><ele>231.14285714285714</ele><time>2026-04-26T09:24:40.915Z</time></trkpt><trkpt lat="43.0869846" lon="12.2426966"><ele>231.42857142857144</ele><time>2026-04-26T09:24:42.938Z</time></trkpt><trkpt lat="43.0869131" lon="12.2426747"><ele>231.71428571428575</ele><time>2026-04-26T09:24:44.937Z</time></trkpt><trkpt lat="43.0868411" lon="12.2426518"><ele>232.00000000000003</ele><time>2026-04-26T09:24:46.932Z</time></trkpt><trkpt lat="43.0867682" lon="12.2426492"><ele>231.99999999999997</ele><time>2026-04-26T09:24:48.93Z</time></trkpt><trkpt lat="43.0867038" lon="12.2426953"><ele>232.0</ele><time>2026-04-26T09:24:50.927Z</time></trkpt><trkpt lat="43.086674" lon="12.2427861"><ele>232.0</ele><time>2026-04-26T09:24:52.931Z</time></trkpt><trkpt lat="43.0866636" lon="12.2428935"><ele>232.0</ele><time>2026-04-26T09:24:54.937Z</time></trkpt><trkpt lat="43.0866457" lon="12.242998"><ele>231.99999999999997</ele><time>2026-04-26T09:24:56.933Z</time></trkpt><trkpt lat="43.0866339" lon="12.2431105"><ele>232.0</ele><time>2026-04-26T09:24:58.931Z</time></trkpt><trkpt lat="43.086623" lon="12.2432196"><ele>231.99999999999997</ele><time>2026-04-26T09:25:00.929Z</time></trkpt><trkpt lat="43.0866145" lon="12.24333"><ele>232.0</ele><time>2026-04-26T09:25:02.929Z</time></trkpt><trkpt lat="43.0866004" lon="12.2434886"><ele>232.0</ele><time>2026-04-26T09:25:05.932Z</time></trkpt><trkpt lat="43.0865891" lon="12.2435871"><ele>232.0</ele><time>2026-04-26T09:25:07.932Z</time></trkpt><trkpt lat="43.0865888" lon="12.2436869"><ele>231.99999999999997</ele><time>2026-04-26T09:25:09.931Z</time></trkpt><trkpt lat="43.0865854" lon="12.2437895"><ele>232.0</ele><time>2026-04-26T09:25:11.933Z</time></trkpt><trkpt lat="43.0865486" lon="12.2438847"><ele>232.00000000000003</ele><time>2026-04-26T09:25:13.93Z</time></trkpt><trkpt lat="43.0865013" lon="12.2439628"><ele>232.0</ele><time>2026-04-26T09:25:15.933Z</time></trkpt><trkpt lat="43.0864509" lon="12.2440354"><ele>232.00000000000003</ele><time>2026-04-26T09:25:17.933Z</time></trkpt><trkpt lat="43.0863952" lon="12.2440766"><ele>232.00000000000003</ele><time>2026-04-26T09:25:19.933Z</time></trkpt><trkpt lat="43.0863279" lon="12.2440965"><ele>232.0</ele><time>2026-04-26T09:25:21.929Z</time></trkpt><trkpt lat="43.0862597" lon="12.2441059"><ele>232.00000000000003</ele><time>2026-04-26T09:25:23.928Z</time></trkpt><trkpt lat="43.0861913" lon="12.2441089"><ele>232.00000000000003</ele><time>2026-04-26T09:25:25.918Z</time></trkpt><trkpt lat="43.0861233" lon="12.2441108"><ele>232.00000000000003</ele><time>2026-04-26T09:25:27.93Z</time></trkpt><trkpt lat="43.0860546" lon="12.2441125"><ele>232.0</ele><time>2026-04-26T09:25:29.931Z</time></trkpt><trkpt lat="43.0859857" lon="12.2441134"><ele>232.00000000000003</ele><time>2026-04-26T09:25:31.932Z</time></trkpt><trkpt lat="43.0859198" lon="12.2441159"><ele>232.00000000000003</ele><time>2026-04-26T09:25:33.932Z</time></trkpt><trkpt lat="43.0858535" lon="12.2441201"><ele>232.0</ele><time>2026-04-26T09:25:35.931Z</time></trkpt><trkpt lat="43.0857894" lon="12.2441214"><ele>232.00000000000003</ele><time>2026-04-26T09:25:37.934Z</time></trkpt><trkpt lat="43.0857175" lon="12.2441206"><ele>232.00000000000003</ele><time>2026-04-26T09:25:39.931Z</time></trkpt><trkpt lat="43.0856447" lon="12.2441227"><ele>233.66666666666666</ele><time>2026-04-26T09:25:41.931Z</time></trkpt><trkpt lat="43.0855761" lon="12.2441315"><ele>235.33333333333331</ele><time>2026-04-26T09:25:43.932Z</time></trkpt><trkpt lat="43.0855109" lon="12.2441378"><ele>237.0</ele><time>2026-04-26T09:25:45.932Z</time></trkpt><trkpt lat="43.0854212" lon="12.2441425"><ele>238.66666666666669</ele><time>2026-04-26T09:25:48.932Z</time></trkpt><trkpt lat="43.0853332" lon="12.2441392"><ele>240.33333333333334</ele><time>2026-04-26T09:25:51.933Z</time></trkpt><trkpt lat="43.0852507" lon="12.244152"><ele>242.0</ele><time>2026-04-26T09:25:54.933Z</time></trkpt><trkpt lat="43.0851667" lon="12.2441479"><ele>242.00000000000003</ele><time>2026-04-26T09:25:57.93Z</time></trkpt><trkpt lat="43.0850854" lon="12.2441353"><ele>242.0</ele><time>2026-04-26T09:26:00.933Z</time></trkpt><trkpt lat="43.0850097" lon="12.2441236"><ele>242.0</ele><time>2026-04-26T09:26:03.932Z</time></trkpt><trkpt lat="43.0849323" lon="12.2441246"><ele>242.0</ele><time>2026-04-26T09:26:06.932Z</time></trkpt><trkpt lat="43.0848555" lon="12.2441261"><ele>242.00000000000003</ele><time>2026-04-26T09:26:09.932Z</time></trkpt><trkpt lat="43.0847779" lon="12.2441351"><ele>242.0</ele><time>2026-04-26T09:26:12.929Z</time></trkpt><trkpt lat="43.0847028" lon="12.244156"><ele>243.33333333333334</ele><time>2026-04-26T09:26:15.932Z</time></trkpt><trkpt lat="43.0846286" lon="12.244195"><ele>244.66666666666669</ele><time>2026-04-26T09:26:18.933Z</time></trkpt><trkpt lat="43.084558" lon="12.2442492"><ele>246.0</ele><time>2026-04-26T09:26:21.934Z</time></trkpt><trkpt lat="43.0844872" lon="12.2443067"><ele>247.33333333333331</ele><time>2026-04-26T09:26:24.932Z</time></trkpt><trkpt lat="43.0844209" lon="12.2443668"><ele>248.66666666666666</ele><time>2026-04-26T09:26:27.937Z</time></trkpt><trkpt lat="43.0843545" lon="12.2444294"><ele>250.0</ele><time>2026-04-26T09:26:30.914Z</time></trkpt><trkpt lat="43.0842951" lon="12.2444788"><ele>249.99999999999997</ele><time>2026-04-26T09:26:33.931Z</time></trkpt><trkpt lat="43.0842332" lon="12.2445334"><ele>250.0</ele><time>2026-04-26T09:26:37.014Z</time></trkpt><trkpt lat="43.0841709" lon="12.2446076"><ele>250.0</ele><time>2026-04-26T09:26:39.932Z</time></trkpt><trkpt lat="43.0841045" lon="12.2446913"><ele>250.0</ele><time>2026-04-26T09:26:43.028Z</time></trkpt><trkpt lat="43.0840439" lon="12.2447672"><ele>249.99999999999997</ele><time>2026-04-26T09:26:45.932Z</time></trkpt><trkpt lat="43.083983" lon="12.2448468"><ele>250.0</ele><time>2026-04-26T09:26:48.923Z</time></trkpt><trkpt lat="43.0839279" lon="12.2449115"><ele>252.33333333333331</ele><time>2026-04-26T09:26:51.914Z</time></trkpt><trkpt lat="43.0838648" lon="12.2449802"><ele>254.66666666666666</ele><time>2026-04-26T09:26:54.928Z</time></trkpt><trkpt lat="43.083801" lon="12.2450389"><ele>257.0</ele><time>2026-04-26T09:26:57.932Z</time></trkpt><trkpt lat="43.0837396" lon="12.2450991"><ele>259.3333333333333</ele><time>2026-04-26T09:27:00.925Z</time></trkpt><trkpt lat="43.0836892" lon="12.2451789"><ele>261.6666666666667</ele><time>2026-04-26T09:27:03.932Z</time></trkpt><trkpt lat="43.0836435" lon="12.2452625"><ele>264.0</ele><time>2026-04-26T09:27:06.921Z</time></trkpt><trkpt lat="43.0835903" lon="12.2453415"><ele>264.0</ele><time>2026-04-26T09:27:09.934Z</time></trkpt><trkpt lat="43.083532" lon="12.2454106"><ele>264.0</ele><time>2026-04-26T09:27:12.931Z</time></trkpt><trkpt lat="43.0834584" lon="12.2454708"><ele>264.0</ele><time>2026-04-26T09:27:15.936Z</time></trkpt><trkpt lat="43.0833793" lon="12.2455037"><ele>264.0</ele><time>2026-04-26T09:27:18.932Z</time></trkpt><trkpt lat="43.0832979" lon="12.2455244"><ele>264.0</ele><time>2026-04-26T09:27:21.919Z</time></trkpt><trkpt lat="43.0832109" lon="12.2455343"><ele>264.0</ele><time>2026-04-26T09:27:24.932Z</time></trkpt><trkpt lat="43.0831257" lon="12.2455206"><ele>264.5</ele><time>2026-04-26T09:27:27.932Z</time></trkpt><trkpt lat="43.0830413" lon="12.2454908"><ele>265.0</ele><time>2026-04-26T09:27:30.939Z</time></trkpt><trkpt lat="43.0829636" lon="12.2454699"><ele>265.5</ele><time>2026-04-26T09:27:33.915Z</time></trkpt><trkpt lat="43.0828811" lon="12.2454808"><ele>266.0</ele><time>2026-04-26T09:27:36.913Z</time></trkpt><trkpt lat="43.0828074" lon="12.2455317"><ele>266.5</ele><time>2026-04-26T09:27:39.934Z</time></trkpt><trkpt lat="43.0827404" lon="12.245608"><ele>267.0</ele><time>2026-04-26T09:27:42.929Z</time></trkpt><trkpt lat="43.0826913" lon="12.2456997"><ele>268.6666666666667</ele><time>2026-04-26T09:27:45.931Z</time></trkpt><trkpt lat="43.082648" lon="12.245793"><ele>270.3333333333333</ele><time>2026-04-26T09:27:48.938Z</time></trkpt><trkpt lat="43.0825974" lon="12.2458795"><ele>272.0</ele><time>2026-04-26T09:27:51.932Z</time></trkpt><trkpt lat="43.0825502" lon="12.2459819"><ele>273.66666666666663</ele><time>2026-04-26T09:27:54.928Z</time></trkpt><trkpt lat="43.0824955" lon="12.2460493"><ele>275.3333333333333</ele><time>2026-04-26T09:27:57.927Z</time></trkpt><trkpt lat="43.082428" lon="12.2460805"><ele>277.0</ele><time>2026-04-26T09:28:00.931Z</time></trkpt><trkpt lat="43.082353" lon="12.2460766"><ele>278.7142857142857</ele><time>2026-04-26T09:28:03.93Z</time></trkpt><trkpt lat="43.082276" lon="12.2460682"><ele>280.4285714285714</ele><time>2026-04-26T09:28:06.93Z</time></trkpt><trkpt lat="43.0822074" lon="12.2460608"><ele>282.1428571428571</ele><time>2026-04-26T09:28:09.928Z</time></trkpt><trkpt lat="43.0821261" lon="12.246081"><ele>283.85714285714283</ele><time>2026-04-26T09:28:13.933Z</time></trkpt><trkpt lat="43.0820672" lon="12.2461193"><ele>285.57142857142856</ele><time>2026-04-26T09:28:16.932Z</time></trkpt><trkpt lat="43.0819931" lon="12.2461553"><ele>287.2857142857143</ele><time>2026-04-26T09:28:20.932Z</time></trkpt><trkpt lat="43.0819351" lon="12.2462016"><ele>289.0</ele><time>2026-04-26T09:28:23.912Z</time></trkpt><trkpt lat="43.0818718" lon="12.2462409"><ele>289.0</ele><time>2026-04-26T09:28:26.933Z</time></trkpt><trkpt lat="43.0818066" lon="12.2462787"><ele>289.0</ele><time>2026-04-26T09:28:29.939Z</time></trkpt><trkpt lat="43.0817254" lon="12.2463026"><ele>289.0</ele><time>2026-04-26T09:28:33.916Z</time></trkpt><trkpt lat="43.0816458" lon="12.246323"><ele>289.0</ele><time>2026-04-26T09:28:37.931Z</time></trkpt><trkpt lat="43.0815775" lon="12.2463419"><ele>289.0</ele><time>2026-04-26T09:28:41.929Z</time></trkpt><trkpt lat="43.0815901" lon="12.2464294"><ele>289.0</ele><time>2026-04-26T09:28:45.924Z</time></trkpt><trkpt lat="43.0816604" lon="12.2465026"><ele>291.0</ele><time>2026-04-26T09:28:49.909Z</time></trkpt><trkpt lat="43.0816928" lon="12.2465836"><ele>293.0</ele><time>2026-04-26T09:28:52.942Z</time></trkpt><trkpt lat="43.0817221" lon="12.2466762"><ele>295.0</ele><time>2026-04-26T09:28:55.932Z</time></trkpt><trkpt lat="43.0817401" lon="12.2467743"><ele>297.0</ele><time>2026-04-26T09:28:59.032Z</time></trkpt><trkpt lat="43.0817642" lon="12.2468836"><ele>299.0</ele><time>2026-04-26T09:29:02.93Z</time></trkpt><trkpt lat="43.0817644" lon="12.2469715"><ele>301.0</ele><time>2026-04-26T09:29:05.937Z</time></trkpt><trkpt lat="43.0817672" lon="12.2470723"><ele>303.0</ele><time>2026-04-26T09:29:08.92Z</time></trkpt><trkpt lat="43.0817529" lon="12.2471637"><ele>303.0</ele><time>2026-04-26T09:29:12.939Z</time></trkpt><trkpt lat="43.0817427" lon="12.2472569"><ele>303.0</ele><time>2026-04-26T09:29:15.917Z</time></trkpt><trkpt lat="43.0817231" lon="12.2473547"><ele>303.0</ele><time>2026-04-26T09:29:18.916Z</time></trkpt><trkpt lat="43.0817048" lon="12.2474548"><ele>303.0</ele><time>2026-04-26T09:29:21.916Z</time></trkpt><trkpt lat="43.0816718" lon="12.2475679"><ele>303.0</ele><time>2026-04-26T09:29:25.915Z</time></trkpt><trkpt lat="43.0816607" lon="12.2477296"><ele>303.0</ele><time>2026-04-26T09:29:30.917Z</time></trkpt><trkpt lat="43.0816666" lon="12.247849"><ele>304.3333333333333</ele><time>2026-04-26T09:29:33.925Z</time></trkpt><trkpt lat="43.0816589" lon="12.247972"><ele>305.6666666666667</ele><time>2026-04-26T09:29:36.927Z</time></trkpt><trkpt lat="43.0816459" lon="12.2480869"><ele>307.0</ele><time>2026-04-26T09:29:39.928Z</time></trkpt><trkpt lat="43.0816305" lon="12.2481947"><ele>308.33333333333337</ele><time>2026-04-26T09:29:42.928Z</time></trkpt><trkpt lat="43.0816144" lon="12.2482937"><ele>309.6666666666667</ele><time>2026-04-26T09:29:44.929Z</time></trkpt><trkpt lat="43.0815788" lon="12.248382"><ele>311.0</ele><time>2026-04-26T09:29:46.925Z</time></trkpt><trkpt lat="43.0815271" lon="12.2484443"><ele>315.33333333333337</ele><time>2026-04-26T09:29:48.919Z</time></trkpt><trkpt lat="43.0814921" lon="12.2485205"><ele>319.6666666666667</ele><time>2026-04-26T09:29:50.929Z</time></trkpt><trkpt lat="43.0814918" lon="12.2486237"><ele>324.0</ele><time>2026-04-26T09:29:52.929Z</time></trkpt><trkpt lat="43.0815147" lon="12.2487157"><ele>328.3333333333333</ele><time>2026-04-26T09:29:54.931Z</time></trkpt><trkpt lat="43.081529" lon="12.2488018"><ele>332.66666666666663</ele><time>2026-04-26T09:29:56.93Z</time></trkpt><trkpt lat="43.08158" lon="12.2489004"><ele>337.0</ele><time>2026-04-26T09:29:58.933Z</time></trkpt><trkpt lat="43.0815943" lon="12.2490173"><ele>333.5</ele><time>2026-04-26T09:30:00.915Z</time></trkpt><trkpt lat="43.0816341" lon="12.2491422"><ele>330.0</ele><time>2026-04-26T09:30:02.932Z</time></trkpt><trkpt lat="43.0816698" lon="12.2492303"><ele>326.5</ele><time>2026-04-26T09:30:03.933Z</time></trkpt><trkpt lat="43.081675" lon="12.2493531"><ele>323.0</ele><time>2026-04-26T09:30:04.925Z</time></trkpt><trkpt lat="43.0816734" lon="12.2495068"><ele>319.5</ele><time>2026-04-26T09:30:06.934Z</time></trkpt><trkpt lat="43.0816732" lon="12.2496057"><ele>316.0</ele><time>2026-04-26T09:30:07.932Z</time></trkpt><trkpt lat="43.0816786" lon="12.2497737"><ele>316.3333333333333</ele><time>2026-04-26T09:30:09.926Z</time></trkpt><trkpt lat="43.0817312" lon="12.2498809"><ele>316.66666666666663</ele><time>2026-04-26T09:30:11.931Z</time></trkpt><trkpt lat="43.0817729" lon="12.2499849"><ele>317.0</ele><time>2026-04-26T09:30:13.931Z</time></trkpt><trkpt lat="43.0818197" lon="12.2500627"><ele>317.3333333333333</ele><time>2026-04-26T09:30:15.913Z</time></trkpt><trkpt lat="43.0818353" lon="12.2501765"><ele>317.6666666666667</ele><time>2026-04-26T09:30:17.936Z</time></trkpt><trkpt lat="43.0818888" lon="12.2502569"><ele>318.0</ele><time>2026-04-26T09:30:19.928Z</time></trkpt><trkpt lat="43.0819273" lon="12.2503443"><ele>318.0</ele><time>2026-04-26T09:30:21.924Z</time></trkpt><trkpt lat="43.081956" lon="12.2504263"><ele>318.0</ele><time>2026-04-26T09:30:23.929Z</time></trkpt><trkpt lat="43.0819749" lon="12.2505093"><ele>318.0</ele><time>2026-04-26T09:30:25.929Z</time></trkpt><trkpt lat="43.0819925" lon="12.250593"><ele>318.0</ele><time>2026-04-26T09:30:27.907Z</time></trkpt><trkpt lat="43.082022" lon="12.2506709"><ele>318.0</ele><time>2026-04-26T09:30:29.931Z</time></trkpt><trkpt lat="43.0820371" lon="12.2507615"><ele>318.0</ele><time>2026-04-26T09:30:31.93Z</time></trkpt><trkpt lat="43.0820133" lon="12.2508522"><ele>318.0</ele><time>2026-04-26T09:30:33.928Z</time></trkpt><trkpt lat="43.0819651" lon="12.250942"><ele>317.75</ele><time>2026-04-26T09:30:35.933Z</time></trkpt><trkpt lat="43.0819143" lon="12.2510185"><ele>317.5</ele><time>2026-04-26T09:30:37.932Z</time></trkpt><trkpt lat="43.0818553" lon="12.2510876"><ele>317.25</ele><time>2026-04-26T09:30:39.931Z</time></trkpt><trkpt lat="43.0817134" lon="12.251296"><ele>317.0</ele><time>2026-04-26T09:30:40.93Z</time></trkpt><trkpt lat="43.0816329" lon="12.2514213"><ele>318.0</ele><time>2026-04-26T09:30:42.937Z</time></trkpt><trkpt lat="43.0815768" lon="12.2515589"><ele>319.0</ele><time>2026-04-26T09:30:44.935Z</time></trkpt><trkpt lat="43.0815245" lon="12.2516908"><ele>320.0</ele><time>2026-04-26T09:30:46.934Z</time></trkpt><trkpt lat="43.0814841" lon="12.251798"><ele>321.0</ele><time>2026-04-26T09:30:48.936Z</time></trkpt><trkpt lat="43.0814776" lon="12.2519156"><ele>322.0</ele><time>2026-04-26T09:30:50.937Z</time></trkpt><trkpt lat="43.0814778" lon="12.252026"><ele>322.0</ele><time>2026-04-26T09:30:52.933Z</time></trkpt><trkpt lat="43.081484" lon="12.2521282"><ele>322.0</ele><time>2026-04-26T09:30:54.94Z</time></trkpt><trkpt lat="43.0814866" lon="12.252226"><ele>322.0</ele><time>2026-04-26T09:30:56.932Z</time></trkpt><trkpt lat="43.0814976" lon="12.2523123"><ele>322.0</ele><time>2026-04-26T09:30:58.931Z</time></trkpt><trkpt lat="43.0815103" lon="12.2524059"><ele>322.0</ele><time>2026-04-26T09:31:00.932Z</time></trkpt><trkpt lat="43.0815201" lon="12.2525097"><ele>322.0</ele><time>2026-04-26T09:31:03.019Z</time></trkpt><trkpt lat="43.0815302" lon="12.2526151"><ele>322.0</ele><time>2026-04-26T09:31:04.934Z</time></trkpt><trkpt lat="43.0815418" lon="12.2527213"><ele>320.20000000000005</ele><time>2026-04-26T09:31:06.933Z</time></trkpt><trkpt lat="43.0815472" lon="12.2528362"><ele>318.40000000000003</ele><time>2026-04-26T09:31:08.932Z</time></trkpt><trkpt lat="43.0815387" lon="12.2529524"><ele>316.6</ele><time>2026-04-26T09:31:10.932Z</time></trkpt><trkpt lat="43.0814921" lon="12.2530667"><ele>314.8</ele><time>2026-04-26T09:31:12.932Z</time></trkpt><trkpt lat="43.0814135" lon="12.2531459"><ele>313.0</ele><time>2026-04-26T09:31:14.932Z</time></trkpt><trkpt lat="43.0813302" lon="12.2532036"><ele>311.66666666666663</ele><time>2026-04-26T09:31:16.932Z</time></trkpt><trkpt lat="43.0812252" lon="12.2532253"><ele>310.3333333333333</ele><time>2026-04-26T09:31:18.944Z</time></trkpt><trkpt lat="43.0811424" lon="12.2532213"><ele>309.0</ele><time>2026-04-26T09:31:20.932Z</time></trkpt><trkpt lat="43.0810739" lon="12.2532275"><ele>307.6666666666667</ele><time>2026-04-26T09:31:21.929Z</time></trkpt><trkpt lat="43.0809824" lon="12.2532615"><ele>306.33333333333337</ele><time>2026-04-26T09:31:23.932Z</time></trkpt><trkpt lat="43.0809323" lon="12.2533515"><ele>305.0</ele><time>2026-04-26T09:31:25.929Z</time></trkpt><trkpt lat="43.0809652" lon="12.2534579"><ele>305.0</ele><time>2026-04-26T09:31:27.937Z</time></trkpt><trkpt lat="43.0810049" lon="12.2535516"><ele>305.0</ele><time>2026-04-26T09:31:29.929Z</time></trkpt><trkpt lat="43.0810418" lon="12.2536432"><ele>305.0</ele><time>2026-04-26T09:31:31.931Z</time></trkpt><trkpt lat="43.0810724" lon="12.2537345"><ele>305.0</ele><time>2026-04-26T09:31:33.931Z</time></trkpt><trkpt lat="43.0810932" lon="12.2538231"><ele>305.0</ele><time>2026-04-26T09:31:35.932Z</time></trkpt><trkpt lat="43.0811198" lon="12.2539477"><ele>305.0</ele><time>2026-04-26T09:31:38.925Z</time></trkpt><trkpt lat="43.0811504" lon="12.2540553"><ele>303.6666666666667</ele><time>2026-04-26T09:31:41.939Z</time></trkpt><trkpt lat="43.0811881" lon="12.2541602"><ele>302.33333333333337</ele><time>2026-04-26T09:31:44.935Z</time></trkpt><trkpt lat="43.0812245" lon="12.2542435"><ele>301.0</ele><time>2026-04-26T09:31:46.926Z</time></trkpt><trkpt lat="43.0812681" lon="12.2543272"><ele>299.6666666666667</ele><time>2026-04-26T09:31:48.925Z</time></trkpt><trkpt lat="43.0813149" lon="12.2544258"><ele>298.3333333333333</ele><time>2026-04-26T09:31:50.937Z</time></trkpt><trkpt lat="43.081362" lon="12.2545151"><ele>297.0</ele><time>2026-04-26T09:31:52.927Z</time></trkpt><trkpt lat="43.08141" lon="12.2545943"><ele>297.0</ele><time>2026-04-26T09:31:54.937Z</time></trkpt><trkpt lat="43.0814622" lon="12.254665"><ele>297.0</ele><time>2026-04-26T09:31:56.929Z</time></trkpt><trkpt lat="43.0815204" lon="12.2547369"><ele>297.0</ele><time>2026-04-26T09:31:58.939Z</time></trkpt><trkpt lat="43.081574" lon="12.254822"><ele>297.0</ele><time>2026-04-26T09:32:00.932Z</time></trkpt><trkpt lat="43.0816688" lon="12.2549682"><ele>297.0</ele><time>2026-04-26T09:32:03.934Z</time></trkpt><trkpt lat="43.0817688" lon="12.2550515"><ele>298.2</ele><time>2026-04-26T09:32:05.943Z</time></trkpt><trkpt lat="43.0818839" lon="12.2551298"><ele>299.4</ele><time>2026-04-26T09:32:08.035Z</time></trkpt><trkpt lat="43.0820224" lon="12.2551894"><ele>300.6</ele><time>2026-04-26T09:32:09.933Z</time></trkpt><trkpt lat="43.0820897" lon="12.2552068"><ele>301.8</ele><time>2026-04-26T09:32:10.932Z</time></trkpt><trkpt lat="43.0821748" lon="12.2552134"><ele>303.0</ele><time>2026-04-26T09:32:11.932Z</time></trkpt><trkpt lat="43.0822559" lon="12.2552239"><ele>303.0</ele><time>2026-04-26T09:32:12.935Z</time></trkpt><trkpt lat="43.0823364" lon="12.2552292"><ele>303.0</ele><time>2026-04-26T09:32:13.926Z</time></trkpt><trkpt lat="43.0824236" lon="12.2552274"><ele>303.0</ele><time>2026-04-26T09:32:14.929Z</time></trkpt><trkpt lat="43.0825131" lon="12.2552274"><ele>303.0</ele><time>2026-04-26T09:32:15.929Z</time></trkpt><trkpt lat="43.0826002" lon="12.2552265"><ele>303.0</ele><time>2026-04-26T09:32:16.933Z</time></trkpt><trkpt lat="43.0826997" lon="12.2552195"><ele>303.0</ele><time>2026-04-26T09:32:17.927Z</time></trkpt><trkpt lat="43.0827954" lon="12.2552202"><ele>303.2</ele><time>2026-04-26T09:32:18.93Z</time></trkpt><trkpt lat="43.0828921" lon="12.2552356"><ele>303.4</ele><time>2026-04-26T09:32:19.929Z</time></trkpt><trkpt lat="43.0829938" lon="12.2552468"><ele>303.59999999999997</ele><time>2026-04-26T09:32:20.924Z</time></trkpt><trkpt lat="43.0830986" lon="12.2552634"><ele>303.8</ele><time>2026-04-26T09:32:21.93Z</time></trkpt><trkpt lat="43.0832033" lon="12.2552901"><ele>304.0</ele><time>2026-04-26T09:32:22.925Z</time></trkpt><trkpt lat="43.083311" lon="12.2553229"><ele>302.4</ele><time>2026-04-26T09:32:23.929Z</time></trkpt><trkpt lat="43.0834156" lon="12.2553685"><ele>300.79999999999995</ele><time>2026-04-26T09:32:24.921Z</time></trkpt><trkpt lat="43.0835083" lon="12.2554246"><ele>299.20000000000005</ele><time>2026-04-26T09:32:25.928Z</time></trkpt><trkpt lat="43.0836" lon="12.2555007"><ele>297.6</ele><time>2026-04-26T09:32:26.93Z</time></trkpt><trkpt lat="43.0836735" lon="12.2555994"><ele>296.0</ele><time>2026-04-26T09:32:27.932Z</time></trkpt><trkpt lat="43.083736" lon="12.2557007"><ele>293.40000000000003</ele><time>2026-04-26T09:32:28.928Z</time></trkpt><trkpt lat="43.0837854" lon="12.255812"><ele>290.8</ele><time>2026-04-26T09:32:29.933Z</time></trkpt><trkpt lat="43.0838401" lon="12.255924"><ele>288.20000000000005</ele><time>2026-04-26T09:32:30.925Z</time></trkpt><trkpt lat="43.0838981" lon="12.2560168"><ele>285.6</ele><time>2026-04-26T09:32:32.031Z</time></trkpt><trkpt lat="43.0839767" lon="12.2561835"><ele>283.0</ele><time>2026-04-26T09:32:33.925Z</time></trkpt><trkpt lat="43.0840191" lon="12.2562576"><ele>283.0</ele><time>2026-04-26T09:32:34.929Z</time></trkpt><trkpt lat="43.0840633" lon="12.2563319"><ele>283.0</ele><time>2026-04-26T09:32:35.931Z</time></trkpt><trkpt lat="43.0841073" lon="12.2564054"><ele>283.0</ele><time>2026-04-26T09:32:36.933Z</time></trkpt><trkpt lat="43.0841539" lon="12.2564776"><ele>283.0</ele><time>2026-04-26T09:32:37.924Z</time></trkpt><trkpt lat="43.0842099" lon="12.2565398"><ele>283.0</ele><time>2026-04-26T09:32:38.94Z</time></trkpt><trkpt lat="43.0842716" lon="12.2566152"><ele>283.0</ele><time>2026-04-26T09:32:39.936Z</time></trkpt><trkpt lat="43.0843326" lon="12.2566894"><ele>283.0</ele><time>2026-04-26T09:32:40.925Z</time></trkpt><trkpt lat="43.084394" lon="12.2567771"><ele>282.5</ele><time>2026-04-26T09:32:41.925Z</time></trkpt><trkpt lat="43.0844533" lon="12.2568787"><ele>282.0</ele><time>2026-04-26T09:32:42.928Z</time></trkpt><trkpt lat="43.0844985" lon="12.2569861"><ele>281.5</ele><time>2026-04-26T09:32:43.929Z</time></trkpt><trkpt lat="43.0845379" lon="12.2571042"><ele>281.0</ele><time>2026-04-26T09:32:44.931Z</time></trkpt><trkpt lat="43.0845756" lon="12.2572031"><ele>280.5</ele><time>2026-04-26T09:32:45.929Z</time></trkpt><trkpt lat="43.0846155" lon="12.2572942"><ele>280.0</ele><time>2026-04-26T09:32:46.933Z</time></trkpt><trkpt lat="43.0846573" lon="12.2573767"><ele>278.0</ele><time>2026-04-26T09:32:47.932Z</time></trkpt><trkpt lat="43.0846905" lon="12.2574521"><ele>276.0</ele><time>2026-04-26T09:32:48.932Z</time></trkpt><trkpt lat="43.0847213" lon="12.2575391"><ele>274.0</ele><time>2026-04-26T09:32:50.029Z</time></trkpt><trkpt lat="43.084732" lon="12.257629"><ele>272.0</ele><time>2026-04-26T09:32:50.931Z</time></trkpt><trkpt lat="43.0847284" lon="12.2577259"><ele>270.0</ele><time>2026-04-26T09:32:51.931Z</time></trkpt><trkpt lat="43.0847331" lon="12.2578247"><ele>268.0</ele><time>2026-04-26T09:32:52.931Z</time></trkpt><trkpt lat="43.0847366" lon="12.2579273"><ele>266.0</ele><time>2026-04-26T09:32:53.927Z</time></trkpt><trkpt lat="43.0847465" lon="12.2580269"><ele>265.0</ele><time>2026-04-26T09:32:54.93Z</time></trkpt><trkpt lat="43.0847593" lon="12.2581268"><ele>264.0</ele><time>2026-04-26T09:32:55.926Z</time></trkpt><trkpt lat="43.0847748" lon="12.2582225"><ele>263.0</ele><time>2026-04-26T09:32:56.934Z</time></trkpt><trkpt lat="43.0848" lon="12.2583087"><ele>262.0</ele><time>2026-04-26T09:32:57.931Z</time></trkpt><trkpt lat="43.084835" lon="12.2583984"><ele>261.0</ele><time>2026-04-26T09:32:58.93Z</time></trkpt><trkpt lat="43.0848756" lon="12.2584913"><ele>260.0</ele><time>2026-04-26T09:32:59.925Z</time></trkpt><trkpt lat="43.0849242" lon="12.2585844"><ele>259.8</ele><time>2026-04-26T09:33:00.933Z</time></trkpt><trkpt lat="43.0849846" lon="12.2586694"><ele>259.6</ele><time>2026-04-26T09:33:02.026Z</time></trkpt><trkpt lat="43.0850534" lon="12.2587556"><ele>259.4</ele><time>2026-04-26T09:33:02.929Z</time></trkpt><trkpt lat="43.0851196" lon="12.2588437"><ele>259.2</ele><time>2026-04-26T09:33:03.926Z</time></trkpt><trkpt lat="43.0851971" lon="12.2589353"><ele>259.0</ele><time>2026-04-26T09:33:04.929Z</time></trkpt><trkpt lat="43.085289" lon="12.259008"><ele>259.0</ele><time>2026-04-26T09:33:05.929Z</time></trkpt><trkpt lat="43.0853722" lon="12.259091"><ele>259.0</ele><time>2026-04-26T09:33:06.925Z</time></trkpt><trkpt lat="43.0854595" lon="12.2591667"><ele>259.0</ele><time>2026-04-26T09:33:07.932Z</time></trkpt><trkpt lat="43.0855568" lon="12.2592435"><ele>259.0</ele><time>2026-04-26T09:33:08.934Z</time></trkpt><trkpt lat="43.0856349" lon="12.2593242"><ele>259.0</ele><time>2026-04-26T09:33:09.931Z</time></trkpt><trkpt lat="43.08571" lon="12.2593917"><ele>260.16666666666663</ele><time>2026-04-26T09:33:10.932Z</time></trkpt><trkpt lat="43.0857842" lon="12.2594342"><ele>261.3333333333333</ele><time>2026-04-26T09:33:11.933Z</time></trkpt><trkpt lat="43.0858584" lon="12.2594723"><ele>262.5</ele><time>2026-04-26T09:33:12.93Z</time></trkpt><trkpt lat="43.08594" lon="12.2595073"><ele>263.6666666666667</ele><time>2026-04-26T09:33:13.93Z</time></trkpt><trkpt lat="43.0860089" lon="12.259531"><ele>264.83333333333337</ele><time>2026-04-26T09:33:14.939Z</time></trkpt><trkpt lat="43.0860816" lon="12.2595568"><ele>266.0</ele><time>2026-04-26T09:33:15.933Z</time></trkpt><trkpt lat="43.0861507" lon="12.2595827"><ele>266.0</ele><time>2026-04-26T09:33:16.932Z</time></trkpt><trkpt lat="43.0862219" lon="12.2596206"><ele>266.0</ele><time>2026-04-26T09:33:17.932Z</time></trkpt><trkpt lat="43.0862887" lon="12.2596546"><ele>266.0</ele><time>2026-04-26T09:33:18.939Z</time></trkpt><trkpt lat="43.086363" lon="12.2596768"><ele>266.0</ele><time>2026-04-26T09:33:20.029Z</time></trkpt><trkpt lat="43.0864316" lon="12.2597069"><ele>266.0</ele><time>2026-04-26T09:33:20.931Z</time></trkpt><trkpt lat="43.0865107" lon="12.2597275"><ele>266.0</ele><time>2026-04-26T09:33:21.929Z</time></trkpt><trkpt lat="43.0865842" lon="12.2597547"><ele>266.6666666666667</ele><time>2026-04-26T09:33:22.929Z</time></trkpt><trkpt lat="43.0866633" lon="12.2597826"><ele>267.33333333333337</ele><time>2026-04-26T09:33:23.931Z</time></trkpt><trkpt lat="43.0867461" lon="12.2598173"><ele>268.0</ele><time>2026-04-26T09:33:24.923Z</time></trkpt><trkpt lat="43.0868272" lon="12.2598452"><ele>268.6666666666667</ele><time>2026-04-26T09:33:25.929Z</time></trkpt><trkpt lat="43.0869059" lon="12.2598789"><ele>269.3333333333333</ele><time>2026-04-26T09:33:26.93Z</time></trkpt><trkpt lat="43.0869863" lon="12.2599108"><ele>270.0</ele><time>2026-04-26T09:33:27.933Z</time></trkpt><trkpt lat="43.0870757" lon="12.2599463"><ele>266.2</ele><time>2026-04-26T09:33:28.917Z</time></trkpt><trkpt lat="43.0871507" lon="12.2599693"><ele>262.4</ele><time>2026-04-26T09:33:29.933Z</time></trkpt><trkpt lat="43.0872193" lon="12.2599986"><ele>258.6</ele><time>2026-04-26T09:33:30.929Z</time></trkpt><trkpt lat="43.0873288" lon="12.2600517"><ele>254.8</ele><time>2026-04-26T09:33:32.935Z</time></trkpt><trkpt lat="43.0874283" lon="12.2600848"><ele>251.0</ele><time>2026-04-26T09:33:34.928Z</time></trkpt><trkpt lat="43.0875169" lon="12.2600341"><ele>250.50000000000003</ele><time>2026-04-26T09:33:36.932Z</time></trkpt><trkpt lat="43.0875654" lon="12.2600957"><ele>250.0</ele><time>2026-04-26T09:33:43.924Z</time></trkpt><trkpt lat="43.0875835" lon="12.2601849"><ele>249.5</ele><time>2026-04-26T09:33:45.931Z</time></trkpt><trkpt lat="43.0876614" lon="12.2602277"><ele>249.0</ele><time>2026-04-26T09:33:48.915Z</time></trkpt><trkpt lat="43.0877045" lon="12.2603048"><ele>248.50000000000003</ele><time>2026-04-26T09:33:50.929Z</time></trkpt><trkpt lat="43.0877488" lon="12.260403"><ele>248.0</ele><time>2026-04-26T09:33:52.929Z</time></trkpt><trkpt lat="43.0877838" lon="12.2605256"><ele>246.2</ele><time>2026-04-26T09:33:54.925Z</time></trkpt><trkpt lat="43.08781" lon="12.2606584"><ele>244.4</ele><time>2026-04-26T09:33:56.932Z</time></trkpt><trkpt lat="43.0878188" lon="12.2607806"><ele>242.59999999999997</ele><time>2026-04-26T09:33:58.929Z</time></trkpt><trkpt lat="43.087827" lon="12.2608722"><ele>240.79999999999998</ele><time>2026-04-26T09:34:00.934Z</time></trkpt><trkpt lat="43.0878641" lon="12.2610027"><ele>239.0</ele><time>2026-04-26T09:34:03.932Z</time></trkpt><trkpt lat="43.0878837" lon="12.2611675"><ele>239.00000000000003</ele><time>2026-04-26T09:34:05.917Z</time></trkpt><trkpt lat="43.0878672" lon="12.2612891"><ele>239.0</ele><time>2026-04-26T09:34:07.938Z</time></trkpt><trkpt lat="43.0878884" lon="12.2614148"><ele>239.0</ele><time>2026-04-26T09:34:09.916Z</time></trkpt><trkpt lat="43.0879186" lon="12.2615128"><ele>239.0</ele><time>2026-04-26T09:34:10.922Z</time></trkpt><trkpt lat="43.0879431" lon="12.2616071"><ele>239.00000000000003</ele><time>2026-04-26T09:34:11.916Z</time></trkpt><trkpt lat="43.0879784" lon="12.2617501"><ele>239.0</ele><time>2026-04-26T09:34:13.922Z</time></trkpt><trkpt lat="43.0879754" lon="12.2618649"><ele>237.2</ele><time>2026-04-26T09:34:15.913Z</time></trkpt><trkpt lat="43.0879418" lon="12.2619548"><ele>235.39999999999998</ele><time>2026-04-26T09:34:17.913Z</time></trkpt><trkpt lat="43.0879605" lon="12.2620629"><ele>233.6</ele><time>2026-04-26T09:34:19.918Z</time></trkpt><trkpt lat="43.0880133" lon="12.2621724"><ele>231.8</ele><time>2026-04-26T09:34:21.917Z</time></trkpt><trkpt lat="43.0880756" lon="12.2622959"><ele>230.0</ele><time>2026-04-26T09:34:23.92Z</time></trkpt><trkpt lat="43.0881312" lon="12.2624309"><ele>229.0</ele><time>2026-04-26T09:34:25.93Z</time></trkpt><trkpt lat="43.0881859" lon="12.262576"><ele>228.0</ele><time>2026-04-26T09:34:27.93Z</time></trkpt><trkpt lat="43.0882419" lon="12.2627131"><ele>227.0</ele><time>2026-04-26T09:34:29.934Z</time></trkpt><trkpt lat="43.0883179" lon="12.2628322"><ele>226.0</ele><time>2026-04-26T09:34:31.916Z</time></trkpt><trkpt lat="43.0884022" lon="12.2629185"><ele>225.99999999999997</ele><time>2026-04-26T09:34:33.928Z</time></trkpt><trkpt lat="43.0884969" lon="12.2629717"><ele>226.0</ele><time>2026-04-26T09:34:35.931Z</time></trkpt><trkpt lat="43.0885862" lon="12.2630031"><ele>226.0</ele><time>2026-04-26T09:34:37.93Z</time></trkpt><trkpt lat="43.0886728" lon="12.2630359"><ele>226.0</ele><time>2026-04-26T09:34:40.016Z</time></trkpt><trkpt lat="43.0887475" lon="12.2630904"><ele>225.99999999999997</ele><time>2026-04-26T09:34:41.924Z</time></trkpt><trkpt lat="43.0887485" lon="12.2631843"><ele>226.0</ele><time>2026-04-26T09:34:44.93Z</time></trkpt><trkpt lat="43.0886742" lon="12.2631807"><ele>226.0</ele><time>2026-04-26T09:34:46.931Z</time></trkpt><trkpt lat="43.0886061" lon="12.2631523"><ele>226.0</ele><time>2026-04-26T09:34:48.931Z</time></trkpt><trkpt lat="43.0885435" lon="12.2631209"><ele>226.0</ele><time>2026-04-26T09:34:50.931Z</time></trkpt><trkpt lat="43.0884732" lon="12.263089"><ele>226.0</ele><time>2026-04-26T09:34:52.93Z</time></trkpt><trkpt lat="43.0884" lon="12.2630694"><ele>226.0</ele><time>2026-04-26T09:34:54.927Z</time></trkpt><trkpt lat="43.0883274" lon="12.2630372"><ele>226.0</ele><time>2026-04-26T09:34:56.928Z</time></trkpt><trkpt lat="43.0882634" lon="12.2629829"><ele>226.0</ele><time>2026-04-26T09:34:58.938Z</time></trkpt><trkpt lat="43.0882027" lon="12.2629324"><ele>225.83333333333331</ele><time>2026-04-26T09:35:00.93Z</time></trkpt><trkpt lat="43.0881345" lon="12.2628892"><ele>225.66666666666666</ele><time>2026-04-26T09:35:02.932Z</time></trkpt><trkpt lat="43.0880643" lon="12.2628549"><ele>225.5</ele><time>2026-04-26T09:35:04.925Z</time></trkpt><trkpt lat="43.087991" lon="12.2628222"><ele>225.33333333333331</ele><time>2026-04-26T09:35:06.933Z</time></trkpt><trkpt lat="43.0879107" lon="12.2628341"><ele>225.16666666666666</ele><time>2026-04-26T09:35:08.926Z</time></trkpt><trkpt lat="43.0878323" lon="12.2628697"><ele>225.0</ele><time>2026-04-26T09:35:10.929Z</time></trkpt><trkpt lat="43.0877514" lon="12.2629056"><ele>225.0</ele><time>2026-04-26T09:35:12.931Z</time></trkpt><trkpt lat="43.0876695" lon="12.2629409"><ele>225.0</ele><time>2026-04-26T09:35:14.928Z</time></trkpt><trkpt lat="43.0875869" lon="12.2629735"><ele>225.0</ele><time>2026-04-26T09:35:16.935Z</time></trkpt><trkpt lat="43.0875093" lon="12.2630093"><ele>225.0</ele><time>2026-04-26T09:35:18.93Z</time></trkpt><trkpt lat="43.0874388" lon="12.2630433"><ele>225.0</ele><time>2026-04-26T09:35:20.929Z</time></trkpt><trkpt lat="43.0873634" lon="12.2630694"><ele>225.0</ele><time>2026-04-26T09:35:22.931Z</time></trkpt><trkpt lat="43.08729" lon="12.2631015"><ele>224.5</ele><time>2026-04-26T09:35:24.925Z</time></trkpt><trkpt lat="43.0872166" lon="12.263137"><ele>224.0</ele><time>2026-04-26T09:35:26.932Z</time></trkpt><trkpt lat="43.0871446" lon="12.2631681"><ele>223.5</ele><time>2026-04-26T09:35:28.93Z</time></trkpt><trkpt lat="43.0870733" lon="12.2631998"><ele>223.0</ele><time>2026-04-26T09:35:30.933Z</time></trkpt><trkpt lat="43.0869998" lon="12.2632352"><ele>222.5</ele><time>2026-04-26T09:35:32.927Z</time></trkpt><trkpt lat="43.0869274" lon="12.2632683"><ele>222.0</ele><time>2026-04-26T09:35:34.931Z</time></trkpt><trkpt lat="43.0868532" lon="12.2633023"><ele>222.0</ele><time>2026-04-26T09:35:36.931Z</time></trkpt><trkpt lat="43.086779" lon="12.2633305"><ele>222.0</ele><time>2026-04-26T09:35:38.933Z</time></trkpt><trkpt lat="43.0867105" lon="12.2633655"><ele>222.0</ele><time>2026-04-26T09:35:40.932Z</time></trkpt><trkpt lat="43.0866391" lon="12.2633954"><ele>222.0</ele><time>2026-04-26T09:35:42.933Z</time></trkpt><trkpt lat="43.0865696" lon="12.2634151"><ele>222.0</ele><time>2026-04-26T09:35:44.936Z</time></trkpt><trkpt lat="43.0864986" lon="12.2634413"><ele>222.0</ele><time>2026-04-26T09:35:46.927Z</time></trkpt><trkpt lat="43.0864229" lon="12.2634745"><ele>222.0</ele><time>2026-04-26T09:35:48.924Z</time></trkpt><trkpt lat="43.0863491" lon="12.2635035"><ele>222.16666666666666</ele><time>2026-04-26T09:35:50.926Z</time></trkpt><trkpt lat="43.0862776" lon="12.2635323"><ele>222.33333333333331</ele><time>2026-04-26T09:35:52.929Z</time></trkpt><trkpt lat="43.0862024" lon="12.2635656"><ele>222.5</ele><time>2026-04-26T09:35:54.931Z</time></trkpt><trkpt lat="43.0861269" lon="12.2635938"><ele>222.66666666666666</ele><time>2026-04-26T09:35:56.925Z</time></trkpt><trkpt lat="43.0860536" lon="12.2636231"><ele>222.83333333333331</ele><time>2026-04-26T09:35:58.927Z</time></trkpt><trkpt lat="43.0859785" lon="12.2636448"><ele>223.0</ele><time>2026-04-26T09:36:00.929Z</time></trkpt><trkpt lat="43.0859037" lon="12.2636571"><ele>223.0</ele><time>2026-04-26T09:36:02.928Z</time></trkpt><trkpt lat="43.0858336" lon="12.2636791"><ele>223.0</ele><time>2026-04-26T09:36:05.03Z</time></trkpt><trkpt lat="43.0857649" lon="12.2636961"><ele>223.0</ele><time>2026-04-26T09:36:06.933Z</time></trkpt><trkpt lat="43.0856919" lon="12.2636997"><ele>223.0</ele><time>2026-04-26T09:36:08.916Z</time></trkpt><trkpt lat="43.0856204" lon="12.2637007"><ele>223.0</ele><time>2026-04-26T09:36:10.932Z</time></trkpt><trkpt lat="43.0855499" lon="12.2637211"><ele>223.0</ele><time>2026-04-26T09:36:12.93Z</time></trkpt><trkpt lat="43.0854853" lon="12.2637549"><ele>223.0</ele><time>2026-04-26T09:36:14.934Z</time></trkpt><trkpt lat="43.0854165" lon="12.2638103"><ele>222.57142857142856</ele><time>2026-04-26T09:36:16.933Z</time></trkpt><trkpt lat="43.085367" lon="12.2638837"><ele>222.14285714285714</ele><time>2026-04-26T09:36:18.931Z</time></trkpt><trkpt lat="43.0853331" lon="12.2639743"><ele>221.71428571428572</ele><time>2026-04-26T09:36:20.92Z</time></trkpt><trkpt lat="43.0853074" lon="12.2640708"><ele>221.28571428571428</ele><time>2026-04-26T09:36:22.926Z</time></trkpt><trkpt lat="43.085279" lon="12.2641674"><ele>220.85714285714286</ele><time>2026-04-26T09:36:24.932Z</time></trkpt><trkpt lat="43.0852529" lon="12.2642649"><ele>220.42857142857142</ele><time>2026-04-26T09:36:26.931Z</time></trkpt><trkpt lat="43.0852306" lon="12.2643609"><ele>220.0</ele><time>2026-04-26T09:36:28.921Z</time></trkpt><trkpt lat="43.0852061" lon="12.2644627"><ele>219.99999999999997</ele><time>2026-04-26T09:36:30.925Z</time></trkpt><trkpt lat="43.085176" lon="12.2645644"><ele>220.0</ele><time>2026-04-26T09:36:32.926Z</time></trkpt><trkpt lat="43.0851447" lon="12.2646642"><ele>220.0</ele><time>2026-04-26T09:36:34.932Z</time></trkpt><trkpt lat="43.0851147" lon="12.264763"><ele>220.0</ele><time>2026-04-26T09:36:36.907Z</time></trkpt><trkpt lat="43.0850861" lon="12.2648572"><ele>220.0</ele><time>2026-04-26T09:36:38.926Z</time></trkpt><trkpt lat="43.0850569" lon="12.2649451"><ele>219.99999999999997</ele><time>2026-04-26T09:36:40.929Z</time></trkpt><trkpt lat="43.0850263" lon="12.265025"><ele>220.0</ele><time>2026-04-26T09:36:42.931Z</time></trkpt><trkpt lat="43.0849946" lon="12.2650998"><ele>220.14285714285714</ele><time>2026-04-26T09:36:44.928Z</time></trkpt><trkpt lat="43.084965" lon="12.2651796"><ele>220.28571428571428</ele><time>2026-04-26T09:36:46.929Z</time></trkpt><trkpt lat="43.0849284" lon="12.2652567"><ele>220.42857142857144</ele><time>2026-04-26T09:36:48.932Z</time></trkpt><trkpt lat="43.0848867" lon="12.2653358"><ele>220.57142857142856</ele><time>2026-04-26T09:36:50.925Z</time></trkpt><trkpt lat="43.0848512" lon="12.2654242"><ele>220.71428571428572</ele><time>2026-04-26T09:36:52.927Z</time></trkpt><trkpt lat="43.0848113" lon="12.265512"><ele>220.85714285714286</ele><time>2026-04-26T09:36:54.929Z</time></trkpt><trkpt lat="43.0847798" lon="12.2656278"><ele>221.0</ele><time>2026-04-26T09:36:57.031Z</time></trkpt><trkpt lat="43.0847496" lon="12.2657603"><ele>221.0</ele><time>2026-04-26T09:36:58.928Z</time></trkpt><trkpt lat="43.0847324" lon="12.2659017"><ele>221.00000000000003</ele><time>2026-04-26T09:37:00.93Z</time></trkpt><trkpt lat="43.0847212" lon="12.2660376"><ele>221.00000000000003</ele><time>2026-04-26T09:37:03.034Z</time></trkpt><trkpt lat="43.0847204" lon="12.2661687"><ele>221.0</ele><time>2026-04-26T09:37:04.929Z</time></trkpt><trkpt lat="43.0847294" lon="12.2662889"><ele>221.0</ele><time>2026-04-26T09:37:06.928Z</time></trkpt><trkpt lat="43.0847454" lon="12.2664109"><ele>220.8</ele><time>2026-04-26T09:37:09.018Z</time></trkpt><trkpt lat="43.0847735" lon="12.26654"><ele>220.60000000000002</ele><time>2026-04-26T09:37:10.93Z</time></trkpt><trkpt lat="43.0848119" lon="12.2666544"><ele>220.4</ele><time>2026-04-26T09:37:12.926Z</time></trkpt><trkpt lat="43.0848556" lon="12.2667761"><ele>220.2</ele><time>2026-04-26T09:37:14.932Z</time></trkpt><trkpt lat="43.0848647" lon="12.2668969"><ele>220.0</ele><time>2026-04-26T09:37:16.932Z</time></trkpt><trkpt lat="43.0848545" lon="12.2670218"><ele>219.99999999999997</ele><time>2026-04-26T09:37:18.937Z</time></trkpt><trkpt lat="43.0848322" lon="12.2671266"><ele>220.0</ele><time>2026-04-26T09:37:20.927Z</time></trkpt><trkpt lat="43.0848052" lon="12.2672369"><ele>220.0</ele><time>2026-04-26T09:37:22.931Z</time></trkpt><trkpt lat="43.0847744" lon="12.2673446"><ele>220.0</ele><time>2026-04-26T09:37:24.927Z</time></trkpt><trkpt lat="43.0847447" lon="12.2674493"><ele>219.99999999999997</ele><time>2026-04-26T09:37:26.928Z</time></trkpt><trkpt lat="43.0847066" lon="12.267547"><ele>220.0</ele><time>2026-04-26T09:37:28.913Z</time></trkpt><trkpt lat="43.084654" lon="12.2676333"><ele>220.16666666666666</ele><time>2026-04-26T09:37:30.932Z</time></trkpt><trkpt lat="43.084601" lon="12.2677105"><ele>220.33333333333331</ele><time>2026-04-26T09:37:32.905Z</time></trkpt><trkpt lat="43.0845368" lon="12.2677805"><ele>220.5</ele><time>2026-04-26T09:37:34.929Z</time></trkpt><trkpt lat="43.084472" lon="12.2678509"><ele>220.66666666666669</ele><time>2026-04-26T09:37:36.931Z</time></trkpt><trkpt lat="43.0844074" lon="12.2679163"><ele>220.83333333333334</ele><time>2026-04-26T09:37:38.931Z</time></trkpt><trkpt lat="43.0843438" lon="12.2679793"><ele>221.0</ele><time>2026-04-26T09:37:40.932Z</time></trkpt><trkpt lat="43.0842797" lon="12.2680431"><ele>221.00000000000003</ele><time>2026-04-26T09:37:42.93Z</time></trkpt><trkpt lat="43.0842189" lon="12.2681142"><ele>221.0</ele><time>2026-04-26T09:37:44.933Z</time></trkpt><trkpt lat="43.0841549" lon="12.2681881"><ele>221.0</ele><time>2026-04-26T09:37:46.928Z</time></trkpt><trkpt lat="43.0840944" lon="12.2682586"><ele>221.0</ele><time>2026-04-26T09:37:48.934Z</time></trkpt><trkpt lat="43.0840366" lon="12.2683303"><ele>221.00000000000003</ele><time>2026-04-26T09:37:50.931Z</time></trkpt><trkpt lat="43.0839826" lon="12.2683984"><ele>221.0</ele><time>2026-04-26T09:37:52.93Z</time></trkpt><trkpt lat="43.0839409" lon="12.2684747"><ele>222.16666666666669</ele><time>2026-04-26T09:37:55.028Z</time></trkpt><trkpt lat="43.0839236" lon="12.2685691"><ele>223.33333333333334</ele><time>2026-04-26T09:37:56.93Z</time></trkpt><trkpt lat="43.0839402" lon="12.2686818"><ele>224.5</ele><time>2026-04-26T09:37:58.932Z</time></trkpt><trkpt lat="43.0839653" lon="12.2687999"><ele>225.66666666666669</ele><time>2026-04-26T09:38:00.926Z</time></trkpt><trkpt lat="43.0839828" lon="12.2689132"><ele>226.83333333333334</ele><time>2026-04-26T09:38:02.929Z</time></trkpt><trkpt lat="43.0840102" lon="12.2690178"><ele>228.0</ele><time>2026-04-26T09:38:04.932Z</time></trkpt><trkpt lat="43.0840474" lon="12.2691158"><ele>227.33333333333334</ele><time>2026-04-26T09:38:06.927Z</time></trkpt><trkpt lat="43.0840891" lon="12.2692107"><ele>226.66666666666669</ele><time>2026-04-26T09:38:08.913Z</time></trkpt><trkpt lat="43.0841308" lon="12.2693131"><ele>226.0</ele><time>2026-04-26T09:38:10.928Z</time></trkpt><trkpt lat="43.084169" lon="12.2694206"><ele>225.33333333333334</ele><time>2026-04-26T09:38:12.925Z</time></trkpt><trkpt lat="43.0842092" lon="12.2695242"><ele>224.66666666666669</ele><time>2026-04-26T09:38:14.933Z</time></trkpt><trkpt lat="43.0842541" lon="12.2696293"><ele>224.0</ele><time>2026-04-26T09:38:16.928Z</time></trkpt><trkpt lat="43.0843137" lon="12.2697249"><ele>224.6</ele><time>2026-04-26T09:38:19.028Z</time></trkpt><trkpt lat="43.0843975" lon="12.2698001"><ele>225.2</ele><time>2026-04-26T09:38:20.926Z</time></trkpt><trkpt lat="43.0844926" lon="12.2698568"><ele>225.79999999999998</ele><time>2026-04-26T09:38:22.924Z</time></trkpt><trkpt lat="43.0845829" lon="12.2699231"><ele>226.39999999999998</ele><time>2026-04-26T09:38:24.925Z</time></trkpt><trkpt lat="43.0846438" lon="12.2700068"><ele>227.0</ele><time>2026-04-26T09:38:26.927Z</time></trkpt><trkpt lat="43.0846864" lon="12.2701243"><ele>227.00000000000003</ele><time>2026-04-26T09:38:28.929Z</time></trkpt><trkpt lat="43.0847217" lon="12.2702346"><ele>227.0</ele><time>2026-04-26T09:38:30.933Z</time></trkpt><trkpt lat="43.0847528" lon="12.2703566"><ele>227.0</ele><time>2026-04-26T09:38:32.932Z</time></trkpt><trkpt lat="43.0847861" lon="12.2704595"><ele>227.0</ele><time>2026-04-26T09:38:34.914Z</time></trkpt><trkpt lat="43.0848074" lon="12.2705704"><ele>227.00000000000003</ele><time>2026-04-26T09:38:36.932Z</time></trkpt><trkpt lat="43.0848249" lon="12.27069"><ele>227.0</ele><time>2026-04-26T09:38:38.929Z</time></trkpt><trkpt lat="43.0848436" lon="12.2707996"><ele>227.50000000000003</ele><time>2026-04-26T09:38:40.935Z</time></trkpt><trkpt lat="43.0848508" lon="12.2709186"><ele>228.0</ele><time>2026-04-26T09:38:42.929Z</time></trkpt><trkpt lat="43.0848646" lon="12.2710397"><ele>228.5</ele><time>2026-04-26T09:38:44.914Z</time></trkpt><trkpt lat="43.084872" lon="12.271159"><ele>229.0</ele><time>2026-04-26T09:38:46.919Z</time></trkpt><trkpt lat="43.0848877" lon="12.2712756"><ele>229.50000000000003</ele><time>2026-04-26T09:38:48.931Z</time></trkpt><trkpt lat="43.0849039" lon="12.2713977"><ele>230.0</ele><time>2026-04-26T09:38:50.913Z</time></trkpt><trkpt lat="43.0849094" lon="12.2715128"><ele>230.00000000000003</ele><time>2026-04-26T09:38:52.916Z</time></trkpt><trkpt lat="43.0849142" lon="12.2716288"><ele>230.0</ele><time>2026-04-26T09:38:54.922Z</time></trkpt><trkpt lat="43.0849142" lon="12.2717478"><ele>230.0</ele><time>2026-04-26T09:38:56.919Z</time></trkpt><trkpt lat="43.0849006" lon="12.271866"><ele>230.0</ele><time>2026-04-26T09:38:58.914Z</time></trkpt><trkpt lat="43.0848746" lon="12.2719775"><ele>230.00000000000003</ele><time>2026-04-26T09:39:00.917Z</time></trkpt><trkpt lat="43.0848472" lon="12.272084"><ele>230.0</ele><time>2026-04-26T09:39:02.916Z</time></trkpt><trkpt lat="43.084834" lon="12.2721985"><ele>230.83333333333334</ele><time>2026-04-26T09:39:04.916Z</time></trkpt><trkpt lat="43.0848349" lon="12.2723188"><ele>231.66666666666669</ele><time>2026-04-26T09:39:06.914Z</time></trkpt><trkpt lat="43.084842" lon="12.2724392"><ele>232.5</ele><time>2026-04-26T09:39:08.918Z</time></trkpt><trkpt lat="43.0848524" lon="12.2725543"><ele>233.33333333333331</ele><time>2026-04-26T09:39:10.928Z</time></trkpt><trkpt lat="43.0848621" lon="12.2726594"><ele>234.16666666666666</ele><time>2026-04-26T09:39:12.925Z</time></trkpt><trkpt lat="43.0848729" lon="12.2727592"><ele>235.0</ele><time>2026-04-26T09:39:14.928Z</time></trkpt><trkpt lat="43.0848859" lon="12.2728534"><ele>235.0</ele><time>2026-04-26T09:39:16.93Z</time></trkpt><trkpt lat="43.0849071" lon="12.2729397"><ele>235.0</ele><time>2026-04-26T09:39:18.932Z</time></trkpt><trkpt lat="43.0849614" lon="12.2730308"><ele>235.0</ele><time>2026-04-26T09:39:22.932Z</time></trkpt><trkpt lat="43.0850721" lon="12.2730372"><ele>235.0</ele><time>2026-04-26T09:39:24.93Z</time></trkpt><trkpt lat="43.0851714" lon="12.2730108"><ele>235.0</ele><time>2026-04-26T09:39:26.933Z</time></trkpt><trkpt lat="43.0852643" lon="12.2729897"><ele>232.6</ele><time>2026-04-26T09:39:28.916Z</time></trkpt><trkpt lat="43.0853595" lon="12.2729762"><ele>230.2</ele><time>2026-04-26T09:39:30.935Z</time></trkpt><trkpt lat="43.0854555" lon="12.2729564"><ele>227.8</ele><time>2026-04-26T09:39:32.931Z</time></trkpt><trkpt lat="43.0855382" lon="12.2729425"><ele>225.4</ele><time>2026-04-26T09:39:34.93Z</time></trkpt><trkpt lat="43.0856207" lon="12.2729087"><ele>223.0</ele><time>2026-04-26T09:39:36.928Z</time></trkpt><trkpt lat="43.08571" lon="12.272878"><ele>222.49999999999997</ele><time>2026-04-26T09:39:38.932Z</time></trkpt><trkpt lat="43.0857938" lon="12.2728645"><ele>222.0</ele><time>2026-04-26T09:39:40.928Z</time></trkpt><trkpt lat="43.0858766" lon="12.2728477"><ele>221.5</ele><time>2026-04-26T09:39:42.928Z</time></trkpt><trkpt lat="43.0859611" lon="12.2728256"><ele>221.0</ele><time>2026-04-26T09:39:44.916Z</time></trkpt><trkpt lat="43.086049" lon="12.2728047"><ele>220.49999999999997</ele><time>2026-04-26T09:39:46.923Z</time></trkpt><trkpt lat="43.086132" lon="12.2727956"><ele>220.0</ele><time>2026-04-26T09:39:48.934Z</time></trkpt><trkpt lat="43.0862122" lon="12.2727605"><ele>219.99999999999997</ele><time>2026-04-26T09:39:50.933Z</time></trkpt><trkpt lat="43.0862915" lon="12.2727351"><ele>220.0</ele><time>2026-04-26T09:39:52.93Z</time></trkpt><trkpt lat="43.0863699" lon="12.2727157"><ele>220.0</ele><time>2026-04-26T09:39:54.933Z</time></trkpt><trkpt lat="43.0864432" lon="12.2726941"><ele>220.0</ele><time>2026-04-26T09:39:56.928Z</time></trkpt><trkpt lat="43.0865064" lon="12.2727365"><ele>219.99999999999997</ele><time>2026-04-26T09:39:59.933Z</time></trkpt><trkpt lat="43.0864919" lon="12.2728555"><ele>220.0</ele><time>2026-04-26T09:40:02.935Z</time></trkpt><trkpt lat="43.0864763" lon="12.2729497"><ele>219.99999999999997</ele><time>2026-04-26T09:40:05.022Z</time></trkpt><trkpt lat="43.0864641" lon="12.2730499"><ele>220.0</ele><time>2026-04-26T09:40:06.929Z</time></trkpt><trkpt lat="43.0864882" lon="12.2731452"><ele>220.0</ele><time>2026-04-26T09:40:08.931Z</time></trkpt><trkpt lat="43.0865327" lon="12.2732235"><ele>220.0</ele><time>2026-04-26T09:40:10.923Z</time></trkpt><trkpt lat="43.0865802" lon="12.2732917"><ele>220.0</ele><time>2026-04-26T09:40:12.928Z</time></trkpt><trkpt lat="43.086624" lon="12.2733605"><ele>219.99999999999997</ele><time>2026-04-26T09:40:14.931Z</time></trkpt><trkpt lat="43.0866609" lon="12.2734336"><ele>220.0</ele><time>2026-04-26T09:40:16.923Z</time></trkpt><trkpt lat="43.0866835" lon="12.2735231"><ele>219.85714285714283</ele><time>2026-04-26T09:40:18.927Z</time></trkpt><trkpt lat="43.0866753" lon="12.2736116"><ele>219.71428571428572</ele><time>2026-04-26T09:40:20.932Z</time></trkpt><trkpt lat="43.0866553" lon="12.2736963"><ele>219.57142857142856</ele><time>2026-04-26T09:40:22.935Z</time></trkpt><trkpt lat="43.0866365" lon="12.2737915"><ele>219.42857142857142</ele><time>2026-04-26T09:40:24.934Z</time></trkpt><trkpt lat="43.0866156" lon="12.2738902"><ele>219.28571428571428</ele><time>2026-04-26T09:40:26.93Z</time></trkpt><trkpt lat="43.0865845" lon="12.2740194"><ele>219.14285714285714</ele><time>2026-04-26T09:40:29.931Z</time></trkpt><trkpt lat="43.0865651" lon="12.2741123"><ele>219.0</ele><time>2026-04-26T09:40:31.931Z</time></trkpt><trkpt lat="43.0865441" lon="12.2742084"><ele>218.83333333333334</ele><time>2026-04-26T09:40:33.925Z</time></trkpt><trkpt lat="43.08653" lon="12.2743131"><ele>218.66666666666669</ele><time>2026-04-26T09:40:35.932Z</time></trkpt><trkpt lat="43.0865062" lon="12.2744156"><ele>218.5</ele><time>2026-04-26T09:40:37.938Z</time></trkpt><trkpt lat="43.0864819" lon="12.2745153"><ele>218.33333333333334</ele><time>2026-04-26T09:40:39.932Z</time></trkpt><trkpt lat="43.0864683" lon="12.2746159"><ele>218.16666666666669</ele><time>2026-04-26T09:40:41.932Z</time></trkpt><trkpt lat="43.086447" lon="12.274723"><ele>218.0</ele><time>2026-04-26T09:40:43.926Z</time></trkpt><trkpt lat="43.086425" lon="12.2748303"><ele>218.00000000000003</ele><time>2026-04-26T09:40:45.931Z</time></trkpt><trkpt lat="43.0864035" lon="12.2749376"><ele>218.0</ele><time>2026-04-26T09:40:47.931Z</time></trkpt><trkpt lat="43.0863849" lon="12.2750395"><ele>218.0</ele><time>2026-04-26T09:40:49.931Z</time></trkpt><trkpt lat="43.0863666" lon="12.2751415"><ele>218.0</ele><time>2026-04-26T09:40:51.927Z</time></trkpt><trkpt lat="43.0863469" lon="12.275244"><ele>218.00000000000003</ele><time>2026-04-26T09:40:53.93Z</time></trkpt><trkpt lat="43.0863209" lon="12.2753464"><ele>218.0</ele><time>2026-04-26T09:40:55.928Z</time></trkpt><trkpt lat="43.0862949" lon="12.2754481"><ele>218.00000000000003</ele><time>2026-04-26T09:40:57.929Z</time></trkpt><trkpt lat="43.0862693" lon="12.275558"><ele>218.0</ele><time>2026-04-26T09:40:59.929Z</time></trkpt><trkpt lat="43.0862462" lon="12.2756677"><ele>218.0</ele><time>2026-04-26T09:41:01.928Z</time></trkpt><trkpt lat="43.086221" lon="12.2757719"><ele>218.0</ele><time>2026-04-26T09:41:03.933Z</time></trkpt><trkpt lat="43.0861942" lon="12.2758871"><ele>218.00000000000003</ele><time>2026-04-26T09:41:05.925Z</time></trkpt><trkpt lat="43.0861753" lon="12.2760183"><ele>218.0</ele><time>2026-04-26T09:41:07.925Z</time></trkpt><trkpt lat="43.0861464" lon="12.2761306"><ele>218.00000000000003</ele><time>2026-04-26T09:41:09.922Z</time></trkpt><trkpt lat="43.086121" lon="12.2762415"><ele>218.0</ele><time>2026-04-26T09:41:11.932Z</time></trkpt><trkpt lat="43.0860936" lon="12.2763565"><ele>218.0</ele><time>2026-04-26T09:41:13.929Z</time></trkpt><trkpt lat="43.086064" lon="12.2764795"><ele>218.0</ele><time>2026-04-26T09:41:15.926Z</time></trkpt><trkpt lat="43.0860327" lon="12.2765994"><ele>218.00000000000003</ele><time>2026-04-26T09:41:17.928Z</time></trkpt><trkpt lat="43.086007" lon="12.2767043"><ele>218.0</ele><time>2026-04-26T09:41:19.926Z</time></trkpt><trkpt lat="43.0859921" lon="12.276823"><ele>217.83333333333334</ele><time>2026-04-26T09:41:21.942Z</time></trkpt><trkpt lat="43.0860234" lon="12.2769117"><ele>217.66666666666669</ele><time>2026-04-26T09:41:23.929Z</time></trkpt><trkpt lat="43.0860647" lon="12.2770208"><ele>217.5</ele><time>2026-04-26T09:41:26.932Z</time></trkpt><trkpt lat="43.0860043" lon="12.2771201"><ele>217.33333333333331</ele><time>2026-04-26T09:41:29.932Z</time></trkpt><trkpt lat="43.0859784" lon="12.2772008"><ele>217.16666666666666</ele><time>2026-04-26T09:41:31.933Z</time></trkpt><trkpt lat="43.0859345" lon="12.2772697"><ele>217.0</ele><time>2026-04-26T09:41:33.923Z</time></trkpt><trkpt lat="43.08587" lon="12.2773297"><ele>217.49999999999997</ele><time>2026-04-26T09:41:35.929Z</time></trkpt><trkpt lat="43.0858008" lon="12.2773761"><ele>218.0</ele><time>2026-04-26T09:41:37.93Z</time></trkpt><trkpt lat="43.0857209" lon="12.2773715"><ele>218.5</ele><time>2026-04-26T09:41:39.932Z</time></trkpt><trkpt lat="43.0856421" lon="12.2773378"><ele>219.0</ele><time>2026-04-26T09:41:41.923Z</time></trkpt><trkpt lat="43.0855643" lon="12.2773091"><ele>219.49999999999997</ele><time>2026-04-26T09:41:43.932Z</time></trkpt><trkpt lat="43.0855003" lon="12.2772918"><ele>220.0</ele><time>2026-04-26T09:41:45.932Z</time></trkpt><trkpt lat="43.0854257" lon="12.2772924"><ele>220.14285714285714</ele><time>2026-04-26T09:41:48.928Z</time></trkpt><trkpt lat="43.0853655" lon="12.2772587"><ele>220.28571428571428</ele><time>2026-04-26T09:41:50.93Z</time></trkpt><trkpt lat="43.0852973" lon="12.2772357"><ele>220.42857142857144</ele><time>2026-04-26T09:41:52.927Z</time></trkpt><trkpt lat="43.0852303" lon="12.2772177"><ele>220.57142857142856</ele><time>2026-04-26T09:41:55.033Z</time></trkpt><trkpt lat="43.0851635" lon="12.2772016"><ele>220.71428571428572</ele><time>2026-04-26T09:41:56.927Z</time></trkpt><trkpt lat="43.0850956" lon="12.2771935"><ele>220.85714285714286</ele><time>2026-04-26T09:41:58.923Z</time></trkpt><trkpt lat="43.0850235" lon="12.2771834"><ele>221.0</ele><time>2026-04-26T09:42:00.925Z</time></trkpt><trkpt lat="43.0849499" lon="12.2771679"><ele>224.33333333333334</ele><time>2026-04-26T09:42:02.929Z</time></trkpt><trkpt lat="43.0848722" lon="12.2771503"><ele>227.66666666666669</ele><time>2026-04-26T09:42:04.933Z</time></trkpt><trkpt lat="43.0847933" lon="12.2771401"><ele>231.0</ele><time>2026-04-26T09:42:06.93Z</time></trkpt><trkpt lat="43.0847154" lon="12.2771576"><ele>234.33333333333331</ele><time>2026-04-26T09:42:08.905Z</time></trkpt><trkpt lat="43.0846564" lon="12.2772367"><ele>237.66666666666666</ele><time>2026-04-26T09:42:10.928Z</time></trkpt><trkpt lat="43.0846336" lon="12.277351"><ele>241.0</ele><time>2026-04-26T09:42:12.932Z</time></trkpt><trkpt lat="43.0846641" lon="12.2774699"><ele>241.8</ele><time>2026-04-26T09:42:14.926Z</time></trkpt><trkpt lat="43.0847112" lon="12.2775775"><ele>242.60000000000002</ele><time>2026-04-26T09:42:16.927Z</time></trkpt><trkpt lat="43.0847431" lon="12.2776951"><ele>243.4</ele><time>2026-04-26T09:42:18.914Z</time></trkpt><trkpt lat="43.0847499" lon="12.2778258"><ele>244.2</ele><time>2026-04-26T09:42:20.916Z</time></trkpt><trkpt lat="43.0847409" lon="12.2779602"><ele>245.0</ele><time>2026-04-26T09:42:22.927Z</time></trkpt><trkpt lat="43.0847275" lon="12.2781838"><ele>245.0</ele><time>2026-04-26T09:42:25.933Z</time></trkpt><trkpt lat="43.0846991" lon="12.2783366"><ele>245.0</ele><time>2026-04-26T09:42:27.934Z</time></trkpt><trkpt lat="43.0846468" lon="12.2784897"><ele>245.0</ele><time>2026-04-26T09:42:29.916Z</time></trkpt><trkpt lat="43.0845659" lon="12.2786068"><ele>245.0</ele><time>2026-04-26T09:42:31.923Z</time></trkpt><trkpt lat="43.0844705" lon="12.2786893"><ele>245.0</ele><time>2026-04-26T09:42:33.926Z</time></trkpt><trkpt lat="43.0843912" lon="12.2787754"><ele>245.0</ele><time>2026-04-26T09:42:35.929Z</time></trkpt><trkpt lat="43.0843263" lon="12.2788636"><ele>245.0</ele><time>2026-04-26T09:42:37.922Z</time></trkpt><trkpt lat="43.0842782" lon="12.2789626"><ele>245.0</ele><time>2026-04-26T09:42:39.928Z</time></trkpt><trkpt lat="43.0842283" lon="12.2790613"><ele>245.0</ele><time>2026-04-26T09:42:41.93Z</time></trkpt><trkpt lat="43.0841772" lon="12.2791557"><ele>244.50000000000003</ele><time>2026-04-26T09:42:43.936Z</time></trkpt><trkpt lat="43.0841149" lon="12.2792263"><ele>244.0</ele><time>2026-04-26T09:42:45.924Z</time></trkpt><trkpt lat="43.0840437" lon="12.2792735"><ele>243.5</ele><time>2026-04-26T09:42:47.923Z</time></trkpt><trkpt lat="43.0839729" lon="12.2793196"><ele>243.0</ele><time>2026-04-26T09:42:49.904Z</time></trkpt><trkpt lat="43.0839031" lon="12.2793682"><ele>242.50000000000003</ele><time>2026-04-26T09:42:51.928Z</time></trkpt><trkpt lat="43.0838342" lon="12.2794113"><ele>242.0</ele><time>2026-04-26T09:42:54.035Z</time></trkpt><trkpt lat="43.0837635" lon="12.2794537"><ele>242.0</ele><time>2026-04-26T09:42:55.91Z</time></trkpt><trkpt lat="43.0836922" lon="12.2794931"><ele>241.99999999999997</ele><time>2026-04-26T09:42:57.927Z</time></trkpt><trkpt lat="43.0836206" lon="12.2795249"><ele>242.0</ele><time>2026-04-26T09:42:59.927Z</time></trkpt><trkpt lat="43.0835491" lon="12.2795521"><ele>242.0</ele><time>2026-04-26T09:43:01.926Z</time></trkpt><trkpt lat="43.0834786" lon="12.2795768"><ele>241.99999999999997</ele><time>2026-04-26T09:43:03.929Z</time></trkpt><trkpt lat="43.0834087" lon="12.2796149"><ele>242.0</ele><time>2026-04-26T09:43:05.913Z</time></trkpt><trkpt lat="43.0833385" lon="12.2796403"><ele>242.0</ele><time>2026-04-26T09:43:07.933Z</time></trkpt><trkpt lat="43.0832632" lon="12.2796524"><ele>242.14285714285714</ele><time>2026-04-26T09:43:09.935Z</time></trkpt><trkpt lat="43.0831908" lon="12.279658"><ele>242.28571428571428</ele><time>2026-04-26T09:43:11.927Z</time></trkpt><trkpt lat="43.0831196" lon="12.2796694"><ele>242.42857142857142</ele><time>2026-04-26T09:43:13.929Z</time></trkpt><trkpt lat="43.0830486" lon="12.2796835"><ele>242.57142857142856</ele><time>2026-04-26T09:43:15.925Z</time></trkpt><trkpt lat="43.0829815" lon="12.2796995"><ele>242.71428571428572</ele><time>2026-04-26T09:43:17.931Z</time></trkpt><trkpt lat="43.0829096" lon="12.2797227"><ele>242.85714285714283</ele><time>2026-04-26T09:43:19.929Z</time></trkpt><trkpt lat="43.0828306" lon="12.2797519"><ele>243.0</ele><time>2026-04-26T09:43:21.923Z</time></trkpt><trkpt lat="43.0827472" lon="12.2797763"><ele>240.60000000000002</ele><time>2026-04-26T09:43:23.925Z</time></trkpt><trkpt lat="43.0826663" lon="12.2798003"><ele>238.20000000000002</ele><time>2026-04-26T09:43:25.922Z</time></trkpt><trkpt lat="43.0825822" lon="12.2798247"><ele>235.8</ele><time>2026-04-26T09:43:27.926Z</time></trkpt><trkpt lat="43.0824906" lon="12.2798565"><ele>233.4</ele><time>2026-04-26T09:43:29.918Z</time></trkpt><trkpt lat="43.0823878" lon="12.2799054"><ele>231.0</ele><time>2026-04-26T09:43:31.927Z</time></trkpt><trkpt lat="43.0822715" lon="12.2799896"><ele>231.0</ele><time>2026-04-26T09:43:33.923Z</time></trkpt><trkpt lat="43.0822134" lon="12.2800499"><ele>231.00000000000003</ele><time>2026-04-26T09:43:34.935Z</time></trkpt><trkpt lat="43.0821515" lon="12.2801284"><ele>231.00000000000003</ele><time>2026-04-26T09:43:35.921Z</time></trkpt><trkpt lat="43.0820912" lon="12.2802205"><ele>231.0</ele><time>2026-04-26T09:43:36.932Z</time></trkpt><trkpt lat="43.0820311" lon="12.2803442"><ele>231.0</ele><time>2026-04-26T09:43:37.913Z</time></trkpt><trkpt lat="43.0819671" lon="12.2804396"><ele>231.0</ele><time>2026-04-26T09:43:38.917Z</time></trkpt><trkpt lat="43.081905" lon="12.2805348"><ele>231.00000000000003</ele><time>2026-04-26T09:43:39.935Z</time></trkpt><trkpt lat="43.0818421" lon="12.2806283"><ele>231.00000000000003</ele><time>2026-04-26T09:43:40.92Z</time></trkpt><trkpt lat="43.0817795" lon="12.2807189"><ele>231.0</ele><time>2026-04-26T09:43:41.93Z</time></trkpt><trkpt lat="43.081718" lon="12.2808075"><ele>231.0</ele><time>2026-04-26T09:43:42.916Z</time></trkpt><trkpt lat="43.081659" lon="12.280892"><ele>230.66666666666666</ele><time>2026-04-26T09:43:43.909Z</time></trkpt><trkpt lat="43.0816018" lon="12.2809785"><ele>230.33333333333331</ele><time>2026-04-26T09:43:44.913Z</time></trkpt><trkpt lat="43.0815453" lon="12.2810596"><ele>230.0</ele><time>2026-04-26T09:43:45.911Z</time></trkpt><trkpt lat="43.0814927" lon="12.2811459"><ele>229.66666666666666</ele><time>2026-04-26T09:43:46.912Z</time></trkpt><trkpt lat="43.0814504" lon="12.2812354"><ele>229.33333333333331</ele><time>2026-04-26T09:43:47.909Z</time></trkpt><trkpt lat="43.0814154" lon="12.281332"><ele>229.0</ele><time>2026-04-26T09:43:48.913Z</time></trkpt><trkpt lat="43.0813947" lon="12.2814316"><ele>228.57142857142856</ele><time>2026-04-26T09:43:49.912Z</time></trkpt><trkpt lat="43.0813798" lon="12.2815309"><ele>228.14285714285717</ele><time>2026-04-26T09:43:50.912Z</time></trkpt><trkpt lat="43.0813665" lon="12.2816288"><ele>227.71428571428572</ele><time>2026-04-26T09:43:51.913Z</time></trkpt><trkpt lat="43.0813527" lon="12.2817283"><ele>227.28571428571428</ele><time>2026-04-26T09:43:52.92Z</time></trkpt><trkpt lat="43.0813357" lon="12.2818186"><ele>226.85714285714283</ele><time>2026-04-26T09:43:53.931Z</time></trkpt><trkpt lat="43.081322" lon="12.2819092"><ele>226.42857142857144</ele><time>2026-04-26T09:43:54.918Z</time></trkpt><trkpt lat="43.0813059" lon="12.2820022"><ele>226.0</ele><time>2026-04-26T09:43:55.922Z</time></trkpt><trkpt lat="43.0812945" lon="12.2820921"><ele>225.99999999999997</ele><time>2026-04-26T09:43:56.922Z</time></trkpt><trkpt lat="43.0812805" lon="12.282184"><ele>226.0</ele><time>2026-04-26T09:43:57.925Z</time></trkpt><trkpt lat="43.0812699" lon="12.2822703"><ele>226.0</ele><time>2026-04-26T09:43:58.929Z</time></trkpt><trkpt lat="43.0812611" lon="12.282357"><ele>226.0</ele><time>2026-04-26T09:43:59.928Z</time></trkpt><trkpt lat="43.0812435" lon="12.2824465"><ele>225.99999999999997</ele><time>2026-04-26T09:44:00.928Z</time></trkpt><trkpt lat="43.0812235" lon="12.2826098"><ele>226.0</ele><time>2026-04-26T09:44:02.932Z</time></trkpt><trkpt lat="43.0812074" lon="12.2827724"><ele>225.25</ele><time>2026-04-26T09:44:04.932Z</time></trkpt><trkpt lat="43.0811913" lon="12.2829292"><ele>224.5</ele><time>2026-04-26T09:44:06.933Z</time></trkpt><trkpt lat="43.0811813" lon="12.2830891"><ele>223.75</ele><time>2026-04-26T09:44:08.929Z</time></trkpt><trkpt lat="43.0811688" lon="12.2832473"><ele>223.0</ele><time>2026-04-26T09:44:10.932Z</time></trkpt><trkpt lat="43.0811477" lon="12.2833968"><ele>223.0</ele><time>2026-04-26T09:44:12.933Z</time></trkpt><trkpt lat="43.0811294" lon="12.2835516"><ele>223.0</ele><time>2026-04-26T09:44:14.928Z</time></trkpt><trkpt lat="43.0811108" lon="12.2837003"><ele>223.0</ele><time>2026-04-26T09:44:16.932Z</time></trkpt><trkpt lat="43.0810951" lon="12.2838409"><ele>223.0</ele><time>2026-04-26T09:44:18.93Z</time></trkpt><trkpt lat="43.0810824" lon="12.2839863"><ele>223.0</ele><time>2026-04-26T09:44:20.923Z</time></trkpt><trkpt lat="43.0810694" lon="12.2841306"><ele>222.8</ele><time>2026-04-26T09:44:22.932Z</time></trkpt><trkpt lat="43.0810537" lon="12.2842742"><ele>222.60000000000002</ele><time>2026-04-26T09:44:24.926Z</time></trkpt><trkpt lat="43.0810398" lon="12.2844182"><ele>222.39999999999998</ele><time>2026-04-26T09:44:26.931Z</time></trkpt><trkpt lat="43.081039" lon="12.2845648"><ele>222.2</ele><time>2026-04-26T09:44:28.914Z</time></trkpt><trkpt lat="43.081038" lon="12.2847131"><ele>222.0</ele><time>2026-04-26T09:44:30.932Z</time></trkpt><trkpt lat="43.0810429" lon="12.2848591"><ele>223.0</ele><time>2026-04-26T09:44:32.925Z</time></trkpt><trkpt lat="43.0810495" lon="12.2850815"><ele>224.0</ele><time>2026-04-26T09:44:35.927Z</time></trkpt><trkpt lat="43.0810502" lon="12.285229"><ele>225.0</ele><time>2026-04-26T09:44:37.933Z</time></trkpt><trkpt lat="43.0810477" lon="12.2853829"><ele>226.0</ele><time>2026-04-26T09:44:39.931Z</time></trkpt><trkpt lat="43.0810377" lon="12.2855277"><ele>226.60000000000002</ele><time>2026-04-26T09:44:41.926Z</time></trkpt><trkpt lat="43.0810201" lon="12.2856725"><ele>227.20000000000002</ele><time>2026-04-26T09:44:43.935Z</time></trkpt><trkpt lat="43.0810042" lon="12.2858175"><ele>227.79999999999998</ele><time>2026-04-26T09:44:45.925Z</time></trkpt><trkpt lat="43.0809874" lon="12.2859622"><ele>228.39999999999998</ele><time>2026-04-26T09:44:47.931Z</time></trkpt><trkpt lat="43.0809761" lon="12.2861232"><ele>229.0</ele><time>2026-04-26T09:44:49.925Z</time></trkpt><trkpt lat="43.0809667" lon="12.2862675"><ele>229.0</ele><time>2026-04-26T09:44:51.931Z</time></trkpt><trkpt lat="43.0809493" lon="12.2864224"><ele>229.0</ele><time>2026-04-26T09:44:53.927Z</time></trkpt><trkpt lat="43.0809363" lon="12.2865839"><ele>229.0</ele><time>2026-04-26T09:44:55.932Z</time></trkpt><trkpt lat="43.0808925" lon="12.2867245"><ele>229.0</ele><time>2026-04-26T09:44:57.932Z</time></trkpt><trkpt lat="43.080862" lon="12.2868677"><ele>228.79999999999998</ele><time>2026-04-26T09:44:59.932Z</time></trkpt><trkpt lat="43.0808605" lon="12.2869692"><ele>228.59999999999997</ele><time>2026-04-26T09:45:00.925Z</time></trkpt><trkpt lat="43.0808133" lon="12.2871129"><ele>228.4</ele><time>2026-04-26T09:45:02.927Z</time></trkpt><trkpt lat="43.0807992" lon="12.2872019"><ele>228.2</ele><time>2026-04-26T09:45:03.926Z</time></trkpt><trkpt lat="43.0807661" lon="12.2873522"><ele>228.0</ele><time>2026-04-26T09:45:05.928Z</time></trkpt><trkpt lat="43.0807298" lon="12.2874968"><ele>230.4</ele><time>2026-04-26T09:45:07.928Z</time></trkpt><trkpt lat="43.0807026" lon="12.2876491"><ele>232.8</ele><time>2026-04-26T09:45:09.929Z</time></trkpt><trkpt lat="43.08067" lon="12.287795"><ele>235.2</ele><time>2026-04-26T09:45:11.931Z</time></trkpt><trkpt lat="43.0806487" lon="12.2879262"><ele>237.6</ele><time>2026-04-26T09:45:13.926Z</time></trkpt><trkpt lat="43.0806134" lon="12.2880829"><ele>240.0</ele><time>2026-04-26T09:45:15.928Z</time></trkpt><trkpt lat="43.0805846" lon="12.2882343"><ele>240.0</ele><time>2026-04-26T09:45:17.932Z</time></trkpt><trkpt lat="43.0805561" lon="12.2883606"><ele>240.0</ele><time>2026-04-26T09:45:19.929Z</time></trkpt><trkpt lat="43.0805285" lon="12.2885173"><ele>240.0</ele><time>2026-04-26T09:45:22.026Z</time></trkpt><trkpt lat="43.0804936" lon="12.288662"><ele>240.0</ele><time>2026-04-26T09:45:23.928Z</time></trkpt><trkpt lat="43.080459" lon="12.2888029"><ele>240.0</ele><time>2026-04-26T09:45:25.928Z</time></trkpt><trkpt lat="43.0804169" lon="12.2889455"><ele>237.2</ele><time>2026-04-26T09:45:27.927Z</time></trkpt><trkpt lat="43.0803566" lon="12.2890796"><ele>234.4</ele><time>2026-04-26T09:45:29.927Z</time></trkpt><trkpt lat="43.0802904" lon="12.2891876"><ele>231.60000000000002</ele><time>2026-04-26T09:45:31.922Z</time></trkpt><trkpt lat="43.0802105" lon="12.2892799"><ele>228.8</ele><time>2026-04-26T09:45:33.913Z</time></trkpt><trkpt lat="43.0801269" lon="12.2893581"><ele>226.0</ele><time>2026-04-26T09:45:35.93Z</time></trkpt><trkpt lat="43.0800307" lon="12.2894019"><ele>226.4</ele><time>2026-04-26T09:45:37.929Z</time></trkpt><trkpt lat="43.0799275" lon="12.2894344"><ele>226.8</ele><time>2026-04-26T09:45:39.932Z</time></trkpt><trkpt lat="43.0798235" lon="12.2894683"><ele>227.20000000000002</ele><time>2026-04-26T09:45:41.928Z</time></trkpt><trkpt lat="43.0797137" lon="12.2894887"><ele>227.60000000000002</ele><time>2026-04-26T09:45:43.933Z</time></trkpt><trkpt lat="43.0796005" lon="12.2894815"><ele>228.0</ele><time>2026-04-26T09:45:45.928Z</time></trkpt><trkpt lat="43.0794948" lon="12.2894566"><ele>228.0</ele><time>2026-04-26T09:45:47.935Z</time></trkpt><trkpt lat="43.0793972" lon="12.2894327"><ele>228.0</ele><time>2026-04-26T09:45:49.929Z</time></trkpt><trkpt lat="43.0792978" lon="12.2893943"><ele>228.0</ele><time>2026-04-26T09:45:51.928Z</time></trkpt><trkpt lat="43.079203" lon="12.2893387"><ele>228.0</ele><time>2026-04-26T09:45:53.928Z</time></trkpt><trkpt lat="43.0791139" lon="12.2892893"><ele>228.0</ele><time>2026-04-26T09:45:55.928Z</time></trkpt><trkpt lat="43.0790288" lon="12.2892261"><ele>227.4</ele><time>2026-04-26T09:45:57.923Z</time></trkpt><trkpt lat="43.0789342" lon="12.2891707"><ele>226.8</ele><time>2026-04-26T09:45:59.93Z</time></trkpt><trkpt lat="43.0788358" lon="12.2891174"><ele>226.2</ele><time>2026-04-26T09:46:01.927Z</time></trkpt><trkpt lat="43.0787419" lon="12.2890602"><ele>225.6</ele><time>2026-04-26T09:46:03.93Z</time></trkpt><trkpt lat="43.0786444" lon="12.2890159"><ele>225.0</ele><time>2026-04-26T09:46:05.927Z</time></trkpt><trkpt lat="43.0785424" lon="12.2889709"><ele>225.0</ele><time>2026-04-26T09:46:07.931Z</time></trkpt><trkpt lat="43.0784415" lon="12.2889341"><ele>225.0</ele><time>2026-04-26T09:46:09.931Z</time></trkpt><trkpt lat="43.078341" lon="12.2889078"><ele>225.0</ele><time>2026-04-26T09:46:11.953Z</time></trkpt><trkpt lat="43.0782395" lon="12.2888871"><ele>225.0</ele><time>2026-04-26T09:46:13.926Z</time></trkpt><trkpt lat="43.078132" lon="12.2888734"><ele>225.0</ele><time>2026-04-26T09:46:15.926Z</time></trkpt><trkpt lat="43.078066" lon="12.2888707"><ele>229.8</ele><time>2026-04-26T09:46:16.928Z</time></trkpt><trkpt lat="43.0779536" lon="12.2888636"><ele>234.6</ele><time>2026-04-26T09:46:18.928Z</time></trkpt><trkpt lat="43.077838" lon="12.2888656"><ele>239.39999999999998</ele><time>2026-04-26T09:46:20.932Z</time></trkpt><trkpt lat="43.077773" lon="12.2888631"><ele>244.2</ele><time>2026-04-26T09:46:21.932Z</time></trkpt><trkpt lat="43.0776641" lon="12.2888762"><ele>249.0</ele><time>2026-04-26T09:46:23.939Z</time></trkpt><trkpt lat="43.0775512" lon="12.2888951"><ele>244.6</ele><time>2026-04-26T09:46:25.932Z</time></trkpt><trkpt lat="43.0774363" lon="12.2889261"><ele>240.2</ele><time>2026-04-26T09:46:27.933Z</time></trkpt><trkpt lat="43.0773328" lon="12.2889719"><ele>235.79999999999998</ele><time>2026-04-26T09:46:29.923Z</time></trkpt><trkpt lat="43.0772269" lon="12.2890163"><ele>231.39999999999998</ele><time>2026-04-26T09:46:31.931Z</time></trkpt><trkpt lat="43.0771244" lon="12.2890706"><ele>227.0</ele><time>2026-04-26T09:46:33.93Z</time></trkpt><trkpt lat="43.0770219" lon="12.289129"><ele>227.0</ele><time>2026-04-26T09:46:35.94Z</time></trkpt><trkpt lat="43.0769218" lon="12.2891776"><ele>227.0</ele><time>2026-04-26T09:46:37.929Z</time></trkpt><trkpt lat="43.0768235" lon="12.2892161"><ele>227.0</ele><time>2026-04-26T09:46:39.925Z</time></trkpt><trkpt lat="43.0767269" lon="12.2892678"><ele>227.0</ele><time>2026-04-26T09:46:41.935Z</time></trkpt><trkpt lat="43.076626" lon="12.2893028"><ele>227.0</ele><time>2026-04-26T09:46:43.936Z</time></trkpt><trkpt lat="43.07654" lon="12.2893394"><ele>226.6</ele><time>2026-04-26T09:46:45.923Z</time></trkpt><trkpt lat="43.0764392" lon="12.2893584"><ele>226.2</ele><time>2026-04-26T09:46:47.93Z</time></trkpt><trkpt lat="43.0763398" lon="12.28937"><ele>225.8</ele><time>2026-04-26T09:46:49.931Z</time></trkpt><trkpt lat="43.076238" lon="12.289381"><ele>225.4</ele><time>2026-04-26T09:46:51.924Z</time></trkpt><trkpt lat="43.0761218" lon="12.2893739"><ele>225.0</ele><time>2026-04-26T09:46:53.918Z</time></trkpt><trkpt lat="43.0760184" lon="12.2893743"><ele>225.0</ele><time>2026-04-26T09:46:55.931Z</time></trkpt><trkpt lat="43.0759035" lon="12.2893722"><ele>225.0</ele><time>2026-04-26T09:46:57.929Z</time></trkpt><trkpt lat="43.0757987" lon="12.2893728"><ele>225.0</ele><time>2026-04-26T09:46:59.935Z</time></trkpt><trkpt lat="43.0756838" lon="12.289357"><ele>225.0</ele><time>2026-04-26T09:47:01.924Z</time></trkpt><trkpt lat="43.0755745" lon="12.2893721"><ele>225.0</ele><time>2026-04-26T09:47:03.923Z</time></trkpt><trkpt lat="43.0754878" lon="12.2894663"><ele>223.66666666666666</ele><time>2026-04-26T09:47:05.932Z</time></trkpt><trkpt lat="43.0754207" lon="12.28961"><ele>222.33333333333331</ele><time>2026-04-26T09:47:07.943Z</time></trkpt><trkpt lat="43.0753958" lon="12.2897064"><ele>221.0</ele><time>2026-04-26T09:47:08.934Z</time></trkpt><trkpt lat="43.0753618" lon="12.2897831"><ele>219.66666666666666</ele><time>2026-04-26T09:47:09.921Z</time></trkpt><trkpt lat="43.0753282" lon="12.2898562"><ele>218.33333333333331</ele><time>2026-04-26T09:47:10.927Z</time></trkpt><trkpt lat="43.0753036" lon="12.2899361"><ele>217.0</ele><time>2026-04-26T09:47:11.927Z</time></trkpt><trkpt lat="43.0752588" lon="12.2901015"><ele>216.0</ele><time>2026-04-26T09:47:13.927Z</time></trkpt><trkpt lat="43.0752017" lon="12.2902376"><ele>215.0</ele><time>2026-04-26T09:47:15.927Z</time></trkpt><trkpt lat="43.0751443" lon="12.2903679"><ele>214.0</ele><time>2026-04-26T09:47:17.931Z</time></trkpt><trkpt lat="43.0750917" lon="12.290501"><ele>213.0</ele><time>2026-04-26T09:47:19.931Z</time></trkpt><trkpt lat="43.0750336" lon="12.2906391"><ele>213.0</ele><time>2026-04-26T09:47:21.928Z</time></trkpt><trkpt lat="43.0749704" lon="12.2907716"><ele>213.0</ele><time>2026-04-26T09:47:23.928Z</time></trkpt><trkpt lat="43.0749118" lon="12.2909075"><ele>213.0</ele><time>2026-04-26T09:47:25.927Z</time></trkpt><trkpt lat="43.0748671" lon="12.2910574"><ele>213.0</ele><time>2026-04-26T09:47:27.929Z</time></trkpt><trkpt lat="43.0748135" lon="12.2911829"><ele>213.0</ele><time>2026-04-26T09:47:29.932Z</time></trkpt><trkpt lat="43.0747594" lon="12.2913128"><ele>213.0</ele><time>2026-04-26T09:47:31.933Z</time></trkpt><trkpt lat="43.0747107" lon="12.2914491"><ele>213.0</ele><time>2026-04-26T09:47:33.918Z</time></trkpt><trkpt lat="43.0746552" lon="12.2915658"><ele>213.0</ele><time>2026-04-26T09:47:35.93Z</time></trkpt><trkpt lat="43.0746095" lon="12.2916867"><ele>213.0</ele><time>2026-04-26T09:47:37.935Z</time></trkpt><trkpt lat="43.0745595" lon="12.2918085"><ele>213.16666666666666</ele><time>2026-04-26T09:47:39.927Z</time></trkpt><trkpt lat="43.0745035" lon="12.2919147"><ele>213.33333333333331</ele><time>2026-04-26T09:47:41.926Z</time></trkpt><trkpt lat="43.0744471" lon="12.2920113"><ele>213.5</ele><time>2026-04-26T09:47:43.933Z</time></trkpt><trkpt lat="43.074394" lon="12.2920646"><ele>213.66666666666666</ele><time>2026-04-26T09:47:45.932Z</time></trkpt><trkpt lat="43.0743151" lon="12.2920393"><ele>213.83333333333331</ele><time>2026-04-26T09:47:49.909Z</time></trkpt><trkpt lat="43.0742486" lon="12.2920167"><ele>214.0</ele><time>2026-04-26T09:47:51.931Z</time></trkpt><trkpt lat="43.0741844" lon="12.2919242"><ele>213.99999999999997</ele><time>2026-04-26T09:47:53.912Z</time></trkpt><trkpt lat="43.0741136" lon="12.2918072"><ele>214.0</ele><time>2026-04-26T09:47:55.924Z</time></trkpt><trkpt lat="43.0740427" lon="12.2917157"><ele>214.0</ele><time>2026-04-26T09:47:57.92Z</time></trkpt><trkpt lat="43.0739836" lon="12.2916448"><ele>214.0</ele><time>2026-04-26T09:47:59.917Z</time></trkpt><trkpt lat="43.0739329" lon="12.2915817"><ele>213.99999999999997</ele><time>2026-04-26T09:48:01.935Z</time></trkpt><trkpt lat="43.0738804" lon="12.2914949"><ele>214.0</ele><time>2026-04-26T09:48:04.918Z</time></trkpt><trkpt lat="43.0738138" lon="12.2914096"><ele>214.00000000000003</ele><time>2026-04-26T09:48:07.918Z</time></trkpt><trkpt lat="43.073769" lon="12.2913128"><ele>214.0</ele><time>2026-04-26T09:48:10.916Z</time></trkpt><trkpt lat="43.0737009" lon="12.291348"><ele>214.0</ele><time>2026-04-26T09:48:14.913Z</time></trkpt><trkpt lat="43.0736909" lon="12.2914386"><ele>214.0</ele><time>2026-04-26T09:48:16.911Z</time></trkpt><trkpt lat="43.0736998" lon="12.2915447"><ele>214.0</ele><time>2026-04-26T09:48:18.921Z</time></trkpt><trkpt lat="43.0737103" lon="12.2916475"><ele>214.00000000000003</ele><time>2026-04-26T09:48:21.009Z</time></trkpt><trkpt lat="43.0737181" lon="12.2917338"><ele>214.0</ele><time>2026-04-26T09:48:22.931Z</time></trkpt><trkpt lat="43.0737218" lon="12.2918473"><ele>213.99999999999997</ele><time>2026-04-26T09:48:25.925Z</time></trkpt><trkpt lat="43.0737292" lon="12.2919562"><ele>214.0</ele><time>2026-04-26T09:48:28.93Z</time></trkpt><trkpt lat="43.0737386" lon="12.2920756"><ele>214.0</ele><time>2026-04-26T09:48:32.019Z</time></trkpt><trkpt lat="43.0737469" lon="12.2921898"><ele>214.0</ele><time>2026-04-26T09:48:34.929Z</time></trkpt><trkpt lat="43.0737605" lon="12.292303"><ele>213.99999999999997</ele><time>2026-04-26T09:48:37.915Z</time></trkpt><trkpt lat="43.0737683" lon="12.292407"><ele>214.0</ele><time>2026-04-26T09:48:40.932Z</time></trkpt><trkpt lat="43.0737761" lon="12.2925125"><ele>214.42857142857144</ele><time>2026-04-26T09:48:43.927Z</time></trkpt><trkpt lat="43.0737927" lon="12.2926176"><ele>214.85714285714286</ele><time>2026-04-26T09:48:46.941Z</time></trkpt><trkpt lat="43.0738007" lon="12.2927218"><ele>215.28571428571428</ele><time>2026-04-26T09:48:49.93Z</time></trkpt><trkpt lat="43.073804" lon="12.2928252"><ele>215.71428571428572</ele><time>2026-04-26T09:48:52.925Z</time></trkpt><trkpt lat="43.0737968" lon="12.2929238"><ele>216.14285714285714</ele><time>2026-04-26T09:48:55.924Z</time></trkpt><trkpt lat="43.0737858" lon="12.2930162"><ele>216.57142857142858</ele><time>2026-04-26T09:48:58.931Z</time></trkpt><trkpt lat="43.0737607" lon="12.293104"><ele>217.0</ele><time>2026-04-26T09:49:01.93Z</time></trkpt><trkpt lat="43.0737049" lon="12.293184"><ele>217.16666666666666</ele><time>2026-04-26T09:49:04.93Z</time></trkpt><trkpt lat="43.0736437" lon="12.2932454"><ele>217.33333333333331</ele><time>2026-04-26T09:49:07.933Z</time></trkpt><trkpt lat="43.0735733" lon="12.2932942"><ele>217.5</ele><time>2026-04-26T09:49:10.929Z</time></trkpt><trkpt lat="43.0735048" lon="12.2933414"><ele>217.66666666666669</ele><time>2026-04-26T09:49:13.932Z</time></trkpt><trkpt lat="43.0734529" lon="12.2934094"><ele>217.83333333333334</ele><time>2026-04-26T09:49:16.934Z</time></trkpt><trkpt lat="43.0734115" lon="12.2935025"><ele>218.0</ele><time>2026-04-26T09:49:19.934Z</time></trkpt><trkpt lat="43.0733689" lon="12.2936012"><ele>218.00000000000003</ele><time>2026-04-26T09:49:22.928Z</time></trkpt><trkpt lat="43.073335" lon="12.2936987"><ele>218.0</ele><time>2026-04-26T09:49:25.928Z</time></trkpt><trkpt lat="43.0733142" lon="12.2938071"><ele>218.0</ele><time>2026-04-26T09:49:28.926Z</time></trkpt><trkpt lat="43.07329" lon="12.2939081"><ele>218.0</ele><time>2026-04-26T09:49:31.935Z</time></trkpt><trkpt lat="43.0732531" lon="12.2940145"><ele>218.00000000000003</ele><time>2026-04-26T09:49:34.927Z</time></trkpt><trkpt lat="43.0732287" lon="12.2941226"><ele>218.0</ele><time>2026-04-26T09:49:37.931Z</time></trkpt><trkpt lat="43.0732207" lon="12.2942284"><ele>218.85714285714286</ele><time>2026-04-26T09:49:40.926Z</time></trkpt><trkpt lat="43.073198" lon="12.2943246"><ele>219.71428571428572</ele><time>2026-04-26T09:49:43.924Z</time></trkpt><trkpt lat="43.0731675" lon="12.2944235"><ele>220.57142857142856</ele><time>2026-04-26T09:49:46.931Z</time></trkpt><trkpt lat="43.0731496" lon="12.2945227"><ele>221.42857142857144</ele><time>2026-04-26T09:49:49.925Z</time></trkpt><trkpt lat="43.0731487" lon="12.2946179"><ele>222.28571428571428</ele><time>2026-04-26T09:49:54.027Z</time></trkpt><trkpt lat="43.0731832" lon="12.2947004"><ele>223.14285714285714</ele><time>2026-04-26T09:49:57.931Z</time></trkpt><trkpt lat="43.0731985" lon="12.2947852"><ele>224.0</ele><time>2026-04-26T09:50:01.932Z</time></trkpt><trkpt lat="43.0732189" lon="12.2948709"><ele>224.0</ele><time>2026-04-26T09:50:05.924Z</time></trkpt><trkpt lat="43.073251" lon="12.2949672"><ele>224.0</ele><time>2026-04-26T09:50:09.929Z</time></trkpt><trkpt lat="43.0732866" lon="12.2950658"><ele>224.0</ele><time>2026-04-26T09:50:13.927Z</time></trkpt><trkpt lat="43.073316" lon="12.2951529"><ele>224.0</ele><time>2026-04-26T09:50:16.931Z</time></trkpt><trkpt lat="43.0733465" lon="12.2952453"><ele>224.0</ele><time>2026-04-26T09:50:19.932Z</time></trkpt><trkpt lat="43.0733777" lon="12.2953343"><ele>224.0</ele><time>2026-04-26T09:50:22.912Z</time></trkpt><trkpt lat="43.0734102" lon="12.2954232"><ele>224.0</ele><time>2026-04-26T09:50:25.928Z</time></trkpt><trkpt lat="43.0734391" lon="12.295518"><ele>224.42857142857144</ele><time>2026-04-26T09:50:28.931Z</time></trkpt><trkpt lat="43.0734703" lon="12.2956074"><ele>224.85714285714286</ele><time>2026-04-26T09:50:31.935Z</time></trkpt><trkpt lat="43.0735014" lon="12.2956983"><ele>225.28571428571428</ele><time>2026-04-26T09:50:34.928Z</time></trkpt><trkpt lat="43.073533" lon="12.2957907"><ele>225.71428571428572</ele><time>2026-04-26T09:50:37.929Z</time></trkpt><trkpt lat="43.073572" lon="12.2958907"><ele>226.14285714285717</ele><time>2026-04-26T09:50:40.935Z</time></trkpt><trkpt lat="43.0736056" lon="12.2959652"><ele>226.57142857142858</ele><time>2026-04-26T09:50:42.925Z</time></trkpt><trkpt lat="43.0736426" lon="12.2960439"><ele>227.0</ele><time>2026-04-26T09:50:44.919Z</time></trkpt><trkpt lat="43.0736741" lon="12.2961306"><ele>227.0</ele><time>2026-04-26T09:50:47.033Z</time></trkpt><trkpt lat="43.0737015" lon="12.2962188"><ele>227.00000000000003</ele><time>2026-04-26T09:50:48.928Z</time></trkpt><trkpt lat="43.073723" lon="12.2963115"><ele>227.0</ele><time>2026-04-26T09:50:50.93Z</time></trkpt><trkpt lat="43.0737419" lon="12.2963973"><ele>227.0</ele><time>2026-04-26T09:50:52.924Z</time></trkpt><trkpt lat="43.0737577" lon="12.2964855"><ele>227.00000000000003</ele><time>2026-04-26T09:50:54.926Z</time></trkpt><trkpt lat="43.0737761" lon="12.2965891"><ele>227.0</ele><time>2026-04-26T09:50:56.929Z</time></trkpt><trkpt lat="43.0737964" lon="12.2966993"><ele>227.0</ele><time>2026-04-26T09:50:58.925Z</time></trkpt><trkpt lat="43.0738159" lon="12.2967989"><ele>226.66666666666669</ele><time>2026-04-26T09:51:00.928Z</time></trkpt><trkpt lat="43.0738342" lon="12.296884"><ele>226.33333333333334</ele><time>2026-04-26T09:51:02.933Z</time></trkpt><trkpt lat="43.0738574" lon="12.2970107"><ele>226.0</ele><time>2026-04-26T09:51:05.928Z</time></trkpt><trkpt lat="43.0738802" lon="12.2971113"><ele>225.66666666666669</ele><time>2026-04-26T09:51:07.929Z</time></trkpt><trkpt lat="43.0738985" lon="12.2972211"><ele>225.33333333333334</ele><time>2026-04-26T09:51:09.933Z</time></trkpt><trkpt lat="43.0739071" lon="12.2973244"><ele>225.0</ele><time>2026-04-26T09:51:11.932Z</time></trkpt><trkpt lat="43.0739267" lon="12.2974258"><ele>224.8571428571429</ele><time>2026-04-26T09:51:13.938Z</time></trkpt><trkpt lat="43.0739511" lon="12.297522"><ele>224.71428571428572</ele><time>2026-04-26T09:51:15.931Z</time></trkpt><trkpt lat="43.0739861" lon="12.2976124"><ele>224.57142857142858</ele><time>2026-04-26T09:51:17.925Z</time></trkpt><trkpt lat="43.0740216" lon="12.2977046"><ele>224.42857142857144</ele><time>2026-04-26T09:51:19.932Z</time></trkpt><trkpt lat="43.0740591" lon="12.297797"><ele>224.28571428571428</ele><time>2026-04-26T09:51:21.932Z</time></trkpt><trkpt lat="43.0740975" lon="12.2978807"><ele>224.14285714285714</ele><time>2026-04-26T09:51:23.932Z</time></trkpt><trkpt lat="43.07413" lon="12.2979717"><ele>224.0</ele><time>2026-04-26T09:51:25.925Z</time></trkpt><trkpt lat="43.0741666" lon="12.2980652"><ele>224.66666666666669</ele><time>2026-04-26T09:51:27.932Z</time></trkpt><trkpt lat="43.0742072" lon="12.2981594"><ele>225.33333333333334</ele><time>2026-04-26T09:51:29.931Z</time></trkpt><trkpt lat="43.0742465" lon="12.2982568"><ele>226.0</ele><time>2026-04-26T09:51:31.921Z</time></trkpt><trkpt lat="43.0742862" lon="12.2983551"><ele>226.66666666666669</ele><time>2026-04-26T09:51:33.932Z</time></trkpt><trkpt lat="43.0743328" lon="12.2984492"><ele>227.33333333333334</ele><time>2026-04-26T09:51:35.925Z</time></trkpt><trkpt lat="43.0743791" lon="12.2985416"><ele>228.0</ele><time>2026-04-26T09:51:37.936Z</time></trkpt><trkpt lat="43.0744304" lon="12.2986269"><ele>228.0</ele><time>2026-04-26T09:51:39.928Z</time></trkpt><trkpt lat="43.074486" lon="12.2987083"><ele>228.0</ele><time>2026-04-26T09:51:41.935Z</time></trkpt><trkpt lat="43.0745425" lon="12.2987858"><ele>228.0</ele><time>2026-04-26T09:51:43.932Z</time></trkpt><trkpt lat="43.0746031" lon="12.2988606"><ele>228.0</ele><time>2026-04-26T09:51:45.927Z</time></trkpt><trkpt lat="43.0746656" lon="12.2989256"><ele>228.0</ele><time>2026-04-26T09:51:47.932Z</time></trkpt><trkpt lat="43.074729" lon="12.2989815"><ele>228.0</ele><time>2026-04-26T09:51:49.927Z</time></trkpt><trkpt lat="43.0747952" lon="12.2990476"><ele>227.83333333333334</ele><time>2026-04-26T09:51:51.93Z</time></trkpt><trkpt lat="43.0748614" lon="12.2991246"><ele>227.66666666666669</ele><time>2026-04-26T09:51:53.932Z</time></trkpt><trkpt lat="43.0749282" lon="12.2992026"><ele>227.5</ele><time>2026-04-26T09:51:55.928Z</time></trkpt><trkpt lat="43.0749955" lon="12.2992832"><ele>227.33333333333334</ele><time>2026-04-26T09:51:57.931Z</time></trkpt><trkpt lat="43.0750628" lon="12.2993558"><ele>227.16666666666669</ele><time>2026-04-26T09:51:59.931Z</time></trkpt><trkpt lat="43.0751268" lon="12.2994278"><ele>227.0</ele><time>2026-04-26T09:52:01.925Z</time></trkpt><trkpt lat="43.0751927" lon="12.2995005"><ele>228.00000000000003</ele><time>2026-04-26T09:52:03.933Z</time></trkpt><trkpt lat="43.0752578" lon="12.2995702"><ele>229.0</ele><time>2026-04-26T09:52:05.929Z</time></trkpt><trkpt lat="43.0753242" lon="12.2996385"><ele>230.0</ele><time>2026-04-26T09:52:07.927Z</time></trkpt><trkpt lat="43.0753976" lon="12.2997005"><ele>231.0</ele><time>2026-04-26T09:52:09.934Z</time></trkpt><trkpt lat="43.0754699" lon="12.2997735"><ele>232.00000000000003</ele><time>2026-04-26T09:52:11.917Z</time></trkpt><trkpt lat="43.0755459" lon="12.2998405"><ele>233.0</ele><time>2026-04-26T09:52:13.932Z</time></trkpt><trkpt lat="43.0756133" lon="12.2999115"><ele>233.00000000000003</ele><time>2026-04-26T09:52:15.918Z</time></trkpt><trkpt lat="43.0756754" lon="12.2999831"><ele>233.0</ele><time>2026-04-26T09:52:17.931Z</time></trkpt><trkpt lat="43.0757357" lon="12.3000598"><ele>233.0</ele><time>2026-04-26T09:52:19.925Z</time></trkpt><trkpt lat="43.075787" lon="12.3001438"><ele>233.0</ele><time>2026-04-26T09:52:21.93Z</time></trkpt><trkpt lat="43.0758303" lon="12.3002317"><ele>233.00000000000003</ele><time>2026-04-26T09:52:23.914Z</time></trkpt><trkpt lat="43.0758754" lon="12.3003257"><ele>233.0</ele><time>2026-04-26T09:52:25.926Z</time></trkpt><trkpt lat="43.0759213" lon="12.3004237"><ele>233.50000000000003</ele><time>2026-04-26T09:52:27.937Z</time></trkpt><trkpt lat="43.0759661" lon="12.3005221"><ele>234.0</ele><time>2026-04-26T09:52:29.931Z</time></trkpt><trkpt lat="43.0760165" lon="12.3006135"><ele>234.5</ele><time>2026-04-26T09:52:31.922Z</time></trkpt><trkpt lat="43.076062" lon="12.3007078"><ele>235.0</ele><time>2026-04-26T09:52:33.937Z</time></trkpt><trkpt lat="43.0760975" lon="12.300811"><ele>235.50000000000003</ele><time>2026-04-26T09:52:35.915Z</time></trkpt><trkpt lat="43.0761319" lon="12.3009148"><ele>236.0</ele><time>2026-04-26T09:52:37.91Z</time></trkpt><trkpt lat="43.0761706" lon="12.3010108"><ele>236.00000000000003</ele><time>2026-04-26T09:52:39.919Z</time></trkpt><trkpt lat="43.0762049" lon="12.3011038"><ele>236.0</ele><time>2026-04-26T09:52:41.914Z</time></trkpt><trkpt lat="43.0762392" lon="12.3011946"><ele>236.0</ele><time>2026-04-26T09:52:43.912Z</time></trkpt><trkpt lat="43.0762777" lon="12.3012856"><ele>236.0</ele><time>2026-04-26T09:52:45.912Z</time></trkpt><trkpt lat="43.0763368" lon="12.3014248"><ele>236.00000000000003</ele><time>2026-04-26T09:52:48.913Z</time></trkpt><trkpt lat="43.0763685" lon="12.3015187"><ele>236.0</ele><time>2026-04-26T09:52:50.926Z</time></trkpt><trkpt lat="43.076405" lon="12.3016036"><ele>236.0</ele><time>2026-04-26T09:52:53.004Z</time></trkpt><trkpt lat="43.0764403" lon="12.3016939"><ele>236.0</ele><time>2026-04-26T09:52:54.933Z</time></trkpt><trkpt lat="43.0764767" lon="12.3017826"><ele>236.0</ele><time>2026-04-26T09:52:56.924Z</time></trkpt><trkpt lat="43.0765139" lon="12.3018672"><ele>236.0</ele><time>2026-04-26T09:52:58.929Z</time></trkpt><trkpt lat="43.0765515" lon="12.3019507"><ele>236.0</ele><time>2026-04-26T09:53:00.925Z</time></trkpt><trkpt lat="43.0765899" lon="12.3020372"><ele>236.0</ele><time>2026-04-26T09:53:02.926Z</time></trkpt><trkpt lat="43.0766299" lon="12.3021237"><ele>236.0</ele><time>2026-04-26T09:53:04.925Z</time></trkpt><trkpt lat="43.0766733" lon="12.3021953"><ele>237.28571428571428</ele><time>2026-04-26T09:53:06.931Z</time></trkpt><trkpt lat="43.076721" lon="12.3022584"><ele>238.57142857142858</ele><time>2026-04-26T09:53:08.933Z</time></trkpt><trkpt lat="43.0767655" lon="12.3023275"><ele>239.85714285714286</ele><time>2026-04-26T09:53:10.925Z</time></trkpt><trkpt lat="43.0768111" lon="12.3024002"><ele>241.14285714285714</ele><time>2026-04-26T09:53:12.926Z</time></trkpt><trkpt lat="43.0768559" lon="12.3024721"><ele>242.42857142857144</ele><time>2026-04-26T09:53:14.927Z</time></trkpt><trkpt lat="43.076896" lon="12.3025496"><ele>243.71428571428572</ele><time>2026-04-26T09:53:16.932Z</time></trkpt><trkpt lat="43.0769338" lon="12.3026252"><ele>245.0</ele><time>2026-04-26T09:53:18.93Z</time></trkpt><trkpt lat="43.0769736" lon="12.3027048"><ele>245.0</ele><time>2026-04-26T09:53:20.918Z</time></trkpt><trkpt lat="43.0770141" lon="12.3027872"><ele>245.0</ele><time>2026-04-26T09:53:22.929Z</time></trkpt><trkpt lat="43.077051" lon="12.3028696"><ele>245.0</ele><time>2026-04-26T09:53:24.922Z</time></trkpt><trkpt lat="43.0770801" lon="12.3029538"><ele>245.0</ele><time>2026-04-26T09:53:26.924Z</time></trkpt><trkpt lat="43.0771107" lon="12.3030393"><ele>245.0</ele><time>2026-04-26T09:53:29.03Z</time></trkpt><trkpt lat="43.077147" lon="12.303126"><ele>245.0</ele><time>2026-04-26T09:53:30.932Z</time></trkpt><trkpt lat="43.0771827" lon="12.3032149"><ele>245.0</ele><time>2026-04-26T09:53:32.922Z</time></trkpt><trkpt lat="43.0772201" lon="12.3032997"><ele>245.0</ele><time>2026-04-26T09:53:34.925Z</time></trkpt><trkpt lat="43.0772524" lon="12.303382"><ele>245.0</ele><time>2026-04-26T09:53:36.931Z</time></trkpt><trkpt lat="43.0772821" lon="12.3034582"><ele>245.0</ele><time>2026-04-26T09:53:38.927Z</time></trkpt><trkpt lat="43.0773199" lon="12.3035297"><ele>245.0</ele><time>2026-04-26T09:53:40.93Z</time></trkpt><trkpt lat="43.0773559" lon="12.3036037"><ele>245.0</ele><time>2026-04-26T09:53:42.926Z</time></trkpt><trkpt lat="43.0773877" lon="12.3036829"><ele>245.0</ele><time>2026-04-26T09:53:44.929Z</time></trkpt><trkpt lat="43.0774232" lon="12.303766"><ele>245.0</ele><time>2026-04-26T09:53:46.928Z</time></trkpt><trkpt lat="43.0774546" lon="12.30385"><ele>246.66666666666669</ele><time>2026-04-26T09:53:48.928Z</time></trkpt><trkpt lat="43.0774842" lon="12.3039343"><ele>248.33333333333334</ele><time>2026-04-26T09:53:50.931Z</time></trkpt><trkpt lat="43.0775085" lon="12.3040153"><ele>250.0</ele><time>2026-04-26T09:53:52.928Z</time></trkpt><trkpt lat="43.0775471" lon="12.3041297"><ele>251.66666666666669</ele><time>2026-04-26T09:53:55.922Z</time></trkpt><trkpt lat="43.0775838" lon="12.3042474"><ele>253.33333333333334</ele><time>2026-04-26T09:53:58.932Z</time></trkpt><trkpt lat="43.0776144" lon="12.3043256"><ele>255.0</ele><time>2026-04-26T09:54:00.925Z</time></trkpt><trkpt lat="43.0776471" lon="12.3044099"><ele>255.0</ele><time>2026-04-26T09:54:02.923Z</time></trkpt><trkpt lat="43.0776776" lon="12.3044907"><ele>255.00000000000003</ele><time>2026-04-26T09:54:04.943Z</time></trkpt><trkpt lat="43.0776996" lon="12.3045756"><ele>255.0</ele><time>2026-04-26T09:54:06.924Z</time></trkpt><trkpt lat="43.0777193" lon="12.3046612"><ele>255.0</ele><time>2026-04-26T09:54:08.924Z</time></trkpt><trkpt lat="43.0777424" lon="12.3047426"><ele>255.00000000000003</ele><time>2026-04-26T09:54:10.925Z</time></trkpt><trkpt lat="43.0777725" lon="12.3048208"><ele>255.0</ele><time>2026-04-26T09:54:12.933Z</time></trkpt><trkpt lat="43.0777994" lon="12.3049043"><ele>255.0</ele><time>2026-04-26T09:54:14.928Z</time></trkpt><trkpt lat="43.0778277" lon="12.3049892"><ele>255.2857142857143</ele><time>2026-04-26T09:54:16.928Z</time></trkpt><trkpt lat="43.0778594" lon="12.3050738"><ele>255.5714285714286</ele><time>2026-04-26T09:54:18.925Z</time></trkpt><trkpt lat="43.0778858" lon="12.3051584"><ele>255.85714285714286</ele><time>2026-04-26T09:54:20.928Z</time></trkpt><trkpt lat="43.0779187" lon="12.3052421"><ele>256.14285714285717</ele><time>2026-04-26T09:54:22.925Z</time></trkpt><trkpt lat="43.0779541" lon="12.3053311"><ele>256.42857142857144</ele><time>2026-04-26T09:54:24.922Z</time></trkpt><trkpt lat="43.0779887" lon="12.3054122"><ele>256.7142857142857</ele><time>2026-04-26T09:54:26.927Z</time></trkpt><trkpt lat="43.078021" lon="12.305491"><ele>257.0</ele><time>2026-04-26T09:54:28.914Z</time></trkpt><trkpt lat="43.0780551" lon="12.3055755"><ele>256.7142857142857</ele><time>2026-04-26T09:54:30.914Z</time></trkpt><trkpt lat="43.0780891" lon="12.3056608"><ele>256.42857142857144</ele><time>2026-04-26T09:54:32.931Z</time></trkpt><trkpt lat="43.0781315" lon="12.3057381"><ele>256.14285714285717</ele><time>2026-04-26T09:54:34.928Z</time></trkpt><trkpt lat="43.0781731" lon="12.3058166"><ele>255.85714285714286</ele><time>2026-04-26T09:54:36.925Z</time></trkpt><trkpt lat="43.0782189" lon="12.3059024"><ele>255.5714285714286</ele><time>2026-04-26T09:54:38.935Z</time></trkpt><trkpt lat="43.078269" lon="12.3059842"><ele>255.2857142857143</ele><time>2026-04-26T09:54:40.929Z</time></trkpt><trkpt lat="43.0783152" lon="12.3060605"><ele>255.0</ele><time>2026-04-26T09:54:42.93Z</time></trkpt><trkpt lat="43.0783626" lon="12.3061294"><ele>256.0</ele><time>2026-04-26T09:54:44.932Z</time></trkpt><trkpt lat="43.0784175" lon="12.3061935"><ele>257.0</ele><time>2026-04-26T09:54:46.904Z</time></trkpt><trkpt lat="43.078477" lon="12.3062642"><ele>258.0</ele><time>2026-04-26T09:54:48.929Z</time></trkpt><trkpt lat="43.0785426" lon="12.306332"><ele>259.0</ele><time>2026-04-26T09:54:50.924Z</time></trkpt><trkpt lat="43.0786025" lon="12.3063982"><ele>260.0</ele><time>2026-04-26T09:54:52.927Z</time></trkpt><trkpt lat="43.0786579" lon="12.3064685"><ele>261.0</ele><time>2026-04-26T09:54:55.028Z</time></trkpt><trkpt lat="43.0787128" lon="12.306553"><ele>261.0</ele><time>2026-04-26T09:54:56.935Z</time></trkpt><trkpt lat="43.0787632" lon="12.3066476"><ele>261.0</ele><time>2026-04-26T09:54:58.927Z</time></trkpt><trkpt lat="43.0788099" lon="12.3067458"><ele>261.0</ele><time>2026-04-26T09:55:00.926Z</time></trkpt><trkpt lat="43.0788587" lon="12.3068457"><ele>261.0</ele><time>2026-04-26T09:55:02.925Z</time></trkpt><trkpt lat="43.0789092" lon="12.3069503"><ele>261.0</ele><time>2026-04-26T09:55:04.928Z</time></trkpt><trkpt lat="43.0789648" lon="12.3070526"><ele>261.0</ele><time>2026-04-26T09:55:06.929Z</time></trkpt><trkpt lat="43.0790179" lon="12.3071554"><ele>261.6666666666667</ele><time>2026-04-26T09:55:08.924Z</time></trkpt><trkpt lat="43.0790694" lon="12.3072542"><ele>262.3333333333333</ele><time>2026-04-26T09:55:10.928Z</time></trkpt><trkpt lat="43.0791191" lon="12.3073629"><ele>263.0</ele><time>2026-04-26T09:55:12.933Z</time></trkpt><trkpt lat="43.0791688" lon="12.3074665"><ele>263.66666666666663</ele><time>2026-04-26T09:55:14.925Z</time></trkpt><trkpt lat="43.0792178" lon="12.3075649"><ele>264.3333333333333</ele><time>2026-04-26T09:55:16.925Z</time></trkpt><trkpt lat="43.0792702" lon="12.3076645"><ele>265.0</ele><time>2026-04-26T09:55:18.929Z</time></trkpt><trkpt lat="43.0793278" lon="12.3077702"><ele>265.0</ele><time>2026-04-26T09:55:20.935Z</time></trkpt><trkpt lat="43.0793874" lon="12.307866"><ele>265.0</ele><time>2026-04-26T09:55:22.923Z</time></trkpt><trkpt lat="43.0794443" lon="12.3079658"><ele>265.0</ele><time>2026-04-26T09:55:24.923Z</time></trkpt><trkpt lat="43.0795041" lon="12.3080592"><ele>265.0</ele><time>2026-04-26T09:55:26.929Z</time></trkpt><trkpt lat="43.0795603" lon="12.3081392"><ele>265.0</ele><time>2026-04-26T09:55:28.928Z</time></trkpt><trkpt lat="43.0796147" lon="12.3082255"><ele>265.0</ele><time>2026-04-26T09:55:30.934Z</time></trkpt><trkpt lat="43.0796531" lon="12.3083225"><ele>264.16666666666663</ele><time>2026-04-26T09:55:32.934Z</time></trkpt><trkpt lat="43.0796943" lon="12.3084191"><ele>263.3333333333333</ele><time>2026-04-26T09:55:34.925Z</time></trkpt><trkpt lat="43.0797381" lon="12.308515"><ele>262.5</ele><time>2026-04-26T09:55:36.926Z</time></trkpt><trkpt lat="43.0797844" lon="12.3086133"><ele>261.6666666666667</ele><time>2026-04-26T09:55:38.924Z</time></trkpt><trkpt lat="43.079838" lon="12.3087139"><ele>260.83333333333337</ele><time>2026-04-26T09:55:40.927Z</time></trkpt><trkpt lat="43.0798852" lon="12.3088454"><ele>260.0</ele><time>2026-04-26T09:55:42.925Z</time></trkpt><trkpt lat="43.079935" lon="12.3089672"><ele>259.5</ele><time>2026-04-26T09:55:44.931Z</time></trkpt><trkpt lat="43.0799762" lon="12.3090912"><ele>259.0</ele><time>2026-04-26T09:55:47.032Z</time></trkpt><trkpt lat="43.0800206" lon="12.3092301"><ele>258.5</ele><time>2026-04-26T09:55:48.927Z</time></trkpt><trkpt lat="43.080025" lon="12.3093749"><ele>258.0</ele><time>2026-04-26T09:55:50.931Z</time></trkpt><trkpt lat="43.0799801" lon="12.3095476"><ele>257.99999999999994</ele><time>2026-04-26T09:55:52.923Z</time></trkpt><trkpt lat="43.0799437" lon="12.3096212"><ele>258.0</ele><time>2026-04-26T09:55:53.929Z</time></trkpt><trkpt lat="43.0798947" lon="12.3096862"><ele>258.0</ele><time>2026-04-26T09:55:54.923Z</time></trkpt><trkpt lat="43.0798364" lon="12.3097417"><ele>258.0</ele><time>2026-04-26T09:55:55.926Z</time></trkpt><trkpt lat="43.079772" lon="12.3097903"><ele>258.0</ele><time>2026-04-26T09:55:56.921Z</time></trkpt><trkpt lat="43.0796952" lon="12.3098295"><ele>257.99999999999994</ele><time>2026-04-26T09:55:57.923Z</time></trkpt><trkpt lat="43.0796252" lon="12.3098678"><ele>258.0</ele><time>2026-04-26T09:55:58.932Z</time></trkpt><trkpt lat="43.079551" lon="12.3098994"><ele>256.0</ele><time>2026-04-26T09:55:59.932Z</time></trkpt><trkpt lat="43.0794757" lon="12.3099332"><ele>254.0</ele><time>2026-04-26T09:56:00.928Z</time></trkpt><trkpt lat="43.0794081" lon="12.3099697"><ele>252.0</ele><time>2026-04-26T09:56:01.928Z</time></trkpt><trkpt lat="43.0793435" lon="12.3099954"><ele>250.0</ele><time>2026-04-26T09:56:02.925Z</time></trkpt><trkpt lat="43.0792704" lon="12.3100901"><ele>248.0</ele><time>2026-04-26T09:56:04.929Z</time></trkpt><trkpt lat="43.0793062" lon="12.3102537"><ele>246.0</ele><time>2026-04-26T09:56:06.931Z</time></trkpt><trkpt lat="43.0793401" lon="12.3103365"><ele>246.0</ele><time>2026-04-26T09:56:07.93Z</time></trkpt><trkpt lat="43.0793902" lon="12.3104153"><ele>246.0</ele><time>2026-04-26T09:56:08.934Z</time></trkpt><trkpt lat="43.0794436" lon="12.3105001"><ele>246.0</ele><time>2026-04-26T09:56:09.924Z</time></trkpt><trkpt lat="43.079506" lon="12.3105801"><ele>246.0</ele><time>2026-04-26T09:56:11.029Z</time></trkpt><trkpt lat="43.0795762" lon="12.3106604"><ele>246.0</ele><time>2026-04-26T09:56:11.933Z</time></trkpt><trkpt lat="43.0796495" lon="12.3107404"><ele>246.0</ele><time>2026-04-26T09:56:12.926Z</time></trkpt><trkpt lat="43.0797249" lon="12.3108189"><ele>245.8</ele><time>2026-04-26T09:56:13.933Z</time></trkpt><trkpt lat="43.0798022" lon="12.3109076"><ele>245.60000000000002</ele><time>2026-04-26T09:56:14.926Z</time></trkpt><trkpt lat="43.0798842" lon="12.3109919"><ele>245.4</ele><time>2026-04-26T09:56:15.927Z</time></trkpt><trkpt lat="43.0799645" lon="12.3110787"><ele>245.2</ele><time>2026-04-26T09:56:16.928Z</time></trkpt><trkpt lat="43.0800452" lon="12.3111604"><ele>245.0</ele><time>2026-04-26T09:56:17.929Z</time></trkpt><trkpt lat="43.080119" lon="12.3112467"><ele>245.00000000000003</ele><time>2026-04-26T09:56:18.935Z</time></trkpt><trkpt lat="43.0801882" lon="12.3113235"><ele>245.0</ele><time>2026-04-26T09:56:19.931Z</time></trkpt><trkpt lat="43.0802674" lon="12.3113854"><ele>245.0</ele><time>2026-04-26T09:56:20.913Z</time></trkpt><trkpt lat="43.0803418" lon="12.3114325"><ele>245.0</ele><time>2026-04-26T09:56:21.919Z</time></trkpt><trkpt lat="43.0804172" lon="12.3114697"><ele>245.00000000000003</ele><time>2026-04-26T09:56:22.926Z</time></trkpt><trkpt lat="43.0804964" lon="12.3115138"><ele>245.0</ele><time>2026-04-26T09:56:23.932Z</time></trkpt><trkpt lat="43.0805519" lon="12.3115924"><ele>243.33333333333334</ele><time>2026-04-26T09:56:24.925Z</time></trkpt><trkpt lat="43.0805786" lon="12.311701"><ele>241.66666666666669</ele><time>2026-04-26T09:56:25.922Z</time></trkpt><trkpt lat="43.0805884" lon="12.3118121"><ele>240.0</ele><time>2026-04-26T09:56:26.921Z</time></trkpt><trkpt lat="43.080596" lon="12.3119195"><ele>238.33333333333331</ele><time>2026-04-26T09:56:27.928Z</time></trkpt><trkpt lat="43.0806061" lon="12.3120248"><ele>236.66666666666666</ele><time>2026-04-26T09:56:28.924Z</time></trkpt><trkpt lat="43.0806135" lon="12.3121261"><ele>235.0</ele><time>2026-04-26T09:56:29.926Z</time></trkpt><trkpt lat="43.0806165" lon="12.3122187"><ele>234.16666666666666</ele><time>2026-04-26T09:56:30.929Z</time></trkpt><trkpt lat="43.080623" lon="12.3123083"><ele>233.33333333333331</ele><time>2026-04-26T09:56:31.929Z</time></trkpt><trkpt lat="43.0806318" lon="12.3124004"><ele>232.5</ele><time>2026-04-26T09:56:32.929Z</time></trkpt><trkpt lat="43.080653" lon="12.3124851"><ele>231.66666666666669</ele><time>2026-04-26T09:56:33.932Z</time></trkpt><trkpt lat="43.080698" lon="12.3126375"><ele>230.83333333333334</ele><time>2026-04-26T09:56:35.925Z</time></trkpt><trkpt lat="43.0807214" lon="12.3127634"><ele>230.0</ele><time>2026-04-26T09:56:37.926Z</time></trkpt><trkpt lat="43.0807488" lon="12.31287"><ele>230.4285714285714</ele><time>2026-04-26T09:56:39.928Z</time></trkpt><trkpt lat="43.0807873" lon="12.3129775"><ele>230.85714285714283</ele><time>2026-04-26T09:56:42.933Z</time></trkpt><trkpt lat="43.0808614" lon="12.3130125"><ele>231.28571428571428</ele><time>2026-04-26T09:56:45.918Z</time></trkpt><trkpt lat="43.0809309" lon="12.3130204"><ele>231.7142857142857</ele><time>2026-04-26T09:56:48.931Z</time></trkpt><trkpt lat="43.0810048" lon="12.3130348"><ele>232.1428571428571</ele><time>2026-04-26T09:56:51.925Z</time></trkpt><trkpt lat="43.0810106" lon="12.3131364"><ele>232.57142857142858</ele><time>2026-04-26T09:57:04.059Z</time></trkpt><trkpt lat="43.080946" lon="12.3131332"><ele>233.0</ele><time>2026-04-26T09:57:07.927Z</time></trkpt><trkpt lat="43.0808786" lon="12.313131"><ele>232.85714285714286</ele><time>2026-04-26T09:57:10.912Z</time></trkpt><trkpt lat="43.0808248" lon="12.313184"><ele>232.71428571428572</ele><time>2026-04-26T09:57:13.912Z</time></trkpt><trkpt lat="43.0807651" lon="12.313236"><ele>232.57142857142858</ele><time>2026-04-26T09:57:17.908Z</time></trkpt><trkpt lat="43.0807017" lon="12.3132173"><ele>232.42857142857144</ele><time>2026-04-26T09:58:05.925Z</time></trkpt><trkpt lat="43.0806313" lon="12.3132223"><ele>232.28571428571428</ele><time>2026-04-26T09:58:10.923Z</time></trkpt><trkpt lat="43.0805376" lon="12.3132353"><ele>232.14285714285717</ele><time>2026-04-26T09:58:13.927Z</time></trkpt><trkpt lat="43.0804632" lon="12.3132428"><ele>232.00000000000003</ele><time>2026-04-26T09:58:15.928Z</time></trkpt><trkpt lat="43.0803857" lon="12.3132584"><ele>231.99999999999997</ele><time>2026-04-26T09:58:17.932Z</time></trkpt><trkpt lat="43.0803113" lon="12.3132874"><ele>232.0</ele><time>2026-04-26T09:58:19.925Z</time></trkpt><trkpt lat="43.0802407" lon="12.3133253"><ele>232.0</ele><time>2026-04-26T09:58:21.924Z</time></trkpt><trkpt lat="43.0801732" lon="12.313368"><ele>232.0</ele><time>2026-04-26T09:58:24.034Z</time></trkpt><trkpt lat="43.0800961" lon="12.3134231"><ele>231.99999999999997</ele><time>2026-04-26T09:58:25.924Z</time></trkpt><trkpt lat="43.0800107" lon="12.3134747"><ele>232.0</ele><time>2026-04-26T09:58:27.934Z</time></trkpt><trkpt lat="43.079922" lon="12.3135222"><ele>232.0</ele><time>2026-04-26T09:58:29.909Z</time></trkpt><trkpt lat="43.0798624" lon="12.3135994"><ele>232.0</ele><time>2026-04-26T09:58:31.925Z</time></trkpt><trkpt lat="43.079788" lon="12.3136809"><ele>232.0</ele><time>2026-04-26T09:58:34.927Z</time></trkpt><trkpt lat="43.079718" lon="12.313743"><ele>232.0</ele><time>2026-04-26T09:58:36.934Z</time></trkpt><trkpt lat="43.0796314" lon="12.3138212"><ele>232.0</ele><time>2026-04-26T09:58:38.922Z</time></trkpt><trkpt lat="43.0795468" lon="12.3139062"><ele>232.0</ele><time>2026-04-26T09:58:40.927Z</time></trkpt><trkpt lat="43.0794655" lon="12.3139913"><ele>232.0</ele><time>2026-04-26T09:58:42.932Z</time></trkpt><trkpt lat="43.0793895" lon="12.3140677"><ele>232.0</ele><time>2026-04-26T09:58:44.931Z</time></trkpt><trkpt lat="43.0793192" lon="12.3141576"><ele>232.0</ele><time>2026-04-26T09:58:46.931Z</time></trkpt><trkpt lat="43.0792527" lon="12.3142382"><ele>232.0</ele><time>2026-04-26T09:58:48.927Z</time></trkpt><trkpt lat="43.0791846" lon="12.3143225"><ele>231.99999999999997</ele><time>2026-04-26T09:58:50.934Z</time></trkpt><trkpt lat="43.079108" lon="12.3143866"><ele>232.0</ele><time>2026-04-26T09:58:52.926Z</time></trkpt><trkpt lat="43.079043" lon="12.3144602"><ele>232.0</ele><time>2026-04-26T09:58:54.929Z</time></trkpt><trkpt lat="43.0789858" lon="12.3145387"><ele>232.0</ele><time>2026-04-26T09:58:56.924Z</time></trkpt><trkpt lat="43.0789363" lon="12.31462"><ele>231.99999999999997</ele><time>2026-04-26T09:58:59.014Z</time></trkpt><trkpt lat="43.0788832" lon="12.3147031"><ele>232.0</ele><time>2026-04-26T09:59:00.932Z</time></trkpt><trkpt lat="43.0788304" lon="12.3147811"><ele>232.16666666666666</ele><time>2026-04-26T09:59:02.925Z</time></trkpt><trkpt lat="43.0787739" lon="12.3148586"><ele>232.33333333333331</ele><time>2026-04-26T09:59:04.932Z</time></trkpt><trkpt lat="43.0787117" lon="12.3149426"><ele>232.5</ele><time>2026-04-26T09:59:06.937Z</time></trkpt><trkpt lat="43.0786478" lon="12.3150236"><ele>232.66666666666669</ele><time>2026-04-26T09:59:08.922Z</time></trkpt><trkpt lat="43.0785915" lon="12.315103"><ele>232.83333333333334</ele><time>2026-04-26T09:59:10.933Z</time></trkpt><trkpt lat="43.0785285" lon="12.3151887"><ele>233.0</ele><time>2026-04-26T09:59:12.933Z</time></trkpt><trkpt lat="43.0784585" lon="12.315262"><ele>233.00000000000003</ele><time>2026-04-26T09:59:14.926Z</time></trkpt><trkpt lat="43.0783857" lon="12.3153204"><ele>233.0</ele><time>2026-04-26T09:59:16.931Z</time></trkpt><trkpt lat="43.07831" lon="12.3153736"><ele>233.0</ele><time>2026-04-26T09:59:18.931Z</time></trkpt><trkpt lat="43.0782334" lon="12.3154199"><ele>233.0</ele><time>2026-04-26T09:59:20.928Z</time></trkpt><trkpt lat="43.0781531" lon="12.3154576"><ele>233.00000000000003</ele><time>2026-04-26T09:59:22.934Z</time></trkpt><trkpt lat="43.0780706" lon="12.3154867"><ele>233.0</ele><time>2026-04-26T09:59:24.929Z</time></trkpt><trkpt lat="43.0779895" lon="12.3155106"><ele>233.16666666666669</ele><time>2026-04-26T09:59:26.925Z</time></trkpt><trkpt lat="43.077912" lon="12.3155341"><ele>233.33333333333334</ele><time>2026-04-26T09:59:28.93Z</time></trkpt><trkpt lat="43.0778327" lon="12.3155568"><ele>233.5</ele><time>2026-04-26T09:59:30.922Z</time></trkpt><trkpt lat="43.0777442" lon="12.3155768"><ele>233.66666666666669</ele><time>2026-04-26T09:59:32.925Z</time></trkpt><trkpt lat="43.0776513" lon="12.3156045"><ele>233.83333333333334</ele><time>2026-04-26T09:59:34.932Z</time></trkpt><trkpt lat="43.0775589" lon="12.3156373"><ele>234.0</ele><time>2026-04-26T09:59:36.93Z</time></trkpt><trkpt lat="43.0774654" lon="12.3156694"><ele>234.6</ele><time>2026-04-26T09:59:38.929Z</time></trkpt><trkpt lat="43.0773743" lon="12.3157004"><ele>235.2</ele><time>2026-04-26T09:59:40.932Z</time></trkpt><trkpt lat="43.077282" lon="12.3157307"><ele>235.79999999999998</ele><time>2026-04-26T09:59:42.925Z</time></trkpt><trkpt lat="43.0771895" lon="12.3157588"><ele>236.39999999999998</ele><time>2026-04-26T09:59:44.931Z</time></trkpt><trkpt lat="43.0770955" lon="12.315793"><ele>237.0</ele><time>2026-04-26T09:59:46.934Z</time></trkpt><trkpt lat="43.0770053" lon="12.3158174"><ele>237.0</ele><time>2026-04-26T09:59:48.926Z</time></trkpt><trkpt lat="43.0769154" lon="12.3158502"><ele>237.0</ele><time>2026-04-26T09:59:50.928Z</time></trkpt><trkpt lat="43.0768265" lon="12.3158831"><ele>237.0</ele><time>2026-04-26T09:59:52.926Z</time></trkpt><trkpt lat="43.0767387" lon="12.3159079"><ele>237.0</ele><time>2026-04-26T09:59:54.93Z</time></trkpt><trkpt lat="43.0766479" lon="12.3159427"><ele>237.0</ele><time>2026-04-26T09:59:56.943Z</time></trkpt><trkpt lat="43.0765502" lon="12.3159648"><ele>237.2</ele><time>2026-04-26T09:59:58.927Z</time></trkpt><trkpt lat="43.0764579" lon="12.3159928"><ele>237.39999999999998</ele><time>2026-04-26T10:00:00.928Z</time></trkpt><trkpt lat="43.0763584" lon="12.3160166"><ele>237.60000000000002</ele><time>2026-04-26T10:00:02.932Z</time></trkpt><trkpt lat="43.0762212" lon="12.3160653"><ele>237.8</ele><time>2026-04-26T10:00:05.93Z</time></trkpt><trkpt lat="43.076141" lon="12.3160998"><ele>238.0</ele><time>2026-04-26T10:00:07.928Z</time></trkpt><trkpt lat="43.076052" lon="12.3161291"><ele>238.0</ele><time>2026-04-26T10:00:09.909Z</time></trkpt><trkpt lat="43.0759653" lon="12.316151"><ele>238.0</ele><time>2026-04-26T10:00:11.926Z</time></trkpt><trkpt lat="43.0758669" lon="12.3161863"><ele>238.0</ele><time>2026-04-26T10:00:13.925Z</time></trkpt><trkpt lat="43.0757802" lon="12.3162122"><ele>238.0</ele><time>2026-04-26T10:00:16.033Z</time></trkpt><trkpt lat="43.0756873" lon="12.3162411"><ele>238.0</ele><time>2026-04-26T10:00:17.931Z</time></trkpt><trkpt lat="43.0755949" lon="12.3162704"><ele>238.0</ele><time>2026-04-26T10:00:19.943Z</time></trkpt><trkpt lat="43.0755051" lon="12.3163084"><ele>238.0</ele><time>2026-04-26T10:00:21.935Z</time></trkpt><trkpt lat="43.0754186" lon="12.3163357"><ele>238.0</ele><time>2026-04-26T10:00:23.929Z</time></trkpt><trkpt lat="43.0753296" lon="12.3163721"><ele>238.0</ele><time>2026-04-26T10:00:25.93Z</time></trkpt><trkpt lat="43.0752389" lon="12.3163897"><ele>238.0</ele><time>2026-04-26T10:00:27.931Z</time></trkpt><trkpt lat="43.0751364" lon="12.3163922"><ele>238.0</ele><time>2026-04-26T10:00:29.924Z</time></trkpt><trkpt lat="43.0750403" lon="12.3163935"><ele>238.0</ele><time>2026-04-26T10:00:31.933Z</time></trkpt><trkpt lat="43.0749451" lon="12.3163878"><ele>238.0</ele><time>2026-04-26T10:00:33.923Z</time></trkpt><trkpt lat="43.0748473" lon="12.3163943"><ele>238.0</ele><time>2026-04-26T10:00:35.921Z</time></trkpt><trkpt lat="43.074762" lon="12.316405"><ele>238.0</ele><time>2026-04-26T10:00:37.934Z</time></trkpt><trkpt lat="43.0746768" lon="12.3164217"><ele>237.99999999999997</ele><time>2026-04-26T10:00:39.923Z</time></trkpt><trkpt lat="43.0745806" lon="12.3164222"><ele>238.0</ele><time>2026-04-26T10:00:41.925Z</time></trkpt><trkpt lat="43.0744911" lon="12.3164349"><ele>238.0</ele><time>2026-04-26T10:00:43.931Z</time></trkpt><trkpt lat="43.0744101" lon="12.3164169"><ele>238.0</ele><time>2026-04-26T10:00:45.934Z</time></trkpt><trkpt lat="43.0743236" lon="12.3164135"><ele>237.99999999999997</ele><time>2026-04-26T10:00:47.926Z</time></trkpt><trkpt lat="43.0742383" lon="12.3164235"><ele>238.0</ele><time>2026-04-26T10:00:49.926Z</time></trkpt><trkpt lat="43.0741464" lon="12.3164271"><ele>238.0</ele><time>2026-04-26T10:00:51.933Z</time></trkpt><trkpt lat="43.0740514" lon="12.3164286"><ele>238.0</ele><time>2026-04-26T10:00:53.925Z</time></trkpt><trkpt lat="43.073957" lon="12.316405"><ele>238.0</ele><time>2026-04-26T10:00:55.927Z</time></trkpt><trkpt lat="43.0738645" lon="12.3163858"><ele>238.0</ele><time>2026-04-26T10:00:57.924Z</time></trkpt><trkpt lat="43.0737574" lon="12.3163879"><ele>238.0</ele><time>2026-04-26T10:00:59.931Z</time></trkpt><trkpt lat="43.0736563" lon="12.3163922"><ele>238.0</ele><time>2026-04-26T10:01:01.925Z</time></trkpt><trkpt lat="43.0735586" lon="12.3163992"><ele>238.0</ele><time>2026-04-26T10:01:03.928Z</time></trkpt><trkpt lat="43.0734477" lon="12.3164001"><ele>238.0</ele><time>2026-04-26T10:01:05.927Z</time></trkpt><trkpt lat="43.0733325" lon="12.3164095"><ele>238.0</ele><time>2026-04-26T10:01:07.924Z</time></trkpt><trkpt lat="43.0732133" lon="12.3164172"><ele>238.0</ele><time>2026-04-26T10:01:09.924Z</time></trkpt><trkpt lat="43.0730918" lon="12.3164163"><ele>238.5</ele><time>2026-04-26T10:01:11.929Z</time></trkpt><trkpt lat="43.0729756" lon="12.3164358"><ele>239.0</ele><time>2026-04-26T10:01:13.927Z</time></trkpt><trkpt lat="43.0728604" lon="12.3164276"><ele>239.5</ele><time>2026-04-26T10:01:15.932Z</time></trkpt><trkpt lat="43.0727447" lon="12.3164355"><ele>240.0</ele><time>2026-04-26T10:01:17.929Z</time></trkpt><trkpt lat="43.0726278" lon="12.3164388"><ele>240.0</ele><time>2026-04-26T10:01:19.928Z</time></trkpt><trkpt lat="43.0725178" lon="12.3164537"><ele>240.0</ele><time>2026-04-26T10:01:21.933Z</time></trkpt><trkpt lat="43.0724064" lon="12.3164634"><ele>240.0</ele><time>2026-04-26T10:01:23.922Z</time></trkpt><trkpt lat="43.0722982" lon="12.3164808"><ele>240.0</ele><time>2026-04-26T10:01:25.918Z</time></trkpt><trkpt lat="43.0721987" lon="12.3164989"><ele>240.0</ele><time>2026-04-26T10:01:27.915Z</time></trkpt><trkpt lat="43.0721039" lon="12.3165137"><ele>240.0</ele><time>2026-04-26T10:01:29.927Z</time></trkpt><trkpt lat="43.0719993" lon="12.3165244"><ele>240.0</ele><time>2026-04-26T10:01:31.924Z</time></trkpt><trkpt lat="43.0718835" lon="12.3165467"><ele>240.0</ele><time>2026-04-26T10:01:33.917Z</time></trkpt><trkpt lat="43.0717861" lon="12.3166121"><ele>240.0</ele><time>2026-04-26T10:01:35.916Z</time></trkpt><trkpt lat="43.0717032" lon="12.3166833"><ele>240.0</ele><time>2026-04-26T10:01:37.924Z</time></trkpt><trkpt lat="43.0716392" lon="12.3167596"><ele>239.83333333333334</ele><time>2026-04-26T10:01:39.928Z</time></trkpt><trkpt lat="43.0715871" lon="12.3168358"><ele>239.66666666666669</ele><time>2026-04-26T10:01:41.923Z</time></trkpt><trkpt lat="43.0715244" lon="12.3169229"><ele>239.5</ele><time>2026-04-26T10:01:44.031Z</time></trkpt><trkpt lat="43.0714654" lon="12.3170014"><ele>239.33333333333334</ele><time>2026-04-26T10:01:45.918Z</time></trkpt><trkpt lat="43.0713928" lon="12.3170378"><ele>239.16666666666669</ele><time>2026-04-26T10:01:47.927Z</time></trkpt><trkpt lat="43.0713032" lon="12.317066"><ele>239.0</ele><time>2026-04-26T10:01:49.932Z</time></trkpt><trkpt lat="43.0712246" lon="12.3171363"><ele>239.0</ele><time>2026-04-26T10:01:51.929Z</time></trkpt><trkpt lat="43.0711535" lon="12.317206"><ele>238.99999999999997</ele><time>2026-04-26T10:01:53.909Z</time></trkpt><trkpt lat="43.0710693" lon="12.317249"><ele>238.99999999999997</ele><time>2026-04-26T10:01:55.91Z</time></trkpt><trkpt lat="43.0709756" lon="12.3172398"><ele>239.0</ele><time>2026-04-26T10:01:57.908Z</time></trkpt><trkpt lat="43.0708826" lon="12.3172152"><ele>239.0</ele><time>2026-04-26T10:01:59.911Z</time></trkpt><trkpt lat="43.0707878" lon="12.3171838"><ele>239.6</ele><time>2026-04-26T10:02:02.007Z</time></trkpt><trkpt lat="43.070695" lon="12.317171"><ele>240.2</ele><time>2026-04-26T10:02:03.919Z</time></trkpt><trkpt lat="43.0706072" lon="12.3171663"><ele>240.79999999999998</ele><time>2026-04-26T10:02:05.91Z</time></trkpt><trkpt lat="43.0705245" lon="12.3172032"><ele>241.39999999999998</ele><time>2026-04-26T10:02:08.02Z</time></trkpt><trkpt lat="43.0704478" lon="12.3172662"><ele>242.0</ele><time>2026-04-26T10:02:09.93Z</time></trkpt><trkpt lat="43.0703696" lon="12.3173355"><ele>242.6</ele><time>2026-04-26T10:02:11.927Z</time></trkpt><trkpt lat="43.0702977" lon="12.3174023"><ele>243.2</ele><time>2026-04-26T10:02:13.923Z</time></trkpt><trkpt lat="43.0702273" lon="12.3174842"><ele>243.8</ele><time>2026-04-26T10:02:15.925Z</time></trkpt><trkpt lat="43.0701501" lon="12.3175581"><ele>244.4</ele><time>2026-04-26T10:02:17.927Z</time></trkpt><trkpt lat="43.0700776" lon="12.3176206"><ele>245.0</ele><time>2026-04-26T10:02:19.931Z</time></trkpt><trkpt lat="43.0700013" lon="12.3176903"><ele>244.2</ele><time>2026-04-26T10:02:21.935Z</time></trkpt><trkpt lat="43.0699213" lon="12.3177595"><ele>243.4</ele><time>2026-04-26T10:02:24.031Z</time></trkpt><trkpt lat="43.069849" lon="12.3178364"><ele>242.60000000000002</ele><time>2026-04-26T10:02:25.92Z</time></trkpt><trkpt lat="43.0697658" lon="12.3179078"><ele>241.8</ele><time>2026-04-26T10:02:27.926Z</time></trkpt><trkpt lat="43.0696775" lon="12.3179809"><ele>241.0</ele><time>2026-04-26T10:02:29.921Z</time></trkpt><trkpt lat="43.0695827" lon="12.3180543"><ele>241.0</ele><time>2026-04-26T10:02:31.936Z</time></trkpt><trkpt lat="43.069492" lon="12.3181325"><ele>241.0</ele><time>2026-04-26T10:02:33.944Z</time></trkpt><trkpt lat="43.0693909" lon="12.3182228"><ele>241.0</ele><time>2026-04-26T10:02:35.925Z</time></trkpt><trkpt lat="43.069294" lon="12.3183128"><ele>241.0</ele><time>2026-04-26T10:02:37.929Z</time></trkpt><trkpt lat="43.0692012" lon="12.3184114"><ele>241.0</ele><time>2026-04-26T10:02:39.925Z</time></trkpt><trkpt lat="43.0691103" lon="12.3185017"><ele>241.0</ele><time>2026-04-26T10:02:41.921Z</time></trkpt><trkpt lat="43.069014" lon="12.3186037"><ele>241.0</ele><time>2026-04-26T10:02:43.932Z</time></trkpt><trkpt lat="43.0689181" lon="12.3187004"><ele>241.0</ele><time>2026-04-26T10:02:45.923Z</time></trkpt><trkpt lat="43.0688272" lon="12.3187973"><ele>240.8</ele><time>2026-04-26T10:02:47.922Z</time></trkpt><trkpt lat="43.068737" lon="12.3188912"><ele>240.60000000000002</ele><time>2026-04-26T10:02:49.925Z</time></trkpt><trkpt lat="43.068644" lon="12.3189766"><ele>240.4</ele><time>2026-04-26T10:02:51.936Z</time></trkpt><trkpt lat="43.0685574" lon="12.3190588"><ele>240.2</ele><time>2026-04-26T10:02:53.919Z</time></trkpt><trkpt lat="43.0684746" lon="12.3191626"><ele>240.0</ele><time>2026-04-26T10:02:55.924Z</time></trkpt><trkpt lat="43.0683784" lon="12.3192465"><ele>240.4</ele><time>2026-04-26T10:02:57.921Z</time></trkpt><trkpt lat="43.0682756" lon="12.3193224"><ele>240.8</ele><time>2026-04-26T10:02:59.923Z</time></trkpt><trkpt lat="43.0681836" lon="12.3194064"><ele>241.2</ele><time>2026-04-26T10:03:01.924Z</time></trkpt><trkpt lat="43.0680955" lon="12.3195022"><ele>241.6</ele><time>2026-04-26T10:03:03.932Z</time></trkpt><trkpt lat="43.0680119" lon="12.3195819"><ele>242.0</ele><time>2026-04-26T10:03:06.015Z</time></trkpt><trkpt lat="43.0679358" lon="12.3196645"><ele>241.6</ele><time>2026-04-26T10:03:07.925Z</time></trkpt><trkpt lat="43.0678587" lon="12.3197513"><ele>241.2</ele><time>2026-04-26T10:03:09.922Z</time></trkpt><trkpt lat="43.0677824" lon="12.3198252"><ele>240.8</ele><time>2026-04-26T10:03:11.93Z</time></trkpt><trkpt lat="43.0677096" lon="12.3198942"><ele>240.4</ele><time>2026-04-26T10:03:13.926Z</time></trkpt><trkpt lat="43.0676325" lon="12.3199531"><ele>240.0</ele><time>2026-04-26T10:03:15.924Z</time></trkpt><trkpt lat="43.0675504" lon="12.3200338"><ele>240.0</ele><time>2026-04-26T10:03:17.922Z</time></trkpt><trkpt lat="43.0674839" lon="12.3201317"><ele>240.0</ele><time>2026-04-26T10:03:19.929Z</time></trkpt><trkpt lat="43.0674149" lon="12.3201992"><ele>240.0</ele><time>2026-04-26T10:03:21.934Z</time></trkpt><trkpt lat="43.0673377" lon="12.3202946"><ele>240.0</ele><time>2026-04-26T10:03:24.032Z</time></trkpt><trkpt lat="43.0672636" lon="12.3203731"><ele>240.0</ele><time>2026-04-26T10:03:25.921Z</time></trkpt><trkpt lat="43.0671904" lon="12.3204466"><ele>239.8</ele><time>2026-04-26T10:03:27.926Z</time></trkpt><trkpt lat="43.0671104" lon="12.3205196"><ele>239.6</ele><time>2026-04-26T10:03:30.029Z</time></trkpt><trkpt lat="43.0670298" lon="12.3205974"><ele>239.39999999999998</ele><time>2026-04-26T10:03:31.928Z</time></trkpt><trkpt lat="43.0669526" lon="12.3206811"><ele>239.2</ele><time>2026-04-26T10:03:33.924Z</time></trkpt><trkpt lat="43.0668658" lon="12.3207462"><ele>239.0</ele><time>2026-04-26T10:03:36.025Z</time></trkpt><trkpt lat="43.0667822" lon="12.320823"><ele>239.6</ele><time>2026-04-26T10:03:37.928Z</time></trkpt><trkpt lat="43.066701" lon="12.3208928"><ele>240.2</ele><time>2026-04-26T10:03:39.927Z</time></trkpt><trkpt lat="43.0666139" lon="12.3209437"><ele>240.79999999999998</ele><time>2026-04-26T10:03:42.029Z</time></trkpt><trkpt lat="43.0665234" lon="12.3209868"><ele>241.39999999999998</ele><time>2026-04-26T10:03:43.933Z</time></trkpt><trkpt lat="43.0664328" lon="12.3210418"><ele>242.0</ele><time>2026-04-26T10:03:45.933Z</time></trkpt><trkpt lat="43.0663424" lon="12.3210838"><ele>242.0</ele><time>2026-04-26T10:03:47.925Z</time></trkpt><trkpt lat="43.0662507" lon="12.321134"><ele>242.0</ele><time>2026-04-26T10:03:49.929Z</time></trkpt><trkpt lat="43.0661717" lon="12.3211948"><ele>242.0</ele><time>2026-04-26T10:03:51.929Z</time></trkpt><trkpt lat="43.06609" lon="12.3212721"><ele>242.0</ele><time>2026-04-26T10:03:53.929Z</time></trkpt><trkpt lat="43.0660206" lon="12.3213526"><ele>242.0</ele><time>2026-04-26T10:03:55.926Z</time></trkpt><trkpt lat="43.065958" lon="12.3214329"><ele>243.2</ele><time>2026-04-26T10:03:57.921Z</time></trkpt><trkpt lat="43.0658798" lon="12.3215059"><ele>244.39999999999998</ele><time>2026-04-26T10:03:59.922Z</time></trkpt><trkpt lat="43.0658025" lon="12.3215771"><ele>245.60000000000002</ele><time>2026-04-26T10:04:01.919Z</time></trkpt><trkpt lat="43.0657191" lon="12.3216579"><ele>246.8</ele><time>2026-04-26T10:04:03.93Z</time></trkpt><trkpt lat="43.0656425" lon="12.3217264"><ele>248.0</ele><time>2026-04-26T10:04:05.919Z</time></trkpt><trkpt lat="43.0655647" lon="12.3218065"><ele>248.0</ele><time>2026-04-26T10:04:07.921Z</time></trkpt><trkpt lat="43.0654941" lon="12.3218831"><ele>248.0</ele><time>2026-04-26T10:04:09.924Z</time></trkpt><trkpt lat="43.0654104" lon="12.3219601"><ele>248.0</ele><time>2026-04-26T10:04:12.032Z</time></trkpt><trkpt lat="43.0653348" lon="12.3220333"><ele>248.0</ele><time>2026-04-26T10:04:13.921Z</time></trkpt><trkpt lat="43.0652632" lon="12.322117"><ele>248.0</ele><time>2026-04-26T10:04:15.921Z</time></trkpt><trkpt lat="43.0651932" lon="12.3222108"><ele>248.0</ele><time>2026-04-26T10:04:17.924Z</time></trkpt><trkpt lat="43.0651333" lon="12.3222933"><ele>248.0</ele><time>2026-04-26T10:04:19.921Z</time></trkpt><trkpt lat="43.065056" lon="12.3223723"><ele>248.0</ele><time>2026-04-26T10:04:21.921Z</time></trkpt><trkpt lat="43.0649797" lon="12.322447"><ele>248.0</ele><time>2026-04-26T10:04:23.932Z</time></trkpt><trkpt lat="43.0649126" lon="12.3225279"><ele>248.0</ele><time>2026-04-26T10:04:25.929Z</time></trkpt><trkpt lat="43.0648504" lon="12.3226246"><ele>248.0</ele><time>2026-04-26T10:04:27.935Z</time></trkpt><trkpt lat="43.0648108" lon="12.3227344"><ele>248.0</ele><time>2026-04-26T10:04:29.927Z</time></trkpt><trkpt lat="43.0647862" lon="12.3228483"><ele>248.0</ele><time>2026-04-26T10:04:31.937Z</time></trkpt><trkpt lat="43.0647599" lon="12.3229744"><ele>248.0</ele><time>2026-04-26T10:04:33.925Z</time></trkpt><trkpt lat="43.0647232" lon="12.3231457"><ele>248.0</ele><time>2026-04-26T10:04:36.927Z</time></trkpt><trkpt lat="43.064689" lon="12.3232674"><ele>248.2</ele><time>2026-04-26T10:04:38.919Z</time></trkpt><trkpt lat="43.064664" lon="12.3233804"><ele>248.4</ele><time>2026-04-26T10:04:40.917Z</time></trkpt><trkpt lat="43.0646201" lon="12.3235025"><ele>248.59999999999997</ele><time>2026-04-26T10:04:42.924Z</time></trkpt><trkpt lat="43.064593" lon="12.3236219"><ele>248.79999999999998</ele><time>2026-04-26T10:04:44.92Z</time></trkpt><trkpt lat="43.0645541" lon="12.3237374"><ele>249.0</ele><time>2026-04-26T10:04:46.922Z</time></trkpt><trkpt lat="43.0645108" lon="12.3238597"><ele>249.39999999999998</ele><time>2026-04-26T10:04:48.932Z</time></trkpt><trkpt lat="43.0644699" lon="12.3239966"><ele>249.79999999999998</ele><time>2026-04-26T10:04:50.923Z</time></trkpt><trkpt lat="43.0644293" lon="12.3241246"><ele>250.20000000000002</ele><time>2026-04-26T10:04:53.03Z</time></trkpt><trkpt lat="43.0643966" lon="12.3242505"><ele>250.60000000000002</ele><time>2026-04-26T10:04:54.926Z</time></trkpt><trkpt lat="43.0643649" lon="12.3243597"><ele>251.0</ele><time>2026-04-26T10:04:56.935Z</time></trkpt><trkpt lat="43.0643309" lon="12.3244471"><ele>251.00000000000003</ele><time>2026-04-26T10:04:59.028Z</time></trkpt><trkpt lat="43.0643061" lon="12.32453"><ele>251.0</ele><time>2026-04-26T10:05:00.927Z</time></trkpt><trkpt lat="43.0642765" lon="12.3246223"><ele>251.0</ele><time>2026-04-26T10:05:02.931Z</time></trkpt><trkpt lat="43.0642521" lon="12.3247219"><ele>251.0</ele><time>2026-04-26T10:05:05.019Z</time></trkpt><trkpt lat="43.0642178" lon="12.324818"><ele>251.00000000000003</ele><time>2026-04-26T10:05:06.924Z</time></trkpt><trkpt lat="43.0641734" lon="12.3249077"><ele>251.0</ele><time>2026-04-26T10:05:08.928Z</time></trkpt><trkpt lat="43.0641245" lon="12.3250009"><ele>251.4</ele><time>2026-04-26T10:05:10.929Z</time></trkpt><trkpt lat="43.064072" lon="12.3250999"><ele>251.8</ele><time>2026-04-26T10:05:12.931Z</time></trkpt><trkpt lat="43.0640172" lon="12.3252046"><ele>252.20000000000002</ele><time>2026-04-26T10:05:14.928Z</time></trkpt><trkpt lat="43.063957" lon="12.3253064"><ele>252.60000000000002</ele><time>2026-04-26T10:05:16.929Z</time></trkpt><trkpt lat="43.0638941" lon="12.3254086"><ele>253.0</ele><time>2026-04-26T10:05:18.93Z</time></trkpt><trkpt lat="43.0638311" lon="12.3255017"><ele>253.0</ele><time>2026-04-26T10:05:20.927Z</time></trkpt><trkpt lat="43.0637823" lon="12.3256117"><ele>253.0</ele><time>2026-04-26T10:05:22.924Z</time></trkpt><trkpt lat="43.0637277" lon="12.3257219"><ele>253.0</ele><time>2026-04-26T10:05:24.93Z</time></trkpt><trkpt lat="43.0636709" lon="12.3258239"><ele>253.0</ele><time>2026-04-26T10:05:26.933Z</time></trkpt><trkpt lat="43.0636096" lon="12.3259268"><ele>253.0</ele><time>2026-04-26T10:05:28.931Z</time></trkpt><trkpt lat="43.063565" lon="12.3260413"><ele>253.0</ele><time>2026-04-26T10:05:30.921Z</time></trkpt><trkpt lat="43.0635107" lon="12.3261383"><ele>253.0</ele><time>2026-04-26T10:05:32.926Z</time></trkpt><trkpt lat="43.0634701" lon="12.3262504"><ele>253.0</ele><time>2026-04-26T10:05:34.928Z</time></trkpt><trkpt lat="43.0633956" lon="12.3263725"><ele>253.0</ele><time>2026-04-26T10:05:37.927Z</time></trkpt><trkpt lat="43.0633274" lon="12.3264551"><ele>253.0</ele><time>2026-04-26T10:05:40.931Z</time></trkpt><trkpt lat="43.0632669" lon="12.3264851"><ele>252.83333333333331</ele><time>2026-04-26T10:05:42.932Z</time></trkpt><trkpt lat="43.0631926" lon="12.3264671"><ele>252.66666666666666</ele><time>2026-04-26T10:05:44.912Z</time></trkpt><trkpt lat="43.0631209" lon="12.3264107"><ele>252.5</ele><time>2026-04-26T10:05:46.911Z</time></trkpt><trkpt lat="43.063042" lon="12.3263708"><ele>252.33333333333331</ele><time>2026-04-26T10:05:48.927Z</time></trkpt><trkpt lat="43.0629563" lon="12.3263348"><ele>252.16666666666666</ele><time>2026-04-26T10:05:50.925Z</time></trkpt><trkpt lat="43.062865" lon="12.3263043"><ele>252.0</ele><time>2026-04-26T10:05:52.924Z</time></trkpt><trkpt lat="43.0627613" lon="12.3262688"><ele>252.0</ele><time>2026-04-26T10:05:54.925Z</time></trkpt><trkpt lat="43.0626589" lon="12.326247"><ele>252.0</ele><time>2026-04-26T10:05:56.927Z</time></trkpt><trkpt lat="43.0625547" lon="12.3262167"><ele>252.0</ele><time>2026-04-26T10:05:58.927Z</time></trkpt><trkpt lat="43.0623954" lon="12.3261709"><ele>252.0</ele><time>2026-04-26T10:06:01.925Z</time></trkpt><trkpt lat="43.0622814" lon="12.3261709"><ele>250.8</ele><time>2026-04-26T10:06:03.935Z</time></trkpt><trkpt lat="43.0621747" lon="12.3262335"><ele>249.6</ele><time>2026-04-26T10:06:05.925Z</time></trkpt><trkpt lat="43.0620715" lon="12.3263247"><ele>248.40000000000003</ele><time>2026-04-26T10:06:07.909Z</time></trkpt><trkpt lat="43.0619648" lon="12.3264235"><ele>247.20000000000002</ele><time>2026-04-26T10:06:09.906Z</time></trkpt><trkpt lat="43.0619084" lon="12.3264738"><ele>246.0</ele><time>2026-04-26T10:06:10.919Z</time></trkpt><trkpt lat="43.061843" lon="12.3265224"><ele>245.83333333333334</ele><time>2026-04-26T10:06:11.918Z</time></trkpt><trkpt lat="43.0617833" lon="12.3265767"><ele>245.66666666666669</ele><time>2026-04-26T10:06:12.928Z</time></trkpt><trkpt lat="43.061714" lon="12.326632"><ele>245.5</ele><time>2026-04-26T10:06:13.908Z</time></trkpt><trkpt lat="43.0616454" lon="12.3266948"><ele>245.33333333333334</ele><time>2026-04-26T10:06:14.917Z</time></trkpt><trkpt lat="43.0615806" lon="12.3267671"><ele>245.16666666666669</ele><time>2026-04-26T10:06:15.928Z</time></trkpt><trkpt lat="43.0615063" lon="12.3268343"><ele>245.0</ele><time>2026-04-26T10:06:17.013Z</time></trkpt><trkpt lat="43.0614273" lon="12.3268919"><ele>244.2</ele><time>2026-04-26T10:06:17.913Z</time></trkpt><trkpt lat="43.0613535" lon="12.3269353"><ele>243.4</ele><time>2026-04-26T10:06:18.913Z</time></trkpt><trkpt lat="43.0612903" lon="12.3269382"><ele>242.60000000000002</ele><time>2026-04-26T10:06:19.907Z</time></trkpt><trkpt lat="43.0612171" lon="12.3268272"><ele>241.8</ele><time>2026-04-26T10:06:21.907Z</time></trkpt><trkpt lat="43.0611662" lon="12.3266955"><ele>241.0</ele><time>2026-04-26T10:06:23.914Z</time></trkpt><trkpt lat="43.0611115" lon="12.3265726"><ele>241.0</ele><time>2026-04-26T10:06:25.907Z</time></trkpt><trkpt lat="43.0610482" lon="12.3264548"><ele>241.00000000000003</ele><time>2026-04-26T10:06:27.911Z</time></trkpt><trkpt lat="43.060953" lon="12.3263744"><ele>241.00000000000003</ele><time>2026-04-26T10:06:29.905Z</time></trkpt><trkpt lat="43.0608918" lon="12.3263385"><ele>241.0</ele><time>2026-04-26T10:06:30.927Z</time></trkpt><trkpt lat="43.0607835" lon="12.3262993"><ele>241.0</ele><time>2026-04-26T10:06:32.921Z</time></trkpt><trkpt lat="43.0606706" lon="12.3262471"><ele>241.25</ele><time>2026-04-26T10:06:34.927Z</time></trkpt><trkpt lat="43.0605585" lon="12.3261935"><ele>241.5</ele><time>2026-04-26T10:06:36.926Z</time></trkpt><trkpt lat="43.0604551" lon="12.3261449"><ele>241.75</ele><time>2026-04-26T10:06:38.93Z</time></trkpt><trkpt lat="43.0603449" lon="12.3261021"><ele>242.0</ele><time>2026-04-26T10:06:40.925Z</time></trkpt><trkpt lat="43.060241" lon="12.3260448"><ele>242.00000000000003</ele><time>2026-04-26T10:06:42.934Z</time></trkpt><trkpt lat="43.0601451" lon="12.326016"><ele>242.0</ele><time>2026-04-26T10:06:44.925Z</time></trkpt><trkpt lat="43.0600446" lon="12.3259712"><ele>242.0</ele><time>2026-04-26T10:06:46.924Z</time></trkpt><trkpt lat="43.0599698" lon="12.3259252"><ele>242.0</ele><time>2026-04-26T10:06:48.926Z</time></trkpt><trkpt lat="43.0598879" lon="12.325896"><ele>242.00000000000003</ele><time>2026-04-26T10:06:50.931Z</time></trkpt><trkpt lat="43.0598175" lon="12.3258715"><ele>242.0</ele><time>2026-04-26T10:06:52.929Z</time></trkpt><trkpt lat="43.0597564" lon="12.325838"><ele>242.42857142857142</ele><time>2026-04-26T10:06:54.949Z</time></trkpt><trkpt lat="43.059695" lon="12.3257821"><ele>242.85714285714283</ele><time>2026-04-26T10:06:56.927Z</time></trkpt><trkpt lat="43.0596396" lon="12.3257222"><ele>243.28571428571428</ele><time>2026-04-26T10:06:58.925Z</time></trkpt><trkpt lat="43.0595939" lon="12.325651"><ele>243.71428571428572</ele><time>2026-04-26T10:07:00.926Z</time></trkpt><trkpt lat="43.0595408" lon="12.3255902"><ele>244.14285714285714</ele><time>2026-04-26T10:07:02.922Z</time></trkpt><trkpt lat="43.0594804" lon="12.3255345"><ele>244.57142857142856</ele><time>2026-04-26T10:07:04.937Z</time></trkpt><trkpt lat="43.0594174" lon="12.325483"><ele>245.0</ele><time>2026-04-26T10:07:06.926Z</time></trkpt><trkpt lat="43.0593505" lon="12.3254424"><ele>245.00000000000003</ele><time>2026-04-26T10:07:08.902Z</time></trkpt><trkpt lat="43.0592708" lon="12.3254606"><ele>245.0</ele><time>2026-04-26T10:07:10.932Z</time></trkpt><trkpt lat="43.0592002" lon="12.3255166"><ele>245.0</ele><time>2026-04-26T10:07:12.924Z</time></trkpt><trkpt lat="43.0591337" lon="12.3255809"><ele>245.0</ele><time>2026-04-26T10:07:14.922Z</time></trkpt><trkpt lat="43.0590677" lon="12.325642"><ele>245.00000000000003</ele><time>2026-04-26T10:07:16.935Z</time></trkpt><trkpt lat="43.0590003" lon="12.3256988"><ele>245.0</ele><time>2026-04-26T10:07:18.925Z</time></trkpt><trkpt lat="43.0589332" lon="12.3257514"><ele>246.33333333333334</ele><time>2026-04-26T10:07:20.922Z</time></trkpt><trkpt lat="43.058868" lon="12.325808"><ele>247.66666666666669</ele><time>2026-04-26T10:07:22.927Z</time></trkpt><trkpt lat="43.0588042" lon="12.3258623"><ele>249.0</ele><time>2026-04-26T10:07:24.923Z</time></trkpt><trkpt lat="43.0587402" lon="12.3259163"><ele>250.33333333333331</ele><time>2026-04-26T10:07:26.923Z</time></trkpt><trkpt lat="43.0586778" lon="12.3259683"><ele>251.66666666666666</ele><time>2026-04-26T10:07:28.935Z</time></trkpt><trkpt lat="43.0586149" lon="12.3260216"><ele>253.0</ele><time>2026-04-26T10:07:30.921Z</time></trkpt><trkpt lat="43.0585501" lon="12.3260744"><ele>253.00000000000003</ele><time>2026-04-26T10:07:32.924Z</time></trkpt><trkpt lat="43.058487" lon="12.3261278"><ele>253.0</ele><time>2026-04-26T10:07:34.927Z</time></trkpt><trkpt lat="43.0584264" lon="12.3261813"><ele>253.00000000000003</ele><time>2026-04-26T10:07:36.927Z</time></trkpt><trkpt lat="43.058369" lon="12.3262315"><ele>253.00000000000003</ele><time>2026-04-26T10:07:38.922Z</time></trkpt><trkpt lat="43.0583117" lon="12.3262797"><ele>253.0</ele><time>2026-04-26T10:07:40.909Z</time></trkpt><trkpt lat="43.0582579" lon="12.3263329"><ele>253.00000000000003</ele><time>2026-04-26T10:07:42.919Z</time></trkpt><trkpt lat="43.0582022" lon="12.3263842"><ele>253.00000000000003</ele><time>2026-04-26T10:07:44.922Z</time></trkpt><trkpt lat="43.0581445" lon="12.3264318"><ele>254.71428571428575</ele><time>2026-04-26T10:07:46.925Z</time></trkpt><trkpt lat="43.0580822" lon="12.3264739"><ele>256.42857142857144</ele><time>2026-04-26T10:07:48.921Z</time></trkpt><trkpt lat="43.0580206" lon="12.326517"><ele>258.1428571428571</ele><time>2026-04-26T10:07:50.922Z</time></trkpt><trkpt lat="43.0579551" lon="12.3265484"><ele>259.8571428571429</ele><time>2026-04-26T10:07:52.925Z</time></trkpt><trkpt lat="43.0578841" lon="12.3265588"><ele>261.57142857142856</ele><time>2026-04-26T10:07:54.923Z</time></trkpt><trkpt lat="43.0578176" lon="12.3265644"><ele>263.2857142857143</ele><time>2026-04-26T10:07:56.92Z</time></trkpt><trkpt lat="43.0577365" lon="12.3265828"><ele>265.0</ele><time>2026-04-26T10:07:59.923Z</time></trkpt><trkpt lat="43.0576579" lon="12.3265984"><ele>265.0</ele><time>2026-04-26T10:08:02.923Z</time></trkpt><trkpt lat="43.0575818" lon="12.3266458"><ele>265.0</ele><time>2026-04-26T10:08:05.922Z</time></trkpt><trkpt lat="43.0574939" lon="12.3266763"><ele>265.0</ele><time>2026-04-26T10:08:09.025Z</time></trkpt><trkpt lat="43.0574219" lon="12.3266924"><ele>265.0</ele><time>2026-04-26T10:08:10.922Z</time></trkpt><trkpt lat="43.0573512" lon="12.3267163"><ele>265.0</ele><time>2026-04-26T10:08:12.924Z</time></trkpt><trkpt lat="43.0572845" lon="12.3267723"><ele>265.0</ele><time>2026-04-26T10:08:14.926Z</time></trkpt><trkpt lat="43.0572164" lon="12.3268337"><ele>266.16666666666663</ele><time>2026-04-26T10:08:16.922Z</time></trkpt><trkpt lat="43.0571483" lon="12.3268895"><ele>267.3333333333333</ele><time>2026-04-26T10:08:18.925Z</time></trkpt><trkpt lat="43.0570793" lon="12.3269381"><ele>268.5</ele><time>2026-04-26T10:08:20.918Z</time></trkpt><trkpt lat="43.0570123" lon="12.3269867"><ele>269.6666666666667</ele><time>2026-04-26T10:08:22.925Z</time></trkpt><trkpt lat="43.0569424" lon="12.3270327"><ele>270.83333333333337</ele><time>2026-04-26T10:08:24.927Z</time></trkpt><trkpt lat="43.0568734" lon="12.3270744"><ele>272.0</ele><time>2026-04-26T10:08:26.922Z</time></trkpt><trkpt lat="43.0568075" lon="12.3271201"><ele>271.99999999999994</ele><time>2026-04-26T10:08:28.931Z</time></trkpt><trkpt lat="43.0567444" lon="12.3271705"><ele>272.0</ele><time>2026-04-26T10:08:30.924Z</time></trkpt><trkpt lat="43.0566808" lon="12.3272222"><ele>272.0</ele><time>2026-04-26T10:08:32.922Z</time></trkpt><trkpt lat="43.056616" lon="12.327275"><ele>272.0</ele><time>2026-04-26T10:08:34.934Z</time></trkpt><trkpt lat="43.056552" lon="12.3273322"><ele>272.0</ele><time>2026-04-26T10:08:36.924Z</time></trkpt><trkpt lat="43.0564888" lon="12.3273884"><ele>271.99999999999994</ele><time>2026-04-26T10:08:38.923Z</time></trkpt><trkpt lat="43.056425" lon="12.3274426"><ele>272.0</ele><time>2026-04-26T10:08:40.931Z</time></trkpt><trkpt lat="43.0563587" lon="12.3274971"><ele>273.1666666666667</ele><time>2026-04-26T10:08:42.924Z</time></trkpt><trkpt lat="43.0562908" lon="12.3275529"><ele>274.33333333333337</ele><time>2026-04-26T10:08:44.922Z</time></trkpt><trkpt lat="43.0562246" lon="12.3276117"><ele>275.5</ele><time>2026-04-26T10:08:46.932Z</time></trkpt><trkpt lat="43.0561565" lon="12.3276714"><ele>276.6666666666667</ele><time>2026-04-26T10:08:48.918Z</time></trkpt><trkpt lat="43.0560872" lon="12.327732"><ele>277.8333333333333</ele><time>2026-04-26T10:08:50.921Z</time></trkpt><trkpt lat="43.0560216" lon="12.3277938"><ele>279.0</ele><time>2026-04-26T10:08:52.925Z</time></trkpt><trkpt lat="43.0559528" lon="12.3278523"><ele>279.0</ele><time>2026-04-26T10:08:54.924Z</time></trkpt><trkpt lat="43.055884" lon="12.3279134"><ele>279.0</ele><time>2026-04-26T10:08:56.924Z</time></trkpt><trkpt lat="43.0558142" lon="12.3279709"><ele>279.0</ele><time>2026-04-26T10:08:58.921Z</time></trkpt><trkpt lat="43.055745" lon="12.3280282"><ele>279.0</ele><time>2026-04-26T10:09:00.925Z</time></trkpt><trkpt lat="43.0556812" lon="12.328087"><ele>279.0</ele><time>2026-04-26T10:09:02.926Z</time></trkpt><trkpt lat="43.0556158" lon="12.3281466"><ele>279.0</ele><time>2026-04-26T10:09:04.923Z</time></trkpt><trkpt lat="43.055544" lon="12.3282033"><ele>279.6666666666667</ele><time>2026-04-26T10:09:06.923Z</time></trkpt><trkpt lat="43.0554767" lon="12.3282616"><ele>280.3333333333333</ele><time>2026-04-26T10:09:08.923Z</time></trkpt><trkpt lat="43.0554117" lon="12.3283248"><ele>281.0</ele><time>2026-04-26T10:09:10.924Z</time></trkpt><trkpt lat="43.0553452" lon="12.328386"><ele>281.66666666666663</ele><time>2026-04-26T10:09:12.929Z</time></trkpt><trkpt lat="43.0552812" lon="12.3284457"><ele>282.3333333333333</ele><time>2026-04-26T10:09:14.929Z</time></trkpt><trkpt lat="43.0552166" lon="12.3285051"><ele>283.0</ele><time>2026-04-26T10:09:16.929Z</time></trkpt><trkpt lat="43.0551447" lon="12.3285569"><ele>283.0</ele><time>2026-04-26T10:09:18.923Z</time></trkpt><trkpt lat="43.0550609" lon="12.3285802"><ele>283.0</ele><time>2026-04-26T10:09:20.925Z</time></trkpt><trkpt lat="43.0549802" lon="12.3285741"><ele>283.0</ele><time>2026-04-26T10:09:22.932Z</time></trkpt><trkpt lat="43.0548997" lon="12.3285367"><ele>283.0</ele><time>2026-04-26T10:09:24.924Z</time></trkpt><trkpt lat="43.054825" lon="12.3284785"><ele>283.0</ele><time>2026-04-26T10:09:26.923Z</time></trkpt><trkpt lat="43.0547479" lon="12.328424"><ele>283.0</ele><time>2026-04-26T10:09:28.91Z</time></trkpt><trkpt lat="43.0546675" lon="12.3283796"><ele>283.66666666666663</ele><time>2026-04-26T10:09:30.921Z</time></trkpt><trkpt lat="43.0545847" lon="12.3283401"><ele>284.3333333333333</ele><time>2026-04-26T10:09:32.929Z</time></trkpt><trkpt lat="43.0544994" lon="12.3283021"><ele>285.0</ele><time>2026-04-26T10:09:34.927Z</time></trkpt><trkpt lat="43.0544171" lon="12.3282661"><ele>285.6666666666667</ele><time>2026-04-26T10:09:36.93Z</time></trkpt><trkpt lat="43.0543307" lon="12.3282303"><ele>286.33333333333337</ele><time>2026-04-26T10:09:38.927Z</time></trkpt><trkpt lat="43.0542457" lon="12.3281947"><ele>287.0</ele><time>2026-04-26T10:09:40.925Z</time></trkpt><trkpt lat="43.0541589" lon="12.3281604"><ele>287.4</ele><time>2026-04-26T10:09:42.921Z</time></trkpt><trkpt lat="43.0540681" lon="12.3281248"><ele>287.79999999999995</ele><time>2026-04-26T10:09:44.929Z</time></trkpt><trkpt lat="43.0539723" lon="12.328095"><ele>288.2</ele><time>2026-04-26T10:09:46.928Z</time></trkpt><trkpt lat="43.0538819" lon="12.3280544"><ele>288.59999999999997</ele><time>2026-04-26T10:09:48.923Z</time></trkpt><trkpt lat="43.053811" lon="12.3280079"><ele>289.0</ele><time>2026-04-26T10:09:50.923Z</time></trkpt><trkpt lat="43.0537269" lon="12.3279665"><ele>289.0</ele><time>2026-04-26T10:09:52.932Z</time></trkpt><trkpt lat="43.0536267" lon="12.327937"><ele>289.0</ele><time>2026-04-26T10:09:54.921Z</time></trkpt><trkpt lat="43.0535455" lon="12.3279124"><ele>289.0</ele><time>2026-04-26T10:09:56.93Z</time></trkpt><trkpt lat="43.0534842" lon="12.3279394"><ele>289.0</ele><time>2026-04-26T10:10:08.926Z</time></trkpt><trkpt lat="43.0534145" lon="12.3279677"><ele>289.0</ele><time>2026-04-26T10:10:14.928Z</time></trkpt><trkpt lat="43.0533743" lon="12.3280434"><ele>289.0</ele><time>2026-04-26T10:12:40.912Z</time></trkpt><trkpt lat="43.0533618" lon="12.3281307"><ele>289.14285714285717</ele><time>2026-04-26T10:12:43.923Z</time></trkpt><trkpt lat="43.0533333" lon="12.3282449"><ele>289.2857142857143</ele><time>2026-04-26T10:12:46.928Z</time></trkpt><trkpt lat="43.0533182" lon="12.3283336"><ele>289.42857142857144</ele><time>2026-04-26T10:12:48.922Z</time></trkpt><trkpt lat="43.0533127" lon="12.3284239"><ele>289.57142857142856</ele><time>2026-04-26T10:12:50.923Z</time></trkpt><trkpt lat="43.0532937" lon="12.3285097"><ele>289.7142857142857</ele><time>2026-04-26T10:12:52.929Z</time></trkpt><trkpt lat="43.0532733" lon="12.3285955"><ele>289.8571428571429</ele><time>2026-04-26T10:12:54.922Z</time></trkpt><trkpt lat="43.0532488" lon="12.3287165"><ele>290.0</ele><time>2026-04-26T10:12:57.926Z</time></trkpt><trkpt lat="43.0532291" lon="12.3288054"><ele>290.7142857142857</ele><time>2026-04-26T10:12:59.93Z</time></trkpt><trkpt lat="43.053215" lon="12.3288903"><ele>291.42857142857144</ele><time>2026-04-26T10:13:01.928Z</time></trkpt><trkpt lat="43.0531923" lon="12.3289811"><ele>292.14285714285717</ele><time>2026-04-26T10:13:03.919Z</time></trkpt><trkpt lat="43.053164" lon="12.3290679"><ele>292.8571428571429</ele><time>2026-04-26T10:13:05.924Z</time></trkpt><trkpt lat="43.0531176" lon="12.329142"><ele>293.57142857142856</ele><time>2026-04-26T10:13:07.922Z</time></trkpt><trkpt lat="43.053056" lon="12.3291812"><ele>294.28571428571433</ele><time>2026-04-26T10:13:09.911Z</time></trkpt><trkpt lat="43.0529816" lon="12.3291761"><ele>295.0</ele><time>2026-04-26T10:13:11.92Z</time></trkpt><trkpt lat="43.0529088" lon="12.3291638"><ele>295.00000000000006</ele><time>2026-04-26T10:13:13.92Z</time></trkpt><trkpt lat="43.0528367" lon="12.3291451"><ele>295.0</ele><time>2026-04-26T10:13:16.033Z</time></trkpt><trkpt lat="43.0527661" lon="12.3291225"><ele>295.0</ele><time>2026-04-26T10:13:17.923Z</time></trkpt><trkpt lat="43.052698" lon="12.3291086"><ele>295.0</ele><time>2026-04-26T10:13:19.91Z</time></trkpt><trkpt lat="43.0526145" lon="12.3290896"><ele>295.0</ele><time>2026-04-26T10:13:22.931Z</time></trkpt><trkpt lat="43.0525757" lon="12.3290057"><ele>295.00000000000006</ele><time>2026-04-26T10:13:27.915Z</time></trkpt><trkpt lat="43.0525052" lon="12.3289871"><ele>295.0</ele><time>2026-04-26T10:13:29.945Z</time></trkpt><trkpt lat="43.052434" lon="12.3289792"><ele>295.3333333333333</ele><time>2026-04-26T10:13:31.918Z</time></trkpt><trkpt lat="43.0523653" lon="12.3289618"><ele>295.66666666666663</ele><time>2026-04-26T10:13:33.921Z</time></trkpt><trkpt lat="43.0522962" lon="12.3289382"><ele>296.0</ele><time>2026-04-26T10:13:35.925Z</time></trkpt><trkpt lat="43.0522229" lon="12.3289103"><ele>296.3333333333333</ele><time>2026-04-26T10:13:37.933Z</time></trkpt><trkpt lat="43.0521464" lon="12.3288815"><ele>296.6666666666667</ele><time>2026-04-26T10:13:39.923Z</time></trkpt><trkpt lat="43.0520683" lon="12.3288484"><ele>297.0</ele><time>2026-04-26T10:13:41.923Z</time></trkpt><trkpt lat="43.0519882" lon="12.3288188"><ele>297.0</ele><time>2026-04-26T10:13:43.931Z</time></trkpt><trkpt lat="43.0519078" lon="12.3287931"><ele>297.0</ele><time>2026-04-26T10:13:45.918Z</time></trkpt><trkpt lat="43.0518249" lon="12.3287703"><ele>297.0</ele><time>2026-04-26T10:13:47.94Z</time></trkpt><trkpt lat="43.0517466" lon="12.3287415"><ele>297.0</ele><time>2026-04-26T10:13:49.933Z</time></trkpt><trkpt lat="43.0516678" lon="12.3287123"><ele>297.0</ele><time>2026-04-26T10:13:51.918Z</time></trkpt><trkpt lat="43.0515888" lon="12.3286818"><ele>297.0</ele><time>2026-04-26T10:13:53.922Z</time></trkpt><trkpt lat="43.0515062" lon="12.3286647"><ele>296.8333333333333</ele><time>2026-04-26T10:13:55.927Z</time></trkpt><trkpt lat="43.051423" lon="12.3286775"><ele>296.6666666666667</ele><time>2026-04-26T10:13:57.924Z</time></trkpt><trkpt lat="43.0513646" lon="12.3287467"><ele>296.5</ele><time>2026-04-26T10:13:59.925Z</time></trkpt><trkpt lat="43.051331" lon="12.3288489"><ele>296.33333333333337</ele><time>2026-04-26T10:14:01.925Z</time></trkpt><trkpt lat="43.05132" lon="12.328969"><ele>296.1666666666667</ele><time>2026-04-26T10:14:03.922Z</time></trkpt><trkpt lat="43.0513208" lon="12.3290983"><ele>296.0</ele><time>2026-04-26T10:14:05.922Z</time></trkpt><trkpt lat="43.0513329" lon="12.3292288"><ele>295.8</ele><time>2026-04-26T10:14:07.92Z</time></trkpt><trkpt lat="43.0513428" lon="12.3293724"><ele>295.6</ele><time>2026-04-26T10:14:09.921Z</time></trkpt><trkpt lat="43.0513522" lon="12.3295192"><ele>295.4</ele><time>2026-04-26T10:14:11.931Z</time></trkpt><trkpt lat="43.0513676" lon="12.3296683"><ele>295.2</ele><time>2026-04-26T10:14:13.916Z</time></trkpt><trkpt lat="43.0513721" lon="12.3297939"><ele>295.0</ele><time>2026-04-26T10:14:15.928Z</time></trkpt><trkpt lat="43.051379" lon="12.3299085"><ele>295.3333333333333</ele><time>2026-04-26T10:14:17.921Z</time></trkpt><trkpt lat="43.0513729" lon="12.330004"><ele>295.66666666666663</ele><time>2026-04-26T10:14:20.035Z</time></trkpt><trkpt lat="43.0513379" lon="12.3301087"><ele>296.0</ele><time>2026-04-26T10:14:21.917Z</time></trkpt><trkpt lat="43.0512833" lon="12.3302003"><ele>296.3333333333333</ele><time>2026-04-26T10:14:23.922Z</time></trkpt><trkpt lat="43.0512227" lon="12.3302699"><ele>296.6666666666667</ele><time>2026-04-26T10:14:25.929Z</time></trkpt><trkpt lat="43.0511732" lon="12.330333"><ele>297.0</ele><time>2026-04-26T10:14:27.92Z</time></trkpt><trkpt lat="43.0511248" lon="12.3304127"><ele>297.0</ele><time>2026-04-26T10:14:30.921Z</time></trkpt><trkpt lat="43.0510523" lon="12.3304041"><ele>297.0</ele><time>2026-04-26T10:15:17.907Z</time></trkpt><trkpt lat="43.0509818" lon="12.3303687"><ele>297.0</ele><time>2026-04-26T10:15:23.904Z</time></trkpt><trkpt lat="43.050961" lon="12.3304525"><ele>297.0</ele><time>2026-04-26T10:15:44.922Z</time></trkpt><trkpt lat="43.0509261" lon="12.3303531"><ele>297.0</ele><time>2026-04-26T10:15:50.907Z</time></trkpt><trkpt lat="43.0509621" lon="12.330429"><ele>297.0</ele><time>2026-04-26T10:16:06.838Z</time></trkpt><trkpt lat="43.0510364" lon="12.3304301"><ele>297.0</ele><time>2026-04-26T10:17:13.921Z</time></trkpt><trkpt lat="43.0512259" lon="12.3304133"><ele>297.0</ele><time>2026-04-26T10:19:11.042Z</time></trkpt><trkpt lat="43.0514389" lon="12.3303454"><ele>297.0</ele><time>2026-04-26T10:19:19.92Z</time></trkpt><trkpt lat="43.0512847" lon="12.3304078"><ele>297.0</ele><time>2026-04-26T10:19:20.922Z</time></trkpt><trkpt lat="43.0512088" lon="12.330455"><ele>297.0</ele><time>2026-04-26T10:19:22.925Z</time></trkpt><trkpt lat="43.0511296" lon="12.3305283"><ele>297.0</ele><time>2026-04-26T10:20:49.91Z</time></trkpt><trkpt lat="43.050931" lon="12.3304671"><ele>297.0</ele><time>2026-04-26T10:20:50.906Z</time></trkpt><trkpt lat="43.0507419" lon="12.3304098"><ele>290.0</ele><time>2026-04-26T10:20:51.924Z</time></trkpt><trkpt lat="43.0503462" lon="12.3302974"><ele>283.0</ele><time>2026-04-26T10:20:52.931Z</time></trkpt><trkpt lat="43.0502616" lon="12.3303011"><ele>283.0</ele><time>2026-04-26T10:20:55.907Z</time></trkpt><trkpt lat="43.0501974" lon="12.3303186"><ele>283.0</ele><time>2026-04-26T10:20:59.932Z</time></trkpt><trkpt lat="43.0502991" lon="12.3303451"><ele>283.0</ele><time>2026-04-26T10:21:00.921Z</time></trkpt><trkpt lat="43.0503862" lon="12.3303659"><ele>283.0</ele><time>2026-04-26T10:21:01.933Z</time></trkpt><trkpt lat="43.0507898" lon="12.33038"><ele>286.5</ele><time>2026-04-26T10:21:02.914Z</time></trkpt><trkpt lat="43.0510682" lon="12.3303986"><ele>290.0</ele><time>2026-04-26T10:21:20.913Z</time></trkpt><trkpt lat="43.0509835" lon="12.3304363"><ele>293.5</ele><time>2026-04-26T10:21:28.909Z</time></trkpt><trkpt lat="43.0509432" lon="12.330505"><ele>297.0</ele><time>2026-04-26T10:21:32.908Z</time></trkpt><trkpt lat="43.0508881" lon="12.3305512"><ele>297.0</ele><time>2026-04-26T10:21:37.027Z</time></trkpt><trkpt lat="43.0507498" lon="12.3304726"><ele>297.0</ele><time>2026-04-26T10:21:38.915Z</time></trkpt><trkpt lat="43.0506716" lon="12.3303952"><ele>297.0</ele><time>2026-04-26T10:21:40.924Z</time></trkpt><trkpt lat="43.0509093" lon="12.3305187"><ele>297.0</ele><time>2026-04-26T10:21:49.917Z</time></trkpt><trkpt lat="43.0509676" lon="12.3305718"><ele>298.0</ele><time>2026-04-26T10:21:51.923Z</time></trkpt><trkpt lat="43.0511032" lon="12.3305595"><ele>298.0</ele><time>2026-04-26T10:22:00.023Z</time></trkpt><trkpt lat="43.0511667" lon="12.3305447"><ele>297.0</ele><time>2026-04-26T10:22:05.99Z</time></trkpt><trkpt lat="43.0512007" lon="12.3304493"><ele>297.0</ele><time>2026-04-26T10:22:10.928Z</time></trkpt><trkpt lat="43.0512135" lon="12.3303536"><ele>297.0</ele><time>2026-04-26T10:22:15.928Z</time></trkpt></trkseg></trk></gpx>